<?xml version='1.0' encoding='UTF-8'?><gpx version="1.1" creator="JPX - https://github.com/jenetics/jpx" xmlns="http://www.topografix.com/GPX/1/1"><trk><trkseg><trkpt lat="43.4219673" lon="11.1811771"><ele>174.0</ele><time>2026-05-03T06:34:10.393Z</time></trkpt><trkpt lat="43.4220331" lon="11.1812153"><ele>174.0</ele><time>2026-05-03T06:35:03.412Z</time></trkpt><trkpt lat="43.4220975" lon="11.1811961"><ele>174.0</ele><time>2026-05-03T06:35:12.408Z</time></trkpt><trkpt lat="43.4221616" lon="11.1811687"><ele>174.0</ele><time>2026-05-03T06:35:16.404Z</time></trkpt><trkpt lat="43.4222266" lon="11.1811276"><ele>174.0</ele><time>2026-05-03T06:35:20.396Z</time></trkpt><trkpt lat="43.4222511" lon="11.1812294"><ele>174.0</ele><time>2026-05-03T06:35:25.406Z</time></trkpt><trkpt lat="43.422261" lon="11.1813331"><ele>174.0</ele><time>2026-05-03T06:35:28.472Z</time></trkpt><trkpt lat="43.422285" lon="11.1814152"><ele>174.14285714285714</ele><time>2026-05-03T06:35:30.403Z</time></trkpt><trkpt lat="43.4223111" lon="11.1814987"><ele>174.28571428571428</ele><time>2026-05-03T06:35:32.415Z</time></trkpt><trkpt lat="43.4223233" lon="11.1815842"><ele>174.42857142857144</ele><time>2026-05-03T06:35:34.388Z</time></trkpt><trkpt lat="43.4223008" lon="11.1816882"><ele>174.57142857142856</ele><time>2026-05-03T06:35:37.406Z</time></trkpt><trkpt lat="43.4222501" lon="11.1817679"><ele>174.71428571428572</ele><time>2026-05-03T06:35:40.419Z</time></trkpt><trkpt lat="43.4221932" lon="11.1818255"><ele>174.85714285714286</ele><time>2026-05-03T06:35:43.424Z</time></trkpt><trkpt lat="43.4221385" lon="11.181888"><ele>175.0</ele><time>2026-05-03T06:35:46.412Z</time></trkpt><trkpt lat="43.4220941" lon="11.1819773"><ele>175.0</ele><time>2026-05-03T06:35:51.428Z</time></trkpt><trkpt lat="43.4220655" lon="11.182059"><ele>175.0</ele><time>2026-05-03T06:35:54.415Z</time></trkpt><trkpt lat="43.4220741" lon="11.182157"><ele>175.0</ele><time>2026-05-03T06:35:57.399Z</time></trkpt><trkpt lat="43.4220892" lon="11.1822495"><ele>175.0</ele><time>2026-05-03T06:36:00.415Z</time></trkpt><trkpt lat="43.422119" lon="11.1823502"><ele>175.0</ele><time>2026-05-03T06:36:03.408Z</time></trkpt><trkpt lat="43.4221574" lon="11.1824397"><ele>175.0</ele><time>2026-05-03T06:36:06.409Z</time></trkpt><trkpt lat="43.422204" lon="11.1825454"><ele>174.71428571428572</ele><time>2026-05-03T06:36:09.484Z</time></trkpt><trkpt lat="43.4221994" lon="11.1826344"><ele>174.42857142857144</ele><time>2026-05-03T06:36:11.421Z</time></trkpt><trkpt lat="43.4222751" lon="11.1826364"><ele>174.14285714285714</ele><time>2026-05-03T06:36:15.411Z</time></trkpt><trkpt lat="43.4223334" lon="11.1826034"><ele>173.85714285714286</ele><time>2026-05-03T06:36:17.416Z</time></trkpt><trkpt lat="43.4223936" lon="11.1825716"><ele>173.57142857142858</ele><time>2026-05-03T06:36:19.425Z</time></trkpt><trkpt lat="43.4224535" lon="11.1825294"><ele>173.28571428571428</ele><time>2026-05-03T06:36:21.415Z</time></trkpt><trkpt lat="43.4225116" lon="11.1824812"><ele>173.0</ele><time>2026-05-03T06:36:23.496Z</time></trkpt><trkpt lat="43.4225816" lon="11.182424"><ele>173.0</ele><time>2026-05-03T06:36:26.407Z</time></trkpt><trkpt lat="43.4226702" lon="11.1823826"><ele>173.0</ele><time>2026-05-03T06:36:29.484Z</time></trkpt><trkpt lat="43.422734" lon="11.1823641"><ele>173.0</ele><time>2026-05-03T06:36:31.407Z</time></trkpt><trkpt lat="43.4228054" lon="11.1823602"><ele>173.0</ele><time>2026-05-03T06:36:33.495Z</time></trkpt><trkpt lat="43.4228779" lon="11.1823539"><ele>173.0</ele><time>2026-05-03T06:36:35.403Z</time></trkpt><trkpt lat="43.4229733" lon="11.1823747"><ele>173.0</ele><time>2026-05-03T06:36:37.409Z</time></trkpt><trkpt lat="43.4230359" lon="11.1823893"><ele>172.25</ele><time>2026-05-03T06:36:38.475Z</time></trkpt><trkpt lat="43.4231307" lon="11.1824309"><ele>171.5</ele><time>2026-05-03T06:36:40.392Z</time></trkpt><trkpt lat="43.4231618" lon="11.1825279"><ele>170.75</ele><time>2026-05-03T06:36:43.487Z</time></trkpt><trkpt lat="43.4232579" lon="11.1828097"><ele>170.0</ele><time>2026-05-03T06:36:48.4Z</time></trkpt><trkpt lat="43.4232384" lon="11.1829383"><ele>170.0</ele><time>2026-05-03T06:36:49.408Z</time></trkpt><trkpt lat="43.4231984" lon="11.1827241"><ele>170.0</ele><time>2026-05-03T06:36:50.411Z</time></trkpt><trkpt lat="43.4234743" lon="11.1827061"><ele>170.0</ele><time>2026-05-03T06:36:54.41Z</time></trkpt><trkpt lat="43.4235521" lon="11.1827002"><ele>170.0</ele><time>2026-05-03T06:36:56.395Z</time></trkpt><trkpt lat="43.4236174" lon="11.1827097"><ele>170.0</ele><time>2026-05-03T06:36:58.47Z</time></trkpt><trkpt lat="43.4236856" lon="11.1826957"><ele>170.0</ele><time>2026-05-03T06:37:00.404Z</time></trkpt><trkpt lat="43.4237802" lon="11.1826672"><ele>170.0</ele><time>2026-05-03T06:37:03.419Z</time></trkpt><trkpt lat="43.4238592" lon="11.1826844"><ele>170.0</ele><time>2026-05-03T06:37:05.404Z</time></trkpt><trkpt lat="43.4239394" lon="11.1827091"><ele>170.0</ele><time>2026-05-03T06:37:07.415Z</time></trkpt><trkpt lat="43.4240184" lon="11.182717"><ele>169.16666666666666</ele><time>2026-05-03T06:37:09.48Z</time></trkpt><trkpt lat="43.4240921" lon="11.1827337"><ele>168.33333333333331</ele><time>2026-05-03T06:37:11.412Z</time></trkpt><trkpt lat="43.4241642" lon="11.1827547"><ele>167.5</ele><time>2026-05-03T06:37:13.487Z</time></trkpt><trkpt lat="43.4242623" lon="11.1827753"><ele>166.66666666666666</ele><time>2026-05-03T06:37:16.417Z</time></trkpt><trkpt lat="43.4243412" lon="11.1827963"><ele>165.83333333333334</ele><time>2026-05-03T06:37:18.485Z</time></trkpt><trkpt lat="43.4244097" lon="11.1828146"><ele>165.0</ele><time>2026-05-03T06:37:20.416Z</time></trkpt><trkpt lat="43.4244757" lon="11.1828378"><ele>165.0</ele><time>2026-05-03T06:37:22.418Z</time></trkpt><trkpt lat="43.4245703" lon="11.182848"><ele>165.0</ele><time>2026-05-03T06:37:25.406Z</time></trkpt><trkpt lat="43.4246358" lon="11.1828681"><ele>165.0</ele><time>2026-05-03T06:37:27.394Z</time></trkpt><trkpt lat="43.4246537" lon="11.1827716"><ele>165.0</ele><time>2026-05-03T06:37:30.417Z</time></trkpt><trkpt lat="43.4246437" lon="11.1826728"><ele>165.0</ele><time>2026-05-03T06:37:32.42Z</time></trkpt><trkpt lat="43.4246231" lon="11.1825886"><ele>165.0</ele><time>2026-05-03T06:37:34.468Z</time></trkpt><trkpt lat="43.4246829" lon="11.1826753"><ele>163.75</ele><time>2026-05-03T06:37:41.405Z</time></trkpt><trkpt lat="43.4247387" lon="11.1827985"><ele>162.5</ele><time>2026-05-03T06:37:43.489Z</time></trkpt><trkpt lat="43.4247904" lon="11.1829063"><ele>161.25</ele><time>2026-05-03T06:37:46.408Z</time></trkpt><trkpt lat="43.4248604" lon="11.1830003"><ele>160.0</ele><time>2026-05-03T06:37:48.411Z</time></trkpt><trkpt lat="43.4249875" lon="11.1832028"><ele>160.0</ele><time>2026-05-03T06:37:52.481Z</time></trkpt><trkpt lat="43.4250849" lon="11.1832943"><ele>160.0</ele><time>2026-05-03T06:37:54.394Z</time></trkpt><trkpt lat="43.4251686" lon="11.1833716"><ele>160.0</ele><time>2026-05-03T06:37:56.411Z</time></trkpt><trkpt lat="43.4252533" lon="11.1833589"><ele>160.0</ele><time>2026-05-03T06:37:58.413Z</time></trkpt><trkpt lat="43.4253303" lon="11.1832622"><ele>160.0</ele><time>2026-05-03T06:38:00.422Z</time></trkpt><trkpt lat="43.4253896" lon="11.1831275"><ele>160.0</ele><time>2026-05-03T06:38:02.428Z</time></trkpt><trkpt lat="43.4254498" lon="11.1829862"><ele>160.0</ele><time>2026-05-03T06:38:04.478Z</time></trkpt><trkpt lat="43.4255184" lon="11.182846"><ele>160.0</ele><time>2026-05-03T06:38:06.409Z</time></trkpt><trkpt lat="43.4255534" lon="11.1827683"><ele>160.0</ele><time>2026-05-03T06:38:07.413Z</time></trkpt><trkpt lat="43.4255872" lon="11.1826906"><ele>160.0</ele><time>2026-05-03T06:38:08.41Z</time></trkpt><trkpt lat="43.4256222" lon="11.1826119"><ele>160.0</ele><time>2026-05-03T06:38:09.499Z</time></trkpt><trkpt lat="43.4256566" lon="11.1825368"><ele>157.85714285714286</ele><time>2026-05-03T06:38:10.41Z</time></trkpt><trkpt lat="43.4256916" lon="11.182457"><ele>155.71428571428572</ele><time>2026-05-03T06:38:11.409Z</time></trkpt><trkpt lat="43.4257256" lon="11.1823732"><ele>153.57142857142858</ele><time>2026-05-03T06:38:12.415Z</time></trkpt><trkpt lat="43.4257618" lon="11.182292"><ele>151.42857142857144</ele><time>2026-05-03T06:38:13.495Z</time></trkpt><trkpt lat="43.425799" lon="11.1822195"><ele>149.2857142857143</ele><time>2026-05-03T06:38:14.487Z</time></trkpt><trkpt lat="43.4258402" lon="11.182151"><ele>147.14285714285714</ele><time>2026-05-03T06:38:15.449Z</time></trkpt><trkpt lat="43.4258924" lon="11.1820998"><ele>145.0</ele><time>2026-05-03T06:38:16.404Z</time></trkpt><trkpt lat="43.4259549" lon="11.1820733"><ele>145.0</ele><time>2026-05-03T06:38:17.422Z</time></trkpt><trkpt lat="43.4260187" lon="11.1820737"><ele>145.0</ele><time>2026-05-03T06:38:18.499Z</time></trkpt><trkpt lat="43.4261348" lon="11.1820777"><ele>145.0</ele><time>2026-05-03T06:38:20.416Z</time></trkpt><trkpt lat="43.4263124" lon="11.1820883"><ele>145.0</ele><time>2026-05-03T06:38:23.486Z</time></trkpt><trkpt lat="43.4263927" lon="11.1821383"><ele>145.0</ele><time>2026-05-03T06:38:25.41Z</time></trkpt><trkpt lat="43.426501" lon="11.1821787"><ele>144.66666666666669</ele><time>2026-05-03T06:38:27.42Z</time></trkpt><trkpt lat="43.4265843" lon="11.1821585"><ele>144.33333333333334</ele><time>2026-05-03T06:38:29.412Z</time></trkpt><trkpt lat="43.4266444" lon="11.1821286"><ele>144.0</ele><time>2026-05-03T06:38:31.409Z</time></trkpt><trkpt lat="43.4267301" lon="11.1820854"><ele>143.66666666666666</ele><time>2026-05-03T06:38:34.417Z</time></trkpt><trkpt lat="43.4268033" lon="11.1820512"><ele>143.33333333333331</ele><time>2026-05-03T06:38:37.423Z</time></trkpt><trkpt lat="43.4268822" lon="11.1820146"><ele>143.0</ele><time>2026-05-03T06:38:40.42Z</time></trkpt><trkpt lat="43.4269512" lon="11.1819806"><ele>143.0</ele><time>2026-05-03T06:38:43.419Z</time></trkpt><trkpt lat="43.4270294" lon="11.1819503"><ele>143.0</ele><time>2026-05-03T06:38:46.414Z</time></trkpt><trkpt lat="43.4271211" lon="11.181928"><ele>143.0</ele><time>2026-05-03T06:38:49.47Z</time></trkpt><trkpt lat="43.4271864" lon="11.1818996"><ele>143.0</ele><time>2026-05-03T06:38:53.412Z</time></trkpt><trkpt lat="43.4272597" lon="11.1818439"><ele>143.0</ele><time>2026-05-03T06:38:56.417Z</time></trkpt><trkpt lat="43.4273458" lon="11.181796"><ele>143.0</ele><time>2026-05-03T06:38:59.391Z</time></trkpt><trkpt lat="43.4274079" lon="11.1817501"><ele>143.83333333333331</ele><time>2026-05-03T06:39:01.403Z</time></trkpt><trkpt lat="43.4274769" lon="11.1817093"><ele>144.66666666666666</ele><time>2026-05-03T06:39:03.425Z</time></trkpt><trkpt lat="43.4275615" lon="11.1816805"><ele>145.5</ele><time>2026-05-03T06:39:05.413Z</time></trkpt><trkpt lat="43.4276499" lon="11.1816861"><ele>146.33333333333334</ele><time>2026-05-03T06:39:07.422Z</time></trkpt><trkpt lat="43.4277223" lon="11.1817152"><ele>147.16666666666669</ele><time>2026-05-03T06:39:09.408Z</time></trkpt><trkpt lat="43.4277969" lon="11.1817882"><ele>148.0</ele><time>2026-05-03T06:39:12.419Z</time></trkpt><trkpt lat="43.4278723" lon="11.1818048"><ele>148.0</ele><time>2026-05-03T06:39:15.433Z</time></trkpt><trkpt lat="43.4279404" lon="11.1818203"><ele>148.0</ele><time>2026-05-03T06:39:18.406Z</time></trkpt><trkpt lat="43.4280121" lon="11.1818141"><ele>148.0</ele><time>2026-05-03T06:39:22.422Z</time></trkpt><trkpt lat="43.428065" lon="11.1817432"><ele>148.0</ele><time>2026-05-03T06:39:27.416Z</time></trkpt><trkpt lat="43.4281029" lon="11.1816737"><ele>148.0</ele><time>2026-05-03T06:39:31.404Z</time></trkpt><trkpt lat="43.4281474" lon="11.1816085"><ele>148.0</ele><time>2026-05-03T06:39:35.396Z</time></trkpt><trkpt lat="43.4281877" lon="11.1815162"><ele>148.0</ele><time>2026-05-03T06:39:40.406Z</time></trkpt><trkpt lat="43.4282192" lon="11.1814144"><ele>148.57142857142858</ele><time>2026-05-03T06:39:44.419Z</time></trkpt><trkpt lat="43.4282616" lon="11.181338"><ele>149.14285714285714</ele><time>2026-05-03T06:39:48.412Z</time></trkpt><trkpt lat="43.4283101" lon="11.1812571"><ele>149.71428571428572</ele><time>2026-05-03T06:39:53.384Z</time></trkpt><trkpt lat="43.4283529" lon="11.181179"><ele>150.28571428571428</ele><time>2026-05-03T06:39:58.469Z</time></trkpt><trkpt lat="43.4283958" lon="11.1810977"><ele>150.85714285714286</ele><time>2026-05-03T06:40:03.417Z</time></trkpt><trkpt lat="43.4284507" lon="11.1810297"><ele>151.42857142857142</ele><time>2026-05-03T06:40:07.395Z</time></trkpt><trkpt lat="43.4284889" lon="11.180946"><ele>152.0</ele><time>2026-05-03T06:40:10.413Z</time></trkpt><trkpt lat="43.4285276" lon="11.1808589"><ele>152.0</ele><time>2026-05-03T06:40:15.419Z</time></trkpt><trkpt lat="43.4285676" lon="11.180788"><ele>152.0</ele><time>2026-05-03T06:40:19.411Z</time></trkpt><trkpt lat="43.428602" lon="11.1807092"><ele>152.0</ele><time>2026-05-03T06:40:23.402Z</time></trkpt><trkpt lat="43.4286509" lon="11.18064"><ele>152.0</ele><time>2026-05-03T06:40:28.414Z</time></trkpt><trkpt lat="43.4287068" lon="11.1805884"><ele>152.0</ele><time>2026-05-03T06:40:33.417Z</time></trkpt><trkpt lat="43.4287732" lon="11.1805846"><ele>152.0</ele><time>2026-05-03T06:40:38.419Z</time></trkpt><trkpt lat="43.4288438" lon="11.1806066"><ele>152.0</ele><time>2026-05-03T06:40:42.421Z</time></trkpt><trkpt lat="43.4289034" lon="11.1806445"><ele>153.16666666666666</ele><time>2026-05-03T06:40:47.418Z</time></trkpt><trkpt lat="43.4289625" lon="11.1807123"><ele>154.33333333333331</ele><time>2026-05-03T06:40:52.418Z</time></trkpt><trkpt lat="43.4290189" lon="11.180781"><ele>155.5</ele><time>2026-05-03T06:40:56.415Z</time></trkpt><trkpt lat="43.4290737" lon="11.1808556"><ele>156.66666666666666</ele><time>2026-05-03T06:41:00.418Z</time></trkpt><trkpt lat="43.4291217" lon="11.1809438"><ele>157.83333333333334</ele><time>2026-05-03T06:41:04.412Z</time></trkpt><trkpt lat="43.4291818" lon="11.1810195"><ele>159.0</ele><time>2026-05-03T06:41:08.416Z</time></trkpt><trkpt lat="43.4292394" lon="11.1810682"><ele>159.0</ele><time>2026-05-03T06:41:11.415Z</time></trkpt><trkpt lat="43.4292987" lon="11.1811065"><ele>159.0</ele><time>2026-05-03T06:41:14.411Z</time></trkpt><trkpt lat="43.4293834" lon="11.1811186"><ele>159.0</ele><time>2026-05-03T06:41:17.421Z</time></trkpt><trkpt lat="43.4294554" lon="11.1811397"><ele>159.0</ele><time>2026-05-03T06:41:21.419Z</time></trkpt><trkpt lat="43.4295332" lon="11.1811151"><ele>159.0</ele><time>2026-05-03T06:41:25.418Z</time></trkpt><trkpt lat="43.4295961" lon="11.181096"><ele>159.0</ele><time>2026-05-03T06:41:28.407Z</time></trkpt><trkpt lat="43.4296725" lon="11.1810847"><ele>159.0</ele><time>2026-05-03T06:41:32.428Z</time></trkpt><trkpt lat="43.4297442" lon="11.181063"><ele>159.57142857142856</ele><time>2026-05-03T06:41:36.426Z</time></trkpt><trkpt lat="43.4298177" lon="11.1810391"><ele>160.14285714285717</ele><time>2026-05-03T06:41:40.417Z</time></trkpt><trkpt lat="43.4298944" lon="11.181025"><ele>160.71428571428572</ele><time>2026-05-03T06:41:44.406Z</time></trkpt><trkpt lat="43.4299626" lon="11.1810044"><ele>161.28571428571428</ele><time>2026-05-03T06:41:48.482Z</time></trkpt><trkpt lat="43.4300324" lon="11.1809633"><ele>161.85714285714283</ele><time>2026-05-03T06:41:52.419Z</time></trkpt><trkpt lat="43.4300921" lon="11.1808924"><ele>162.42857142857144</ele><time>2026-05-03T06:41:56.415Z</time></trkpt><trkpt lat="43.4301602" lon="11.1808638"><ele>163.0</ele><time>2026-05-03T06:41:59.488Z</time></trkpt><trkpt lat="43.4302225" lon="11.1808814"><ele>163.0</ele><time>2026-05-03T06:42:02.421Z</time></trkpt><trkpt lat="43.4302857" lon="11.1809366"><ele>163.0</ele><time>2026-05-03T06:42:06.404Z</time></trkpt><trkpt lat="43.4303536" lon="11.1809934"><ele>163.0</ele><time>2026-05-03T06:42:10.422Z</time></trkpt><trkpt lat="43.430398" lon="11.1810577"><ele>163.0</ele><time>2026-05-03T06:42:13.396Z</time></trkpt><trkpt lat="43.430457" lon="11.1811123"><ele>163.0</ele><time>2026-05-03T06:42:16.42Z</time></trkpt><trkpt lat="43.4305115" lon="11.1811853"><ele>163.0</ele><time>2026-05-03T06:42:19.416Z</time></trkpt><trkpt lat="43.4305663" lon="11.1812581"><ele>163.0</ele><time>2026-05-03T06:42:22.508Z</time></trkpt><trkpt lat="43.4306251" lon="11.1813287"><ele>163.0</ele><time>2026-05-03T06:42:25.394Z</time></trkpt><trkpt lat="43.4306914" lon="11.1814017"><ele>163.0</ele><time>2026-05-03T06:42:28.46Z</time></trkpt><trkpt lat="43.4307619" lon="11.1814872"><ele>163.0</ele><time>2026-05-03T06:42:31.409Z</time></trkpt><trkpt lat="43.4308123" lon="11.1815494"><ele>163.0</ele><time>2026-05-03T06:42:33.405Z</time></trkpt><trkpt lat="43.4308757" lon="11.1816385"><ele>163.0</ele><time>2026-05-03T06:42:36.409Z</time></trkpt><trkpt lat="43.4309362" lon="11.181731"><ele>163.0</ele><time>2026-05-03T06:42:39.42Z</time></trkpt><trkpt lat="43.4309772" lon="11.1818036"><ele>164.0</ele><time>2026-05-03T06:42:41.429Z</time></trkpt><trkpt lat="43.4309873" lon="11.1819088"><ele>165.0</ele><time>2026-05-03T06:42:43.397Z</time></trkpt><trkpt lat="43.43098" lon="11.1820337"><ele>166.0</ele><time>2026-05-03T06:42:45.408Z</time></trkpt><trkpt lat="43.4309839" lon="11.1821882"><ele>167.0</ele><time>2026-05-03T06:42:47.488Z</time></trkpt><trkpt lat="43.4309965" lon="11.1823404"><ele>168.0</ele><time>2026-05-03T06:42:49.491Z</time></trkpt><trkpt lat="43.4309971" lon="11.1824283"><ele>168.2</ele><time>2026-05-03T06:42:50.425Z</time></trkpt><trkpt lat="43.4309966" lon="11.1825201"><ele>168.4</ele><time>2026-05-03T06:42:51.423Z</time></trkpt><trkpt lat="43.4310099" lon="11.1826796"><ele>168.6</ele><time>2026-05-03T06:42:53.487Z</time></trkpt><trkpt lat="43.4310453" lon="11.1828139"><ele>168.79999999999998</ele><time>2026-05-03T06:42:55.417Z</time></trkpt><trkpt lat="43.4310749" lon="11.1829508"><ele>169.0</ele><time>2026-05-03T06:42:57.418Z</time></trkpt><trkpt lat="43.4311057" lon="11.183084"><ele>167.83333333333334</ele><time>2026-05-03T06:42:59.409Z</time></trkpt><trkpt lat="43.4311365" lon="11.1832264"><ele>166.66666666666669</ele><time>2026-05-03T06:43:01.422Z</time></trkpt><trkpt lat="43.4311777" lon="11.1833943"><ele>165.5</ele><time>2026-05-03T06:43:03.413Z</time></trkpt><trkpt lat="43.4312093" lon="11.1834787"><ele>164.33333333333334</ele><time>2026-05-03T06:43:04.427Z</time></trkpt><trkpt lat="43.4312512" lon="11.1835588"><ele>163.16666666666666</ele><time>2026-05-03T06:43:05.419Z</time></trkpt><trkpt lat="43.431302" lon="11.1836217"><ele>162.0</ele><time>2026-05-03T06:43:06.417Z</time></trkpt><trkpt lat="43.4313586" lon="11.1836666"><ele>160.4</ele><time>2026-05-03T06:43:07.426Z</time></trkpt><trkpt lat="43.4314678" lon="11.1837306"><ele>158.79999999999998</ele><time>2026-05-03T06:43:09.404Z</time></trkpt><trkpt lat="43.4315626" lon="11.1837668"><ele>157.2</ele><time>2026-05-03T06:43:11.399Z</time></trkpt><trkpt lat="43.4316429" lon="11.1837826"><ele>155.6</ele><time>2026-05-03T06:43:13.433Z</time></trkpt><trkpt lat="43.4317239" lon="11.1838026"><ele>154.0</ele><time>2026-05-03T06:43:16.42Z</time></trkpt><trkpt lat="43.4317955" lon="11.1838191"><ele>154.0</ele><time>2026-05-03T06:43:19.417Z</time></trkpt><trkpt lat="43.4318618" lon="11.183834"><ele>154.0</ele><time>2026-05-03T06:43:22.414Z</time></trkpt><trkpt lat="43.4319427" lon="11.1838355"><ele>154.0</ele><time>2026-05-03T06:43:26.425Z</time></trkpt><trkpt lat="43.4320165" lon="11.1838494"><ele>154.0</ele><time>2026-05-03T06:43:30.418Z</time></trkpt><trkpt lat="43.432087" lon="11.1838531"><ele>154.0</ele><time>2026-05-03T06:43:34.42Z</time></trkpt><trkpt lat="43.4321526" lon="11.1838863"><ele>154.0</ele><time>2026-05-03T06:43:38.417Z</time></trkpt><trkpt lat="43.4322302" lon="11.1839077"><ele>154.0</ele><time>2026-05-03T06:43:42.42Z</time></trkpt><trkpt lat="43.4322958" lon="11.1839292"><ele>154.71428571428572</ele><time>2026-05-03T06:43:46.412Z</time></trkpt><trkpt lat="43.4323684" lon="11.1839597"><ele>155.42857142857144</ele><time>2026-05-03T06:43:50.412Z</time></trkpt><trkpt lat="43.432436" lon="11.183991"><ele>156.14285714285714</ele><time>2026-05-03T06:43:54.416Z</time></trkpt><trkpt lat="43.4325102" lon="11.1840088"><ele>156.85714285714286</ele><time>2026-05-03T06:43:58.404Z</time></trkpt><trkpt lat="43.4325945" lon="11.1840216"><ele>157.57142857142858</ele><time>2026-05-03T06:44:02.407Z</time></trkpt><trkpt lat="43.432663" lon="11.1840461"><ele>158.28571428571428</ele><time>2026-05-03T06:44:05.416Z</time></trkpt><trkpt lat="43.4327281" lon="11.1840692"><ele>159.0</ele><time>2026-05-03T06:44:08.419Z</time></trkpt><trkpt lat="43.4327908" lon="11.1841057"><ele>160.14285714285714</ele><time>2026-05-03T06:44:11.413Z</time></trkpt><trkpt lat="43.4328539" lon="11.1841267"><ele>161.2857142857143</ele><time>2026-05-03T06:44:14.422Z</time></trkpt><trkpt lat="43.4329178" lon="11.1841489"><ele>162.42857142857144</ele><time>2026-05-03T06:44:17.412Z</time></trkpt><trkpt lat="43.4329811" lon="11.1841828"><ele>163.57142857142856</ele><time>2026-05-03T06:44:20.424Z</time></trkpt><trkpt lat="43.433048" lon="11.1842213"><ele>164.71428571428572</ele><time>2026-05-03T06:44:23.415Z</time></trkpt><trkpt lat="43.4331114" lon="11.1842678"><ele>165.85714285714286</ele><time>2026-05-03T06:44:26.419Z</time></trkpt><trkpt lat="43.4331726" lon="11.1843078"><ele>167.0</ele><time>2026-05-03T06:44:29.409Z</time></trkpt><trkpt lat="43.4332404" lon="11.1843304"><ele>167.0</ele><time>2026-05-03T06:44:32.41Z</time></trkpt><trkpt lat="43.4333127" lon="11.1843444"><ele>167.0</ele><time>2026-05-03T06:44:35.417Z</time></trkpt><trkpt lat="43.4333859" lon="11.1843634"><ele>167.0</ele><time>2026-05-03T06:44:38.419Z</time></trkpt><trkpt lat="43.4334517" lon="11.1844072"><ele>167.0</ele><time>2026-05-03T06:44:41.412Z</time></trkpt><trkpt lat="43.4335314" lon="11.1844446"><ele>167.0</ele><time>2026-05-03T06:44:44.418Z</time></trkpt><trkpt lat="43.4336104" lon="11.1844747"><ele>167.0</ele><time>2026-05-03T06:44:47.413Z</time></trkpt><trkpt lat="43.4336818" lon="11.1844917"><ele>167.0</ele><time>2026-05-03T06:44:50.42Z</time></trkpt><trkpt lat="43.4337487" lon="11.184518"><ele>167.0</ele><time>2026-05-03T06:44:53.411Z</time></trkpt><trkpt lat="43.4338182" lon="11.184547"><ele>167.0</ele><time>2026-05-03T06:44:56.405Z</time></trkpt><trkpt lat="43.4338814" lon="11.184574"><ele>167.0</ele><time>2026-05-03T06:44:59.413Z</time></trkpt><trkpt lat="43.4339459" lon="11.1846066"><ele>167.0</ele><time>2026-05-03T06:45:02.415Z</time></trkpt><trkpt lat="43.4340203" lon="11.1846469"><ele>167.0</ele><time>2026-05-03T06:45:06.41Z</time></trkpt><trkpt lat="43.4340944" lon="11.1846699"><ele>167.0</ele><time>2026-05-03T06:45:10.398Z</time></trkpt><trkpt lat="43.4341737" lon="11.1847021"><ele>167.33333333333331</ele><time>2026-05-03T06:45:14.432Z</time></trkpt><trkpt lat="43.4342433" lon="11.1847362"><ele>167.66666666666666</ele><time>2026-05-03T06:45:18.423Z</time></trkpt><trkpt lat="43.4343164" lon="11.1847649"><ele>168.0</ele><time>2026-05-03T06:45:22.407Z</time></trkpt><trkpt lat="43.4343918" lon="11.1847907"><ele>168.33333333333334</ele><time>2026-05-03T06:45:26.418Z</time></trkpt><trkpt lat="43.4344701" lon="11.1848117"><ele>168.66666666666669</ele><time>2026-05-03T06:45:30.414Z</time></trkpt><trkpt lat="43.4345463" lon="11.1848474"><ele>169.0</ele><time>2026-05-03T06:45:34.409Z</time></trkpt><trkpt lat="43.4346152" lon="11.1848758"><ele>170.85714285714286</ele><time>2026-05-03T06:45:38.403Z</time></trkpt><trkpt lat="43.4346821" lon="11.1848965"><ele>172.71428571428572</ele><time>2026-05-03T06:45:43.41Z</time></trkpt><trkpt lat="43.4347523" lon="11.1849144"><ele>174.57142857142856</ele><time>2026-05-03T06:45:48.416Z</time></trkpt><trkpt lat="43.4348244" lon="11.1849402"><ele>176.42857142857144</ele><time>2026-05-03T06:45:53.422Z</time></trkpt><trkpt lat="43.4348907" lon="11.1849701"><ele>178.28571428571428</ele><time>2026-05-03T06:45:58.415Z</time></trkpt><trkpt lat="43.4349683" lon="11.1849736"><ele>180.14285714285714</ele><time>2026-05-03T06:46:03.409Z</time></trkpt><trkpt lat="43.435035" lon="11.1849881"><ele>182.0</ele><time>2026-05-03T06:46:08.424Z</time></trkpt><trkpt lat="43.4350981" lon="11.1849929"><ele>182.0</ele><time>2026-05-03T06:46:14.418Z</time></trkpt><trkpt lat="43.4351669" lon="11.1850066"><ele>182.0</ele><time>2026-05-03T06:46:19.411Z</time></trkpt><trkpt lat="43.435237" lon="11.1850287"><ele>182.0</ele><time>2026-05-03T06:46:24.429Z</time></trkpt><trkpt lat="43.4352999" lon="11.1850416"><ele>182.0</ele><time>2026-05-03T06:46:28.412Z</time></trkpt><trkpt lat="43.4353637" lon="11.1850412"><ele>182.0</ele><time>2026-05-03T06:46:32.418Z</time></trkpt><trkpt lat="43.4354311" lon="11.1850579"><ele>182.0</ele><time>2026-05-03T06:46:36.412Z</time></trkpt><trkpt lat="43.4355067" lon="11.1850658"><ele>182.0</ele><time>2026-05-03T06:46:40.393Z</time></trkpt><trkpt lat="43.4355822" lon="11.1850773"><ele>182.14285714285714</ele><time>2026-05-03T06:46:44.417Z</time></trkpt><trkpt lat="43.435646" lon="11.1850798"><ele>182.28571428571428</ele><time>2026-05-03T06:46:47.401Z</time></trkpt><trkpt lat="43.4357264" lon="11.1850848"><ele>182.42857142857144</ele><time>2026-05-03T06:46:51.427Z</time></trkpt><trkpt lat="43.4357882" lon="11.1851041"><ele>182.57142857142856</ele><time>2026-05-03T06:46:54.399Z</time></trkpt><trkpt lat="43.4358674" lon="11.1851221"><ele>182.71428571428572</ele><time>2026-05-03T06:46:58.422Z</time></trkpt><trkpt lat="43.4359461" lon="11.1851366"><ele>182.85714285714286</ele><time>2026-05-03T06:47:02.419Z</time></trkpt><trkpt lat="43.4360205" lon="11.1851596"><ele>183.0</ele><time>2026-05-03T06:47:06.411Z</time></trkpt><trkpt lat="43.4361019" lon="11.185177"><ele>183.0</ele><time>2026-05-03T06:47:10.475Z</time></trkpt><trkpt lat="43.4361772" lon="11.185195"><ele>183.0</ele><time>2026-05-03T06:47:14.476Z</time></trkpt><trkpt lat="43.4362512" lon="11.1851703"><ele>183.0</ele><time>2026-05-03T06:47:19.463Z</time></trkpt><trkpt lat="43.4363334" lon="11.1851757"><ele>183.0</ele><time>2026-05-03T06:47:23.398Z</time></trkpt><trkpt lat="43.4364113" lon="11.1852184"><ele>183.0</ele><time>2026-05-03T06:47:27.42Z</time></trkpt><trkpt lat="43.4364861" lon="11.1852445"><ele>183.0</ele><time>2026-05-03T06:47:31.411Z</time></trkpt><trkpt lat="43.4365502" lon="11.1852537"><ele>183.28571428571428</ele><time>2026-05-03T06:47:34.408Z</time></trkpt><trkpt lat="43.4366166" lon="11.1852913"><ele>183.57142857142858</ele><time>2026-05-03T06:47:37.404Z</time></trkpt><trkpt lat="43.4366748" lon="11.1853332"><ele>183.85714285714283</ele><time>2026-05-03T06:47:40.396Z</time></trkpt><trkpt lat="43.4367599" lon="11.1853806"><ele>184.14285714285714</ele><time>2026-05-03T06:47:44.489Z</time></trkpt><trkpt lat="43.4368444" lon="11.1854007"><ele>184.42857142857142</ele><time>2026-05-03T06:47:47.411Z</time></trkpt><trkpt lat="43.4369049" lon="11.1854366"><ele>184.7142857142857</ele><time>2026-05-03T06:47:50.394Z</time></trkpt><trkpt lat="43.4369686" lon="11.1854573"><ele>185.0</ele><time>2026-05-03T06:47:53.471Z</time></trkpt><trkpt lat="43.4370313" lon="11.1855157"><ele>184.99999999999997</ele><time>2026-05-03T06:47:56.406Z</time></trkpt><trkpt lat="43.4371069" lon="11.1855588"><ele>185.0</ele><time>2026-05-03T06:48:00.406Z</time></trkpt><trkpt lat="43.4371724" lon="11.1855939"><ele>185.0</ele><time>2026-05-03T06:48:04.41Z</time></trkpt><trkpt lat="43.4372389" lon="11.1856229"><ele>185.0</ele><time>2026-05-03T06:48:08.415Z</time></trkpt><trkpt lat="43.4373" lon="11.1856438"><ele>185.0</ele><time>2026-05-03T06:48:11.425Z</time></trkpt><trkpt lat="43.4373727" lon="11.1856789"><ele>184.99999999999997</ele><time>2026-05-03T06:48:17.41Z</time></trkpt><trkpt lat="43.4374292" lon="11.1857336"><ele>185.0</ele><time>2026-05-03T06:48:21.412Z</time></trkpt><trkpt lat="43.4375067" lon="11.1857464"><ele>188.16666666666666</ele><time>2026-05-03T06:48:25.402Z</time></trkpt><trkpt lat="43.4375923" lon="11.1857509"><ele>191.33333333333331</ele><time>2026-05-03T06:48:29.482Z</time></trkpt><trkpt lat="43.4376687" lon="11.1857556"><ele>194.5</ele><time>2026-05-03T06:48:33.499Z</time></trkpt><trkpt lat="43.4377531" lon="11.1857567"><ele>197.66666666666666</ele><time>2026-05-03T06:48:37.41Z</time></trkpt><trkpt lat="43.4378321" lon="11.1857577"><ele>200.83333333333334</ele><time>2026-05-03T06:48:40.409Z</time></trkpt><trkpt lat="43.4379015" lon="11.1857343"><ele>204.0</ele><time>2026-05-03T06:48:43.406Z</time></trkpt><trkpt lat="43.4379763" lon="11.1857221"><ele>204.0</ele><time>2026-05-03T06:48:46.407Z</time></trkpt><trkpt lat="43.4380494" lon="11.1857204"><ele>204.0</ele><time>2026-05-03T06:48:49.483Z</time></trkpt><trkpt lat="43.4381323" lon="11.1857118"><ele>204.0</ele><time>2026-05-03T06:48:52.405Z</time></trkpt><trkpt lat="43.4382069" lon="11.1857052"><ele>204.0</ele><time>2026-05-03T06:48:55.405Z</time></trkpt><trkpt lat="43.4382706" lon="11.1856883"><ele>204.0</ele><time>2026-05-03T06:48:58.474Z</time></trkpt><trkpt lat="43.4383521" lon="11.185659"><ele>204.0</ele><time>2026-05-03T06:49:01.422Z</time></trkpt><trkpt lat="43.4384233" lon="11.1856596"><ele>204.0</ele><time>2026-05-03T06:49:03.483Z</time></trkpt><trkpt lat="43.4384936" lon="11.1856753"><ele>204.0</ele><time>2026-05-03T06:49:05.407Z</time></trkpt><trkpt lat="43.4385579" lon="11.1856783"><ele>204.0</ele><time>2026-05-03T06:49:07.408Z</time></trkpt><trkpt lat="43.4386252" lon="11.1856765"><ele>204.0</ele><time>2026-05-03T06:49:09.406Z</time></trkpt><trkpt lat="43.4387046" lon="11.1856929"><ele>204.0</ele><time>2026-05-03T06:49:13.417Z</time></trkpt><trkpt lat="43.4387822" lon="11.1856872"><ele>204.0</ele><time>2026-05-03T06:49:16.416Z</time></trkpt><trkpt lat="43.4388513" lon="11.1856253"><ele>204.0</ele><time>2026-05-03T06:49:20.412Z</time></trkpt><trkpt lat="43.4389178" lon="11.1855387"><ele>202.16666666666666</ele><time>2026-05-03T06:49:23.41Z</time></trkpt><trkpt lat="43.4390052" lon="11.1854998"><ele>200.33333333333331</ele><time>2026-05-03T06:49:26.416Z</time></trkpt><trkpt lat="43.439066" lon="11.1854163"><ele>198.5</ele><time>2026-05-03T06:49:28.418Z</time></trkpt><trkpt lat="43.4391166" lon="11.1853164"><ele>196.66666666666666</ele><time>2026-05-03T06:49:30.407Z</time></trkpt><trkpt lat="43.4391714" lon="11.1852344"><ele>194.83333333333331</ele><time>2026-05-03T06:49:32.413Z</time></trkpt><trkpt lat="43.439232" lon="11.1851495"><ele>193.0</ele><time>2026-05-03T06:49:34.477Z</time></trkpt><trkpt lat="43.4392942" lon="11.1850359"><ele>193.0</ele><time>2026-05-03T06:49:36.409Z</time></trkpt><trkpt lat="43.4393547" lon="11.1849086"><ele>193.0</ele><time>2026-05-03T06:49:38.478Z</time></trkpt><trkpt lat="43.43941" lon="11.1848031"><ele>193.0</ele><time>2026-05-03T06:49:40.395Z</time></trkpt><trkpt lat="43.439475" lon="11.1846785"><ele>193.0</ele><time>2026-05-03T06:49:42.41Z</time></trkpt><trkpt lat="43.4395534" lon="11.1845372"><ele>193.0</ele><time>2026-05-03T06:49:44.483Z</time></trkpt><trkpt lat="43.4395963" lon="11.1844607"><ele>191.71428571428572</ele><time>2026-05-03T06:49:45.422Z</time></trkpt><trkpt lat="43.43964" lon="11.1843848"><ele>190.42857142857144</ele><time>2026-05-03T06:49:46.417Z</time></trkpt><trkpt lat="43.4396817" lon="11.1843"><ele>189.14285714285717</ele><time>2026-05-03T06:49:47.42Z</time></trkpt><trkpt lat="43.439728" lon="11.1842173"><ele>187.85714285714286</ele><time>2026-05-03T06:49:48.408Z</time></trkpt><trkpt lat="43.4397705" lon="11.1841389"><ele>186.57142857142856</ele><time>2026-05-03T06:49:49.423Z</time></trkpt><trkpt lat="43.4398129" lon="11.184056"><ele>185.2857142857143</ele><time>2026-05-03T06:49:50.41Z</time></trkpt><trkpt lat="43.4398573" lon="11.1839732"><ele>184.0</ele><time>2026-05-03T06:49:51.423Z</time></trkpt><trkpt lat="43.4399013" lon="11.1838938"><ele>183.71428571428572</ele><time>2026-05-03T06:49:52.403Z</time></trkpt><trkpt lat="43.4399454" lon="11.1838131"><ele>183.42857142857142</ele><time>2026-05-03T06:49:53.41Z</time></trkpt><trkpt lat="43.4399911" lon="11.183731"><ele>183.14285714285714</ele><time>2026-05-03T06:49:54.41Z</time></trkpt><trkpt lat="43.4400369" lon="11.1836505"><ele>182.85714285714286</ele><time>2026-05-03T06:49:55.42Z</time></trkpt><trkpt lat="43.4400851" lon="11.1835701"><ele>182.57142857142856</ele><time>2026-05-03T06:49:56.416Z</time></trkpt><trkpt lat="43.4401301" lon="11.1834874"><ele>182.28571428571428</ele><time>2026-05-03T06:49:57.412Z</time></trkpt><trkpt lat="43.4401734" lon="11.1834066"><ele>182.0</ele><time>2026-05-03T06:49:58.485Z</time></trkpt><trkpt lat="43.440217" lon="11.1833259"><ele>182.0</ele><time>2026-05-03T06:49:59.447Z</time></trkpt><trkpt lat="43.4402644" lon="11.1832469"><ele>182.0</ele><time>2026-05-03T06:50:00.423Z</time></trkpt><trkpt lat="43.4403044" lon="11.1831609"><ele>182.0</ele><time>2026-05-03T06:50:01.409Z</time></trkpt><trkpt lat="43.4403471" lon="11.1830777"><ele>182.0</ele><time>2026-05-03T06:50:02.411Z</time></trkpt><trkpt lat="43.4403887" lon="11.183006"><ele>182.0</ele><time>2026-05-03T06:50:03.428Z</time></trkpt><trkpt lat="43.4404262" lon="11.1829335"><ele>182.0</ele><time>2026-05-03T06:50:04.407Z</time></trkpt><trkpt lat="43.4404639" lon="11.1828615"><ele>182.0</ele><time>2026-05-03T06:50:05.487Z</time></trkpt><trkpt lat="43.4405125" lon="11.1827401"><ele>181.83333333333331</ele><time>2026-05-03T06:50:07.418Z</time></trkpt><trkpt lat="43.4405476" lon="11.182668"><ele>181.66666666666666</ele><time>2026-05-03T06:50:08.489Z</time></trkpt><trkpt lat="43.4405985" lon="11.1826033"><ele>181.5</ele><time>2026-05-03T06:50:09.492Z</time></trkpt><trkpt lat="43.4406726" lon="11.1824856"><ele>181.33333333333334</ele><time>2026-05-03T06:50:11.419Z</time></trkpt><trkpt lat="43.4407397" lon="11.1823799"><ele>181.16666666666669</ele><time>2026-05-03T06:50:13.43Z</time></trkpt><trkpt lat="43.4408015" lon="11.1822679"><ele>181.0</ele><time>2026-05-03T06:50:15.395Z</time></trkpt><trkpt lat="43.4408641" lon="11.1821619"><ele>180.20000000000002</ele><time>2026-05-03T06:50:17.413Z</time></trkpt><trkpt lat="43.4409222" lon="11.1820513"><ele>179.4</ele><time>2026-05-03T06:50:19.478Z</time></trkpt><trkpt lat="43.4409944" lon="11.1819457"><ele>178.6</ele><time>2026-05-03T06:50:21.414Z</time></trkpt><trkpt lat="43.4410416" lon="11.1818394"><ele>177.8</ele><time>2026-05-03T06:50:23.415Z</time></trkpt><trkpt lat="43.4410971" lon="11.1817229"><ele>177.0</ele><time>2026-05-03T06:50:25.413Z</time></trkpt><trkpt lat="43.4411567" lon="11.1816233"><ele>177.39999999999998</ele><time>2026-05-03T06:50:27.413Z</time></trkpt><trkpt lat="43.4412245" lon="11.1815107"><ele>177.79999999999998</ele><time>2026-05-03T06:50:29.417Z</time></trkpt><trkpt lat="43.4412967" lon="11.1814038"><ele>178.2</ele><time>2026-05-03T06:50:31.418Z</time></trkpt><trkpt lat="43.4413719" lon="11.1813031"><ele>178.6</ele><time>2026-05-03T06:50:33.427Z</time></trkpt><trkpt lat="43.4414512" lon="11.1812042"><ele>179.0</ele><time>2026-05-03T06:50:35.409Z</time></trkpt><trkpt lat="43.4415352" lon="11.1811081"><ele>179.0</ele><time>2026-05-03T06:50:37.41Z</time></trkpt><trkpt lat="43.4416168" lon="11.1810143"><ele>179.0</ele><time>2026-05-03T06:50:39.482Z</time></trkpt><trkpt lat="43.4417061" lon="11.1809178"><ele>179.0</ele><time>2026-05-03T06:50:41.407Z</time></trkpt><trkpt lat="43.4417947" lon="11.180813"><ele>179.0</ele><time>2026-05-03T06:50:43.487Z</time></trkpt><trkpt lat="43.4418805" lon="11.1807373"><ele>179.0</ele><time>2026-05-03T06:50:45.42Z</time></trkpt><trkpt lat="43.4419885" lon="11.1806433"><ele>178.79999999999998</ele><time>2026-05-03T06:50:47.41Z</time></trkpt><trkpt lat="43.4420774" lon="11.180545"><ele>178.6</ele><time>2026-05-03T06:50:49.479Z</time></trkpt><trkpt lat="43.4421684" lon="11.1804248"><ele>178.4</ele><time>2026-05-03T06:50:51.407Z</time></trkpt><trkpt lat="43.4422099" lon="11.1803519"><ele>178.2</ele><time>2026-05-03T06:50:52.408Z</time></trkpt><trkpt lat="43.4422988" lon="11.1802522"><ele>178.0</ele><time>2026-05-03T06:50:54.476Z</time></trkpt><trkpt lat="43.4423624" lon="11.1802127"><ele>178.0</ele><time>2026-05-03T06:50:55.417Z</time></trkpt><trkpt lat="43.4424214" lon="11.1801591"><ele>178.0</ele><time>2026-05-03T06:50:56.402Z</time></trkpt><trkpt lat="43.4425122" lon="11.1800406"><ele>178.0</ele><time>2026-05-03T06:50:58.418Z</time></trkpt><trkpt lat="43.4425864" lon="11.1799345"><ele>178.0</ele><time>2026-05-03T06:51:00.427Z</time></trkpt><trkpt lat="43.4426453" lon="11.1798499"><ele>178.0</ele><time>2026-05-03T06:51:02.397Z</time></trkpt><trkpt lat="43.4427093" lon="11.1797809"><ele>177.99999999999997</ele><time>2026-05-03T06:51:04.424Z</time></trkpt><trkpt lat="43.4427598" lon="11.179711"><ele>178.0</ele><time>2026-05-03T06:51:06.425Z</time></trkpt><trkpt lat="43.4428058" lon="11.1796336"><ele>178.0</ele><time>2026-05-03T06:51:08.412Z</time></trkpt><trkpt lat="43.442845" lon="11.1795527"><ele>178.0</ele><time>2026-05-03T06:51:10.483Z</time></trkpt><trkpt lat="43.442878" lon="11.179469"><ele>178.0</ele><time>2026-05-03T06:51:12.412Z</time></trkpt><trkpt lat="43.4429053" lon="11.1793762"><ele>177.99999999999997</ele><time>2026-05-03T06:51:14.475Z</time></trkpt><trkpt lat="43.4429237" lon="11.1792912"><ele>178.0</ele><time>2026-05-03T06:51:16.417Z</time></trkpt><trkpt lat="43.4429338" lon="11.1791743"><ele>178.0</ele><time>2026-05-03T06:51:18.484Z</time></trkpt><trkpt lat="43.4429556" lon="11.1790809"><ele>178.0</ele><time>2026-05-03T06:51:20.412Z</time></trkpt><trkpt lat="43.442957" lon="11.1789703"><ele>178.0</ele><time>2026-05-03T06:51:22.407Z</time></trkpt><trkpt lat="43.4429425" lon="11.1788525"><ele>178.0</ele><time>2026-05-03T06:51:24.481Z</time></trkpt><trkpt lat="43.4429669" lon="11.1787114"><ele>178.0</ele><time>2026-05-03T06:51:27.422Z</time></trkpt><trkpt lat="43.4429721" lon="11.1785761"><ele>178.0</ele><time>2026-05-03T06:51:29.484Z</time></trkpt><trkpt lat="43.4429983" lon="11.1784715"><ele>178.57142857142856</ele><time>2026-05-03T06:51:31.411Z</time></trkpt><trkpt lat="43.4430397" lon="11.1783848"><ele>179.14285714285714</ele><time>2026-05-03T06:51:33.403Z</time></trkpt><trkpt lat="43.4430866" lon="11.1783084"><ele>179.71428571428572</ele><time>2026-05-03T06:51:35.407Z</time></trkpt><trkpt lat="43.4431352" lon="11.1782335"><ele>180.28571428571428</ele><time>2026-05-03T06:51:37.423Z</time></trkpt><trkpt lat="43.4431866" lon="11.1781689"><ele>180.85714285714286</ele><time>2026-05-03T06:51:39.41Z</time></trkpt><trkpt lat="43.4432333" lon="11.1781033"><ele>181.42857142857142</ele><time>2026-05-03T06:51:41.411Z</time></trkpt><trkpt lat="43.4432787" lon="11.1780404"><ele>182.0</ele><time>2026-05-03T06:51:43.411Z</time></trkpt><trkpt lat="43.4433255" lon="11.1779734"><ele>182.5</ele><time>2026-05-03T06:51:45.4Z</time></trkpt><trkpt lat="43.4433892" lon="11.1778845"><ele>183.0</ele><time>2026-05-03T06:51:48.468Z</time></trkpt><trkpt lat="43.4434483" lon="11.1777999"><ele>183.5</ele><time>2026-05-03T06:51:51.416Z</time></trkpt><trkpt lat="43.4435022" lon="11.1777086"><ele>184.0</ele><time>2026-05-03T06:51:54.471Z</time></trkpt><trkpt lat="43.4435377" lon="11.1776343"><ele>184.5</ele><time>2026-05-03T06:51:56.424Z</time></trkpt><trkpt lat="43.4435841" lon="11.1775605"><ele>185.0</ele><time>2026-05-03T06:51:58.412Z</time></trkpt><trkpt lat="43.4436344" lon="11.1774858"><ele>185.0</ele><time>2026-05-03T06:52:00.404Z</time></trkpt><trkpt lat="43.443678" lon="11.1774119"><ele>185.0</ele><time>2026-05-03T06:52:02.481Z</time></trkpt><trkpt lat="43.443751" lon="11.1773394"><ele>185.0</ele><time>2026-05-03T06:52:04.483Z</time></trkpt><trkpt lat="43.4437865" lon="11.1772297"><ele>185.0</ele><time>2026-05-03T06:52:06.416Z</time></trkpt><trkpt lat="43.4438216" lon="11.1771394"><ele>185.0</ele><time>2026-05-03T06:52:08.474Z</time></trkpt><trkpt lat="43.4438653" lon="11.1770577"><ele>185.0</ele><time>2026-05-03T06:52:10.417Z</time></trkpt><trkpt lat="43.4438936" lon="11.1769783"><ele>184.66666666666666</ele><time>2026-05-03T06:52:12.419Z</time></trkpt><trkpt lat="43.4439222" lon="11.176884"><ele>184.33333333333331</ele><time>2026-05-03T06:52:14.415Z</time></trkpt><trkpt lat="43.4439555" lon="11.1767991"><ele>184.0</ele><time>2026-05-03T06:52:16.416Z</time></trkpt><trkpt lat="43.4439876" lon="11.176715"><ele>183.66666666666666</ele><time>2026-05-03T06:52:18.422Z</time></trkpt><trkpt lat="43.4440198" lon="11.1766251"><ele>183.33333333333334</ele><time>2026-05-03T06:52:20.419Z</time></trkpt><trkpt lat="43.4440694" lon="11.1765232"><ele>183.0</ele><time>2026-05-03T06:52:22.425Z</time></trkpt><trkpt lat="43.444129" lon="11.1764232"><ele>181.60000000000002</ele><time>2026-05-03T06:52:24.489Z</time></trkpt><trkpt lat="43.4441979" lon="11.1763196"><ele>180.20000000000002</ele><time>2026-05-03T06:52:26.417Z</time></trkpt><trkpt lat="43.44425" lon="11.1762072"><ele>178.8</ele><time>2026-05-03T06:52:28.49Z</time></trkpt><trkpt lat="43.4443078" lon="11.1761127"><ele>177.4</ele><time>2026-05-03T06:52:30.399Z</time></trkpt><trkpt lat="43.4443573" lon="11.1759987"><ele>176.0</ele><time>2026-05-03T06:52:32.406Z</time></trkpt><trkpt lat="43.4444052" lon="11.1759115"><ele>176.0</ele><time>2026-05-03T06:52:34.475Z</time></trkpt><trkpt lat="43.4444585" lon="11.1758084"><ele>176.0</ele><time>2026-05-03T06:52:36.415Z</time></trkpt><trkpt lat="43.4445197" lon="11.1756705"><ele>176.0</ele><time>2026-05-03T06:52:38.486Z</time></trkpt><trkpt lat="43.4445564" lon="11.1755984"><ele>176.0</ele><time>2026-05-03T06:52:39.481Z</time></trkpt><trkpt lat="43.4445921" lon="11.1755265"><ele>176.0</ele><time>2026-05-03T06:52:40.426Z</time></trkpt><trkpt lat="43.4446588" lon="11.175378"><ele>176.20000000000002</ele><time>2026-05-03T06:52:42.419Z</time></trkpt><trkpt lat="43.4447285" lon="11.1752334"><ele>176.4</ele><time>2026-05-03T06:52:44.407Z</time></trkpt><trkpt lat="43.4447941" lon="11.1750903"><ele>176.6</ele><time>2026-05-03T06:52:46.41Z</time></trkpt><trkpt lat="43.444843" lon="11.1749358"><ele>176.8</ele><time>2026-05-03T06:52:48.43Z</time></trkpt><trkpt lat="43.4448628" lon="11.1748493"><ele>177.0</ele><time>2026-05-03T06:52:49.413Z</time></trkpt><trkpt lat="43.4448998" lon="11.1746834"><ele>177.0</ele><time>2026-05-03T06:52:51.418Z</time></trkpt><trkpt lat="43.4449373" lon="11.1745256"><ele>177.0</ele><time>2026-05-03T06:52:53.418Z</time></trkpt><trkpt lat="43.4449871" lon="11.1743746"><ele>177.0</ele><time>2026-05-03T06:52:55.417Z</time></trkpt><trkpt lat="43.4450304" lon="11.1742237"><ele>177.0</ele><time>2026-05-03T06:52:57.481Z</time></trkpt><trkpt lat="43.4450559" lon="11.1741416"><ele>177.0</ele><time>2026-05-03T06:52:58.414Z</time></trkpt><trkpt lat="43.4451265" lon="11.1740055"><ele>176.39999999999998</ele><time>2026-05-03T06:53:00.405Z</time></trkpt><trkpt lat="43.44516" lon="11.1738854"><ele>175.79999999999998</ele><time>2026-05-03T06:53:02.427Z</time></trkpt><trkpt lat="43.4451824" lon="11.1737711"><ele>175.2</ele><time>2026-05-03T06:53:04.484Z</time></trkpt><trkpt lat="43.4451667" lon="11.1736223"><ele>174.6</ele><time>2026-05-03T06:53:06.397Z</time></trkpt><trkpt lat="43.4451235" lon="11.1735187"><ele>174.0</ele><time>2026-05-03T06:53:07.41Z</time></trkpt><trkpt lat="43.4450703" lon="11.173415"><ele>174.0</ele><time>2026-05-03T06:53:08.477Z</time></trkpt><trkpt lat="43.4450412" lon="11.1733135"><ele>174.0</ele><time>2026-05-03T06:53:09.482Z</time></trkpt><trkpt lat="43.4450021" lon="11.1732033"><ele>174.0</ele><time>2026-05-03T06:53:10.399Z</time></trkpt><trkpt lat="43.44494" lon="11.1731077"><ele>174.0</ele><time>2026-05-03T06:53:11.417Z</time></trkpt><trkpt lat="43.4448846" lon="11.1730138"><ele>174.0</ele><time>2026-05-03T06:53:12.422Z</time></trkpt><trkpt lat="43.4448224" lon="11.1729327"><ele>174.0</ele><time>2026-05-03T06:53:13.466Z</time></trkpt><trkpt lat="43.4447512" lon="11.1728567"><ele>173.33333333333334</ele><time>2026-05-03T06:53:14.4Z</time></trkpt><trkpt lat="43.444673" lon="11.1727944"><ele>172.66666666666666</ele><time>2026-05-03T06:53:15.414Z</time></trkpt><trkpt lat="43.4445924" lon="11.1727622"><ele>172.0</ele><time>2026-05-03T06:53:16.431Z</time></trkpt><trkpt lat="43.4445106" lon="11.1727431"><ele>171.33333333333331</ele><time>2026-05-03T06:53:17.419Z</time></trkpt><trkpt lat="43.4444188" lon="11.172708"><ele>170.66666666666666</ele><time>2026-05-03T06:53:18.433Z</time></trkpt><trkpt lat="43.4443357" lon="11.1726727"><ele>170.0</ele><time>2026-05-03T06:53:19.479Z</time></trkpt><trkpt lat="43.4442496" lon="11.1726297"><ele>167.8</ele><time>2026-05-03T06:53:20.42Z</time></trkpt><trkpt lat="43.4441553" lon="11.1725867"><ele>165.6</ele><time>2026-05-03T06:53:21.413Z</time></trkpt><trkpt lat="43.444077" lon="11.1725515"><ele>163.4</ele><time>2026-05-03T06:53:22.431Z</time></trkpt><trkpt lat="43.4439898" lon="11.1725044"><ele>161.2</ele><time>2026-05-03T06:53:23.409Z</time></trkpt><trkpt lat="43.4439008" lon="11.1724616"><ele>159.0</ele><time>2026-05-03T06:53:24.419Z</time></trkpt><trkpt lat="43.4438089" lon="11.1724105"><ele>155.4</ele><time>2026-05-03T06:53:25.413Z</time></trkpt><trkpt lat="43.4437167" lon="11.1723476"><ele>151.8</ele><time>2026-05-03T06:53:26.42Z</time></trkpt><trkpt lat="43.4436125" lon="11.1722833"><ele>148.2</ele><time>2026-05-03T06:53:27.408Z</time></trkpt><trkpt lat="43.4435043" lon="11.1722207"><ele>144.6</ele><time>2026-05-03T06:53:28.413Z</time></trkpt><trkpt lat="43.4434043" lon="11.1721501"><ele>141.0</ele><time>2026-05-03T06:53:29.406Z</time></trkpt><trkpt lat="43.4433038" lon="11.1720763"><ele>141.0</ele><time>2026-05-03T06:53:30.435Z</time></trkpt><trkpt lat="43.4432072" lon="11.1720002"><ele>141.0</ele><time>2026-05-03T06:53:31.409Z</time></trkpt><trkpt lat="43.4431084" lon="11.1719223"><ele>141.0</ele><time>2026-05-03T06:53:32.414Z</time></trkpt><trkpt lat="43.4430117" lon="11.1718345"><ele>141.0</ele><time>2026-05-03T06:53:33.493Z</time></trkpt><trkpt lat="43.4428348" lon="11.171628"><ele>138.5</ele><time>2026-05-03T06:53:35.412Z</time></trkpt><trkpt lat="43.4427443" lon="11.1715184"><ele>136.0</ele><time>2026-05-03T06:53:36.396Z</time></trkpt><trkpt lat="43.4426567" lon="11.1714057"><ele>133.5</ele><time>2026-05-03T06:53:37.41Z</time></trkpt><trkpt lat="43.4425613" lon="11.1712933"><ele>131.0</ele><time>2026-05-03T06:53:38.39Z</time></trkpt><trkpt lat="43.4424647" lon="11.1711721"><ele>131.0</ele><time>2026-05-03T06:53:39.478Z</time></trkpt><trkpt lat="43.4423797" lon="11.1710606"><ele>131.0</ele><time>2026-05-03T06:53:40.393Z</time></trkpt><trkpt lat="43.4422927" lon="11.1709412"><ele>131.0</ele><time>2026-05-03T06:53:41.424Z</time></trkpt><trkpt lat="43.4421986" lon="11.1708141"><ele>131.0</ele><time>2026-05-03T06:53:42.412Z</time></trkpt><trkpt lat="43.4420922" lon="11.1706794"><ele>131.5</ele><time>2026-05-03T06:53:43.462Z</time></trkpt><trkpt lat="43.4420064" lon="11.1705374"><ele>132.0</ele><time>2026-05-03T06:53:44.412Z</time></trkpt><trkpt lat="43.4419301" lon="11.1704225"><ele>132.5</ele><time>2026-05-03T06:53:45.419Z</time></trkpt><trkpt lat="43.441856" lon="11.1703112"><ele>133.0</ele><time>2026-05-03T06:53:46.411Z</time></trkpt><trkpt lat="43.4417627" lon="11.1702083"><ele>133.0</ele><time>2026-05-03T06:53:47.421Z</time></trkpt><trkpt lat="43.4416747" lon="11.1701033"><ele>133.0</ele><time>2026-05-03T06:53:48.491Z</time></trkpt><trkpt lat="43.4415843" lon="11.1700091"><ele>133.0</ele><time>2026-05-03T06:53:49.49Z</time></trkpt><trkpt lat="43.4415056" lon="11.1699403"><ele>133.0</ele><time>2026-05-03T06:53:50.419Z</time></trkpt><trkpt lat="43.4414213" lon="11.1698822"><ele>133.0</ele><time>2026-05-03T06:53:51.414Z</time></trkpt><trkpt lat="43.4413357" lon="11.1698298"><ele>132.5</ele><time>2026-05-03T06:53:52.427Z</time></trkpt><trkpt lat="43.4412562" lon="11.1697781"><ele>132.0</ele><time>2026-05-03T06:53:53.418Z</time></trkpt><trkpt lat="43.441187" lon="11.1697198"><ele>131.5</ele><time>2026-05-03T06:53:54.486Z</time></trkpt><trkpt lat="43.441122" lon="11.1696594"><ele>131.0</ele><time>2026-05-03T06:53:55.404Z</time></trkpt><trkpt lat="43.44088" lon="11.1693705"><ele>131.0</ele><time>2026-05-03T06:53:59.417Z</time></trkpt><trkpt lat="43.4408857" lon="11.1692795"><ele>131.0</ele><time>2026-05-03T06:54:00.408Z</time></trkpt><trkpt lat="43.4408288" lon="11.1691855"><ele>131.0</ele><time>2026-05-03T06:54:01.404Z</time></trkpt><trkpt lat="43.4407902" lon="11.1690835"><ele>131.0</ele><time>2026-05-03T06:54:02.42Z</time></trkpt><trkpt lat="43.4407622" lon="11.1689703"><ele>131.0</ele><time>2026-05-03T06:54:03.42Z</time></trkpt><trkpt lat="43.4407425" lon="11.1688649"><ele>131.0</ele><time>2026-05-03T06:54:04.407Z</time></trkpt><trkpt lat="43.4407226" lon="11.1687643"><ele>131.5</ele><time>2026-05-03T06:54:05.396Z</time></trkpt><trkpt lat="43.4407044" lon="11.1686612"><ele>132.0</ele><time>2026-05-03T06:54:06.42Z</time></trkpt><trkpt lat="43.4406817" lon="11.1685578"><ele>132.5</ele><time>2026-05-03T06:54:07.407Z</time></trkpt><trkpt lat="43.440653" lon="11.1684547"><ele>133.0</ele><time>2026-05-03T06:54:08.409Z</time></trkpt><trkpt lat="43.4406152" lon="11.1683607"><ele>133.5</ele><time>2026-05-03T06:54:09.493Z</time></trkpt><trkpt lat="43.4405764" lon="11.1682682"><ele>134.0</ele><time>2026-05-03T06:54:10.405Z</time></trkpt><trkpt lat="43.4405326" lon="11.1681714"><ele>134.71428571428572</ele><time>2026-05-03T06:54:11.417Z</time></trkpt><trkpt lat="43.4404901" lon="11.1680794"><ele>135.42857142857142</ele><time>2026-05-03T06:54:12.409Z</time></trkpt><trkpt lat="43.440439" lon="11.1679915"><ele>136.14285714285714</ele><time>2026-05-03T06:54:13.479Z</time></trkpt><trkpt lat="43.4403962" lon="11.1679048"><ele>136.85714285714286</ele><time>2026-05-03T06:54:14.486Z</time></trkpt><trkpt lat="43.4403502" lon="11.1678363"><ele>137.57142857142858</ele><time>2026-05-03T06:54:15.476Z</time></trkpt><trkpt lat="43.4403062" lon="11.1677673"><ele>138.28571428571428</ele><time>2026-05-03T06:54:16.406Z</time></trkpt><trkpt lat="43.4402611" lon="11.1676976"><ele>139.0</ele><time>2026-05-03T06:54:17.418Z</time></trkpt><trkpt lat="43.4402115" lon="11.1676336"><ele>138.5</ele><time>2026-05-03T06:54:18.41Z</time></trkpt><trkpt lat="43.4401473" lon="11.1675706"><ele>138.0</ele><time>2026-05-03T06:54:19.401Z</time></trkpt><trkpt lat="43.4400786" lon="11.1675004"><ele>137.5</ele><time>2026-05-03T06:54:20.411Z</time></trkpt><trkpt lat="43.4400166" lon="11.1674485"><ele>137.0</ele><time>2026-05-03T06:54:21.407Z</time></trkpt><trkpt lat="43.4399562" lon="11.1674198"><ele>136.5</ele><time>2026-05-03T06:54:22.403Z</time></trkpt><trkpt lat="43.4398833" lon="11.1673695"><ele>136.0</ele><time>2026-05-03T06:54:23.475Z</time></trkpt><trkpt lat="43.4398163" lon="11.1673251"><ele>136.0</ele><time>2026-05-03T06:54:24.417Z</time></trkpt><trkpt lat="43.4397406" lon="11.1672854"><ele>136.0</ele><time>2026-05-03T06:54:25.403Z</time></trkpt><trkpt lat="43.4396736" lon="11.1672396"><ele>136.0</ele><time>2026-05-03T06:54:26.405Z</time></trkpt><trkpt lat="43.4396234" lon="11.1671817"><ele>136.0</ele><time>2026-05-03T06:54:27.417Z</time></trkpt><trkpt lat="43.4395737" lon="11.1671276"><ele>136.0</ele><time>2026-05-03T06:54:28.398Z</time></trkpt><trkpt lat="43.439533" lon="11.1670606"><ele>136.0</ele><time>2026-05-03T06:54:29.414Z</time></trkpt><trkpt lat="43.4394727" lon="11.166928"><ele>135.83333333333334</ele><time>2026-05-03T06:54:31.409Z</time></trkpt><trkpt lat="43.4394372" lon="11.1667902"><ele>135.66666666666669</ele><time>2026-05-03T06:54:33.386Z</time></trkpt><trkpt lat="43.4394288" lon="11.1666684"><ele>135.5</ele><time>2026-05-03T06:54:35.414Z</time></trkpt><trkpt lat="43.4394306" lon="11.1665522"><ele>135.33333333333334</ele><time>2026-05-03T06:54:37.407Z</time></trkpt><trkpt lat="43.4394336" lon="11.166445"><ele>135.16666666666666</ele><time>2026-05-03T06:54:39.408Z</time></trkpt><trkpt lat="43.439442" lon="11.1663381"><ele>135.0</ele><time>2026-05-03T06:54:41.414Z</time></trkpt><trkpt lat="43.4394586" lon="11.1662474"><ele>135.0</ele><time>2026-05-03T06:54:43.423Z</time></trkpt><trkpt lat="43.4394848" lon="11.1661627"><ele>135.0</ele><time>2026-05-03T06:54:45.412Z</time></trkpt><trkpt lat="43.4395125" lon="11.1660632"><ele>135.0</ele><time>2026-05-03T06:54:48.4Z</time></trkpt><trkpt lat="43.4395374" lon="11.1659713"><ele>135.0</ele><time>2026-05-03T06:54:51.405Z</time></trkpt><trkpt lat="43.4395813" lon="11.1659003"><ele>135.0</ele><time>2026-05-03T06:54:54.411Z</time></trkpt><trkpt lat="43.4395956" lon="11.1658155"><ele>135.0</ele><time>2026-05-03T06:54:57.411Z</time></trkpt><trkpt lat="43.4395941" lon="11.1656866"><ele>135.0</ele><time>2026-05-03T06:55:00.393Z</time></trkpt><trkpt lat="43.4395892" lon="11.1655901"><ele>135.16666666666666</ele><time>2026-05-03T06:55:05.398Z</time></trkpt><trkpt lat="43.4396301" lon="11.1655087"><ele>135.33333333333334</ele><time>2026-05-03T06:55:08.402Z</time></trkpt><trkpt lat="43.439666" lon="11.165423"><ele>135.5</ele><time>2026-05-03T06:55:11.411Z</time></trkpt><trkpt lat="43.439699" lon="11.1653294"><ele>135.66666666666669</ele><time>2026-05-03T06:55:14.412Z</time></trkpt><trkpt lat="43.4397452" lon="11.1652338"><ele>135.83333333333334</ele><time>2026-05-03T06:55:17.416Z</time></trkpt><trkpt lat="43.4397833" lon="11.1651455"><ele>136.0</ele><time>2026-05-03T06:55:20.415Z</time></trkpt><trkpt lat="43.4398171" lon="11.1650413"><ele>136.5</ele><time>2026-05-03T06:55:23.488Z</time></trkpt><trkpt lat="43.4398651" lon="11.164944"><ele>137.0</ele><time>2026-05-03T06:55:26.419Z</time></trkpt><trkpt lat="43.4398828" lon="11.1648276"><ele>137.5</ele><time>2026-05-03T06:55:29.411Z</time></trkpt><trkpt lat="43.4398995" lon="11.164718"><ele>138.0</ele><time>2026-05-03T06:55:32.421Z</time></trkpt><trkpt lat="43.4399282" lon="11.1646128"><ele>138.5</ele><time>2026-05-03T06:55:35.409Z</time></trkpt><trkpt lat="43.4399561" lon="11.1644988"><ele>139.0</ele><time>2026-05-03T06:55:38.426Z</time></trkpt><trkpt lat="43.4399651" lon="11.1643835"><ele>139.33333333333334</ele><time>2026-05-03T06:55:41.411Z</time></trkpt><trkpt lat="43.4399997" lon="11.1642761"><ele>139.66666666666669</ele><time>2026-05-03T06:55:44.403Z</time></trkpt><trkpt lat="43.4400202" lon="11.1641562"><ele>140.0</ele><time>2026-05-03T06:55:47.401Z</time></trkpt><trkpt lat="43.4400377" lon="11.1640324"><ele>140.33333333333334</ele><time>2026-05-03T06:55:50.42Z</time></trkpt><trkpt lat="43.4400599" lon="11.1639196"><ele>140.66666666666666</ele><time>2026-05-03T06:55:53.456Z</time></trkpt><trkpt lat="43.4400892" lon="11.1637979"><ele>141.0</ele><time>2026-05-03T06:55:56.41Z</time></trkpt><trkpt lat="43.44009" lon="11.1637083"><ele>141.0</ele><time>2026-05-03T06:55:58.485Z</time></trkpt><trkpt lat="43.4400974" lon="11.1636173"><ele>141.0</ele><time>2026-05-03T06:56:00.413Z</time></trkpt><trkpt lat="43.440104" lon="11.1635188"><ele>141.0</ele><time>2026-05-03T06:56:02.397Z</time></trkpt><trkpt lat="43.4401139" lon="11.1634242"><ele>141.0</ele><time>2026-05-03T06:56:04.409Z</time></trkpt><trkpt lat="43.440126" lon="11.1633251"><ele>141.0</ele><time>2026-05-03T06:56:06.41Z</time></trkpt><trkpt lat="43.4401222" lon="11.1632273"><ele>141.0</ele><time>2026-05-03T06:56:08.409Z</time></trkpt><trkpt lat="43.4401422" lon="11.1630987"><ele>141.0</ele><time>2026-05-03T06:56:11.419Z</time></trkpt><trkpt lat="43.4401686" lon="11.1630118"><ele>141.0</ele><time>2026-05-03T06:56:13.416Z</time></trkpt><trkpt lat="43.4401778" lon="11.1628993"><ele>141.0</ele><time>2026-05-03T06:56:15.417Z</time></trkpt><trkpt lat="43.4401906" lon="11.1627855"><ele>141.0</ele><time>2026-05-03T06:56:17.415Z</time></trkpt><trkpt lat="43.440235" lon="11.1626845"><ele>141.0</ele><time>2026-05-03T06:56:19.478Z</time></trkpt><trkpt lat="43.4402587" lon="11.1625966"><ele>141.0</ele><time>2026-05-03T06:56:21.401Z</time></trkpt><trkpt lat="43.4402581" lon="11.1624851"><ele>141.0</ele><time>2026-05-03T06:56:23.405Z</time></trkpt><trkpt lat="43.4402453" lon="11.162349"><ele>141.0</ele><time>2026-05-03T06:56:25.487Z</time></trkpt><trkpt lat="43.4402573" lon="11.1622227"><ele>141.0</ele><time>2026-05-03T06:56:27.407Z</time></trkpt><trkpt lat="43.4402447" lon="11.1620602"><ele>141.0</ele><time>2026-05-03T06:56:29.481Z</time></trkpt><trkpt lat="43.4402863" lon="11.1619101"><ele>141.0</ele><time>2026-05-03T06:56:31.422Z</time></trkpt><trkpt lat="43.4403139" lon="11.161782"><ele>141.0</ele><time>2026-05-03T06:56:33.42Z</time></trkpt><trkpt lat="43.4403532" lon="11.1616457"><ele>140.8</ele><time>2026-05-03T06:56:35.399Z</time></trkpt><trkpt lat="43.4403907" lon="11.1615148"><ele>140.6</ele><time>2026-05-03T06:56:37.416Z</time></trkpt><trkpt lat="43.4404302" lon="11.1613848"><ele>140.4</ele><time>2026-05-03T06:56:39.409Z</time></trkpt><trkpt lat="43.4404626" lon="11.1612551"><ele>140.2</ele><time>2026-05-03T06:56:41.424Z</time></trkpt><trkpt lat="43.4404929" lon="11.1611339"><ele>140.0</ele><time>2026-05-03T06:56:43.485Z</time></trkpt><trkpt lat="43.4405707" lon="11.1609158"><ele>140.0</ele><time>2026-05-03T06:56:47.41Z</time></trkpt><trkpt lat="43.4405923" lon="11.160772"><ele>140.0</ele><time>2026-05-03T06:56:49.421Z</time></trkpt><trkpt lat="43.4406319" lon="11.1606597"><ele>140.0</ele><time>2026-05-03T06:56:51.404Z</time></trkpt><trkpt lat="43.4406603" lon="11.160528"><ele>140.0</ele><time>2026-05-03T06:56:53.405Z</time></trkpt><trkpt lat="43.4406957" lon="11.1604086"><ele>140.0</ele><time>2026-05-03T06:56:55.47Z</time></trkpt><trkpt lat="43.440728" lon="11.160274"><ele>140.0</ele><time>2026-05-03T06:56:57.406Z</time></trkpt><trkpt lat="43.4407738" lon="11.1601424"><ele>140.0</ele><time>2026-05-03T06:56:59.398Z</time></trkpt><trkpt lat="43.4408229" lon="11.1600038"><ele>140.0</ele><time>2026-05-03T06:57:01.417Z</time></trkpt><trkpt lat="43.4408771" lon="11.1598627"><ele>140.0</ele><time>2026-05-03T06:57:03.404Z</time></trkpt><trkpt lat="43.4409082" lon="11.1597154"><ele>140.0</ele><time>2026-05-03T06:57:05.485Z</time></trkpt><trkpt lat="43.4409683" lon="11.1595765"><ele>139.57142857142858</ele><time>2026-05-03T06:57:07.418Z</time></trkpt><trkpt lat="43.4410054" lon="11.1594897"><ele>139.14285714285714</ele><time>2026-05-03T06:57:08.411Z</time></trkpt><trkpt lat="43.4410404" lon="11.1594048"><ele>138.71428571428572</ele><time>2026-05-03T06:57:09.419Z</time></trkpt><trkpt lat="43.4410756" lon="11.1593208"><ele>138.28571428571428</ele><time>2026-05-03T06:57:10.411Z</time></trkpt><trkpt lat="43.4411099" lon="11.1592355"><ele>137.85714285714286</ele><time>2026-05-03T06:57:11.402Z</time></trkpt><trkpt lat="43.4411485" lon="11.1591558"><ele>137.42857142857144</ele><time>2026-05-03T06:57:12.419Z</time></trkpt><trkpt lat="43.441182" lon="11.1590723"><ele>137.0</ele><time>2026-05-03T06:57:13.387Z</time></trkpt><trkpt lat="43.4412158" lon="11.1589909"><ele>136.71428571428572</ele><time>2026-05-03T06:57:14.403Z</time></trkpt><trkpt lat="43.441251" lon="11.1589087"><ele>136.42857142857144</ele><time>2026-05-03T06:57:15.411Z</time></trkpt><trkpt lat="43.4412857" lon="11.1588274"><ele>136.14285714285714</ele><time>2026-05-03T06:57:16.41Z</time></trkpt><trkpt lat="43.441324" lon="11.1587498"><ele>135.85714285714286</ele><time>2026-05-03T06:57:17.409Z</time></trkpt><trkpt lat="43.4413663" lon="11.1586746"><ele>135.57142857142856</ele><time>2026-05-03T06:57:18.452Z</time></trkpt><trkpt lat="43.4414069" lon="11.1585976"><ele>135.28571428571428</ele><time>2026-05-03T06:57:19.415Z</time></trkpt><trkpt lat="43.4414483" lon="11.1585188"><ele>135.0</ele><time>2026-05-03T06:57:20.416Z</time></trkpt><trkpt lat="43.4414848" lon="11.1584344"><ele>135.0</ele><time>2026-05-03T06:57:21.414Z</time></trkpt><trkpt lat="43.4415703" lon="11.1583014"><ele>135.0</ele><time>2026-05-03T06:57:23.415Z</time></trkpt><trkpt lat="43.4416305" lon="11.1582377"><ele>135.0</ele><time>2026-05-03T06:57:24.426Z</time></trkpt><trkpt lat="43.4416836" lon="11.1581908"><ele>135.0</ele><time>2026-05-03T06:57:25.391Z</time></trkpt><trkpt lat="43.4417411" lon="11.1581433"><ele>135.0</ele><time>2026-05-03T06:57:26.4Z</time></trkpt><trkpt lat="43.4417949" lon="11.1580882"><ele>135.0</ele><time>2026-05-03T06:57:27.421Z</time></trkpt><trkpt lat="43.4418482" lon="11.1580358"><ele>134.83333333333334</ele><time>2026-05-03T06:57:28.439Z</time></trkpt><trkpt lat="43.4419034" lon="11.1579867"><ele>134.66666666666666</ele><time>2026-05-03T06:57:29.396Z</time></trkpt><trkpt lat="43.44196" lon="11.1579414"><ele>134.5</ele><time>2026-05-03T06:57:30.424Z</time></trkpt><trkpt lat="43.4420551" lon="11.1578386"><ele>134.33333333333331</ele><time>2026-05-03T06:57:32.4Z</time></trkpt><trkpt lat="43.4421075" lon="11.1577854"><ele>134.16666666666666</ele><time>2026-05-03T06:57:33.406Z</time></trkpt><trkpt lat="43.4421593" lon="11.157713"><ele>134.0</ele><time>2026-05-03T06:57:34.486Z</time></trkpt><trkpt lat="43.4422112" lon="11.1576406"><ele>134.0</ele><time>2026-05-03T06:57:35.417Z</time></trkpt><trkpt lat="43.4422652" lon="11.1575766"><ele>134.0</ele><time>2026-05-03T06:57:36.429Z</time></trkpt><trkpt lat="43.4423193" lon="11.1575108"><ele>134.0</ele><time>2026-05-03T06:57:37.418Z</time></trkpt><trkpt lat="43.4423772" lon="11.1574496"><ele>134.0</ele><time>2026-05-03T06:57:38.473Z</time></trkpt><trkpt lat="43.4424412" lon="11.157415"><ele>134.0</ele><time>2026-05-03T06:57:39.482Z</time></trkpt><trkpt lat="43.4425014" lon="11.1573802"><ele>134.0</ele><time>2026-05-03T06:57:40.409Z</time></trkpt><trkpt lat="43.4425589" lon="11.1573177"><ele>134.0</ele><time>2026-05-03T06:57:41.415Z</time></trkpt><trkpt lat="43.4426118" lon="11.1572491"><ele>133.66666666666666</ele><time>2026-05-03T06:57:42.418Z</time></trkpt><trkpt lat="43.4426827" lon="11.1571959"><ele>133.33333333333331</ele><time>2026-05-03T06:57:43.425Z</time></trkpt><trkpt lat="43.4427513" lon="11.1571511"><ele>133.0</ele><time>2026-05-03T06:57:44.413Z</time></trkpt><trkpt lat="43.4428195" lon="11.1571116"><ele>132.66666666666666</ele><time>2026-05-03T06:57:45.417Z</time></trkpt><trkpt lat="43.4428857" lon="11.1570657"><ele>132.33333333333334</ele><time>2026-05-03T06:57:46.425Z</time></trkpt><trkpt lat="43.4429537" lon="11.157013"><ele>132.0</ele><time>2026-05-03T06:57:47.407Z</time></trkpt><trkpt lat="43.4430177" lon="11.156962"><ele>132.0</ele><time>2026-05-03T06:57:48.393Z</time></trkpt><trkpt lat="43.4430842" lon="11.1569093"><ele>132.0</ele><time>2026-05-03T06:57:49.412Z</time></trkpt><trkpt lat="43.4431487" lon="11.1568683"><ele>132.0</ele><time>2026-05-03T06:57:50.429Z</time></trkpt><trkpt lat="43.4432123" lon="11.1568299"><ele>132.0</ele><time>2026-05-03T06:57:51.423Z</time></trkpt><trkpt lat="43.4432763" lon="11.1567872"><ele>132.0</ele><time>2026-05-03T06:57:52.42Z</time></trkpt><trkpt lat="43.4433407" lon="11.1567426"><ele>132.0</ele><time>2026-05-03T06:57:53.41Z</time></trkpt><trkpt lat="43.4434035" lon="11.1566954"><ele>132.0</ele><time>2026-05-03T06:57:54.419Z</time></trkpt><trkpt lat="43.4434617" lon="11.1566523"><ele>132.0</ele><time>2026-05-03T06:57:55.397Z</time></trkpt><trkpt lat="43.4435171" lon="11.1566103"><ele>132.0</ele><time>2026-05-03T06:57:56.416Z</time></trkpt><trkpt lat="43.443576" lon="11.1565687"><ele>132.0</ele><time>2026-05-03T06:57:57.419Z</time></trkpt><trkpt lat="43.4436338" lon="11.1565283"><ele>132.0</ele><time>2026-05-03T06:57:58.41Z</time></trkpt><trkpt lat="43.4436931" lon="11.156486"><ele>132.0</ele><time>2026-05-03T06:57:59.414Z</time></trkpt><trkpt lat="43.4437547" lon="11.1564406"><ele>132.0</ele><time>2026-05-03T06:58:00.406Z</time></trkpt><trkpt lat="43.4438152" lon="11.1563957"><ele>132.0</ele><time>2026-05-03T06:58:01.429Z</time></trkpt><trkpt lat="43.4439317" lon="11.1563206"><ele>131.4</ele><time>2026-05-03T06:58:03.403Z</time></trkpt><trkpt lat="43.4439971" lon="11.1562875"><ele>130.79999999999998</ele><time>2026-05-03T06:58:04.486Z</time></trkpt><trkpt lat="43.4441194" lon="11.1562458"><ele>130.2</ele><time>2026-05-03T06:58:06.411Z</time></trkpt><trkpt lat="43.4442451" lon="11.1562141"><ele>129.6</ele><time>2026-05-03T06:58:08.419Z</time></trkpt><trkpt lat="43.4443089" lon="11.1562161"><ele>129.0</ele><time>2026-05-03T06:58:09.402Z</time></trkpt><trkpt lat="43.4444289" lon="11.15621"><ele>129.0</ele><time>2026-05-03T06:58:11.391Z</time></trkpt><trkpt lat="43.4445083" lon="11.1561538"><ele>129.0</ele><time>2026-05-03T06:58:13.494Z</time></trkpt><trkpt lat="43.444587" lon="11.1561357"><ele>129.0</ele><time>2026-05-03T06:58:15.409Z</time></trkpt><trkpt lat="43.4446732" lon="11.1561239"><ele>129.0</ele><time>2026-05-03T06:58:17.424Z</time></trkpt><trkpt lat="43.4447546" lon="11.1561095"><ele>129.0</ele><time>2026-05-03T06:58:19.433Z</time></trkpt><trkpt lat="43.4448428" lon="11.1561048"><ele>129.0</ele><time>2026-05-03T06:58:21.411Z</time></trkpt><trkpt lat="43.4449397" lon="11.1561096"><ele>129.6</ele><time>2026-05-03T06:58:23.422Z</time></trkpt><trkpt lat="43.4450347" lon="11.156125"><ele>130.2</ele><time>2026-05-03T06:58:25.434Z</time></trkpt><trkpt lat="43.4451257" lon="11.1561449"><ele>130.79999999999998</ele><time>2026-05-03T06:58:27.424Z</time></trkpt><trkpt lat="43.4452212" lon="11.1561604"><ele>131.4</ele><time>2026-05-03T06:58:29.486Z</time></trkpt><trkpt lat="43.4453208" lon="11.1561814"><ele>132.0</ele><time>2026-05-03T06:58:31.421Z</time></trkpt><trkpt lat="43.4454205" lon="11.1562048"><ele>131.0</ele><time>2026-05-03T06:58:33.476Z</time></trkpt><trkpt lat="43.4454888" lon="11.1561902"><ele>130.0</ele><time>2026-05-03T06:58:35.405Z</time></trkpt><trkpt lat="43.4456014" lon="11.1562152"><ele>129.0</ele><time>2026-05-03T06:58:37.416Z</time></trkpt><trkpt lat="43.4456977" lon="11.1562502"><ele>128.0</ele><time>2026-05-03T06:58:39.494Z</time></trkpt><trkpt lat="43.4458038" lon="11.1562788"><ele>127.0</ele><time>2026-05-03T06:58:41.424Z</time></trkpt><trkpt lat="43.4459076" lon="11.1562995"><ele>127.0</ele><time>2026-05-03T06:58:43.416Z</time></trkpt><trkpt lat="43.4460221" lon="11.156299"><ele>127.0</ele><time>2026-05-03T06:58:45.412Z</time></trkpt><trkpt lat="43.4461414" lon="11.1562943"><ele>127.0</ele><time>2026-05-03T06:58:47.42Z</time></trkpt><trkpt lat="43.4462552" lon="11.1562744"><ele>127.0</ele><time>2026-05-03T06:58:49.491Z</time></trkpt><trkpt lat="43.4463719" lon="11.1562379"><ele>126.66666666666667</ele><time>2026-05-03T06:58:51.413Z</time></trkpt><trkpt lat="43.4464427" lon="11.1562245"><ele>126.33333333333334</ele><time>2026-05-03T06:58:52.412Z</time></trkpt><trkpt lat="43.4465136" lon="11.1562268"><ele>126.0</ele><time>2026-05-03T06:58:53.42Z</time></trkpt><trkpt lat="43.4465787" lon="11.1562208"><ele>125.66666666666666</ele><time>2026-05-03T06:58:54.416Z</time></trkpt><trkpt lat="43.446644" lon="11.1562069"><ele>125.33333333333333</ele><time>2026-05-03T06:58:55.401Z</time></trkpt><trkpt lat="43.4467699" lon="11.1561801"><ele>125.0</ele><time>2026-05-03T06:58:57.411Z</time></trkpt><trkpt lat="43.4468921" lon="11.1561512"><ele>125.0</ele><time>2026-05-03T06:58:59.421Z</time></trkpt><trkpt lat="43.446959" lon="11.1561395"><ele>125.0</ele><time>2026-05-03T06:59:00.417Z</time></trkpt><trkpt lat="43.4470771" lon="11.1561159"><ele>125.0</ele><time>2026-05-03T06:59:02.426Z</time></trkpt><trkpt lat="43.4471901" lon="11.1560972"><ele>125.0</ele><time>2026-05-03T06:59:04.414Z</time></trkpt><trkpt lat="43.4472899" lon="11.1560925"><ele>125.0</ele><time>2026-05-03T06:59:06.412Z</time></trkpt><trkpt lat="43.4473653" lon="11.1560685"><ele>126.33333333333333</ele><time>2026-05-03T06:59:08.486Z</time></trkpt><trkpt lat="43.447445" lon="11.1560374"><ele>127.66666666666666</ele><time>2026-05-03T06:59:10.411Z</time></trkpt><trkpt lat="43.4475156" lon="11.1560116"><ele>129.0</ele><time>2026-05-03T06:59:12.425Z</time></trkpt><trkpt lat="43.4475905" lon="11.1559871"><ele>130.33333333333334</ele><time>2026-05-03T06:59:14.418Z</time></trkpt><trkpt lat="43.4476601" lon="11.1559509"><ele>131.66666666666669</ele><time>2026-05-03T06:59:16.412Z</time></trkpt><trkpt lat="43.4477419" lon="11.1558889"><ele>133.0</ele><time>2026-05-03T06:59:18.393Z</time></trkpt><trkpt lat="43.447825" lon="11.1558131"><ele>133.0</ele><time>2026-05-03T06:59:20.416Z</time></trkpt><trkpt lat="43.4479119" lon="11.1557374"><ele>133.0</ele><time>2026-05-03T06:59:22.407Z</time></trkpt><trkpt lat="43.4479861" lon="11.1556622"><ele>133.0</ele><time>2026-05-03T06:59:24.399Z</time></trkpt><trkpt lat="43.4480591" lon="11.1555922"><ele>133.0</ele><time>2026-05-03T06:59:26.415Z</time></trkpt><trkpt lat="43.4481302" lon="11.1555154"><ele>133.0</ele><time>2026-05-03T06:59:28.417Z</time></trkpt><trkpt lat="43.4481991" lon="11.1554398"><ele>132.33333333333334</ele><time>2026-05-03T06:59:30.422Z</time></trkpt><trkpt lat="43.4482719" lon="11.1553728"><ele>131.66666666666669</ele><time>2026-05-03T06:59:32.414Z</time></trkpt><trkpt lat="43.4483681" lon="11.1552837"><ele>131.0</ele><time>2026-05-03T06:59:34.413Z</time></trkpt><trkpt lat="43.4484224" lon="11.155234"><ele>130.33333333333334</ele><time>2026-05-03T06:59:35.415Z</time></trkpt><trkpt lat="43.4484828" lon="11.1551846"><ele>129.66666666666666</ele><time>2026-05-03T06:59:36.435Z</time></trkpt><trkpt lat="43.448547" lon="11.1551407"><ele>129.0</ele><time>2026-05-03T06:59:37.422Z</time></trkpt><trkpt lat="43.4486144" lon="11.1550994"><ele>129.0</ele><time>2026-05-03T06:59:38.395Z</time></trkpt><trkpt lat="43.4486857" lon="11.1550696"><ele>129.0</ele><time>2026-05-03T06:59:39.412Z</time></trkpt><trkpt lat="43.4487485" lon="11.1550506"><ele>129.0</ele><time>2026-05-03T06:59:40.418Z</time></trkpt><trkpt lat="43.4488623" lon="11.1550394"><ele>129.0</ele><time>2026-05-03T06:59:42.406Z</time></trkpt><trkpt lat="43.4489314" lon="11.155033"><ele>129.0</ele><time>2026-05-03T06:59:43.409Z</time></trkpt><trkpt lat="43.4489995" lon="11.1550211"><ele>129.0</ele><time>2026-05-03T06:59:44.494Z</time></trkpt><trkpt lat="43.4490704" lon="11.1549997"><ele>130.0</ele><time>2026-05-03T06:59:45.48Z</time></trkpt><trkpt lat="43.4491959" lon="11.154984"><ele>131.0</ele><time>2026-05-03T06:59:47.405Z</time></trkpt><trkpt lat="43.4492592" lon="11.1549758"><ele>132.0</ele><time>2026-05-03T06:59:48.395Z</time></trkpt><trkpt lat="43.4493801" lon="11.1549536"><ele>133.0</ele><time>2026-05-03T06:59:50.4Z</time></trkpt><trkpt lat="43.4494977" lon="11.1549377"><ele>134.0</ele><time>2026-05-03T06:59:52.417Z</time></trkpt><trkpt lat="43.449616" lon="11.1549263"><ele>134.16666666666666</ele><time>2026-05-03T06:59:54.403Z</time></trkpt><trkpt lat="43.4497159" lon="11.1549242"><ele>134.33333333333331</ele><time>2026-05-03T06:59:56.407Z</time></trkpt><trkpt lat="43.449796" lon="11.1549368"><ele>134.5</ele><time>2026-05-03T06:59:58.426Z</time></trkpt><trkpt lat="43.4498674" lon="11.1549168"><ele>134.66666666666666</ele><time>2026-05-03T06:59:59.402Z</time></trkpt><trkpt lat="43.4499875" lon="11.1548949"><ele>134.83333333333334</ele><time>2026-05-03T07:00:01.432Z</time></trkpt><trkpt lat="43.4500491" lon="11.1548754"><ele>135.0</ele><time>2026-05-03T07:00:02.396Z</time></trkpt><trkpt lat="43.4501119" lon="11.1548625"><ele>133.75</ele><time>2026-05-03T07:00:03.408Z</time></trkpt><trkpt lat="43.4502304" lon="11.1548347"><ele>132.5</ele><time>2026-05-03T07:00:05.414Z</time></trkpt><trkpt lat="43.4503355" lon="11.1547729"><ele>131.25</ele><time>2026-05-03T07:00:07.423Z</time></trkpt><trkpt lat="43.4504245" lon="11.1546727"><ele>130.0</ele><time>2026-05-03T07:00:09.407Z</time></trkpt><trkpt lat="43.4504985" lon="11.1545548"><ele>129.25</ele><time>2026-05-03T07:00:11.406Z</time></trkpt><trkpt lat="43.4505756" lon="11.1544278"><ele>128.5</ele><time>2026-05-03T07:00:13.407Z</time></trkpt><trkpt lat="43.4506465" lon="11.1542913"><ele>127.75</ele><time>2026-05-03T07:00:15.414Z</time></trkpt><trkpt lat="43.4507149" lon="11.154156"><ele>127.0</ele><time>2026-05-03T07:00:17.42Z</time></trkpt><trkpt lat="43.4507805" lon="11.1540199"><ele>127.0</ele><time>2026-05-03T07:00:19.413Z</time></trkpt><trkpt lat="43.4508188" lon="11.1539496"><ele>126.99999999999999</ele><time>2026-05-03T07:00:20.411Z</time></trkpt><trkpt lat="43.4508843" lon="11.1538161"><ele>126.99999999999999</ele><time>2026-05-03T07:00:22.416Z</time></trkpt><trkpt lat="43.4509529" lon="11.1536738"><ele>127.0</ele><time>2026-05-03T07:00:24.413Z</time></trkpt><trkpt lat="43.4510125" lon="11.1535649"><ele>127.0</ele><time>2026-05-03T07:00:26.422Z</time></trkpt><trkpt lat="43.4510866" lon="11.1534537"><ele>127.00000000000001</ele><time>2026-05-03T07:00:28.411Z</time></trkpt><trkpt lat="43.4511199" lon="11.1533779"><ele>127.0</ele><time>2026-05-03T07:00:29.483Z</time></trkpt><trkpt lat="43.4511441" lon="11.1532938"><ele>127.0</ele><time>2026-05-03T07:00:30.388Z</time></trkpt><trkpt lat="43.4511636" lon="11.1532071"><ele>127.0</ele><time>2026-05-03T07:00:31.405Z</time></trkpt><trkpt lat="43.4511796" lon="11.1530335"><ele>127.00000000000001</ele><time>2026-05-03T07:00:33.425Z</time></trkpt><trkpt lat="43.4511461" lon="11.1528703"><ele>127.0</ele><time>2026-05-03T07:00:35.424Z</time></trkpt><trkpt lat="43.4511038" lon="11.15279"><ele>126.33333333333334</ele><time>2026-05-03T07:00:36.414Z</time></trkpt><trkpt lat="43.4510561" lon="11.1527198"><ele>125.66666666666667</ele><time>2026-05-03T07:00:37.418Z</time></trkpt><trkpt lat="43.4510081" lon="11.1526564"><ele>125.0</ele><time>2026-05-03T07:00:38.429Z</time></trkpt><trkpt lat="43.4509561" lon="11.1525893"><ele>124.33333333333334</ele><time>2026-05-03T07:00:39.411Z</time></trkpt><trkpt lat="43.4509005" lon="11.1525306"><ele>123.66666666666667</ele><time>2026-05-03T07:00:40.42Z</time></trkpt><trkpt lat="43.4508518" lon="11.1524681"><ele>123.0</ele><time>2026-05-03T07:00:41.417Z</time></trkpt><trkpt lat="43.4507817" lon="11.1523302"><ele>121.60000000000001</ele><time>2026-05-03T07:00:43.411Z</time></trkpt><trkpt lat="43.4507551" lon="11.152158"><ele>120.20000000000002</ele><time>2026-05-03T07:00:45.406Z</time></trkpt><trkpt lat="43.4507565" lon="11.1520707"><ele>118.8</ele><time>2026-05-03T07:00:46.412Z</time></trkpt><trkpt lat="43.450801" lon="11.1519068"><ele>117.4</ele><time>2026-05-03T07:00:48.408Z</time></trkpt><trkpt lat="43.4508441" lon="11.1518379"><ele>116.0</ele><time>2026-05-03T07:00:49.417Z</time></trkpt><trkpt lat="43.450898" lon="11.1517842"><ele>116.00000000000001</ele><time>2026-05-03T07:00:50.423Z</time></trkpt><trkpt lat="43.4509587" lon="11.1517418"><ele>116.0</ele><time>2026-05-03T07:00:51.422Z</time></trkpt><trkpt lat="43.4510242" lon="11.1517199"><ele>116.00000000000001</ele><time>2026-05-03T07:00:52.411Z</time></trkpt><trkpt lat="43.4510978" lon="11.1517143"><ele>116.00000000000001</ele><time>2026-05-03T07:00:53.496Z</time></trkpt><trkpt lat="43.4511708" lon="11.1517317"><ele>116.0</ele><time>2026-05-03T07:00:54.421Z</time></trkpt><trkpt lat="43.4512478" lon="11.1517703"><ele>116.00000000000001</ele><time>2026-05-03T07:00:55.398Z</time></trkpt><trkpt lat="43.4513216" lon="11.1518221"><ele>116.00000000000001</ele><time>2026-05-03T07:00:56.406Z</time></trkpt><trkpt lat="43.4513773" lon="11.1518828"><ele>115.66666666666666</ele><time>2026-05-03T07:00:57.403Z</time></trkpt><trkpt lat="43.4514218" lon="11.1519453"><ele>115.33333333333333</ele><time>2026-05-03T07:00:58.425Z</time></trkpt><trkpt lat="43.4515034" lon="11.1520412"><ele>115.0</ele><time>2026-05-03T07:01:00.472Z</time></trkpt><trkpt lat="43.4515756" lon="11.1521116"><ele>114.66666666666666</ele><time>2026-05-03T07:01:02.415Z</time></trkpt><trkpt lat="43.4516456" lon="11.1521632"><ele>114.33333333333333</ele><time>2026-05-03T07:01:04.407Z</time></trkpt><trkpt lat="43.4516521" lon="11.1522725"><ele>114.0</ele><time>2026-05-03T07:01:06.419Z</time></trkpt><trkpt lat="43.4516976" lon="11.1523895"><ele>113.80000000000001</ele><time>2026-05-03T07:01:09.388Z</time></trkpt><trkpt lat="43.4517634" lon="11.1524614"><ele>113.60000000000001</ele><time>2026-05-03T07:01:11.393Z</time></trkpt><trkpt lat="43.4518684" lon="11.1525082"><ele>113.4</ele><time>2026-05-03T07:01:13.412Z</time></trkpt><trkpt lat="43.4519828" lon="11.1525346"><ele>113.2</ele><time>2026-05-03T07:01:15.428Z</time></trkpt><trkpt lat="43.4521001" lon="11.1525914"><ele>113.0</ele><time>2026-05-03T07:01:17.425Z</time></trkpt><trkpt lat="43.4522042" lon="11.1526723"><ele>112.66666666666666</ele><time>2026-05-03T07:01:19.411Z</time></trkpt><trkpt lat="43.4522782" lon="11.1527532"><ele>112.33333333333333</ele><time>2026-05-03T07:01:21.407Z</time></trkpt><trkpt lat="43.4522999" lon="11.1528386"><ele>112.0</ele><time>2026-05-03T07:01:23.465Z</time></trkpt><trkpt lat="43.4522812" lon="11.1529296"><ele>111.66666666666666</ele><time>2026-05-03T07:01:25.398Z</time></trkpt><trkpt lat="43.4522784" lon="11.1530517"><ele>111.33333333333333</ele><time>2026-05-03T07:01:27.422Z</time></trkpt><trkpt lat="43.4523052" lon="11.1531491"><ele>111.0</ele><time>2026-05-03T07:01:29.411Z</time></trkpt><trkpt lat="43.4523085" lon="11.1532433"><ele>110.4</ele><time>2026-05-03T07:01:31.42Z</time></trkpt><trkpt lat="43.4523291" lon="11.1533473"><ele>109.8</ele><time>2026-05-03T07:01:33.478Z</time></trkpt><trkpt lat="43.4523566" lon="11.1534795"><ele>109.20000000000002</ele><time>2026-05-03T07:01:35.485Z</time></trkpt><trkpt lat="43.4523693" lon="11.1536091"><ele>108.60000000000001</ele><time>2026-05-03T07:01:37.418Z</time></trkpt><trkpt lat="43.4523818" lon="11.1537312"><ele>108.0</ele><time>2026-05-03T07:01:39.479Z</time></trkpt><trkpt lat="43.4523895" lon="11.1538509"><ele>108.0</ele><time>2026-05-03T07:01:41.391Z</time></trkpt><trkpt lat="43.4524546" lon="11.1540143"><ele>108.00000000000001</ele><time>2026-05-03T07:01:43.407Z</time></trkpt><trkpt lat="43.4524853" lon="11.1541481"><ele>108.00000000000001</ele><time>2026-05-03T07:01:45.471Z</time></trkpt><trkpt lat="43.4524988" lon="11.1542968"><ele>108.0</ele><time>2026-05-03T07:01:47.41Z</time></trkpt><trkpt lat="43.4525413" lon="11.154411"><ele>108.0</ele><time>2026-05-03T07:01:49.409Z</time></trkpt><trkpt lat="43.4526205" lon="11.154532"><ele>108.0</ele><time>2026-05-03T07:01:51.386Z</time></trkpt><trkpt lat="43.4527125" lon="11.1546183"><ele>108.0</ele><time>2026-05-03T07:01:53.412Z</time></trkpt><trkpt lat="43.4528028" lon="11.1547154"><ele>108.0</ele><time>2026-05-03T07:01:55.476Z</time></trkpt><trkpt lat="43.4528982" lon="11.1548069"><ele>108.0</ele><time>2026-05-03T07:01:57.415Z</time></trkpt><trkpt lat="43.4529945" lon="11.1549008"><ele>108.2</ele><time>2026-05-03T07:01:59.488Z</time></trkpt><trkpt lat="43.4530869" lon="11.154994"><ele>108.4</ele><time>2026-05-03T07:02:01.399Z</time></trkpt><trkpt lat="43.453183" lon="11.1550747"><ele>108.60000000000001</ele><time>2026-05-03T07:02:03.415Z</time></trkpt><trkpt lat="43.4532731" lon="11.1551367"><ele>108.80000000000001</ele><time>2026-05-03T07:02:05.488Z</time></trkpt><trkpt lat="43.4533631" lon="11.1552128"><ele>109.0</ele><time>2026-05-03T07:02:07.412Z</time></trkpt><trkpt lat="43.4534774" lon="11.1552638"><ele>109.0</ele><time>2026-05-03T07:02:09.489Z</time></trkpt><trkpt lat="43.4535915" lon="11.1553028"><ele>109.0</ele><time>2026-05-03T07:02:11.396Z</time></trkpt><trkpt lat="43.4536727" lon="11.1553751"><ele>109.0</ele><time>2026-05-03T07:02:13.411Z</time></trkpt><trkpt lat="43.4536727" lon="11.1554835"><ele>109.0</ele><time>2026-05-03T07:02:15.474Z</time></trkpt><trkpt lat="43.4536109" lon="11.1556373"><ele>109.0</ele><time>2026-05-03T07:02:17.401Z</time></trkpt><trkpt lat="43.4536139" lon="11.1557772"><ele>109.4</ele><time>2026-05-03T07:02:19.399Z</time></trkpt><trkpt lat="43.4536795" lon="11.1558759"><ele>109.80000000000001</ele><time>2026-05-03T07:02:21.408Z</time></trkpt><trkpt lat="43.4537605" lon="11.1559591"><ele>110.19999999999999</ele><time>2026-05-03T07:02:23.421Z</time></trkpt><trkpt lat="43.4538328" lon="11.1560413"><ele>110.6</ele><time>2026-05-03T07:02:25.411Z</time></trkpt><trkpt lat="43.4538945" lon="11.1561126"><ele>111.0</ele><time>2026-05-03T07:02:27.414Z</time></trkpt><trkpt lat="43.4539494" lon="11.1561934"><ele>110.8</ele><time>2026-05-03T07:02:29.411Z</time></trkpt><trkpt lat="43.4540241" lon="11.1562992"><ele>110.6</ele><time>2026-05-03T07:02:31.421Z</time></trkpt><trkpt lat="43.4541013" lon="11.1564025"><ele>110.4</ele><time>2026-05-03T07:02:33.475Z</time></trkpt><trkpt lat="43.454184" lon="11.1564948"><ele>110.2</ele><time>2026-05-03T07:02:35.481Z</time></trkpt><trkpt lat="43.4542407" lon="11.1565958"><ele>110.0</ele><time>2026-05-03T07:02:37.41Z</time></trkpt><trkpt lat="43.4543129" lon="11.1566973"><ele>110.0</ele><time>2026-05-03T07:02:39.405Z</time></trkpt><trkpt lat="43.4543838" lon="11.1568123"><ele>110.0</ele><time>2026-05-03T07:02:41.419Z</time></trkpt><trkpt lat="43.4544567" lon="11.1569133"><ele>110.0</ele><time>2026-05-03T07:02:43.464Z</time></trkpt><trkpt lat="43.454529" lon="11.1570196"><ele>110.0</ele><time>2026-05-03T07:02:45.487Z</time></trkpt><trkpt lat="43.4546112" lon="11.1571436"><ele>110.0</ele><time>2026-05-03T07:02:47.407Z</time></trkpt><trkpt lat="43.4546989" lon="11.1572544"><ele>109.6</ele><time>2026-05-03T07:02:49.478Z</time></trkpt><trkpt lat="43.454749" lon="11.1573951"><ele>109.2</ele><time>2026-05-03T07:02:51.408Z</time></trkpt><trkpt lat="43.4548394" lon="11.1574935"><ele>108.80000000000001</ele><time>2026-05-03T07:02:53.415Z</time></trkpt><trkpt lat="43.4549203" lon="11.1576057"><ele>108.4</ele><time>2026-05-03T07:02:55.401Z</time></trkpt><trkpt lat="43.4549785" lon="11.1576994"><ele>108.0</ele><time>2026-05-03T07:02:57.429Z</time></trkpt><trkpt lat="43.4550346" lon="11.1577846"><ele>108.0</ele><time>2026-05-03T07:02:59.414Z</time></trkpt><trkpt lat="43.4550938" lon="11.1578674"><ele>108.0</ele><time>2026-05-03T07:03:01.415Z</time></trkpt><trkpt lat="43.4551516" lon="11.1579457"><ele>108.0</ele><time>2026-05-03T07:03:03.402Z</time></trkpt><trkpt lat="43.4552201" lon="11.1580178"><ele>108.0</ele><time>2026-05-03T07:03:05.423Z</time></trkpt><trkpt lat="43.4552963" lon="11.1580456"><ele>108.0</ele><time>2026-05-03T07:03:07.401Z</time></trkpt><trkpt lat="43.4553957" lon="11.1580483"><ele>108.0</ele><time>2026-05-03T07:03:09.475Z</time></trkpt><trkpt lat="43.4555167" lon="11.1580511"><ele>107.75</ele><time>2026-05-03T07:03:11.413Z</time></trkpt><trkpt lat="43.455632" lon="11.1580405"><ele>107.5</ele><time>2026-05-03T07:03:13.408Z</time></trkpt><trkpt lat="43.4557476" lon="11.1580566"><ele>107.25</ele><time>2026-05-03T07:03:15.476Z</time></trkpt><trkpt lat="43.4558519" lon="11.1580567"><ele>107.0</ele><time>2026-05-03T07:03:17.408Z</time></trkpt><trkpt lat="43.455982" lon="11.1580926"><ele>106.99999999999999</ele><time>2026-05-03T07:03:19.398Z</time></trkpt><trkpt lat="43.4560459" lon="11.1581119"><ele>107.0</ele><time>2026-05-03T07:03:20.477Z</time></trkpt><trkpt lat="43.4561122" lon="11.1581247"><ele>107.0</ele><time>2026-05-03T07:03:21.393Z</time></trkpt><trkpt lat="43.4561773" lon="11.1581333"><ele>107.0</ele><time>2026-05-03T07:03:22.404Z</time></trkpt><trkpt lat="43.4563006" lon="11.1582047"><ele>106.99999999999999</ele><time>2026-05-03T07:03:24.485Z</time></trkpt><trkpt lat="43.4563688" lon="11.158241"><ele>107.0</ele><time>2026-05-03T07:03:25.489Z</time></trkpt><trkpt lat="43.4564841" lon="11.1583157"><ele>106.83333333333333</ele><time>2026-05-03T07:03:27.418Z</time></trkpt><trkpt lat="43.4565683" lon="11.158384"><ele>106.66666666666666</ele><time>2026-05-03T07:03:29.49Z</time></trkpt><trkpt lat="43.4566322" lon="11.1584601"><ele>106.5</ele><time>2026-05-03T07:03:31.416Z</time></trkpt><trkpt lat="43.456655" lon="11.1585574"><ele>106.33333333333334</ele><time>2026-05-03T07:03:33.412Z</time></trkpt><trkpt lat="43.4567075" lon="11.1586435"><ele>106.16666666666667</ele><time>2026-05-03T07:03:36.419Z</time></trkpt><trkpt lat="43.4567701" lon="11.1586631"><ele>106.0</ele><time>2026-05-03T07:03:38.425Z</time></trkpt><trkpt lat="43.4568437" lon="11.1586687"><ele>106.0</ele><time>2026-05-03T07:03:40.427Z</time></trkpt><trkpt lat="43.4569451" lon="11.1586794"><ele>106.0</ele><time>2026-05-03T07:03:42.411Z</time></trkpt><trkpt lat="43.4570539" lon="11.1586832"><ele>106.0</ele><time>2026-05-03T07:03:44.48Z</time></trkpt><trkpt lat="43.4571736" lon="11.1586912"><ele>106.0</ele><time>2026-05-03T07:03:46.424Z</time></trkpt><trkpt lat="43.4572745" lon="11.1587268"><ele>106.0</ele><time>2026-05-03T07:03:48.413Z</time></trkpt><trkpt lat="43.4573719" lon="11.158751"><ele>106.14285714285715</ele><time>2026-05-03T07:03:50.491Z</time></trkpt><trkpt lat="43.4574629" lon="11.1587585"><ele>106.28571428571428</ele><time>2026-05-03T07:03:52.425Z</time></trkpt><trkpt lat="43.4575408" lon="11.1587399"><ele>106.42857142857143</ele><time>2026-05-03T07:03:54.42Z</time></trkpt><trkpt lat="43.457595" lon="11.1586937"><ele>106.57142857142858</ele><time>2026-05-03T07:03:56.396Z</time></trkpt><trkpt lat="43.457646" lon="11.1586419"><ele>106.71428571428572</ele><time>2026-05-03T07:03:58.462Z</time></trkpt><trkpt lat="43.4577145" lon="11.1586098"><ele>106.85714285714286</ele><time>2026-05-03T07:04:00.483Z</time></trkpt><trkpt lat="43.4577857" lon="11.1586086"><ele>107.0</ele><time>2026-05-03T07:04:02.405Z</time></trkpt><trkpt lat="43.4578356" lon="11.1586763"><ele>106.99999999999999</ele><time>2026-05-03T07:04:04.474Z</time></trkpt><trkpt lat="43.457873" lon="11.1587461"><ele>107.0</ele><time>2026-05-03T07:04:06.394Z</time></trkpt><trkpt lat="43.4579221" lon="11.1588144"><ele>107.0</ele><time>2026-05-03T07:04:08.4Z</time></trkpt><trkpt lat="43.4579925" lon="11.1588755"><ele>107.0</ele><time>2026-05-03T07:04:10.413Z</time></trkpt><trkpt lat="43.4580699" lon="11.1589517"><ele>106.99999999999999</ele><time>2026-05-03T07:04:12.425Z</time></trkpt><trkpt lat="43.4581427" lon="11.1590306"><ele>107.0</ele><time>2026-05-03T07:04:14.411Z</time></trkpt><trkpt lat="43.4582078" lon="11.1591333"><ele>107.25</ele><time>2026-05-03T07:04:16.406Z</time></trkpt><trkpt lat="43.4582657" lon="11.1592463"><ele>107.5</ele><time>2026-05-03T07:04:18.421Z</time></trkpt><trkpt lat="43.4583471" lon="11.1594385"><ele>107.75</ele><time>2026-05-03T07:04:21.401Z</time></trkpt><trkpt lat="43.4583712" lon="11.1595604"><ele>108.0</ele><time>2026-05-03T07:04:23.41Z</time></trkpt><trkpt lat="43.4584425" lon="11.1596694"><ele>108.0</ele><time>2026-05-03T07:04:25.473Z</time></trkpt><trkpt lat="43.458509" lon="11.1597948"><ele>108.00000000000001</ele><time>2026-05-03T07:04:27.407Z</time></trkpt><trkpt lat="43.4585614" lon="11.1599152"><ele>108.00000000000001</ele><time>2026-05-03T07:04:29.479Z</time></trkpt><trkpt lat="43.4586211" lon="11.160019"><ele>108.0</ele><time>2026-05-03T07:04:31.395Z</time></trkpt><trkpt lat="43.4587276" lon="11.1600346"><ele>108.0</ele><time>2026-05-03T07:04:33.416Z</time></trkpt><trkpt lat="43.4587954" lon="11.1600226"><ele>107.80000000000001</ele><time>2026-05-03T07:04:34.479Z</time></trkpt><trkpt lat="43.4588569" lon="11.1600028"><ele>107.60000000000001</ele><time>2026-05-03T07:04:35.485Z</time></trkpt><trkpt lat="43.4589661" lon="11.1599248"><ele>107.39999999999999</ele><time>2026-05-03T07:04:37.429Z</time></trkpt><trkpt lat="43.4590805" lon="11.1598462"><ele>107.19999999999999</ele><time>2026-05-03T07:04:39.485Z</time></trkpt><trkpt lat="43.4591928" lon="11.1597902"><ele>107.0</ele><time>2026-05-03T07:04:41.412Z</time></trkpt><trkpt lat="43.459309" lon="11.1597465"><ele>108.19999999999999</ele><time>2026-05-03T07:04:43.426Z</time></trkpt><trkpt lat="43.4594137" lon="11.1597034"><ele>109.39999999999999</ele><time>2026-05-03T07:04:45.418Z</time></trkpt><trkpt lat="43.4595215" lon="11.1596614"><ele>110.60000000000001</ele><time>2026-05-03T07:04:47.403Z</time></trkpt><trkpt lat="43.4596325" lon="11.1596373"><ele>111.80000000000001</ele><time>2026-05-03T07:04:49.414Z</time></trkpt><trkpt lat="43.4597463" lon="11.1596121"><ele>113.0</ele><time>2026-05-03T07:04:51.413Z</time></trkpt><trkpt lat="43.4598573" lon="11.159582"><ele>113.5</ele><time>2026-05-03T07:04:53.417Z</time></trkpt><trkpt lat="43.4599713" lon="11.1595681"><ele>114.0</ele><time>2026-05-03T07:04:55.456Z</time></trkpt><trkpt lat="43.4600823" lon="11.1595549"><ele>114.5</ele><time>2026-05-03T07:04:57.413Z</time></trkpt><trkpt lat="43.4601972" lon="11.1595388"><ele>115.0</ele><time>2026-05-03T07:04:59.385Z</time></trkpt><trkpt lat="43.4603707" lon="11.1595211"><ele>115.25</ele><time>2026-05-03T07:05:02.409Z</time></trkpt><trkpt lat="43.4604927" lon="11.1594958"><ele>115.5</ele><time>2026-05-03T07:05:04.48Z</time></trkpt><trkpt lat="43.4606117" lon="11.1594803"><ele>115.75</ele><time>2026-05-03T07:05:06.411Z</time></trkpt><trkpt lat="43.4607259" lon="11.1595188"><ele>116.0</ele><time>2026-05-03T07:05:08.403Z</time></trkpt><trkpt lat="43.4608331" lon="11.1595864"><ele>116.0</ele><time>2026-05-03T07:05:10.396Z</time></trkpt><trkpt lat="43.4609305" lon="11.1596445"><ele>116.0</ele><time>2026-05-03T07:05:12.426Z</time></trkpt><trkpt lat="43.4610278" lon="11.1597205"><ele>116.0</ele><time>2026-05-03T07:05:14.407Z</time></trkpt><trkpt lat="43.4611396" lon="11.1597636"><ele>116.0</ele><time>2026-05-03T07:05:16.429Z</time></trkpt><trkpt lat="43.4612014" lon="11.1597936"><ele>116.0</ele><time>2026-05-03T07:05:17.427Z</time></trkpt><trkpt lat="43.4612904" lon="11.1598641"><ele>114.83333333333333</ele><time>2026-05-03T07:05:19.412Z</time></trkpt><trkpt lat="43.4613606" lon="11.1599424"><ele>113.66666666666666</ele><time>2026-05-03T07:05:21.409Z</time></trkpt><trkpt lat="43.4614222" lon="11.1600042"><ele>112.5</ele><time>2026-05-03T07:05:23.407Z</time></trkpt><trkpt lat="43.4614766" lon="11.1600543"><ele>111.33333333333334</ele><time>2026-05-03T07:05:25.424Z</time></trkpt><trkpt lat="43.4615586" lon="11.1601109"><ele>110.16666666666667</ele><time>2026-05-03T07:05:28.405Z</time></trkpt><trkpt lat="43.4616339" lon="11.1601437"><ele>109.0</ele><time>2026-05-03T07:05:30.411Z</time></trkpt><trkpt lat="43.4617128" lon="11.1601934"><ele>109.0</ele><time>2026-05-03T07:05:32.41Z</time></trkpt><trkpt lat="43.4618086" lon="11.1602473"><ele>109.0</ele><time>2026-05-03T07:05:34.481Z</time></trkpt><trkpt lat="43.46191" lon="11.1603096"><ele>109.0</ele><time>2026-05-03T07:05:36.429Z</time></trkpt><trkpt lat="43.4620194" lon="11.1603706"><ele>109.0</ele><time>2026-05-03T07:05:38.39Z</time></trkpt><trkpt lat="43.4621352" lon="11.1604191"><ele>108.85714285714286</ele><time>2026-05-03T07:05:40.475Z</time></trkpt><trkpt lat="43.4622045" lon="11.1604274"><ele>108.71428571428572</ele><time>2026-05-03T07:05:41.425Z</time></trkpt><trkpt lat="43.462274" lon="11.1604341"><ele>108.57142857142857</ele><time>2026-05-03T07:05:42.408Z</time></trkpt><trkpt lat="43.4623407" lon="11.1604622"><ele>108.42857142857143</ele><time>2026-05-03T07:05:43.413Z</time></trkpt><trkpt lat="43.4624058" lon="11.1604923"><ele>108.28571428571428</ele><time>2026-05-03T07:05:44.385Z</time></trkpt><trkpt lat="43.462471" lon="11.1605327"><ele>108.14285714285714</ele><time>2026-05-03T07:05:45.48Z</time></trkpt><trkpt lat="43.4625441" lon="11.1605648"><ele>108.0</ele><time>2026-05-03T07:05:46.406Z</time></trkpt><trkpt lat="43.4626079" lon="11.1605954"><ele>108.0</ele><time>2026-05-03T07:05:47.431Z</time></trkpt><trkpt lat="43.4626773" lon="11.1606217"><ele>108.0</ele><time>2026-05-03T07:05:48.391Z</time></trkpt><trkpt lat="43.4627477" lon="11.1606466"><ele>108.0</ele><time>2026-05-03T07:05:49.482Z</time></trkpt><trkpt lat="43.4628115" lon="11.1606539"><ele>108.0</ele><time>2026-05-03T07:05:50.405Z</time></trkpt><trkpt lat="43.4628742" lon="11.1606638"><ele>108.0</ele><time>2026-05-03T07:05:51.411Z</time></trkpt><trkpt lat="43.4629372" lon="11.1606935"><ele>108.0</ele><time>2026-05-03T07:05:52.424Z</time></trkpt><trkpt lat="43.4630023" lon="11.1607252"><ele>108.0</ele><time>2026-05-03T07:05:53.409Z</time></trkpt><trkpt lat="43.4630693" lon="11.1607443"><ele>107.42857142857143</ele><time>2026-05-03T07:05:54.394Z</time></trkpt><trkpt lat="43.4631366" lon="11.1607468"><ele>106.85714285714286</ele><time>2026-05-03T07:05:55.417Z</time></trkpt><trkpt lat="43.4632038" lon="11.1607433"><ele>106.28571428571428</ele><time>2026-05-03T07:05:56.416Z</time></trkpt><trkpt lat="43.4632702" lon="11.1607218"><ele>105.71428571428572</ele><time>2026-05-03T07:05:57.422Z</time></trkpt><trkpt lat="43.4633322" lon="11.1606827"><ele>105.14285714285715</ele><time>2026-05-03T07:05:58.416Z</time></trkpt><trkpt lat="43.46339" lon="11.1606324"><ele>104.57142857142857</ele><time>2026-05-03T07:05:59.418Z</time></trkpt><trkpt lat="43.4634488" lon="11.1605914"><ele>104.0</ele><time>2026-05-03T07:06:00.405Z</time></trkpt><trkpt lat="43.4635067" lon="11.1605519"><ele>103.99999999999999</ele><time>2026-05-03T07:06:01.418Z</time></trkpt><trkpt lat="43.4635663" lon="11.160516"><ele>104.0</ele><time>2026-05-03T07:06:02.391Z</time></trkpt><trkpt lat="43.4636237" lon="11.1604764"><ele>104.0</ele><time>2026-05-03T07:06:03.401Z</time></trkpt><trkpt lat="43.4636846" lon="11.1604442"><ele>104.0</ele><time>2026-05-03T07:06:04.398Z</time></trkpt><trkpt lat="43.463744" lon="11.1604075"><ele>103.99999999999999</ele><time>2026-05-03T07:06:05.407Z</time></trkpt><trkpt lat="43.4638498" lon="11.1603326"><ele>104.0</ele><time>2026-05-03T07:06:07.406Z</time></trkpt><trkpt lat="43.4639659" lon="11.1602573"><ele>103.80000000000001</ele><time>2026-05-03T07:06:09.473Z</time></trkpt><trkpt lat="43.4640268" lon="11.1602286"><ele>103.60000000000001</ele><time>2026-05-03T07:06:10.482Z</time></trkpt><trkpt lat="43.4641393" lon="11.1601619"><ele>103.4</ele><time>2026-05-03T07:06:12.41Z</time></trkpt><trkpt lat="43.464256" lon="11.1600921"><ele>103.2</ele><time>2026-05-03T07:06:14.41Z</time></trkpt><trkpt lat="43.4643434" lon="11.1600016"><ele>103.0</ele><time>2026-05-03T07:06:16.396Z</time></trkpt><trkpt lat="43.4644383" lon="11.1598957"><ele>103.25</ele><time>2026-05-03T07:06:18.412Z</time></trkpt><trkpt lat="43.4645412" lon="11.1597785"><ele>103.5</ele><time>2026-05-03T07:06:20.414Z</time></trkpt><trkpt lat="43.4646332" lon="11.1595671"><ele>103.75</ele><time>2026-05-03T07:06:23.391Z</time></trkpt><trkpt lat="43.4646992" lon="11.1594574"><ele>104.0</ele><time>2026-05-03T07:06:25.411Z</time></trkpt><trkpt lat="43.4647808" lon="11.1593203"><ele>104.0</ele><time>2026-05-03T07:06:27.413Z</time></trkpt><trkpt lat="43.4648415" lon="11.1591807"><ele>104.0</ele><time>2026-05-03T07:06:29.5Z</time></trkpt><trkpt lat="43.4649" lon="11.1590383"><ele>104.0</ele><time>2026-05-03T07:06:31.42Z</time></trkpt><trkpt lat="43.4649452" lon="11.1588816"><ele>104.0</ele><time>2026-05-03T07:06:33.408Z</time></trkpt><trkpt lat="43.4649855" lon="11.1587262"><ele>103.75</ele><time>2026-05-03T07:06:35.399Z</time></trkpt><trkpt lat="43.4650185" lon="11.1585705"><ele>103.5</ele><time>2026-05-03T07:06:37.416Z</time></trkpt><trkpt lat="43.4650566" lon="11.1584224"><ele>103.25</ele><time>2026-05-03T07:06:39.417Z</time></trkpt><trkpt lat="43.4650973" lon="11.1582686"><ele>103.0</ele><time>2026-05-03T07:06:41.414Z</time></trkpt><trkpt lat="43.4651336" lon="11.1581131"><ele>102.5</ele><time>2026-05-03T07:06:43.408Z</time></trkpt><trkpt lat="43.4651752" lon="11.1579722"><ele>102.0</ele><time>2026-05-03T07:06:45.417Z</time></trkpt><trkpt lat="43.4652089" lon="11.1578205"><ele>101.5</ele><time>2026-05-03T07:06:47.405Z</time></trkpt><trkpt lat="43.4652479" lon="11.1576727"><ele>101.0</ele><time>2026-05-03T07:06:49.421Z</time></trkpt><trkpt lat="43.4652906" lon="11.157529"><ele>101.0</ele><time>2026-05-03T07:06:51.415Z</time></trkpt><trkpt lat="43.4653244" lon="11.1573831"><ele>101.0</ele><time>2026-05-03T07:06:53.397Z</time></trkpt><trkpt lat="43.465351" lon="11.1572267"><ele>101.0</ele><time>2026-05-03T07:06:55.403Z</time></trkpt><trkpt lat="43.4653807" lon="11.1570806"><ele>101.0</ele><time>2026-05-03T07:06:57.396Z</time></trkpt><trkpt lat="43.4654132" lon="11.1569235"><ele>101.6</ele><time>2026-05-03T07:06:59.408Z</time></trkpt><trkpt lat="43.4654274" lon="11.1568372"><ele>102.19999999999999</ele><time>2026-05-03T07:07:00.425Z</time></trkpt><trkpt lat="43.4654617" lon="11.1566795"><ele>102.80000000000001</ele><time>2026-05-03T07:07:02.42Z</time></trkpt><trkpt lat="43.4654973" lon="11.1565191"><ele>103.4</ele><time>2026-05-03T07:07:04.408Z</time></trkpt><trkpt lat="43.4655227" lon="11.1563591"><ele>104.0</ele><time>2026-05-03T07:07:06.414Z</time></trkpt><trkpt lat="43.4655417" lon="11.1562762"><ele>104.25</ele><time>2026-05-03T07:07:07.415Z</time></trkpt><trkpt lat="43.4655878" lon="11.15613"><ele>104.5</ele><time>2026-05-03T07:07:09.413Z</time></trkpt><trkpt lat="43.4656283" lon="11.1559658"><ele>104.75</ele><time>2026-05-03T07:07:11.427Z</time></trkpt><trkpt lat="43.4656669" lon="11.1558014"><ele>105.0</ele><time>2026-05-03T07:07:13.425Z</time></trkpt><trkpt lat="43.4657169" lon="11.1556458"><ele>105.0</ele><time>2026-05-03T07:07:15.412Z</time></trkpt><trkpt lat="43.4657543" lon="11.1554826"><ele>105.0</ele><time>2026-05-03T07:07:17.42Z</time></trkpt><trkpt lat="43.4658194" lon="11.1552471"><ele>105.0</ele><time>2026-05-03T07:07:20.484Z</time></trkpt><trkpt lat="43.4658713" lon="11.1550874"><ele>105.0</ele><time>2026-05-03T07:07:22.406Z</time></trkpt><trkpt lat="43.4658989" lon="11.1549931"><ele>105.0</ele><time>2026-05-03T07:07:23.426Z</time></trkpt><trkpt lat="43.4659186" lon="11.1548993"><ele>105.0</ele><time>2026-05-03T07:07:24.42Z</time></trkpt><trkpt lat="43.4659463" lon="11.1547993"><ele>105.0</ele><time>2026-05-03T07:07:25.411Z</time></trkpt><trkpt lat="43.4659745" lon="11.1547089"><ele>105.0</ele><time>2026-05-03T07:07:26.409Z</time></trkpt><trkpt lat="43.465993" lon="11.1546085"><ele>105.0</ele><time>2026-05-03T07:07:27.408Z</time></trkpt><trkpt lat="43.4660097" lon="11.1545087"><ele>105.0</ele><time>2026-05-03T07:07:28.418Z</time></trkpt><trkpt lat="43.4660501" lon="11.154421"><ele>105.0</ele><time>2026-05-03T07:07:29.41Z</time></trkpt><trkpt lat="43.4660924" lon="11.1543287"><ele>105.0</ele><time>2026-05-03T07:07:30.408Z</time></trkpt><trkpt lat="43.4661295" lon="11.1542442"><ele>105.0</ele><time>2026-05-03T07:07:31.409Z</time></trkpt><trkpt lat="43.4661697" lon="11.1541584"><ele>105.0</ele><time>2026-05-03T07:07:32.418Z</time></trkpt><trkpt lat="43.4662087" lon="11.1540731"><ele>105.0</ele><time>2026-05-03T07:07:33.414Z</time></trkpt><trkpt lat="43.4662527" lon="11.1539949"><ele>105.0</ele><time>2026-05-03T07:07:34.414Z</time></trkpt><trkpt lat="43.4662986" lon="11.1539218"><ele>105.0</ele><time>2026-05-03T07:07:35.5Z</time></trkpt><trkpt lat="43.4663486" lon="11.1538463"><ele>105.0</ele><time>2026-05-03T07:07:36.415Z</time></trkpt><trkpt lat="43.4663961" lon="11.1537662"><ele>104.66666666666667</ele><time>2026-05-03T07:07:37.415Z</time></trkpt><trkpt lat="43.4664438" lon="11.1536868"><ele>104.33333333333334</ele><time>2026-05-03T07:07:38.419Z</time></trkpt><trkpt lat="43.4664942" lon="11.1536214"><ele>104.0</ele><time>2026-05-03T07:07:39.425Z</time></trkpt><trkpt lat="43.466578" lon="11.1534817"><ele>103.66666666666667</ele><time>2026-05-03T07:07:41.399Z</time></trkpt><trkpt lat="43.4666301" lon="11.1534131"><ele>103.33333333333334</ele><time>2026-05-03T07:07:42.409Z</time></trkpt><trkpt lat="43.4666846" lon="11.1533459"><ele>103.0</ele><time>2026-05-03T07:07:43.417Z</time></trkpt><trkpt lat="43.4667335" lon="11.153276"><ele>102.99999999999999</ele><time>2026-05-03T07:07:44.423Z</time></trkpt><trkpt lat="43.4667794" lon="11.1532059"><ele>103.0</ele><time>2026-05-03T07:07:45.403Z</time></trkpt><trkpt lat="43.4668314" lon="11.1531402"><ele>103.0</ele><time>2026-05-03T07:07:46.405Z</time></trkpt><trkpt lat="43.4668785" lon="11.1530626"><ele>103.0</ele><time>2026-05-03T07:07:47.406Z</time></trkpt><trkpt lat="43.4669248" lon="11.1529892"><ele>103.0</ele><time>2026-05-03T07:07:48.411Z</time></trkpt><trkpt lat="43.4669707" lon="11.1529191"><ele>102.99999999999999</ele><time>2026-05-03T07:07:49.404Z</time></trkpt><trkpt lat="43.467019" lon="11.1528522"><ele>103.0</ele><time>2026-05-03T07:07:50.405Z</time></trkpt><trkpt lat="43.4670772" lon="11.152813"><ele>102.33333333333334</ele><time>2026-05-03T07:07:51.432Z</time></trkpt><trkpt lat="43.4671965" lon="11.1528156"><ele>101.66666666666666</ele><time>2026-05-03T07:07:53.413Z</time></trkpt><trkpt lat="43.4673056" lon="11.1528399"><ele>101.0</ele><time>2026-05-03T07:07:55.488Z</time></trkpt><trkpt lat="43.4677887" lon="11.1528484"><ele>101.0</ele><time>2026-05-03T07:08:00.473Z</time></trkpt><trkpt lat="43.467531" lon="11.1527123"><ele>101.0</ele><time>2026-05-03T07:08:01.411Z</time></trkpt><trkpt lat="43.4674271" lon="11.1525789"><ele>101.0</ele><time>2026-05-03T07:08:03.471Z</time></trkpt><trkpt lat="43.4673117" lon="11.1525557"><ele>101.0</ele><time>2026-05-03T07:08:04.468Z</time></trkpt><trkpt lat="43.4672257" lon="11.1525177"><ele>101.0</ele><time>2026-05-03T07:08:05.417Z</time></trkpt><trkpt lat="43.4672477" lon="11.1523861"><ele>101.0</ele><time>2026-05-03T07:08:07.416Z</time></trkpt><trkpt lat="43.4673027" lon="11.1523207"><ele>101.0</ele><time>2026-05-03T07:08:08.417Z</time></trkpt><trkpt lat="43.4673954" lon="11.1522123"><ele>101.0</ele><time>2026-05-03T07:08:10.413Z</time></trkpt><trkpt lat="43.4674837" lon="11.1521158"><ele>101.0</ele><time>2026-05-03T07:08:12.402Z</time></trkpt><trkpt lat="43.4675648" lon="11.1520074"><ele>101.0</ele><time>2026-05-03T07:08:14.408Z</time></trkpt><trkpt lat="43.4676437" lon="11.1518901"><ele>101.0</ele><time>2026-05-03T07:08:16.41Z</time></trkpt><trkpt lat="43.4677265" lon="11.1517818"><ele>101.0</ele><time>2026-05-03T07:08:18.411Z</time></trkpt><trkpt lat="43.4678058" lon="11.1516717"><ele>101.0</ele><time>2026-05-03T07:08:20.409Z</time></trkpt><trkpt lat="43.4678854" lon="11.1515764"><ele>101.0</ele><time>2026-05-03T07:08:22.415Z</time></trkpt><trkpt lat="43.4679678" lon="11.1514653"><ele>101.0</ele><time>2026-05-03T07:08:24.416Z</time></trkpt><trkpt lat="43.4680409" lon="11.1513539"><ele>101.0</ele><time>2026-05-03T07:08:26.426Z</time></trkpt><trkpt lat="43.4681115" lon="11.1512443"><ele>101.0</ele><time>2026-05-03T07:08:28.407Z</time></trkpt><trkpt lat="43.4681728" lon="11.1511377"><ele>101.0</ele><time>2026-05-03T07:08:30.425Z</time></trkpt><trkpt lat="43.4682401" lon="11.1510436"><ele>101.0</ele><time>2026-05-03T07:08:32.432Z</time></trkpt><trkpt lat="43.4683359" lon="11.1510434"><ele>101.0</ele><time>2026-05-03T07:08:34.456Z</time></trkpt><trkpt lat="43.4684107" lon="11.1511353"><ele>101.0</ele><time>2026-05-03T07:08:36.412Z</time></trkpt><trkpt lat="43.4684757" lon="11.1512309"><ele>101.0</ele><time>2026-05-03T07:08:38.419Z</time></trkpt><trkpt lat="43.4685255" lon="11.1513118"><ele>101.0</ele><time>2026-05-03T07:08:40.42Z</time></trkpt><trkpt lat="43.4686193" lon="11.151323"><ele>101.0</ele><time>2026-05-03T07:08:43.413Z</time></trkpt><trkpt lat="43.4686841" lon="11.1512446"><ele>101.0</ele><time>2026-05-03T07:08:45.413Z</time></trkpt><trkpt lat="43.4687475" lon="11.1511596"><ele>101.0</ele><time>2026-05-03T07:08:47.419Z</time></trkpt><trkpt lat="43.4688137" lon="11.1510667"><ele>101.0</ele><time>2026-05-03T07:08:49.419Z</time></trkpt><trkpt lat="43.4688781" lon="11.150967"><ele>101.0</ele><time>2026-05-03T07:08:51.429Z</time></trkpt><trkpt lat="43.4689435" lon="11.1508592"><ele>101.0</ele><time>2026-05-03T07:08:53.418Z</time></trkpt><trkpt lat="43.4690131" lon="11.1507565"><ele>101.0</ele><time>2026-05-03T07:08:55.413Z</time></trkpt><trkpt lat="43.469089" lon="11.1506566"><ele>101.0</ele><time>2026-05-03T07:08:57.392Z</time></trkpt><trkpt lat="43.4691646" lon="11.1505535"><ele>101.0</ele><time>2026-05-03T07:08:59.417Z</time></trkpt><trkpt lat="43.4692374" lon="11.1504466"><ele>101.0</ele><time>2026-05-03T07:09:01.424Z</time></trkpt><trkpt lat="43.4693094" lon="11.1503431"><ele>101.0</ele><time>2026-05-03T07:09:03.424Z</time></trkpt><trkpt lat="43.4693811" lon="11.1502267"><ele>101.0</ele><time>2026-05-03T07:09:05.433Z</time></trkpt><trkpt lat="43.4694539" lon="11.1501044"><ele>101.0</ele><time>2026-05-03T07:09:07.412Z</time></trkpt><trkpt lat="43.469527" lon="11.1499908"><ele>101.0</ele><time>2026-05-03T07:09:09.396Z</time></trkpt><trkpt lat="43.4695959" lon="11.1498887"><ele>101.0</ele><time>2026-05-03T07:09:11.411Z</time></trkpt><trkpt lat="43.4696657" lon="11.1497505"><ele>101.0</ele><time>2026-05-03T07:09:13.409Z</time></trkpt><trkpt lat="43.4697497" lon="11.1496214"><ele>101.0</ele><time>2026-05-03T07:09:15.39Z</time></trkpt><trkpt lat="43.4698312" lon="11.1495112"><ele>101.0</ele><time>2026-05-03T07:09:17.411Z</time></trkpt><trkpt lat="43.4699063" lon="11.1493967"><ele>101.0</ele><time>2026-05-03T07:09:19.393Z</time></trkpt><trkpt lat="43.4699451" lon="11.1492755"><ele>101.0</ele><time>2026-05-03T07:09:21.416Z</time></trkpt><trkpt lat="43.4700214" lon="11.1491643"><ele>101.0</ele><time>2026-05-03T07:09:23.42Z</time></trkpt><trkpt lat="43.4701187" lon="11.1490521"><ele>101.0</ele><time>2026-05-03T07:09:25.478Z</time></trkpt><trkpt lat="43.4701928" lon="11.1489346"><ele>101.0</ele><time>2026-05-03T07:09:27.407Z</time></trkpt><trkpt lat="43.4702436" lon="11.1488822"><ele>100.8</ele><time>2026-05-03T07:09:28.423Z</time></trkpt><trkpt lat="43.4702964" lon="11.1488247"><ele>100.6</ele><time>2026-05-03T07:09:29.404Z</time></trkpt><trkpt lat="43.4703428" lon="11.1487543"><ele>100.4</ele><time>2026-05-03T07:09:30.415Z</time></trkpt><trkpt lat="43.4704226" lon="11.1486272"><ele>100.2</ele><time>2026-05-03T07:09:32.403Z</time></trkpt><trkpt lat="43.4705035" lon="11.1485031"><ele>100.0</ele><time>2026-05-03T07:09:34.393Z</time></trkpt><trkpt lat="43.4705783" lon="11.1483841"><ele>100.0</ele><time>2026-05-03T07:09:36.403Z</time></trkpt><trkpt lat="43.4706548" lon="11.1482667"><ele>100.0</ele><time>2026-05-03T07:09:38.469Z</time></trkpt><trkpt lat="43.4707372" lon="11.1481518"><ele>100.0</ele><time>2026-05-03T07:09:40.391Z</time></trkpt><trkpt lat="43.4707394" lon="11.1477399"><ele>100.16666666666667</ele><time>2026-05-03T07:09:43.4Z</time></trkpt><trkpt lat="43.4707818" lon="11.1476363"><ele>100.33333333333334</ele><time>2026-05-03T07:09:47.403Z</time></trkpt><trkpt lat="43.47081" lon="11.147514"><ele>100.5</ele><time>2026-05-03T07:09:49.412Z</time></trkpt><trkpt lat="43.470822" lon="11.1474122"><ele>100.66666666666666</ele><time>2026-05-03T07:09:51.421Z</time></trkpt><trkpt lat="43.4708722" lon="11.1473512"><ele>100.83333333333333</ele><time>2026-05-03T07:09:53.413Z</time></trkpt><trkpt lat="43.4709575" lon="11.1473351"><ele>101.0</ele><time>2026-05-03T07:09:55.415Z</time></trkpt><trkpt lat="43.4710386" lon="11.1473488"><ele>100.99999999999999</ele><time>2026-05-03T07:09:57.403Z</time></trkpt><trkpt lat="43.4711072" lon="11.147354"><ele>101.0</ele><time>2026-05-03T07:09:59.421Z</time></trkpt><trkpt lat="43.4711742" lon="11.1473531"><ele>101.0</ele><time>2026-05-03T07:10:02.415Z</time></trkpt><trkpt lat="43.4712715" lon="11.1473786"><ele>101.0</ele><time>2026-05-03T07:10:05.406Z</time></trkpt><trkpt lat="43.4713451" lon="11.1473873"><ele>100.99999999999999</ele><time>2026-05-03T07:10:07.402Z</time></trkpt><trkpt lat="43.4714121" lon="11.1474027"><ele>101.0</ele><time>2026-05-03T07:10:09.408Z</time></trkpt><trkpt lat="43.4714999" lon="11.1474188"><ele>100.8</ele><time>2026-05-03T07:10:11.402Z</time></trkpt><trkpt lat="43.4715845" lon="11.1474115"><ele>100.6</ele><time>2026-05-03T07:10:13.415Z</time></trkpt><trkpt lat="43.4716543" lon="11.1473534"><ele>100.4</ele><time>2026-05-03T07:10:15.482Z</time></trkpt><trkpt lat="43.4716889" lon="11.1472259"><ele>100.2</ele><time>2026-05-03T07:10:17.413Z</time></trkpt><trkpt lat="43.4717066" lon="11.147094"><ele>100.0</ele><time>2026-05-03T07:10:19.4Z</time></trkpt><trkpt lat="43.4717075" lon="11.1469612"><ele>100.50000000000001</ele><time>2026-05-03T07:10:21.406Z</time></trkpt><trkpt lat="43.4717145" lon="11.1468376"><ele>101.0</ele><time>2026-05-03T07:10:23.485Z</time></trkpt><trkpt lat="43.4717174" lon="11.146722"><ele>101.5</ele><time>2026-05-03T07:10:25.475Z</time></trkpt><trkpt lat="43.4717872" lon="11.1466439"><ele>102.0</ele><time>2026-05-03T07:10:28.412Z</time></trkpt><trkpt lat="43.4718711" lon="11.1466541"><ele>102.50000000000001</ele><time>2026-05-03T07:10:30.489Z</time></trkpt><trkpt lat="43.4719532" lon="11.1466759"><ele>103.0</ele><time>2026-05-03T07:10:32.413Z</time></trkpt><trkpt lat="43.472049" lon="11.1467012"><ele>102.60000000000001</ele><time>2026-05-03T07:10:34.406Z</time></trkpt><trkpt lat="43.4721414" lon="11.1467267"><ele>102.2</ele><time>2026-05-03T07:10:36.411Z</time></trkpt><trkpt lat="43.472227" lon="11.1467388"><ele>101.8</ele><time>2026-05-03T07:10:38.403Z</time></trkpt><trkpt lat="43.4723251" lon="11.146725"><ele>101.4</ele><time>2026-05-03T07:10:40.419Z</time></trkpt><trkpt lat="43.4724209" lon="11.1467189"><ele>101.0</ele><time>2026-05-03T07:10:42.417Z</time></trkpt><trkpt lat="43.4725056" lon="11.1467168"><ele>101.0</ele><time>2026-05-03T07:10:44.411Z</time></trkpt><trkpt lat="43.4725877" lon="11.1466576"><ele>101.0</ele><time>2026-05-03T07:10:46.413Z</time></trkpt><trkpt lat="43.4726277" lon="11.1465396"><ele>101.0</ele><time>2026-05-03T07:10:48.412Z</time></trkpt><trkpt lat="43.4726621" lon="11.1464101"><ele>101.0</ele><time>2026-05-03T07:10:50.477Z</time></trkpt><trkpt lat="43.4726626" lon="11.14626"><ele>101.0</ele><time>2026-05-03T07:10:52.409Z</time></trkpt><trkpt lat="43.4726618" lon="11.1460951"><ele>101.0</ele><time>2026-05-03T07:10:54.395Z</time></trkpt><trkpt lat="43.472676" lon="11.145943"><ele>101.0</ele><time>2026-05-03T07:10:56.414Z</time></trkpt><trkpt lat="43.4726804" lon="11.1457875"><ele>101.0</ele><time>2026-05-03T07:10:58.408Z</time></trkpt><trkpt lat="43.472695" lon="11.1456376"><ele>101.0</ele><time>2026-05-03T07:11:00.488Z</time></trkpt><trkpt lat="43.4727014" lon="11.1454814"><ele>101.0</ele><time>2026-05-03T07:11:02.408Z</time></trkpt><trkpt lat="43.4727124" lon="11.1453213"><ele>101.0</ele><time>2026-05-03T07:11:04.481Z</time></trkpt><trkpt lat="43.4727096" lon="11.1451751"><ele>101.0</ele><time>2026-05-03T07:11:06.406Z</time></trkpt><trkpt lat="43.4727263" lon="11.1450137"><ele>101.0</ele><time>2026-05-03T07:11:08.428Z</time></trkpt><trkpt lat="43.4727292" lon="11.1449209"><ele>101.0</ele><time>2026-05-03T07:11:09.48Z</time></trkpt><trkpt lat="43.4727347" lon="11.1447494"><ele>101.0</ele><time>2026-05-03T07:11:11.404Z</time></trkpt><trkpt lat="43.4727511" lon="11.1445778"><ele>101.25</ele><time>2026-05-03T07:11:13.427Z</time></trkpt><trkpt lat="43.4727613" lon="11.1444153"><ele>101.5</ele><time>2026-05-03T07:11:15.412Z</time></trkpt><trkpt lat="43.4727664" lon="11.1442554"><ele>101.75</ele><time>2026-05-03T07:11:17.408Z</time></trkpt><trkpt lat="43.4727736" lon="11.1440979"><ele>102.0</ele><time>2026-05-03T07:11:19.391Z</time></trkpt><trkpt lat="43.4727977" lon="11.1439525"><ele>101.39999999999999</ele><time>2026-05-03T07:11:21.423Z</time></trkpt><trkpt lat="43.472849" lon="11.1438331"><ele>100.8</ele><time>2026-05-03T07:11:23.401Z</time></trkpt><trkpt lat="43.4729312" lon="11.1437609"><ele>100.2</ele><time>2026-05-03T07:11:25.4Z</time></trkpt><trkpt lat="43.4730211" lon="11.1437244"><ele>99.6</ele><time>2026-05-03T07:11:27.416Z</time></trkpt><trkpt lat="43.4730766" lon="11.143603"><ele>99.0</ele><time>2026-05-03T07:11:29.409Z</time></trkpt><trkpt lat="43.4730785" lon="11.1434781"><ele>98.4</ele><time>2026-05-03T07:11:31.398Z</time></trkpt><trkpt lat="43.4730799" lon="11.1433388"><ele>97.80000000000001</ele><time>2026-05-03T07:11:33.423Z</time></trkpt><trkpt lat="43.47312" lon="11.1432659"><ele>97.19999999999999</ele><time>2026-05-03T07:11:34.414Z</time></trkpt><trkpt lat="43.4732049" lon="11.143144"><ele>96.6</ele><time>2026-05-03T07:11:36.413Z</time></trkpt><trkpt lat="43.4732847" lon="11.1430229"><ele>96.0</ele><time>2026-05-03T07:11:38.408Z</time></trkpt><trkpt lat="43.4733697" lon="11.1429089"><ele>96.0</ele><time>2026-05-03T07:11:40.424Z</time></trkpt><trkpt lat="43.4734529" lon="11.1427901"><ele>96.0</ele><time>2026-05-03T07:11:42.426Z</time></trkpt><trkpt lat="43.4735345" lon="11.1426722"><ele>96.0</ele><time>2026-05-03T07:11:44.415Z</time></trkpt><trkpt lat="43.4736179" lon="11.1425567"><ele>96.0</ele><time>2026-05-03T07:11:46.418Z</time></trkpt><trkpt lat="43.4737075" lon="11.1424516"><ele>96.75</ele><time>2026-05-03T07:11:48.412Z</time></trkpt><trkpt lat="43.4737887" lon="11.1423414"><ele>97.5</ele><time>2026-05-03T07:11:50.407Z</time></trkpt><trkpt lat="43.4738791" lon="11.1422224"><ele>98.25</ele><time>2026-05-03T07:11:52.409Z</time></trkpt><trkpt lat="43.4739651" lon="11.1420969"><ele>99.0</ele><time>2026-05-03T07:11:54.394Z</time></trkpt><trkpt lat="43.4740432" lon="11.141979"><ele>99.0</ele><time>2026-05-03T07:11:56.42Z</time></trkpt><trkpt lat="43.4741241" lon="11.1418687"><ele>99.0</ele><time>2026-05-03T07:11:58.409Z</time></trkpt><trkpt lat="43.4742106" lon="11.1417611"><ele>99.0</ele><time>2026-05-03T07:12:00.416Z</time></trkpt><trkpt lat="43.4742992" lon="11.1416528"><ele>99.0</ele><time>2026-05-03T07:12:02.402Z</time></trkpt><trkpt lat="43.4743785" lon="11.1415425"><ele>98.80000000000001</ele><time>2026-05-03T07:12:04.482Z</time></trkpt><trkpt lat="43.4744589" lon="11.1414204"><ele>98.60000000000001</ele><time>2026-05-03T07:12:06.41Z</time></trkpt><trkpt lat="43.4745358" lon="11.1413122"><ele>98.4</ele><time>2026-05-03T07:12:08.411Z</time></trkpt><trkpt lat="43.4745865" lon="11.1412599"><ele>98.2</ele><time>2026-05-03T07:12:09.403Z</time></trkpt><trkpt lat="43.4746629" lon="11.1411531"><ele>98.0</ele><time>2026-05-03T07:12:11.401Z</time></trkpt><trkpt lat="43.4747428" lon="11.1410374"><ele>98.0</ele><time>2026-05-03T07:12:13.413Z</time></trkpt><trkpt lat="43.4748082" lon="11.1409138"><ele>98.0</ele><time>2026-05-03T07:12:15.475Z</time></trkpt><trkpt lat="43.4748815" lon="11.1407943"><ele>98.0</ele><time>2026-05-03T07:12:17.417Z</time></trkpt><trkpt lat="43.4749525" lon="11.1406856"><ele>98.0</ele><time>2026-05-03T07:12:19.384Z</time></trkpt><trkpt lat="43.4750254" lon="11.1406046"><ele>98.0</ele><time>2026-05-03T07:12:21.429Z</time></trkpt><trkpt lat="43.4750164" lon="11.1404729"><ele>98.2</ele><time>2026-05-03T07:12:23.429Z</time></trkpt><trkpt lat="43.4749302" lon="11.1404493"><ele>98.4</ele><time>2026-05-03T07:12:25.419Z</time></trkpt><trkpt lat="43.4748336" lon="11.1404778"><ele>98.60000000000001</ele><time>2026-05-03T07:12:27.413Z</time></trkpt><trkpt lat="43.4747274" lon="11.1404478"><ele>98.80000000000001</ele><time>2026-05-03T07:12:29.422Z</time></trkpt><trkpt lat="43.4746248" lon="11.1403868"><ele>99.0</ele><time>2026-05-03T07:12:31.41Z</time></trkpt><trkpt lat="43.4745815" lon="11.1403138"><ele>98.6</ele><time>2026-05-03T07:12:32.43Z</time></trkpt><trkpt lat="43.474493" lon="11.140231"><ele>98.2</ele><time>2026-05-03T07:12:34.498Z</time></trkpt><trkpt lat="43.4744064" lon="11.1401435"><ele>97.8</ele><time>2026-05-03T07:12:36.407Z</time></trkpt><trkpt lat="43.4743359" lon="11.1400491"><ele>97.39999999999999</ele><time>2026-05-03T07:12:38.409Z</time></trkpt><trkpt lat="43.4742345" lon="11.1400669"><ele>97.0</ele><time>2026-05-03T07:12:40.389Z</time></trkpt><trkpt lat="43.4741794" lon="11.140122"><ele>97.0</ele><time>2026-05-03T07:12:42.413Z</time></trkpt><trkpt lat="43.4741282" lon="11.1402259"><ele>97.0</ele><time>2026-05-03T07:12:44.396Z</time></trkpt><trkpt lat="43.474053" lon="11.1403457"><ele>97.0</ele><time>2026-05-03T07:12:46.415Z</time></trkpt><trkpt lat="43.4739702" lon="11.1404439"><ele>97.0</ele><time>2026-05-03T07:12:48.419Z</time></trkpt><trkpt lat="43.4738862" lon="11.140427"><ele>97.0</ele><time>2026-05-03T07:12:50.41Z</time></trkpt><trkpt lat="43.4738393" lon="11.1403628"><ele>97.0</ele><time>2026-05-03T07:12:51.386Z</time></trkpt><trkpt lat="43.4737957" lon="11.1402992"><ele>97.0</ele><time>2026-05-03T07:12:52.392Z</time></trkpt><trkpt lat="43.4737184" lon="11.1401691"><ele>97.0</ele><time>2026-05-03T07:12:54.399Z</time></trkpt><trkpt lat="43.4736307" lon="11.1400721"><ele>97.0</ele><time>2026-05-03T07:12:56.413Z</time></trkpt><trkpt lat="43.4735899" lon="11.1399756"><ele>97.0</ele><time>2026-05-03T07:12:58.405Z</time></trkpt><trkpt lat="43.4736387" lon="11.1398642"><ele>97.0</ele><time>2026-05-03T07:13:00.42Z</time></trkpt><trkpt lat="43.4736959" lon="11.139761"><ele>97.0</ele><time>2026-05-03T07:13:02.425Z</time></trkpt><trkpt lat="43.4737657" lon="11.1396645"><ele>97.0</ele><time>2026-05-03T07:13:04.414Z</time></trkpt><trkpt lat="43.4738475" lon="11.1395735"><ele>97.0</ele><time>2026-05-03T07:13:06.415Z</time></trkpt><trkpt lat="43.473927" lon="11.1394764"><ele>97.0</ele><time>2026-05-03T07:13:08.427Z</time></trkpt><trkpt lat="43.4739984" lon="11.1393685"><ele>97.0</ele><time>2026-05-03T07:13:10.409Z</time></trkpt><trkpt lat="43.4740768" lon="11.1392659"><ele>97.0</ele><time>2026-05-03T07:13:12.411Z</time></trkpt><trkpt lat="43.4741516" lon="11.1391556"><ele>97.0</ele><time>2026-05-03T07:13:14.409Z</time></trkpt><trkpt lat="43.474223" lon="11.1390392"><ele>97.0</ele><time>2026-05-03T07:13:16.415Z</time></trkpt><trkpt lat="43.4743018" lon="11.1389376"><ele>97.0</ele><time>2026-05-03T07:13:18.409Z</time></trkpt><trkpt lat="43.4743836" lon="11.1388393"><ele>96.39999999999999</ele><time>2026-05-03T07:13:20.395Z</time></trkpt><trkpt lat="43.4744563" lon="11.1387328"><ele>95.8</ele><time>2026-05-03T07:13:22.411Z</time></trkpt><trkpt lat="43.4745311" lon="11.1386238"><ele>95.2</ele><time>2026-05-03T07:13:24.403Z</time></trkpt><trkpt lat="43.4746002" lon="11.1385243"><ele>94.6</ele><time>2026-05-03T07:13:26.417Z</time></trkpt><trkpt lat="43.4746632" lon="11.1384102"><ele>94.0</ele><time>2026-05-03T07:13:28.408Z</time></trkpt><trkpt lat="43.4747491" lon="11.1383056"><ele>94.6</ele><time>2026-05-03T07:13:30.397Z</time></trkpt><trkpt lat="43.4748316" lon="11.1381982"><ele>95.2</ele><time>2026-05-03T07:13:32.406Z</time></trkpt><trkpt lat="43.474879" lon="11.1381024"><ele>95.8</ele><time>2026-05-03T07:13:34.427Z</time></trkpt><trkpt lat="43.4749302" lon="11.1379893"><ele>96.39999999999999</ele><time>2026-05-03T07:13:36.417Z</time></trkpt><trkpt lat="43.4749977" lon="11.1378851"><ele>97.0</ele><time>2026-05-03T07:13:38.405Z</time></trkpt><trkpt lat="43.4750709" lon="11.1377798"><ele>97.0</ele><time>2026-05-03T07:13:40.418Z</time></trkpt><trkpt lat="43.4751516" lon="11.1376779"><ele>97.0</ele><time>2026-05-03T07:13:42.42Z</time></trkpt><trkpt lat="43.475222" lon="11.1375623"><ele>97.0</ele><time>2026-05-03T07:13:44.403Z</time></trkpt><trkpt lat="43.4752994" lon="11.1374527"><ele>97.0</ele><time>2026-05-03T07:13:46.413Z</time></trkpt><trkpt lat="43.4754026" lon="11.1373524"><ele>97.00000000000001</ele><time>2026-05-03T07:13:48.426Z</time></trkpt><trkpt lat="43.4754605" lon="11.1373107"><ele>97.0</ele><time>2026-05-03T07:13:49.414Z</time></trkpt><trkpt lat="43.4755746" lon="11.1372388"><ele>97.0</ele><time>2026-05-03T07:13:51.393Z</time></trkpt><trkpt lat="43.4756343" lon="11.1372072"><ele>97.0</ele><time>2026-05-03T07:13:52.413Z</time></trkpt><trkpt lat="43.4757521" lon="11.1371544"><ele>97.00000000000001</ele><time>2026-05-03T07:13:54.41Z</time></trkpt><trkpt lat="43.4758118" lon="11.1371228"><ele>97.0</ele><time>2026-05-03T07:13:55.502Z</time></trkpt><trkpt lat="43.4759334" lon="11.1370552"><ele>97.00000000000001</ele><time>2026-05-03T07:13:57.414Z</time></trkpt><trkpt lat="43.4760508" lon="11.1370098"><ele>97.0</ele><time>2026-05-03T07:13:59.482Z</time></trkpt><trkpt lat="43.4761616" lon="11.1369399"><ele>97.0</ele><time>2026-05-03T07:14:01.418Z</time></trkpt><trkpt lat="43.4762189" lon="11.1368984"><ele>97.0</ele><time>2026-05-03T07:14:02.42Z</time></trkpt><trkpt lat="43.4762762" lon="11.1368588"><ele>97.00000000000001</ele><time>2026-05-03T07:14:03.424Z</time></trkpt><trkpt lat="43.476334" lon="11.1368187"><ele>97.0</ele><time>2026-05-03T07:14:04.391Z</time></trkpt><trkpt lat="43.4763996" lon="11.1367856"><ele>97.0</ele><time>2026-05-03T07:14:05.487Z</time></trkpt><trkpt lat="43.4764591" lon="11.1367363"><ele>97.0</ele><time>2026-05-03T07:14:06.412Z</time></trkpt><trkpt lat="43.4765392" lon="11.136652"><ele>97.0</ele><time>2026-05-03T07:14:08.423Z</time></trkpt><trkpt lat="43.4766425" lon="11.1365616"><ele>97.0</ele><time>2026-05-03T07:14:10.414Z</time></trkpt><trkpt lat="43.476732" lon="11.1364556"><ele>97.0</ele><time>2026-05-03T07:14:12.413Z</time></trkpt><trkpt lat="43.476809" lon="11.1363363"><ele>97.0</ele><time>2026-05-03T07:14:14.407Z</time></trkpt><trkpt lat="43.4768802" lon="11.136201"><ele>97.0</ele><time>2026-05-03T07:14:16.42Z</time></trkpt><trkpt lat="43.476947" lon="11.1360695"><ele>97.0</ele><time>2026-05-03T07:14:18.421Z</time></trkpt><trkpt lat="43.476982" lon="11.1359965"><ele>97.0</ele><time>2026-05-03T07:14:19.417Z</time></trkpt><trkpt lat="43.4770413" lon="11.1358541"><ele>97.0</ele><time>2026-05-03T07:14:21.393Z</time></trkpt><trkpt lat="43.4770648" lon="11.1357709"><ele>97.0</ele><time>2026-05-03T07:14:22.406Z</time></trkpt><trkpt lat="43.4770887" lon="11.1356892"><ele>97.0</ele><time>2026-05-03T07:14:23.406Z</time></trkpt><trkpt lat="43.4771391" lon="11.1355321"><ele>97.0</ele><time>2026-05-03T07:14:25.395Z</time></trkpt><trkpt lat="43.4771978" lon="11.1353916"><ele>97.0</ele><time>2026-05-03T07:14:27.417Z</time></trkpt><trkpt lat="43.4772522" lon="11.1352285"><ele>97.0</ele><time>2026-05-03T07:14:29.394Z</time></trkpt><trkpt lat="43.477299" lon="11.1351344"><ele>97.0</ele><time>2026-05-03T07:14:30.474Z</time></trkpt><trkpt lat="43.4773213" lon="11.1350326"><ele>97.0</ele><time>2026-05-03T07:14:31.431Z</time></trkpt><trkpt lat="43.4773351" lon="11.1348763"><ele>97.0</ele><time>2026-05-03T07:14:33.418Z</time></trkpt><trkpt lat="43.4773517" lon="11.1347823"><ele>97.0</ele><time>2026-05-03T07:14:34.402Z</time></trkpt><trkpt lat="43.4774211" lon="11.1346371"><ele>97.0</ele><time>2026-05-03T07:14:36.405Z</time></trkpt><trkpt lat="43.4774703" lon="11.1344996"><ele>96.8</ele><time>2026-05-03T07:14:38.408Z</time></trkpt><trkpt lat="43.4774999" lon="11.1344207"><ele>96.6</ele><time>2026-05-03T07:14:39.403Z</time></trkpt><trkpt lat="43.4775289" lon="11.13434"><ele>96.39999999999999</ele><time>2026-05-03T07:14:40.431Z</time></trkpt><trkpt lat="43.4775938" lon="11.1341886"><ele>96.19999999999999</ele><time>2026-05-03T07:14:42.408Z</time></trkpt><trkpt lat="43.4776297" lon="11.1341172"><ele>96.0</ele><time>2026-05-03T07:14:43.488Z</time></trkpt><trkpt lat="43.4777139" lon="11.1339665"><ele>96.0</ele><time>2026-05-03T07:14:45.4Z</time></trkpt><trkpt lat="43.4777627" lon="11.1339028"><ele>96.0</ele><time>2026-05-03T07:14:46.416Z</time></trkpt><trkpt lat="43.4778239" lon="11.1338495"><ele>96.0</ele><time>2026-05-03T07:14:48.414Z</time></trkpt><trkpt lat="43.4778629" lon="11.1337734"><ele>96.0</ele><time>2026-05-03T07:14:49.418Z</time></trkpt><trkpt lat="43.477904" lon="11.1337025"><ele>96.0</ele><time>2026-05-03T07:14:50.41Z</time></trkpt><trkpt lat="43.4779835" lon="11.1335589"><ele>96.0</ele><time>2026-05-03T07:14:52.398Z</time></trkpt><trkpt lat="43.4780246" lon="11.133492"><ele>96.0</ele><time>2026-05-03T07:14:53.413Z</time></trkpt><trkpt lat="43.4781015" lon="11.1333667"><ele>96.0</ele><time>2026-05-03T07:14:55.413Z</time></trkpt><trkpt lat="43.478185" lon="11.1332329"><ele>96.0</ele><time>2026-05-03T07:14:57.404Z</time></trkpt><trkpt lat="43.4782221" lon="11.1331621"><ele>96.0</ele><time>2026-05-03T07:14:58.409Z</time></trkpt><trkpt lat="43.4783104" lon="11.1330387"><ele>96.0</ele><time>2026-05-03T07:15:00.487Z</time></trkpt><trkpt lat="43.4783815" lon="11.1329865"><ele>95.8</ele><time>2026-05-03T07:15:01.417Z</time></trkpt><trkpt lat="43.4784342" lon="11.1329171"><ele>95.6</ele><time>2026-05-03T07:15:02.412Z</time></trkpt><trkpt lat="43.4784916" lon="11.1328026"><ele>95.4</ele><time>2026-05-03T07:15:04.474Z</time></trkpt><trkpt lat="43.4785638" lon="11.1326912"><ele>95.2</ele><time>2026-05-03T07:15:06.398Z</time></trkpt><trkpt lat="43.4786029" lon="11.1326229"><ele>95.0</ele><time>2026-05-03T07:15:07.413Z</time></trkpt><trkpt lat="43.4786723" lon="11.1324926"><ele>94.75</ele><time>2026-05-03T07:15:09.454Z</time></trkpt><trkpt lat="43.4787582" lon="11.1323695"><ele>94.5</ele><time>2026-05-03T07:15:11.416Z</time></trkpt><trkpt lat="43.4788357" lon="11.1322572"><ele>94.25</ele><time>2026-05-03T07:15:13.392Z</time></trkpt><trkpt lat="43.4789184" lon="11.1321523"><ele>94.0</ele><time>2026-05-03T07:15:15.403Z</time></trkpt><trkpt lat="43.479025" lon="11.1320919"><ele>93.5</ele><time>2026-05-03T07:15:17.416Z</time></trkpt><trkpt lat="43.4791404" lon="11.1320944"><ele>93.0</ele><time>2026-05-03T07:15:19.42Z</time></trkpt><trkpt lat="43.4792491" lon="11.1321348"><ele>92.5</ele><time>2026-05-03T07:15:21.422Z</time></trkpt><trkpt lat="43.4793653" lon="11.1321349"><ele>92.0</ele><time>2026-05-03T07:15:23.421Z</time></trkpt><trkpt lat="43.4794736" lon="11.1320723"><ele>92.0</ele><time>2026-05-03T07:15:25.408Z</time></trkpt><trkpt lat="43.4795521" lon="11.1319696"><ele>92.0</ele><time>2026-05-03T07:15:27.429Z</time></trkpt><trkpt lat="43.479598" lon="11.1318331"><ele>92.0</ele><time>2026-05-03T07:15:29.42Z</time></trkpt><trkpt lat="43.4796145" lon="11.1316825"><ele>92.0</ele><time>2026-05-03T07:15:31.409Z</time></trkpt><trkpt lat="43.4796369" lon="11.1315316"><ele>92.0</ele><time>2026-05-03T07:15:33.421Z</time></trkpt><trkpt lat="43.4796997" lon="11.1314023"><ele>92.75</ele><time>2026-05-03T07:15:35.482Z</time></trkpt><trkpt lat="43.479793" lon="11.131309"><ele>93.5</ele><time>2026-05-03T07:15:37.403Z</time></trkpt><trkpt lat="43.4798987" lon="11.1312342"><ele>94.25</ele><time>2026-05-03T07:15:39.406Z</time></trkpt><trkpt lat="43.4800047" lon="11.1311696"><ele>95.0</ele><time>2026-05-03T07:15:41.413Z</time></trkpt><trkpt lat="43.4801111" lon="11.1311267"><ele>95.0</ele><time>2026-05-03T07:15:43.423Z</time></trkpt><trkpt lat="43.4802158" lon="11.1310843"><ele>95.0</ele><time>2026-05-03T07:15:45.48Z</time></trkpt><trkpt lat="43.4803256" lon="11.1310535"><ele>95.0</ele><time>2026-05-03T07:15:47.404Z</time></trkpt><trkpt lat="43.4804368" lon="11.1310225"><ele>95.0</ele><time>2026-05-03T07:15:49.478Z</time></trkpt><trkpt lat="43.4805433" lon="11.1309987"><ele>95.0</ele><time>2026-05-03T07:15:51.451Z</time></trkpt><trkpt lat="43.4806538" lon="11.1309735"><ele>94.4</ele><time>2026-05-03T07:15:53.411Z</time></trkpt><trkpt lat="43.480769" lon="11.1309421"><ele>93.8</ele><time>2026-05-03T07:15:55.468Z</time></trkpt><trkpt lat="43.4808404" lon="11.1309049"><ele>93.19999999999999</ele><time>2026-05-03T07:15:56.394Z</time></trkpt><trkpt lat="43.4808999" lon="11.1308697"><ele>92.6</ele><time>2026-05-03T07:15:57.402Z</time></trkpt><trkpt lat="43.4809786" lon="11.1308087"><ele>92.0</ele><time>2026-05-03T07:15:59.41Z</time></trkpt><trkpt lat="43.4810702" lon="11.1307026"><ele>92.0</ele><time>2026-05-03T07:16:01.418Z</time></trkpt><trkpt lat="43.4811564" lon="11.1305884"><ele>92.0</ele><time>2026-05-03T07:16:03.418Z</time></trkpt><trkpt lat="43.4812366" lon="11.1304964"><ele>92.0</ele><time>2026-05-03T07:16:05.416Z</time></trkpt><trkpt lat="43.4813235" lon="11.1304413"><ele>92.0</ele><time>2026-05-03T07:16:07.395Z</time></trkpt><trkpt lat="43.4813914" lon="11.1303933"><ele>92.0</ele><time>2026-05-03T07:16:09.458Z</time></trkpt><trkpt lat="43.4814976" lon="11.1304075"><ele>91.6</ele><time>2026-05-03T07:16:11.409Z</time></trkpt><trkpt lat="43.4815968" lon="11.1304399"><ele>91.19999999999999</ele><time>2026-05-03T07:16:13.406Z</time></trkpt><trkpt lat="43.4816924" lon="11.1304837"><ele>90.8</ele><time>2026-05-03T07:16:15.491Z</time></trkpt><trkpt lat="43.4817956" lon="11.1305252"><ele>90.4</ele><time>2026-05-03T07:16:17.419Z</time></trkpt><trkpt lat="43.4819021" lon="11.1305654"><ele>90.0</ele><time>2026-05-03T07:16:19.483Z</time></trkpt><trkpt lat="43.4820237" lon="11.1305915"><ele>90.0</ele><time>2026-05-03T07:16:21.4Z</time></trkpt><trkpt lat="43.4820951" lon="11.1305911"><ele>90.0</ele><time>2026-05-03T07:16:22.414Z</time></trkpt><trkpt lat="43.4821842" lon="11.1305816"><ele>90.0</ele><time>2026-05-03T07:16:23.4Z</time></trkpt><trkpt lat="43.4822777" lon="11.1305678"><ele>90.0</ele><time>2026-05-03T07:16:24.47Z</time></trkpt><trkpt lat="43.482367" lon="11.1305428"><ele>90.0</ele><time>2026-05-03T07:16:25.478Z</time></trkpt><trkpt lat="43.4824552" lon="11.1305229"><ele>90.0</ele><time>2026-05-03T07:16:26.396Z</time></trkpt><trkpt lat="43.482544" lon="11.1304885"><ele>90.0</ele><time>2026-05-03T07:16:27.418Z</time></trkpt><trkpt lat="43.4826483" lon="11.1304511"><ele>90.0</ele><time>2026-05-03T07:16:28.426Z</time></trkpt><trkpt lat="43.4827475" lon="11.1304267"><ele>90.0</ele><time>2026-05-03T07:16:29.417Z</time></trkpt><trkpt lat="43.4828417" lon="11.1303941"><ele>90.0</ele><time>2026-05-03T07:16:30.411Z</time></trkpt><trkpt lat="43.4829287" lon="11.1303595"><ele>90.0</ele><time>2026-05-03T07:16:31.407Z</time></trkpt><trkpt lat="43.4830062" lon="11.1303186"><ele>90.83333333333333</ele><time>2026-05-03T07:16:32.42Z</time></trkpt><trkpt lat="43.4830845" lon="11.1302787"><ele>91.66666666666667</ele><time>2026-05-03T07:16:33.419Z</time></trkpt><trkpt lat="43.4831602" lon="11.1302247"><ele>92.5</ele><time>2026-05-03T07:16:34.39Z</time></trkpt><trkpt lat="43.4832324" lon="11.1301731"><ele>93.33333333333334</ele><time>2026-05-03T07:16:35.417Z</time></trkpt><trkpt lat="43.4832984" lon="11.1301152"><ele>94.16666666666667</ele><time>2026-05-03T07:16:36.405Z</time></trkpt><trkpt lat="43.4833614" lon="11.130054"><ele>95.0</ele><time>2026-05-03T07:16:37.422Z</time></trkpt><trkpt lat="43.4834228" lon="11.1299863"><ele>95.0</ele><time>2026-05-03T07:16:38.417Z</time></trkpt><trkpt lat="43.4834849" lon="11.1299179"><ele>95.0</ele><time>2026-05-03T07:16:39.475Z</time></trkpt><trkpt lat="43.4835436" lon="11.1298493"><ele>95.0</ele><time>2026-05-03T07:16:40.464Z</time></trkpt><trkpt lat="43.4836016" lon="11.1297802"><ele>95.0</ele><time>2026-05-03T07:16:41.394Z</time></trkpt><trkpt lat="43.4836571" lon="11.1297139"><ele>95.0</ele><time>2026-05-03T07:16:42.415Z</time></trkpt><trkpt lat="43.4837138" lon="11.1296474"><ele>95.0</ele><time>2026-05-03T07:16:43.413Z</time></trkpt><trkpt lat="43.4837668" lon="11.1295863"><ele>94.85714285714286</ele><time>2026-05-03T07:16:44.4Z</time></trkpt><trkpt lat="43.4838075" lon="11.1295188"><ele>94.71428571428572</ele><time>2026-05-03T07:16:45.496Z</time></trkpt><trkpt lat="43.4838457" lon="11.1294276"><ele>94.57142857142857</ele><time>2026-05-03T07:16:46.415Z</time></trkpt><trkpt lat="43.4838936" lon="11.1293414"><ele>94.42857142857143</ele><time>2026-05-03T07:16:47.405Z</time></trkpt><trkpt lat="43.4839331" lon="11.1292537"><ele>94.28571428571428</ele><time>2026-05-03T07:16:48.41Z</time></trkpt><trkpt lat="43.4839715" lon="11.1291597"><ele>94.14285714285714</ele><time>2026-05-03T07:16:49.477Z</time></trkpt><trkpt lat="43.484014" lon="11.1290756"><ele>94.0</ele><time>2026-05-03T07:16:50.473Z</time></trkpt><trkpt lat="43.484059" lon="11.1289926"><ele>94.0</ele><time>2026-05-03T07:16:51.419Z</time></trkpt><trkpt lat="43.4840943" lon="11.1289051"><ele>94.0</ele><time>2026-05-03T07:16:52.403Z</time></trkpt><trkpt lat="43.4841109" lon="11.1288087"><ele>94.0</ele><time>2026-05-03T07:16:53.402Z</time></trkpt><trkpt lat="43.4841391" lon="11.1287273"><ele>94.0</ele><time>2026-05-03T07:16:54.474Z</time></trkpt><trkpt lat="43.4841883" lon="11.1286069"><ele>94.0</ele><time>2026-05-03T07:16:56.391Z</time></trkpt><trkpt lat="43.4842581" lon="11.128471"><ele>94.0</ele><time>2026-05-03T07:16:58.422Z</time></trkpt><trkpt lat="43.4842972" lon="11.1284015"><ele>94.0</ele><time>2026-05-03T07:16:59.472Z</time></trkpt><trkpt lat="43.4843415" lon="11.1283269"><ele>94.0</ele><time>2026-05-03T07:17:00.467Z</time></trkpt><trkpt lat="43.4843846" lon="11.1282514"><ele>94.0</ele><time>2026-05-03T07:17:01.382Z</time></trkpt><trkpt lat="43.4844631" lon="11.1281599"><ele>94.0</ele><time>2026-05-03T07:17:03.403Z</time></trkpt><trkpt lat="43.4845497" lon="11.1280768"><ele>94.0</ele><time>2026-05-03T07:17:05.41Z</time></trkpt><trkpt lat="43.4846262" lon="11.127993"><ele>94.0</ele><time>2026-05-03T07:17:07.408Z</time></trkpt><trkpt lat="43.484702" lon="11.1279045"><ele>94.83333333333333</ele><time>2026-05-03T07:17:09.391Z</time></trkpt><trkpt lat="43.4847652" lon="11.1278317"><ele>95.66666666666666</ele><time>2026-05-03T07:17:11.391Z</time></trkpt><trkpt lat="43.4848279" lon="11.1277613"><ele>96.5</ele><time>2026-05-03T07:17:13.403Z</time></trkpt><trkpt lat="43.4848901" lon="11.1276691"><ele>97.33333333333333</ele><time>2026-05-03T07:17:15.419Z</time></trkpt><trkpt lat="43.4849625" lon="11.1275576"><ele>98.16666666666667</ele><time>2026-05-03T07:17:17.428Z</time></trkpt><trkpt lat="43.4850133" lon="11.1274925"><ele>99.0</ele><time>2026-05-03T07:17:18.416Z</time></trkpt><trkpt lat="43.485101" lon="11.1273959"><ele>98.4</ele><time>2026-05-03T07:17:20.469Z</time></trkpt><trkpt lat="43.485192" lon="11.1273019"><ele>97.80000000000001</ele><time>2026-05-03T07:17:22.404Z</time></trkpt><trkpt lat="43.4852769" lon="11.1271932"><ele>97.19999999999999</ele><time>2026-05-03T07:17:24.477Z</time></trkpt><trkpt lat="43.4853665" lon="11.127086"><ele>96.6</ele><time>2026-05-03T07:17:26.391Z</time></trkpt><trkpt lat="43.4854234" lon="11.1270312"><ele>96.0</ele><time>2026-05-03T07:17:27.418Z</time></trkpt><trkpt lat="43.4854712" lon="11.1269728"><ele>96.0</ele><time>2026-05-03T07:17:28.413Z</time></trkpt><trkpt lat="43.4855603" lon="11.1268532"><ele>96.0</ele><time>2026-05-03T07:17:30.471Z</time></trkpt><trkpt lat="43.485589" lon="11.1266687"><ele>96.0</ele><time>2026-05-03T07:17:33.389Z</time></trkpt><trkpt lat="43.485708" lon="11.1266289"><ele>96.0</ele><time>2026-05-03T07:17:34.389Z</time></trkpt><trkpt lat="43.4857611" lon="11.1265634"><ele>95.0</ele><time>2026-05-03T07:17:35.475Z</time></trkpt><trkpt lat="43.4858558" lon="11.1264305"><ele>94.0</ele><time>2026-05-03T07:17:37.407Z</time></trkpt><trkpt lat="43.485906" lon="11.1263679"><ele>93.0</ele><time>2026-05-03T07:17:38.418Z</time></trkpt><trkpt lat="43.4859594" lon="11.1263066"><ele>92.0</ele><time>2026-05-03T07:17:39.472Z</time></trkpt><trkpt lat="43.4860173" lon="11.126248"><ele>91.0</ele><time>2026-05-03T07:17:40.379Z</time></trkpt><trkpt lat="43.4860787" lon="11.1261944"><ele>90.0</ele><time>2026-05-03T07:17:41.386Z</time></trkpt><trkpt lat="43.4861466" lon="11.1261211"><ele>90.0</ele><time>2026-05-03T07:17:42.414Z</time></trkpt><trkpt lat="43.4862091" lon="11.1260431"><ele>90.0</ele><time>2026-05-03T07:17:43.403Z</time></trkpt><trkpt lat="43.4862681" lon="11.1259728"><ele>90.0</ele><time>2026-05-03T07:17:44.407Z</time></trkpt><trkpt lat="43.4863413" lon="11.1258924"><ele>90.0</ele><time>2026-05-03T07:17:45.4Z</time></trkpt><trkpt lat="43.4864088" lon="11.1258215"><ele>90.0</ele><time>2026-05-03T07:17:46.399Z</time></trkpt><trkpt lat="43.4864782" lon="11.1257483"><ele>90.0</ele><time>2026-05-03T07:17:47.404Z</time></trkpt><trkpt lat="43.4865442" lon="11.1256817"><ele>89.83333333333333</ele><time>2026-05-03T07:17:48.405Z</time></trkpt><trkpt lat="43.4866158" lon="11.1256206"><ele>89.66666666666667</ele><time>2026-05-03T07:17:49.406Z</time></trkpt><trkpt lat="43.4866867" lon="11.1255548"><ele>89.5</ele><time>2026-05-03T07:17:50.397Z</time></trkpt><trkpt lat="43.4867563" lon="11.1254919"><ele>89.33333333333334</ele><time>2026-05-03T07:17:51.412Z</time></trkpt><trkpt lat="43.4868291" lon="11.1254377"><ele>89.16666666666667</ele><time>2026-05-03T07:17:52.408Z</time></trkpt><trkpt lat="43.4869028" lon="11.1253844"><ele>89.0</ele><time>2026-05-03T07:17:53.387Z</time></trkpt><trkpt lat="43.4869759" lon="11.1253314"><ele>89.0</ele><time>2026-05-03T07:17:54.396Z</time></trkpt><trkpt lat="43.4870468" lon="11.1252753"><ele>89.0</ele><time>2026-05-03T07:17:55.41Z</time></trkpt><trkpt lat="43.487122" lon="11.1252189"><ele>89.0</ele><time>2026-05-03T07:17:56.48Z</time></trkpt><trkpt lat="43.4871909" lon="11.1251718"><ele>89.0</ele><time>2026-05-03T07:17:57.422Z</time></trkpt><trkpt lat="43.4872576" lon="11.1251231"><ele>89.0</ele><time>2026-05-03T07:17:58.41Z</time></trkpt><trkpt lat="43.4873254" lon="11.1250632"><ele>89.0</ele><time>2026-05-03T07:17:59.476Z</time></trkpt><trkpt lat="43.4873954" lon="11.1250007"><ele>88.66666666666667</ele><time>2026-05-03T07:18:00.399Z</time></trkpt><trkpt lat="43.4874723" lon="11.1249383"><ele>88.33333333333333</ele><time>2026-05-03T07:18:01.477Z</time></trkpt><trkpt lat="43.487551" lon="11.1248756"><ele>88.0</ele><time>2026-05-03T07:18:02.393Z</time></trkpt><trkpt lat="43.4877867" lon="11.1246956"><ele>87.5</ele><time>2026-05-03T07:18:06.493Z</time></trkpt><trkpt lat="43.4880199" lon="11.1246432"><ele>87.0</ele><time>2026-05-03T07:18:08.407Z</time></trkpt><trkpt lat="43.4881342" lon="11.1246097"><ele>86.5</ele><time>2026-05-03T07:18:10.465Z</time></trkpt><trkpt lat="43.4882077" lon="11.1245822"><ele>86.0</ele><time>2026-05-03T07:18:11.401Z</time></trkpt><trkpt lat="43.4882724" lon="11.1245454"><ele>86.0</ele><time>2026-05-03T07:18:12.417Z</time></trkpt><trkpt lat="43.488347" lon="11.1245003"><ele>86.0</ele><time>2026-05-03T07:18:13.421Z</time></trkpt><trkpt lat="43.488415" lon="11.1244504"><ele>86.0</ele><time>2026-05-03T07:18:14.472Z</time></trkpt><trkpt lat="43.4884881" lon="11.124423"><ele>86.0</ele><time>2026-05-03T07:18:15.476Z</time></trkpt><trkpt lat="43.4885616" lon="11.1243974"><ele>86.0</ele><time>2026-05-03T07:18:16.413Z</time></trkpt><trkpt lat="43.48864" lon="11.124371"><ele>86.0</ele><time>2026-05-03T07:18:17.404Z</time></trkpt><trkpt lat="43.4887136" lon="11.1243267"><ele>86.16666666666667</ele><time>2026-05-03T07:18:18.381Z</time></trkpt><trkpt lat="43.4887828" lon="11.1242754"><ele>86.33333333333334</ele><time>2026-05-03T07:18:19.402Z</time></trkpt><trkpt lat="43.4888468" lon="11.1242265"><ele>86.5</ele><time>2026-05-03T07:18:20.399Z</time></trkpt><trkpt lat="43.4889092" lon="11.1241868"><ele>86.66666666666667</ele><time>2026-05-03T07:18:21.405Z</time></trkpt><trkpt lat="43.4889704" lon="11.1241473"><ele>86.83333333333333</ele><time>2026-05-03T07:18:22.408Z</time></trkpt><trkpt lat="43.489029" lon="11.1241129"><ele>87.0</ele><time>2026-05-03T07:18:23.401Z</time></trkpt><trkpt lat="43.4891419" lon="11.1240444"><ele>87.0</ele><time>2026-05-03T07:18:25.384Z</time></trkpt><trkpt lat="43.4892473" lon="11.1239764"><ele>87.0</ele><time>2026-05-03T07:18:27.4Z</time></trkpt><trkpt lat="43.4893485" lon="11.123912"><ele>87.0</ele><time>2026-05-03T07:18:29.48Z</time></trkpt><trkpt lat="43.4894396" lon="11.123846"><ele>87.0</ele><time>2026-05-03T07:18:31.44Z</time></trkpt><trkpt lat="43.4895287" lon="11.1237814"><ele>87.0</ele><time>2026-05-03T07:18:33.414Z</time></trkpt><trkpt lat="43.489618" lon="11.123722"><ele>87.0</ele><time>2026-05-03T07:18:35.482Z</time></trkpt><trkpt lat="43.4897133" lon="11.1236802"><ele>87.0</ele><time>2026-05-03T07:18:37.413Z</time></trkpt><trkpt lat="43.4898029" lon="11.1236278"><ele>87.0</ele><time>2026-05-03T07:18:39.469Z</time></trkpt><trkpt lat="43.4898625" lon="11.1235571"><ele>87.0</ele><time>2026-05-03T07:18:41.411Z</time></trkpt><trkpt lat="43.4899476" lon="11.1234909"><ele>87.0</ele><time>2026-05-03T07:18:43.405Z</time></trkpt><trkpt lat="43.4901074" lon="11.1233656"><ele>87.0</ele><time>2026-05-03T07:18:47.399Z</time></trkpt><trkpt lat="43.4901747" lon="11.1233351"><ele>87.0</ele><time>2026-05-03T07:18:48.418Z</time></trkpt><trkpt lat="43.4902338" lon="11.1232787"><ele>87.0</ele><time>2026-05-03T07:18:49.472Z</time></trkpt><trkpt lat="43.4902929" lon="11.1232294"><ele>87.0</ele><time>2026-05-03T07:18:50.478Z</time></trkpt><trkpt lat="43.4903886" lon="11.123144"><ele>87.0</ele><time>2026-05-03T07:18:52.41Z</time></trkpt><trkpt lat="43.490494" lon="11.1230729"><ele>87.0</ele><time>2026-05-03T07:18:54.408Z</time></trkpt><trkpt lat="43.4905521" lon="11.1230335"><ele>87.33333333333333</ele><time>2026-05-03T07:18:55.408Z</time></trkpt><trkpt lat="43.4906096" lon="11.1229926"><ele>87.66666666666667</ele><time>2026-05-03T07:18:56.411Z</time></trkpt><trkpt lat="43.4906641" lon="11.1229481"><ele>88.0</ele><time>2026-05-03T07:18:57.406Z</time></trkpt><trkpt lat="43.4907758" lon="11.1228614"><ele>88.33333333333334</ele><time>2026-05-03T07:18:59.41Z</time></trkpt><trkpt lat="43.4908313" lon="11.1228195"><ele>88.66666666666667</ele><time>2026-05-03T07:19:00.401Z</time></trkpt><trkpt lat="43.4909363" lon="11.1227333"><ele>89.0</ele><time>2026-05-03T07:19:02.422Z</time></trkpt><trkpt lat="43.4909907" lon="11.1226845"><ele>89.0</ele><time>2026-05-03T07:19:03.411Z</time></trkpt><trkpt lat="43.491046" lon="11.1226358"><ele>89.0</ele><time>2026-05-03T07:19:04.424Z</time></trkpt><trkpt lat="43.4911042" lon="11.1225877"><ele>89.0</ele><time>2026-05-03T07:19:05.474Z</time></trkpt><trkpt lat="43.4912057" lon="11.1225442"><ele>89.0</ele><time>2026-05-03T07:19:07.412Z</time></trkpt><trkpt lat="43.4913203" lon="11.1224588"><ele>89.0</ele><time>2026-05-03T07:19:09.485Z</time></trkpt><trkpt lat="43.4914295" lon="11.1223808"><ele>88.83333333333334</ele><time>2026-05-03T07:19:11.392Z</time></trkpt><trkpt lat="43.4914892" lon="11.1223061"><ele>88.66666666666667</ele><time>2026-05-03T07:19:12.407Z</time></trkpt><trkpt lat="43.491552" lon="11.1222118"><ele>88.5</ele><time>2026-05-03T07:19:13.399Z</time></trkpt><trkpt lat="43.4916128" lon="11.1221497"><ele>88.33333333333333</ele><time>2026-05-03T07:19:14.477Z</time></trkpt><trkpt lat="43.4916998" lon="11.1220544"><ele>88.16666666666666</ele><time>2026-05-03T07:19:16.4Z</time></trkpt><trkpt lat="43.4917609" lon="11.1220044"><ele>88.0</ele><time>2026-05-03T07:19:17.402Z</time></trkpt><trkpt lat="43.4918277" lon="11.121962"><ele>88.0</ele><time>2026-05-03T07:19:18.407Z</time></trkpt><trkpt lat="43.4918975" lon="11.1219139"><ele>88.0</ele><time>2026-05-03T07:19:19.481Z</time></trkpt><trkpt lat="43.4919562" lon="11.1218629"><ele>88.0</ele><time>2026-05-03T07:19:20.481Z</time></trkpt><trkpt lat="43.4920117" lon="11.1218092"><ele>88.0</ele><time>2026-05-03T07:19:21.394Z</time></trkpt><trkpt lat="43.4920658" lon="11.1217545"><ele>88.0</ele><time>2026-05-03T07:19:22.407Z</time></trkpt><trkpt lat="43.4921219" lon="11.1217005"><ele>88.0</ele><time>2026-05-03T07:19:23.419Z</time></trkpt><trkpt lat="43.4921793" lon="11.1216508"><ele>88.0</ele><time>2026-05-03T07:19:24.462Z</time></trkpt><trkpt lat="43.4922402" lon="11.1216125"><ele>87.85714285714286</ele><time>2026-05-03T07:19:25.473Z</time></trkpt><trkpt lat="43.492304" lon="11.1215642"><ele>87.71428571428571</ele><time>2026-05-03T07:19:26.394Z</time></trkpt><trkpt lat="43.4923573" lon="11.1215098"><ele>87.57142857142857</ele><time>2026-05-03T07:19:27.398Z</time></trkpt><trkpt lat="43.4924188" lon="11.1214545"><ele>87.42857142857143</ele><time>2026-05-03T07:19:28.42Z</time></trkpt><trkpt lat="43.4924786" lon="11.1213972"><ele>87.28571428571429</ele><time>2026-05-03T07:19:29.406Z</time></trkpt><trkpt lat="43.4925393" lon="11.1213441"><ele>87.14285714285714</ele><time>2026-05-03T07:19:30.409Z</time></trkpt><trkpt lat="43.4925933" lon="11.1212934"><ele>87.0</ele><time>2026-05-03T07:19:31.413Z</time></trkpt><trkpt lat="43.4926487" lon="11.1212413"><ele>87.0</ele><time>2026-05-03T07:19:32.397Z</time></trkpt><trkpt lat="43.4927034" lon="11.1211919"><ele>87.0</ele><time>2026-05-03T07:19:33.4Z</time></trkpt><trkpt lat="43.492756" lon="11.1211398"><ele>87.0</ele><time>2026-05-03T07:19:34.419Z</time></trkpt><trkpt lat="43.4928114" lon="11.1210932"><ele>87.0</ele><time>2026-05-03T07:19:35.424Z</time></trkpt><trkpt lat="43.4928664" lon="11.1210467"><ele>87.0</ele><time>2026-05-03T07:19:36.414Z</time></trkpt><trkpt lat="43.4929205" lon="11.1209978"><ele>87.0</ele><time>2026-05-03T07:19:37.397Z</time></trkpt><trkpt lat="43.4929766" lon="11.1209464"><ele>87.0</ele><time>2026-05-03T07:19:38.4Z</time></trkpt><trkpt lat="43.4930345" lon="11.1208993"><ele>87.0</ele><time>2026-05-03T07:19:39.409Z</time></trkpt><trkpt lat="43.4930936" lon="11.1208546"><ele>87.0</ele><time>2026-05-03T07:19:40.403Z</time></trkpt><trkpt lat="43.493154" lon="11.1208072"><ele>87.0</ele><time>2026-05-03T07:19:41.407Z</time></trkpt><trkpt lat="43.4932145" lon="11.120752"><ele>87.0</ele><time>2026-05-03T07:19:42.406Z</time></trkpt><trkpt lat="43.4932749" lon="11.1207021"><ele>87.0</ele><time>2026-05-03T07:19:43.408Z</time></trkpt><trkpt lat="43.4933334" lon="11.120651"><ele>87.0</ele><time>2026-05-03T07:19:44.465Z</time></trkpt><trkpt lat="43.4933901" lon="11.1206037"><ele>87.0</ele><time>2026-05-03T07:19:45.401Z</time></trkpt><trkpt lat="43.4934498" lon="11.1205556"><ele>87.0</ele><time>2026-05-03T07:19:46.479Z</time></trkpt><trkpt lat="43.4935454" lon="11.1205022"><ele>87.0</ele><time>2026-05-03T07:19:48.404Z</time></trkpt><trkpt lat="43.4935978" lon="11.1204303"><ele>87.0</ele><time>2026-05-03T07:19:49.476Z</time></trkpt><trkpt lat="43.4936505" lon="11.1203611"><ele>87.0</ele><time>2026-05-03T07:19:50.474Z</time></trkpt><trkpt lat="43.4937096" lon="11.1202961"><ele>87.0</ele><time>2026-05-03T07:19:51.412Z</time></trkpt><trkpt lat="43.4937725" lon="11.1202303"><ele>87.0</ele><time>2026-05-03T07:19:52.416Z</time></trkpt><trkpt lat="43.4938318" lon="11.1201699"><ele>86.71428571428571</ele><time>2026-05-03T07:19:53.429Z</time></trkpt><trkpt lat="43.493889" lon="11.1201107"><ele>86.42857142857143</ele><time>2026-05-03T07:19:54.466Z</time></trkpt><trkpt lat="43.4939412" lon="11.1200438"><ele>86.14285714285714</ele><time>2026-05-03T07:19:55.469Z</time></trkpt><trkpt lat="43.4940006" lon="11.1199753"><ele>85.85714285714286</ele><time>2026-05-03T07:19:56.406Z</time></trkpt><trkpt lat="43.4940633" lon="11.1199204"><ele>85.57142857142857</ele><time>2026-05-03T07:19:57.41Z</time></trkpt><trkpt lat="43.4941202" lon="11.1198726"><ele>85.28571428571429</ele><time>2026-05-03T07:19:58.425Z</time></trkpt><trkpt lat="43.4941763" lon="11.1198112"><ele>85.0</ele><time>2026-05-03T07:19:59.477Z</time></trkpt><trkpt lat="43.4942328" lon="11.1197372"><ele>85.0</ele><time>2026-05-03T07:20:00.483Z</time></trkpt><trkpt lat="43.4942867" lon="11.1196731"><ele>85.0</ele><time>2026-05-03T07:20:01.425Z</time></trkpt><trkpt lat="43.4943391" lon="11.1196188"><ele>85.0</ele><time>2026-05-03T07:20:02.403Z</time></trkpt><trkpt lat="43.4943954" lon="11.1195609"><ele>85.0</ele><time>2026-05-03T07:20:03.407Z</time></trkpt><trkpt lat="43.4944482" lon="11.1195063"><ele>85.0</ele><time>2026-05-03T07:20:04.46Z</time></trkpt><trkpt lat="43.4945484" lon="11.1193351"><ele>85.0</ele><time>2026-05-03T07:20:07.391Z</time></trkpt><trkpt lat="43.4946639" lon="11.1192422"><ele>85.2</ele><time>2026-05-03T07:20:09.41Z</time></trkpt><trkpt lat="43.494761" lon="11.119151"><ele>85.4</ele><time>2026-05-03T07:20:11.428Z</time></trkpt><trkpt lat="43.4948501" lon="11.1190423"><ele>85.6</ele><time>2026-05-03T07:20:13.425Z</time></trkpt><trkpt lat="43.4948973" lon="11.1189835"><ele>85.8</ele><time>2026-05-03T07:20:14.406Z</time></trkpt><trkpt lat="43.4949879" lon="11.1188779"><ele>86.0</ele><time>2026-05-03T07:20:16.42Z</time></trkpt><trkpt lat="43.4950825" lon="11.1187655"><ele>86.0</ele><time>2026-05-03T07:20:18.404Z</time></trkpt><trkpt lat="43.4951745" lon="11.1186319"><ele>86.0</ele><time>2026-05-03T07:20:20.409Z</time></trkpt><trkpt lat="43.4952474" lon="11.1185011"><ele>86.0</ele><time>2026-05-03T07:20:22.403Z</time></trkpt><trkpt lat="43.4952982" lon="11.1184446"><ele>86.0</ele><time>2026-05-03T07:20:23.421Z</time></trkpt><trkpt lat="43.4954609" lon="11.1180973"><ele>86.0</ele><time>2026-05-03T07:20:28.387Z</time></trkpt><trkpt lat="43.495524" lon="11.118001"><ele>86.0</ele><time>2026-05-03T07:20:29.475Z</time></trkpt><trkpt lat="43.4955953" lon="11.1179174"><ele>86.0</ele><time>2026-05-03T07:20:31.411Z</time></trkpt><trkpt lat="43.4956382" lon="11.1178073"><ele>86.0</ele><time>2026-05-03T07:20:33.401Z</time></trkpt><trkpt lat="43.4957204" lon="11.1176762"><ele>86.0</ele><time>2026-05-03T07:20:35.467Z</time></trkpt><trkpt lat="43.4958066" lon="11.1175519"><ele>86.0</ele><time>2026-05-03T07:20:37.398Z</time></trkpt><trkpt lat="43.4958558" lon="11.1174902"><ele>86.0</ele><time>2026-05-03T07:20:38.405Z</time></trkpt><trkpt lat="43.4959507" lon="11.1173766"><ele>86.0</ele><time>2026-05-03T07:20:40.41Z</time></trkpt><trkpt lat="43.4960008" lon="11.1173192"><ele>86.0</ele><time>2026-05-03T07:20:41.409Z</time></trkpt><trkpt lat="43.4960847" lon="11.1171962"><ele>86.0</ele><time>2026-05-03T07:20:43.384Z</time></trkpt><trkpt lat="43.4961807" lon="11.1170813"><ele>86.0</ele><time>2026-05-03T07:20:45.416Z</time></trkpt><trkpt lat="43.4962296" lon="11.1170236"><ele>86.0</ele><time>2026-05-03T07:20:46.414Z</time></trkpt><trkpt lat="43.4962795" lon="11.1169612"><ele>86.0</ele><time>2026-05-03T07:20:47.409Z</time></trkpt><trkpt lat="43.4963279" lon="11.1168965"><ele>86.0</ele><time>2026-05-03T07:20:48.407Z</time></trkpt><trkpt lat="43.4963742" lon="11.1168294"><ele>86.0</ele><time>2026-05-03T07:20:49.409Z</time></trkpt><trkpt lat="43.4964104" lon="11.1167027"><ele>86.0</ele><time>2026-05-03T07:20:51.472Z</time></trkpt><trkpt lat="43.4964688" lon="11.1165744"><ele>85.66666666666667</ele><time>2026-05-03T07:20:53.414Z</time></trkpt><trkpt lat="43.4965149" lon="11.1164873"><ele>85.33333333333334</ele><time>2026-05-03T07:20:54.488Z</time></trkpt><trkpt lat="43.4965595" lon="11.116402"><ele>85.0</ele><time>2026-05-03T07:20:55.469Z</time></trkpt><trkpt lat="43.4966014" lon="11.116322"><ele>84.66666666666667</ele><time>2026-05-03T07:20:56.415Z</time></trkpt><trkpt lat="43.4966452" lon="11.1162484"><ele>84.33333333333333</ele><time>2026-05-03T07:20:57.417Z</time></trkpt><trkpt lat="43.4966854" lon="11.1161763"><ele>84.0</ele><time>2026-05-03T07:20:58.407Z</time></trkpt><trkpt lat="43.4967563" lon="11.1160372"><ele>84.0</ele><time>2026-05-03T07:21:00.468Z</time></trkpt><trkpt lat="43.4968391" lon="11.115909"><ele>84.0</ele><time>2026-05-03T07:21:02.405Z</time></trkpt><trkpt lat="43.4968855" lon="11.1158478"><ele>84.0</ele><time>2026-05-03T07:21:03.406Z</time></trkpt><trkpt lat="43.4969324" lon="11.115788"><ele>84.0</ele><time>2026-05-03T07:21:04.485Z</time></trkpt><trkpt lat="43.4970268" lon="11.1157"><ele>84.0</ele><time>2026-05-03T07:21:06.407Z</time></trkpt><trkpt lat="43.4971151" lon="11.1156497"><ele>84.4</ele><time>2026-05-03T07:21:08.408Z</time></trkpt><trkpt lat="43.4972071" lon="11.115579"><ele>84.80000000000001</ele><time>2026-05-03T07:21:10.472Z</time></trkpt><trkpt lat="43.4973075" lon="11.1155182"><ele>85.19999999999999</ele><time>2026-05-03T07:21:12.401Z</time></trkpt><trkpt lat="43.4973983" lon="11.1154639"><ele>85.6</ele><time>2026-05-03T07:21:14.414Z</time></trkpt><trkpt lat="43.4974904" lon="11.115412"><ele>86.0</ele><time>2026-05-03T07:21:16.4Z</time></trkpt><trkpt lat="43.4975784" lon="11.1153632"><ele>86.0</ele><time>2026-05-03T07:21:18.426Z</time></trkpt><trkpt lat="43.4976668" lon="11.1153197"><ele>86.0</ele><time>2026-05-03T07:21:20.409Z</time></trkpt><trkpt lat="43.4977563" lon="11.1152716"><ele>86.0</ele><time>2026-05-03T07:21:22.4Z</time></trkpt><trkpt lat="43.4978475" lon="11.1152143"><ele>86.0</ele><time>2026-05-03T07:21:24.405Z</time></trkpt><trkpt lat="43.4979478" lon="11.1151539"><ele>86.0</ele><time>2026-05-03T07:21:26.393Z</time></trkpt><trkpt lat="43.4980521" lon="11.1150843"><ele>86.0</ele><time>2026-05-03T07:21:28.413Z</time></trkpt><trkpt lat="43.4981104" lon="11.1150475"><ele>86.0</ele><time>2026-05-03T07:21:29.406Z</time></trkpt><trkpt lat="43.4981666" lon="11.1150071"><ele>86.0</ele><time>2026-05-03T07:21:30.487Z</time></trkpt><trkpt lat="43.4982652" lon="11.1149293"><ele>86.0</ele><time>2026-05-03T07:21:32.423Z</time></trkpt><trkpt lat="43.4983615" lon="11.1148428"><ele>86.0</ele><time>2026-05-03T07:21:34.42Z</time></trkpt><trkpt lat="43.4984167" lon="11.1147936"><ele>86.0</ele><time>2026-05-03T07:21:35.396Z</time></trkpt><trkpt lat="43.4984699" lon="11.1147399"><ele>86.0</ele><time>2026-05-03T07:21:36.41Z</time></trkpt><trkpt lat="43.4985238" lon="11.1146872"><ele>86.0</ele><time>2026-05-03T07:21:37.415Z</time></trkpt><trkpt lat="43.4985735" lon="11.1146306"><ele>86.0</ele><time>2026-05-03T07:21:38.419Z</time></trkpt><trkpt lat="43.4986663" lon="11.114518"><ele>86.0</ele><time>2026-05-03T07:21:40.484Z</time></trkpt><trkpt lat="43.498754" lon="11.1143944"><ele>86.0</ele><time>2026-05-03T07:21:42.407Z</time></trkpt><trkpt lat="43.4988007" lon="11.1143316"><ele>86.0</ele><time>2026-05-03T07:21:43.407Z</time></trkpt><trkpt lat="43.4988481" lon="11.1142623"><ele>86.16666666666667</ele><time>2026-05-03T07:21:44.406Z</time></trkpt><trkpt lat="43.4988952" lon="11.1141952"><ele>86.33333333333334</ele><time>2026-05-03T07:21:45.391Z</time></trkpt><trkpt lat="43.4989407" lon="11.1141234"><ele>86.5</ele><time>2026-05-03T07:21:46.412Z</time></trkpt><trkpt lat="43.4989757" lon="11.1140494"><ele>86.66666666666667</ele><time>2026-05-03T07:21:47.411Z</time></trkpt><trkpt lat="43.49905" lon="11.1139042"><ele>86.83333333333333</ele><time>2026-05-03T07:21:49.415Z</time></trkpt><trkpt lat="43.4990899" lon="11.1138291"><ele>87.0</ele><time>2026-05-03T07:21:50.396Z</time></trkpt><trkpt lat="43.4991291" lon="11.1137598"><ele>87.0</ele><time>2026-05-03T07:21:51.425Z</time></trkpt><trkpt lat="43.4991743" lon="11.1136905"><ele>87.0</ele><time>2026-05-03T07:21:52.41Z</time></trkpt><trkpt lat="43.4992187" lon="11.113623"><ele>87.0</ele><time>2026-05-03T07:21:53.402Z</time></trkpt><trkpt lat="43.4992613" lon="11.1135523"><ele>87.0</ele><time>2026-05-03T07:21:54.424Z</time></trkpt><trkpt lat="43.499346" lon="11.1134261"><ele>87.0</ele><time>2026-05-03T07:21:56.415Z</time></trkpt><trkpt lat="43.4993922" lon="11.1133658"><ele>87.0</ele><time>2026-05-03T07:21:57.403Z</time></trkpt><trkpt lat="43.4994864" lon="11.1132656"><ele>87.0</ele><time>2026-05-03T07:21:59.41Z</time></trkpt><trkpt lat="43.499588" lon="11.1132397"><ele>87.0</ele><time>2026-05-03T07:22:01.395Z</time></trkpt><trkpt lat="43.4996831" lon="11.113175"><ele>87.0</ele><time>2026-05-03T07:22:03.401Z</time></trkpt><trkpt lat="43.4997501" lon="11.1130398"><ele>87.0</ele><time>2026-05-03T07:22:05.408Z</time></trkpt><trkpt lat="43.4997795" lon="11.1129619"><ele>87.0</ele><time>2026-05-03T07:22:06.407Z</time></trkpt><trkpt lat="43.4998521" lon="11.1128146"><ele>87.0</ele><time>2026-05-03T07:22:08.524Z</time></trkpt><trkpt lat="43.4999382" lon="11.1126916"><ele>87.0</ele><time>2026-05-03T07:22:10.409Z</time></trkpt><trkpt lat="43.4999852" lon="11.1126225"><ele>87.0</ele><time>2026-05-03T07:22:11.399Z</time></trkpt><trkpt lat="43.5000343" lon="11.1125623"><ele>87.0</ele><time>2026-05-03T07:22:12.439Z</time></trkpt><trkpt lat="43.500094" lon="11.1125303"><ele>87.0</ele><time>2026-05-03T07:22:13.42Z</time></trkpt><trkpt lat="43.5002011" lon="11.1124317"><ele>87.6</ele><time>2026-05-03T07:22:15.419Z</time></trkpt><trkpt lat="43.5002498" lon="11.1123761"><ele>88.19999999999999</ele><time>2026-05-03T07:22:16.468Z</time></trkpt><trkpt lat="43.500333" lon="11.112303"><ele>88.8</ele><time>2026-05-03T07:22:18.405Z</time></trkpt><trkpt lat="43.5004306" lon="11.1121726"><ele>89.4</ele><time>2026-05-03T07:22:20.497Z</time></trkpt><trkpt lat="43.5005198" lon="11.1120552"><ele>90.0</ele><time>2026-05-03T07:22:22.412Z</time></trkpt><trkpt lat="43.5006053" lon="11.1119447"><ele>90.0</ele><time>2026-05-03T07:22:24.415Z</time></trkpt><trkpt lat="43.5007114" lon="11.1118244"><ele>90.0</ele><time>2026-05-03T07:22:26.412Z</time></trkpt><trkpt lat="43.5007634" lon="11.1117495"><ele>90.0</ele><time>2026-05-03T07:22:27.406Z</time></trkpt><trkpt lat="43.5008203" lon="11.1116848"><ele>90.0</ele><time>2026-05-03T07:22:28.414Z</time></trkpt><trkpt lat="43.5008714" lon="11.1116238"><ele>90.0</ele><time>2026-05-03T07:22:29.418Z</time></trkpt><trkpt lat="43.5009263" lon="11.1115676"><ele>90.0</ele><time>2026-05-03T07:22:30.389Z</time></trkpt><trkpt lat="43.5009775" lon="11.1115108"><ele>89.5</ele><time>2026-05-03T07:22:31.404Z</time></trkpt><trkpt lat="43.5010701" lon="11.1113989"><ele>89.0</ele><time>2026-05-03T07:22:33.387Z</time></trkpt><trkpt lat="43.5011227" lon="11.1113413"><ele>88.5</ele><time>2026-05-03T07:22:34.389Z</time></trkpt><trkpt lat="43.5011753" lon="11.1112852"><ele>88.0</ele><time>2026-05-03T07:22:35.492Z</time></trkpt><trkpt lat="43.5012274" lon="11.1112252"><ele>87.5</ele><time>2026-05-03T07:22:36.407Z</time></trkpt><trkpt lat="43.5012852" lon="11.1111557"><ele>87.0</ele><time>2026-05-03T07:22:37.414Z</time></trkpt><trkpt lat="43.5013306" lon="11.111085"><ele>87.0</ele><time>2026-05-03T07:22:38.42Z</time></trkpt><trkpt lat="43.5013773" lon="11.1110255"><ele>87.0</ele><time>2026-05-03T07:22:39.417Z</time></trkpt><trkpt lat="43.5014245" lon="11.1109632"><ele>87.0</ele><time>2026-05-03T07:22:40.41Z</time></trkpt><trkpt lat="43.501511" lon="11.1108288"><ele>87.0</ele><time>2026-05-03T07:22:42.408Z</time></trkpt><trkpt lat="43.5015559" lon="11.1107548"><ele>87.0</ele><time>2026-05-03T07:22:43.413Z</time></trkpt><trkpt lat="43.5015991" lon="11.1106804"><ele>87.0</ele><time>2026-05-03T07:22:44.404Z</time></trkpt><trkpt lat="43.5016387" lon="11.1106062"><ele>86.57142857142857</ele><time>2026-05-03T07:22:45.418Z</time></trkpt><trkpt lat="43.5016765" lon="11.1105281"><ele>86.14285714285714</ele><time>2026-05-03T07:22:46.404Z</time></trkpt><trkpt lat="43.5017144" lon="11.1104514"><ele>85.71428571428572</ele><time>2026-05-03T07:22:47.419Z</time></trkpt><trkpt lat="43.5017568" lon="11.1103778"><ele>85.28571428571428</ele><time>2026-05-03T07:22:48.407Z</time></trkpt><trkpt lat="43.5018014" lon="11.1103021"><ele>84.85714285714286</ele><time>2026-05-03T07:22:49.415Z</time></trkpt><trkpt lat="43.5018427" lon="11.1102309"><ele>84.42857142857143</ele><time>2026-05-03T07:22:50.394Z</time></trkpt><trkpt lat="43.5018891" lon="11.1101673"><ele>84.0</ele><time>2026-05-03T07:22:51.394Z</time></trkpt><trkpt lat="43.5019317" lon="11.1100946"><ele>84.0</ele><time>2026-05-03T07:22:52.424Z</time></trkpt><trkpt lat="43.5019748" lon="11.1100204"><ele>84.0</ele><time>2026-05-03T07:22:53.417Z</time></trkpt><trkpt lat="43.5020157" lon="11.1099449"><ele>84.0</ele><time>2026-05-03T07:22:54.464Z</time></trkpt><trkpt lat="43.5020612" lon="11.1098622"><ele>84.0</ele><time>2026-05-03T07:22:55.408Z</time></trkpt><trkpt lat="43.5021052" lon="11.1097787"><ele>84.0</ele><time>2026-05-03T07:22:56.412Z</time></trkpt><trkpt lat="43.5021461" lon="11.1096946"><ele>84.0</ele><time>2026-05-03T07:22:57.425Z</time></trkpt><trkpt lat="43.5021951" lon="11.1096061"><ele>84.0</ele><time>2026-05-03T07:22:58.417Z</time></trkpt><trkpt lat="43.5022427" lon="11.1095251"><ele>83.71428571428571</ele><time>2026-05-03T07:22:59.406Z</time></trkpt><trkpt lat="43.5022825" lon="11.109447"><ele>83.42857142857143</ele><time>2026-05-03T07:23:00.415Z</time></trkpt><trkpt lat="43.5023305" lon="11.1093702"><ele>83.14285714285714</ele><time>2026-05-03T07:23:01.409Z</time></trkpt><trkpt lat="43.5023763" lon="11.1092897"><ele>82.85714285714286</ele><time>2026-05-03T07:23:02.408Z</time></trkpt><trkpt lat="43.5024232" lon="11.1092046"><ele>82.57142857142857</ele><time>2026-05-03T07:23:03.431Z</time></trkpt><trkpt lat="43.5024682" lon="11.1091296"><ele>82.28571428571428</ele><time>2026-05-03T07:23:04.41Z</time></trkpt><trkpt lat="43.5025142" lon="11.1090528"><ele>82.0</ele><time>2026-05-03T07:23:05.418Z</time></trkpt><trkpt lat="43.5025578" lon="11.1089727"><ele>81.99999999999999</ele><time>2026-05-03T07:23:06.41Z</time></trkpt><trkpt lat="43.5025985" lon="11.1088935"><ele>82.0</ele><time>2026-05-03T07:23:07.416Z</time></trkpt><trkpt lat="43.5026423" lon="11.1088159"><ele>82.0</ele><time>2026-05-03T07:23:08.413Z</time></trkpt><trkpt lat="43.5026893" lon="11.1087353"><ele>82.0</ele><time>2026-05-03T07:23:09.486Z</time></trkpt><trkpt lat="43.5027347" lon="11.1086545"><ele>82.0</ele><time>2026-05-03T07:23:10.402Z</time></trkpt><trkpt lat="43.5027832" lon="11.1085757"><ele>81.99999999999999</ele><time>2026-05-03T07:23:11.413Z</time></trkpt><trkpt lat="43.5028327" lon="11.1085007"><ele>82.0</ele><time>2026-05-03T07:23:12.404Z</time></trkpt><trkpt lat="43.5028766" lon="11.108428"><ele>82.28571428571428</ele><time>2026-05-03T07:23:13.403Z</time></trkpt><trkpt lat="43.502921" lon="11.1083498"><ele>82.57142857142857</ele><time>2026-05-03T07:23:14.408Z</time></trkpt><trkpt lat="43.5029648" lon="11.1082715"><ele>82.85714285714286</ele><time>2026-05-03T07:23:15.399Z</time></trkpt><trkpt lat="43.5030092" lon="11.1081981"><ele>83.14285714285714</ele><time>2026-05-03T07:23:16.397Z</time></trkpt><trkpt lat="43.5030515" lon="11.1081209"><ele>83.42857142857143</ele><time>2026-05-03T07:23:17.423Z</time></trkpt><trkpt lat="43.5030969" lon="11.1080453"><ele>83.71428571428571</ele><time>2026-05-03T07:23:18.409Z</time></trkpt><trkpt lat="43.5031429" lon="11.1079722"><ele>84.0</ele><time>2026-05-03T07:23:19.392Z</time></trkpt><trkpt lat="43.5031861" lon="11.1078984"><ele>84.0</ele><time>2026-05-03T07:23:20.472Z</time></trkpt><trkpt lat="43.5032325" lon="11.1078271"><ele>84.0</ele><time>2026-05-03T07:23:21.41Z</time></trkpt><trkpt lat="43.5032749" lon="11.1077511"><ele>84.0</ele><time>2026-05-03T07:23:22.411Z</time></trkpt><trkpt lat="43.5033119" lon="11.107678"><ele>84.0</ele><time>2026-05-03T07:23:23.401Z</time></trkpt><trkpt lat="43.5033518" lon="11.1076086"><ele>84.0</ele><time>2026-05-03T07:23:24.472Z</time></trkpt><trkpt lat="43.5033969" lon="11.1075393"><ele>84.0</ele><time>2026-05-03T07:23:25.478Z</time></trkpt><trkpt lat="43.503476" lon="11.1074151"><ele>84.0</ele><time>2026-05-03T07:23:27.418Z</time></trkpt><trkpt lat="43.5035474" lon="11.1072858"><ele>84.0</ele><time>2026-05-03T07:23:29.404Z</time></trkpt><trkpt lat="43.503622" lon="11.1071737"><ele>84.0</ele><time>2026-05-03T07:23:31.473Z</time></trkpt><trkpt lat="43.5036687" lon="11.1071135"><ele>84.0</ele><time>2026-05-03T07:23:32.4Z</time></trkpt><trkpt lat="43.5037242" lon="11.1069759"><ele>84.0</ele><time>2026-05-03T07:23:34.397Z</time></trkpt><trkpt lat="43.5037815" lon="11.1068461"><ele>85.4</ele><time>2026-05-03T07:23:36.403Z</time></trkpt><trkpt lat="43.5038349" lon="11.1067054"><ele>86.80000000000001</ele><time>2026-05-03T07:23:38.403Z</time></trkpt><trkpt lat="43.503874" lon="11.106568"><ele>88.19999999999999</ele><time>2026-05-03T07:23:40.414Z</time></trkpt><trkpt lat="43.5039089" lon="11.1064358"><ele>89.6</ele><time>2026-05-03T07:23:42.414Z</time></trkpt><trkpt lat="43.5039349" lon="11.1063029"><ele>91.0</ele><time>2026-05-03T07:23:44.41Z</time></trkpt><trkpt lat="43.5039537" lon="11.1061757"><ele>91.19999999999999</ele><time>2026-05-03T07:23:46.412Z</time></trkpt><trkpt lat="43.5039728" lon="11.1060456"><ele>91.39999999999999</ele><time>2026-05-03T07:23:48.417Z</time></trkpt><trkpt lat="43.5039751" lon="11.1059017"><ele>91.6</ele><time>2026-05-03T07:23:50.39Z</time></trkpt><trkpt lat="43.503982" lon="11.1057773"><ele>91.8</ele><time>2026-05-03T07:23:52.42Z</time></trkpt><trkpt lat="43.503987" lon="11.1056449"><ele>92.0</ele><time>2026-05-03T07:23:54.472Z</time></trkpt><trkpt lat="43.5039876" lon="11.105507"><ele>92.0</ele><time>2026-05-03T07:23:56.419Z</time></trkpt><trkpt lat="43.5039886" lon="11.1053743"><ele>92.0</ele><time>2026-05-03T07:23:58.418Z</time></trkpt><trkpt lat="43.5039879" lon="11.105229"><ele>92.0</ele><time>2026-05-03T07:24:00.489Z</time></trkpt><trkpt lat="43.503989" lon="11.1050966"><ele>92.0</ele><time>2026-05-03T07:24:02.402Z</time></trkpt><trkpt lat="43.5039891" lon="11.104963"><ele>92.0</ele><time>2026-05-03T07:24:04.398Z</time></trkpt><trkpt lat="43.5039802" lon="11.104835"><ele>91.39999999999999</ele><time>2026-05-03T07:24:06.468Z</time></trkpt><trkpt lat="43.5040112" lon="11.1047058"><ele>90.8</ele><time>2026-05-03T07:24:08.398Z</time></trkpt><trkpt lat="43.5040266" lon="11.1045757"><ele>90.2</ele><time>2026-05-03T07:24:10.414Z</time></trkpt><trkpt lat="43.5040246" lon="11.1044293"><ele>89.6</ele><time>2026-05-03T07:24:12.388Z</time></trkpt><trkpt lat="43.504022" lon="11.104279"><ele>89.0</ele><time>2026-05-03T07:24:14.417Z</time></trkpt><trkpt lat="43.5040273" lon="11.1041296"><ele>88.6</ele><time>2026-05-03T07:24:16.413Z</time></trkpt><trkpt lat="43.5040348" lon="11.1039914"><ele>88.2</ele><time>2026-05-03T07:24:18.397Z</time></trkpt><trkpt lat="43.5040473" lon="11.1038461"><ele>87.8</ele><time>2026-05-03T07:24:20.411Z</time></trkpt><trkpt lat="43.5040648" lon="11.1037028"><ele>87.39999999999999</ele><time>2026-05-03T07:24:22.404Z</time></trkpt><trkpt lat="43.5040974" lon="11.1035559"><ele>87.0</ele><time>2026-05-03T07:24:24.405Z</time></trkpt><trkpt lat="43.50414" lon="11.1034195"><ele>87.0</ele><time>2026-05-03T07:24:26.417Z</time></trkpt><trkpt lat="43.5041819" lon="11.1032807"><ele>87.0</ele><time>2026-05-03T07:24:28.412Z</time></trkpt><trkpt lat="43.5042175" lon="11.103141"><ele>87.0</ele><time>2026-05-03T07:24:30.464Z</time></trkpt><trkpt lat="43.5042509" lon="11.1029974"><ele>87.0</ele><time>2026-05-03T07:24:32.409Z</time></trkpt><trkpt lat="43.5042766" lon="11.1028362"><ele>87.0</ele><time>2026-05-03T07:24:34.415Z</time></trkpt><trkpt lat="43.5042747" lon="11.1027456"><ele>86.25</ele><time>2026-05-03T07:24:35.479Z</time></trkpt><trkpt lat="43.5043048" lon="11.1026094"><ele>85.5</ele><time>2026-05-03T07:24:37.395Z</time></trkpt><trkpt lat="43.5043794" lon="11.1024794"><ele>84.75</ele><time>2026-05-03T07:24:39.407Z</time></trkpt><trkpt lat="43.504439" lon="11.1023404"><ele>84.0</ele><time>2026-05-03T07:24:41.483Z</time></trkpt><trkpt lat="43.5044864" lon="11.1021724"><ele>83.83333333333333</ele><time>2026-05-03T07:24:43.415Z</time></trkpt><trkpt lat="43.5045149" lon="11.102095"><ele>83.66666666666667</ele><time>2026-05-03T07:24:44.409Z</time></trkpt><trkpt lat="43.5045722" lon="11.1019691"><ele>83.5</ele><time>2026-05-03T07:24:46.416Z</time></trkpt><trkpt lat="43.5046235" lon="11.1018142"><ele>83.33333333333334</ele><time>2026-05-03T07:24:48.408Z</time></trkpt><trkpt lat="43.5046553" lon="11.1017327"><ele>83.16666666666667</ele><time>2026-05-03T07:24:49.408Z</time></trkpt><trkpt lat="43.5046892" lon="11.1016547"><ele>83.0</ele><time>2026-05-03T07:24:50.405Z</time></trkpt><trkpt lat="43.5047255" lon="11.1015745"><ele>83.0</ele><time>2026-05-03T07:24:51.411Z</time></trkpt><trkpt lat="43.5047619" lon="11.1014979"><ele>83.0</ele><time>2026-05-03T07:24:52.406Z</time></trkpt><trkpt lat="43.5047973" lon="11.1014224"><ele>83.0</ele><time>2026-05-03T07:24:53.413Z</time></trkpt><trkpt lat="43.5048318" lon="11.101341"><ele>83.0</ele><time>2026-05-03T07:24:54.41Z</time></trkpt><trkpt lat="43.5048676" lon="11.1012581"><ele>83.0</ele><time>2026-05-03T07:24:55.412Z</time></trkpt><trkpt lat="43.5049049" lon="11.1011774"><ele>83.0</ele><time>2026-05-03T07:24:56.4Z</time></trkpt><trkpt lat="43.5049455" lon="11.1010972"><ele>83.0</ele><time>2026-05-03T07:24:57.401Z</time></trkpt><trkpt lat="43.5049878" lon="11.10102"><ele>83.0</ele><time>2026-05-03T07:24:58.41Z</time></trkpt><trkpt lat="43.5050281" lon="11.1009416"><ele>83.0</ele><time>2026-05-03T07:24:59.48Z</time></trkpt><trkpt lat="43.5050742" lon="11.100861"><ele>83.0</ele><time>2026-05-03T07:25:00.402Z</time></trkpt><trkpt lat="43.5051204" lon="11.1007717"><ele>83.0</ele><time>2026-05-03T07:25:01.414Z</time></trkpt><trkpt lat="43.5051609" lon="11.1006851"><ele>83.0</ele><time>2026-05-03T07:25:02.404Z</time></trkpt><trkpt lat="43.5052032" lon="11.1005979"><ele>83.0</ele><time>2026-05-03T07:25:03.409Z</time></trkpt><trkpt lat="43.5052506" lon="11.1005176"><ele>82.33333333333334</ele><time>2026-05-03T07:25:04.461Z</time></trkpt><trkpt lat="43.5053015" lon="11.1004378"><ele>81.66666666666667</ele><time>2026-05-03T07:25:05.477Z</time></trkpt><trkpt lat="43.5053512" lon="11.10036"><ele>81.0</ele><time>2026-05-03T07:25:06.405Z</time></trkpt><trkpt lat="43.505401" lon="11.1002806"><ele>80.33333333333333</ele><time>2026-05-03T07:25:07.4Z</time></trkpt><trkpt lat="43.5054515" lon="11.1002012"><ele>79.66666666666666</ele><time>2026-05-03T07:25:08.401Z</time></trkpt><trkpt lat="43.5055046" lon="11.1001251"><ele>79.0</ele><time>2026-05-03T07:25:09.397Z</time></trkpt><trkpt lat="43.5055579" lon="11.1000523"><ele>79.28571428571429</ele><time>2026-05-03T07:25:10.408Z</time></trkpt><trkpt lat="43.5056116" lon="11.0999823"><ele>79.57142857142857</ele><time>2026-05-03T07:25:11.395Z</time></trkpt><trkpt lat="43.5056647" lon="11.0999094"><ele>79.85714285714286</ele><time>2026-05-03T07:25:12.408Z</time></trkpt><trkpt lat="43.5057146" lon="11.0998354"><ele>80.14285714285714</ele><time>2026-05-03T07:25:13.408Z</time></trkpt><trkpt lat="43.5057649" lon="11.0997607"><ele>80.42857142857143</ele><time>2026-05-03T07:25:14.399Z</time></trkpt><trkpt lat="43.5058162" lon="11.0996924"><ele>80.71428571428572</ele><time>2026-05-03T07:25:15.419Z</time></trkpt><trkpt lat="43.5058721" lon="11.0996305"><ele>81.0</ele><time>2026-05-03T07:25:16.471Z</time></trkpt><trkpt lat="43.5059247" lon="11.0995597"><ele>81.0</ele><time>2026-05-03T07:25:17.414Z</time></trkpt><trkpt lat="43.5059697" lon="11.0994714"><ele>81.0</ele><time>2026-05-03T07:25:18.41Z</time></trkpt><trkpt lat="43.5060095" lon="11.0993793"><ele>81.0</ele><time>2026-05-03T07:25:19.482Z</time></trkpt><trkpt lat="43.5060462" lon="11.0992877"><ele>81.0</ele><time>2026-05-03T07:25:20.48Z</time></trkpt><trkpt lat="43.5060807" lon="11.0991929"><ele>81.0</ele><time>2026-05-03T07:25:21.416Z</time></trkpt><trkpt lat="43.5061136" lon="11.0990998"><ele>81.0</ele><time>2026-05-03T07:25:22.403Z</time></trkpt><trkpt lat="43.5061485" lon="11.0990085"><ele>80.66666666666667</ele><time>2026-05-03T07:25:23.408Z</time></trkpt><trkpt lat="43.5061821" lon="11.098919"><ele>80.33333333333333</ele><time>2026-05-03T07:25:24.47Z</time></trkpt><trkpt lat="43.5062286" lon="11.0988332"><ele>80.0</ele><time>2026-05-03T07:25:25.386Z</time></trkpt><trkpt lat="43.5062811" lon="11.0987493"><ele>79.66666666666666</ele><time>2026-05-03T07:25:26.408Z</time></trkpt><trkpt lat="43.5063146" lon="11.0986628"><ele>79.33333333333333</ele><time>2026-05-03T07:25:27.396Z</time></trkpt><trkpt lat="43.5063609" lon="11.0985122"><ele>79.0</ele><time>2026-05-03T07:25:29.414Z</time></trkpt><trkpt lat="43.5064213" lon="11.0983618"><ele>79.57142857142858</ele><time>2026-05-03T07:25:31.404Z</time></trkpt><trkpt lat="43.5064572" lon="11.0982893"><ele>80.14285714285714</ele><time>2026-05-03T07:25:32.411Z</time></trkpt><trkpt lat="43.5064943" lon="11.0982185"><ele>80.71428571428572</ele><time>2026-05-03T07:25:33.418Z</time></trkpt><trkpt lat="43.5065642" lon="11.0980817"><ele>81.28571428571429</ele><time>2026-05-03T07:25:35.4Z</time></trkpt><trkpt lat="43.5066084" lon="11.098011"><ele>81.85714285714286</ele><time>2026-05-03T07:25:36.41Z</time></trkpt><trkpt lat="43.5066517" lon="11.0979418"><ele>82.42857142857143</ele><time>2026-05-03T07:25:37.418Z</time></trkpt><trkpt lat="43.5066943" lon="11.0978754"><ele>83.0</ele><time>2026-05-03T07:25:38.405Z</time></trkpt><trkpt lat="43.5067389" lon="11.0978085"><ele>83.0</ele><time>2026-05-03T07:25:39.472Z</time></trkpt><trkpt lat="43.5067812" lon="11.0977414"><ele>83.0</ele><time>2026-05-03T07:25:40.479Z</time></trkpt><trkpt lat="43.506834" lon="11.0976811"><ele>83.0</ele><time>2026-05-03T07:25:41.471Z</time></trkpt><trkpt lat="43.5068929" lon="11.097623"><ele>83.0</ele><time>2026-05-03T07:25:42.406Z</time></trkpt><trkpt lat="43.5069427" lon="11.0975522"><ele>83.0</ele><time>2026-05-03T07:25:43.406Z</time></trkpt><trkpt lat="43.5069795" lon="11.0974793"><ele>83.0</ele><time>2026-05-03T07:25:44.41Z</time></trkpt><trkpt lat="43.5070209" lon="11.0974078"><ele>83.0</ele><time>2026-05-03T07:25:45.49Z</time></trkpt><trkpt lat="43.5070684" lon="11.0973414"><ele>82.80000000000001</ele><time>2026-05-03T07:25:46.478Z</time></trkpt><trkpt lat="43.5071618" lon="11.0971085"><ele>82.6</ele><time>2026-05-03T07:25:49.383Z</time></trkpt><trkpt lat="43.5071931" lon="11.0970327"><ele>82.4</ele><time>2026-05-03T07:25:50.466Z</time></trkpt><trkpt lat="43.5072756" lon="11.0969186"><ele>82.19999999999999</ele><time>2026-05-03T07:25:52.417Z</time></trkpt><trkpt lat="43.507324" lon="11.0968521"><ele>82.0</ele><time>2026-05-03T07:25:53.404Z</time></trkpt><trkpt lat="43.5074041" lon="11.0967341"><ele>82.0</ele><time>2026-05-03T07:25:55.401Z</time></trkpt><trkpt lat="43.5074844" lon="11.0965972"><ele>82.0</ele><time>2026-05-03T07:25:57.401Z</time></trkpt><trkpt lat="43.5075223" lon="11.0965164"><ele>82.0</ele><time>2026-05-03T07:25:58.409Z</time></trkpt><trkpt lat="43.5075657" lon="11.0964341"><ele>82.0</ele><time>2026-05-03T07:25:59.467Z</time></trkpt><trkpt lat="43.507608" lon="11.0963629"><ele>82.0</ele><time>2026-05-03T07:26:00.405Z</time></trkpt><trkpt lat="43.5076513" lon="11.0962921"><ele>82.0</ele><time>2026-05-03T07:26:01.414Z</time></trkpt><trkpt lat="43.507697" lon="11.096228"><ele>81.99999999999999</ele><time>2026-05-03T07:26:02.401Z</time></trkpt><trkpt lat="43.5077472" lon="11.096163"><ele>82.0</ele><time>2026-05-03T07:26:03.4Z</time></trkpt><trkpt lat="43.5077937" lon="11.0961006"><ele>82.0</ele><time>2026-05-03T07:26:04.401Z</time></trkpt><trkpt lat="43.5078388" lon="11.096034"><ele>82.0</ele><time>2026-05-03T07:26:05.402Z</time></trkpt><trkpt lat="43.507883" lon="11.095963"><ele>82.0</ele><time>2026-05-03T07:26:06.41Z</time></trkpt><trkpt lat="43.5079279" lon="11.0958898"><ele>81.99999999999999</ele><time>2026-05-03T07:26:07.409Z</time></trkpt><trkpt lat="43.5079682" lon="11.0958193"><ele>82.0</ele><time>2026-05-03T07:26:08.399Z</time></trkpt><trkpt lat="43.5080101" lon="11.0957475"><ele>81.99999999999999</ele><time>2026-05-03T07:26:09.403Z</time></trkpt><trkpt lat="43.5080564" lon="11.0956721"><ele>82.0</ele><time>2026-05-03T07:26:10.419Z</time></trkpt><trkpt lat="43.5081021" lon="11.0956015"><ele>82.0</ele><time>2026-05-03T07:26:11.412Z</time></trkpt><trkpt lat="43.508146" lon="11.0955345"><ele>82.0</ele><time>2026-05-03T07:26:12.408Z</time></trkpt><trkpt lat="43.5081895" lon="11.0954633"><ele>82.0</ele><time>2026-05-03T07:26:13.41Z</time></trkpt><trkpt lat="43.5082335" lon="11.0953918"><ele>81.99999999999999</ele><time>2026-05-03T07:26:14.419Z</time></trkpt><trkpt lat="43.5082774" lon="11.0953235"><ele>82.0</ele><time>2026-05-03T07:26:15.392Z</time></trkpt><trkpt lat="43.5083209" lon="11.0952543"><ele>82.0</ele><time>2026-05-03T07:26:16.492Z</time></trkpt><trkpt lat="43.5084062" lon="11.0951193"><ele>82.0</ele><time>2026-05-03T07:26:18.409Z</time></trkpt><trkpt lat="43.5084482" lon="11.095051"><ele>82.0</ele><time>2026-05-03T07:26:19.409Z</time></trkpt><trkpt lat="43.5084917" lon="11.0949769"><ele>82.0</ele><time>2026-05-03T07:26:20.471Z</time></trkpt><trkpt lat="43.5085312" lon="11.0949071"><ele>82.0</ele><time>2026-05-03T07:26:21.4Z</time></trkpt><trkpt lat="43.5085732" lon="11.0948377"><ele>82.0</ele><time>2026-05-03T07:26:22.406Z</time></trkpt><trkpt lat="43.5086148" lon="11.0947689"><ele>82.14285714285714</ele><time>2026-05-03T07:26:23.404Z</time></trkpt><trkpt lat="43.5086569" lon="11.0947019"><ele>82.28571428571428</ele><time>2026-05-03T07:26:24.408Z</time></trkpt><trkpt lat="43.5086988" lon="11.0946309"><ele>82.42857142857142</ele><time>2026-05-03T07:26:25.416Z</time></trkpt><trkpt lat="43.5087411" lon="11.0945567"><ele>82.57142857142857</ele><time>2026-05-03T07:26:26.412Z</time></trkpt><trkpt lat="43.5087818" lon="11.0944829"><ele>82.71428571428572</ele><time>2026-05-03T07:26:27.416Z</time></trkpt><trkpt lat="43.5088262" lon="11.0944114"><ele>82.85714285714285</ele><time>2026-05-03T07:26:28.422Z</time></trkpt><trkpt lat="43.5088692" lon="11.0943458"><ele>83.0</ele><time>2026-05-03T07:26:29.387Z</time></trkpt><trkpt lat="43.5089145" lon="11.0942781"><ele>83.0</ele><time>2026-05-03T07:26:30.475Z</time></trkpt><trkpt lat="43.5089585" lon="11.094216"><ele>83.0</ele><time>2026-05-03T07:26:31.475Z</time></trkpt><trkpt lat="43.5090421" lon="11.0940888"><ele>83.0</ele><time>2026-05-03T07:26:33.407Z</time></trkpt><trkpt lat="43.5091257" lon="11.0939604"><ele>83.0</ele><time>2026-05-03T07:26:35.402Z</time></trkpt><trkpt lat="43.5091692" lon="11.0938945"><ele>83.0</ele><time>2026-05-03T07:26:36.41Z</time></trkpt><trkpt lat="43.5092135" lon="11.0938264"><ele>83.0</ele><time>2026-05-03T07:26:37.408Z</time></trkpt><trkpt lat="43.5092586" lon="11.0937558"><ele>82.42857142857143</ele><time>2026-05-03T07:26:38.408Z</time></trkpt><trkpt lat="43.5093043" lon="11.093685"><ele>81.85714285714286</ele><time>2026-05-03T07:26:39.388Z</time></trkpt><trkpt lat="43.509348" lon="11.0936169"><ele>81.28571428571429</ele><time>2026-05-03T07:26:40.386Z</time></trkpt><trkpt lat="43.5093893" lon="11.0935487"><ele>80.71428571428572</ele><time>2026-05-03T07:26:41.388Z</time></trkpt><trkpt lat="43.5094309" lon="11.093479"><ele>80.14285714285714</ele><time>2026-05-03T07:26:42.405Z</time></trkpt><trkpt lat="43.5094737" lon="11.0934112"><ele>79.57142857142858</ele><time>2026-05-03T07:26:43.4Z</time></trkpt><trkpt lat="43.5095151" lon="11.0933428"><ele>79.0</ele><time>2026-05-03T07:26:44.41Z</time></trkpt><trkpt lat="43.5095569" lon="11.0932752"><ele>79.57142857142858</ele><time>2026-05-03T07:26:45.406Z</time></trkpt><trkpt lat="43.5096" lon="11.0932066"><ele>80.14285714285714</ele><time>2026-05-03T07:26:46.41Z</time></trkpt><trkpt lat="43.5096438" lon="11.0931396"><ele>80.71428571428572</ele><time>2026-05-03T07:26:47.383Z</time></trkpt><trkpt lat="43.5096904" lon="11.0930679"><ele>81.28571428571429</ele><time>2026-05-03T07:26:48.396Z</time></trkpt><trkpt lat="43.5097332" lon="11.0929944"><ele>81.85714285714286</ele><time>2026-05-03T07:26:49.48Z</time></trkpt><trkpt lat="43.5097838" lon="11.0929381"><ele>82.42857142857143</ele><time>2026-05-03T07:26:50.382Z</time></trkpt><trkpt lat="43.5098423" lon="11.0928861"><ele>83.0</ele><time>2026-05-03T07:26:51.412Z</time></trkpt><trkpt lat="43.5098938" lon="11.0928049"><ele>83.0</ele><time>2026-05-03T07:26:52.402Z</time></trkpt><trkpt lat="43.5099311" lon="11.0927202"><ele>83.0</ele><time>2026-05-03T07:26:53.407Z</time></trkpt><trkpt lat="43.510001" lon="11.0925824"><ele>83.0</ele><time>2026-05-03T07:26:55.479Z</time></trkpt><trkpt lat="43.5100777" lon="11.0924565"><ele>83.0</ele><time>2026-05-03T07:26:57.406Z</time></trkpt><trkpt lat="43.5101399" lon="11.0923204"><ele>83.0</ele><time>2026-05-03T07:26:59.406Z</time></trkpt><trkpt lat="43.5102193" lon="11.0921811"><ele>82.2</ele><time>2026-05-03T07:27:01.402Z</time></trkpt><trkpt lat="43.5102774" lon="11.092052"><ele>81.4</ele><time>2026-05-03T07:27:03.4Z</time></trkpt><trkpt lat="43.5103457" lon="11.0919407"><ele>80.60000000000001</ele><time>2026-05-03T07:27:05.398Z</time></trkpt><trkpt lat="43.510398" lon="11.0918483"><ele>79.80000000000001</ele><time>2026-05-03T07:27:07.404Z</time></trkpt><trkpt lat="43.5104534" lon="11.0917595"><ele>79.0</ele><time>2026-05-03T07:27:09.405Z</time></trkpt><trkpt lat="43.5105033" lon="11.091661"><ele>79.66666666666666</ele><time>2026-05-03T07:27:11.404Z</time></trkpt><trkpt lat="43.5105558" lon="11.0915665"><ele>80.33333333333333</ele><time>2026-05-03T07:27:13.414Z</time></trkpt><trkpt lat="43.5106061" lon="11.0914696"><ele>81.0</ele><time>2026-05-03T07:27:15.41Z</time></trkpt><trkpt lat="43.5106496" lon="11.091384"><ele>81.66666666666667</ele><time>2026-05-03T07:27:17.401Z</time></trkpt><trkpt lat="43.5106933" lon="11.0912952"><ele>82.33333333333334</ele><time>2026-05-03T07:27:19.409Z</time></trkpt><trkpt lat="43.5107394" lon="11.0911999"><ele>83.0</ele><time>2026-05-03T07:27:21.399Z</time></trkpt><trkpt lat="43.5107915" lon="11.0911056"><ele>83.0</ele><time>2026-05-03T07:27:23.406Z</time></trkpt><trkpt lat="43.5108461" lon="11.091008"><ele>83.0</ele><time>2026-05-03T07:27:25.392Z</time></trkpt><trkpt lat="43.5108977" lon="11.0909106"><ele>83.0</ele><time>2026-05-03T07:27:27.404Z</time></trkpt><trkpt lat="43.5109497" lon="11.0908195"><ele>83.0</ele><time>2026-05-03T07:27:29.412Z</time></trkpt><trkpt lat="43.5109942" lon="11.0907527"><ele>83.0</ele><time>2026-05-03T07:27:31.471Z</time></trkpt><trkpt lat="43.5110585" lon="11.0906669"><ele>83.0</ele><time>2026-05-03T07:27:33.403Z</time></trkpt><trkpt lat="43.5111347" lon="11.0905279"><ele>83.5</ele><time>2026-05-03T07:27:35.413Z</time></trkpt><trkpt lat="43.5111805" lon="11.0904587"><ele>84.0</ele><time>2026-05-03T07:27:36.42Z</time></trkpt><trkpt lat="43.5112305" lon="11.0903874"><ele>84.5</ele><time>2026-05-03T07:27:37.411Z</time></trkpt><trkpt lat="43.5112778" lon="11.0903105"><ele>85.0</ele><time>2026-05-03T07:27:38.405Z</time></trkpt><trkpt lat="43.5113307" lon="11.0902388"><ele>85.5</ele><time>2026-05-03T07:27:39.479Z</time></trkpt><trkpt lat="43.5114351" lon="11.0901548"><ele>86.0</ele><time>2026-05-03T07:27:41.396Z</time></trkpt><trkpt lat="43.511492" lon="11.0900723"><ele>86.0</ele><time>2026-05-03T07:27:42.407Z</time></trkpt><trkpt lat="43.5115391" lon="11.0899796"><ele>86.0</ele><time>2026-05-03T07:27:43.412Z</time></trkpt><trkpt lat="43.511583" lon="11.0898922"><ele>86.0</ele><time>2026-05-03T07:27:44.402Z</time></trkpt><trkpt lat="43.5116383" lon="11.0898089"><ele>86.0</ele><time>2026-05-03T07:27:45.477Z</time></trkpt><trkpt lat="43.5116867" lon="11.0897322"><ele>86.0</ele><time>2026-05-03T07:27:46.415Z</time></trkpt><trkpt lat="43.5117314" lon="11.0896513"><ele>86.0</ele><time>2026-05-03T07:27:47.399Z</time></trkpt><trkpt lat="43.5117841" lon="11.0895762"><ele>86.16666666666667</ele><time>2026-05-03T07:27:48.405Z</time></trkpt><trkpt lat="43.5118412" lon="11.0894802"><ele>86.33333333333334</ele><time>2026-05-03T07:27:49.415Z</time></trkpt><trkpt lat="43.5118982" lon="11.0893836"><ele>86.5</ele><time>2026-05-03T07:27:50.404Z</time></trkpt><trkpt lat="43.5119537" lon="11.089298"><ele>86.66666666666667</ele><time>2026-05-03T07:27:51.399Z</time></trkpt><trkpt lat="43.5120115" lon="11.089228"><ele>86.83333333333333</ele><time>2026-05-03T07:27:52.412Z</time></trkpt><trkpt lat="43.5120801" lon="11.0891599"><ele>87.0</ele><time>2026-05-03T07:27:53.402Z</time></trkpt><trkpt lat="43.5121496" lon="11.0890979"><ele>85.33333333333333</ele><time>2026-05-03T07:27:54.398Z</time></trkpt><trkpt lat="43.5122183" lon="11.0890406"><ele>83.66666666666667</ele><time>2026-05-03T07:27:55.397Z</time></trkpt><trkpt lat="43.5122939" lon="11.0889846"><ele>82.0</ele><time>2026-05-03T07:27:56.396Z</time></trkpt><trkpt lat="43.5123699" lon="11.0889324"><ele>80.33333333333334</ele><time>2026-05-03T07:27:57.4Z</time></trkpt><trkpt lat="43.5124447" lon="11.088885"><ele>78.66666666666667</ele><time>2026-05-03T07:27:58.416Z</time></trkpt><trkpt lat="43.5125193" lon="11.0888379"><ele>77.0</ele><time>2026-05-03T07:27:59.392Z</time></trkpt><trkpt lat="43.5125914" lon="11.0887885"><ele>77.0</ele><time>2026-05-03T07:28:00.41Z</time></trkpt><trkpt lat="43.5126603" lon="11.0887322"><ele>77.0</ele><time>2026-05-03T07:28:01.395Z</time></trkpt><trkpt lat="43.5127275" lon="11.0886766"><ele>77.0</ele><time>2026-05-03T07:28:02.409Z</time></trkpt><trkpt lat="43.5127915" lon="11.0886168"><ele>77.0</ele><time>2026-05-03T07:28:03.404Z</time></trkpt><trkpt lat="43.5128539" lon="11.0885556"><ele>77.0</ele><time>2026-05-03T07:28:04.395Z</time></trkpt><trkpt lat="43.5129164" lon="11.0884952"><ele>77.0</ele><time>2026-05-03T07:28:05.39Z</time></trkpt><trkpt lat="43.5129739" lon="11.0884366"><ele>77.33333333333334</ele><time>2026-05-03T07:28:06.396Z</time></trkpt><trkpt lat="43.5130289" lon="11.088379"><ele>77.66666666666667</ele><time>2026-05-03T07:28:07.404Z</time></trkpt><trkpt lat="43.5130788" lon="11.0883211"><ele>78.0</ele><time>2026-05-03T07:28:08.409Z</time></trkpt><trkpt lat="43.5131381" lon="11.0882551"><ele>78.33333333333333</ele><time>2026-05-03T07:28:10.402Z</time></trkpt><trkpt lat="43.5132453" lon="11.0882015"><ele>78.66666666666666</ele><time>2026-05-03T07:28:13.416Z</time></trkpt><trkpt lat="43.5133128" lon="11.0881541"><ele>79.0</ele><time>2026-05-03T07:28:14.41Z</time></trkpt><trkpt lat="43.5133792" lon="11.0881018"><ele>79.0</ele><time>2026-05-03T07:28:15.405Z</time></trkpt><trkpt lat="43.51344" lon="11.0880354"><ele>79.0</ele><time>2026-05-03T07:28:16.485Z</time></trkpt><trkpt lat="43.5134996" lon="11.0879656"><ele>79.0</ele><time>2026-05-03T07:28:17.414Z</time></trkpt><trkpt lat="43.5135598" lon="11.0878914"><ele>79.0</ele><time>2026-05-03T07:28:18.414Z</time></trkpt><trkpt lat="43.5136107" lon="11.0878185"><ele>79.0</ele><time>2026-05-03T07:28:19.415Z</time></trkpt><trkpt lat="43.5136572" lon="11.0877466"><ele>79.0</ele><time>2026-05-03T07:28:20.465Z</time></trkpt><trkpt lat="43.5137356" lon="11.0876206"><ele>79.16666666666666</ele><time>2026-05-03T07:28:22.421Z</time></trkpt><trkpt lat="43.5137738" lon="11.0875391"><ele>79.33333333333333</ele><time>2026-05-03T07:28:23.406Z</time></trkpt><trkpt lat="43.5138476" lon="11.0874102"><ele>79.5</ele><time>2026-05-03T07:28:25.404Z</time></trkpt><trkpt lat="43.5138963" lon="11.0873448"><ele>79.66666666666667</ele><time>2026-05-03T07:28:26.401Z</time></trkpt><trkpt lat="43.5139415" lon="11.087283"><ele>79.83333333333334</ele><time>2026-05-03T07:28:27.408Z</time></trkpt><trkpt lat="43.5140281" lon="11.0871615"><ele>80.0</ele><time>2026-05-03T07:28:29.403Z</time></trkpt><trkpt lat="43.5141096" lon="11.087047"><ele>80.0</ele><time>2026-05-03T07:28:31.402Z</time></trkpt><trkpt lat="43.5141898" lon="11.08693"><ele>80.0</ele><time>2026-05-03T07:28:33.422Z</time></trkpt><trkpt lat="43.5142632" lon="11.0868216"><ele>80.0</ele><time>2026-05-03T07:28:35.403Z</time></trkpt><trkpt lat="43.5143379" lon="11.0867133"><ele>80.0</ele><time>2026-05-03T07:28:37.4Z</time></trkpt><trkpt lat="43.5144134" lon="11.0866034"><ele>80.0</ele><time>2026-05-03T07:28:39.401Z</time></trkpt><trkpt lat="43.5144866" lon="11.0865027"><ele>80.25</ele><time>2026-05-03T07:28:41.477Z</time></trkpt><trkpt lat="43.5146446" lon="11.0862563"><ele>80.5</ele><time>2026-05-03T07:28:45.383Z</time></trkpt><trkpt lat="43.5147234" lon="11.0862103"><ele>80.75</ele><time>2026-05-03T07:28:47.41Z</time></trkpt><trkpt lat="43.5147963" lon="11.0860998"><ele>81.0</ele><time>2026-05-03T07:28:49.399Z</time></trkpt><trkpt lat="43.5148918" lon="11.0860163"><ele>81.0</ele><time>2026-05-03T07:28:51.461Z</time></trkpt><trkpt lat="43.5149881" lon="11.0859167"><ele>81.0</ele><time>2026-05-03T07:28:53.409Z</time></trkpt><trkpt lat="43.5150829" lon="11.0858351"><ele>81.0</ele><time>2026-05-03T07:28:55.412Z</time></trkpt><trkpt lat="43.5151721" lon="11.0857618"><ele>81.0</ele><time>2026-05-03T07:28:57.409Z</time></trkpt><trkpt lat="43.5152642" lon="11.085696"><ele>81.0</ele><time>2026-05-03T07:28:59.429Z</time></trkpt><trkpt lat="43.5153469" lon="11.0856385"><ele>80.39999999999999</ele><time>2026-05-03T07:29:01.39Z</time></trkpt><trkpt lat="43.515428" lon="11.0855847"><ele>79.8</ele><time>2026-05-03T07:29:03.417Z</time></trkpt><trkpt lat="43.5155151" lon="11.0855351"><ele>79.19999999999999</ele><time>2026-05-03T07:29:05.396Z</time></trkpt><trkpt lat="43.5156206" lon="11.085504"><ele>78.6</ele><time>2026-05-03T07:29:07.399Z</time></trkpt><trkpt lat="43.5157427" lon="11.085492"><ele>78.0</ele><time>2026-05-03T07:29:09.408Z</time></trkpt><trkpt lat="43.5158094" lon="11.0854909"><ele>78.0</ele><time>2026-05-03T07:29:10.483Z</time></trkpt><trkpt lat="43.5158792" lon="11.0854944"><ele>78.0</ele><time>2026-05-03T07:29:11.466Z</time></trkpt><trkpt lat="43.5159502" lon="11.0855039"><ele>78.0</ele><time>2026-05-03T07:29:12.406Z</time></trkpt><trkpt lat="43.5160307" lon="11.0855116"><ele>78.0</ele><time>2026-05-03T07:29:13.403Z</time></trkpt><trkpt lat="43.5161135" lon="11.0855155"><ele>78.0</ele><time>2026-05-03T07:29:14.396Z</time></trkpt><trkpt lat="43.5161998" lon="11.085512"><ele>78.0</ele><time>2026-05-03T07:29:15.415Z</time></trkpt><trkpt lat="43.5162874" lon="11.0855051"><ele>77.5</ele><time>2026-05-03T07:29:16.411Z</time></trkpt><trkpt lat="43.5163723" lon="11.0854968"><ele>77.0</ele><time>2026-05-03T07:29:17.404Z</time></trkpt><trkpt lat="43.5164559" lon="11.0854782"><ele>76.5</ele><time>2026-05-03T07:29:18.412Z</time></trkpt><trkpt lat="43.516537" lon="11.0854476"><ele>76.0</ele><time>2026-05-03T07:29:19.488Z</time></trkpt><trkpt lat="43.516611" lon="11.0853948"><ele>75.5</ele><time>2026-05-03T07:29:20.48Z</time></trkpt><trkpt lat="43.5166777" lon="11.0853192"><ele>75.0</ele><time>2026-05-03T07:29:21.4Z</time></trkpt><trkpt lat="43.5167404" lon="11.0852273"><ele>75.0</ele><time>2026-05-03T07:29:22.398Z</time></trkpt><trkpt lat="43.5167947" lon="11.0851298"><ele>75.0</ele><time>2026-05-03T07:29:23.404Z</time></trkpt><trkpt lat="43.5168437" lon="11.0850297"><ele>75.0</ele><time>2026-05-03T07:29:24.4Z</time></trkpt><trkpt lat="43.516895" lon="11.0849417"><ele>75.0</ele><time>2026-05-03T07:29:25.404Z</time></trkpt><trkpt lat="43.5169429" lon="11.0848614"><ele>75.0</ele><time>2026-05-03T07:29:26.469Z</time></trkpt><trkpt lat="43.5169858" lon="11.0847837"><ele>75.0</ele><time>2026-05-03T07:29:27.41Z</time></trkpt><trkpt lat="43.5170298" lon="11.0847007"><ele>74.83333333333333</ele><time>2026-05-03T07:29:28.401Z</time></trkpt><trkpt lat="43.5170755" lon="11.0846312"><ele>74.66666666666667</ele><time>2026-05-03T07:29:29.487Z</time></trkpt><trkpt lat="43.5171358" lon="11.0845823"><ele>74.5</ele><time>2026-05-03T07:29:30.41Z</time></trkpt><trkpt lat="43.5171953" lon="11.0844664"><ele>74.33333333333334</ele><time>2026-05-03T07:29:32.403Z</time></trkpt><trkpt lat="43.5172408" lon="11.0843919"><ele>74.16666666666667</ele><time>2026-05-03T07:29:33.403Z</time></trkpt><trkpt lat="43.5172874" lon="11.0843192"><ele>74.0</ele><time>2026-05-03T07:29:34.424Z</time></trkpt><trkpt lat="43.5173379" lon="11.0842467"><ele>74.0</ele><time>2026-05-03T07:29:35.41Z</time></trkpt><trkpt lat="43.5173909" lon="11.0841803"><ele>74.0</ele><time>2026-05-03T07:29:36.408Z</time></trkpt><trkpt lat="43.5174419" lon="11.0841188"><ele>74.0</ele><time>2026-05-03T07:29:37.401Z</time></trkpt><trkpt lat="43.5174962" lon="11.0840646"><ele>74.0</ele><time>2026-05-03T07:29:38.412Z</time></trkpt><trkpt lat="43.517553" lon="11.0840227"><ele>74.0</ele><time>2026-05-03T07:29:39.417Z</time></trkpt><trkpt lat="43.5176129" lon="11.0839889"><ele>74.0</ele><time>2026-05-03T07:29:40.409Z</time></trkpt><trkpt lat="43.5176754" lon="11.0839522"><ele>74.0</ele><time>2026-05-03T07:29:41.41Z</time></trkpt><trkpt lat="43.5177368" lon="11.0839149"><ele>74.14285714285714</ele><time>2026-05-03T07:29:42.414Z</time></trkpt><trkpt lat="43.5177984" lon="11.0838837"><ele>74.28571428571428</ele><time>2026-05-03T07:29:43.408Z</time></trkpt><trkpt lat="43.5178616" lon="11.0838603"><ele>74.42857142857142</ele><time>2026-05-03T07:29:44.388Z</time></trkpt><trkpt lat="43.5179273" lon="11.0838403"><ele>74.57142857142857</ele><time>2026-05-03T07:29:45.477Z</time></trkpt><trkpt lat="43.5179946" lon="11.0838329"><ele>74.71428571428571</ele><time>2026-05-03T07:29:46.468Z</time></trkpt><trkpt lat="43.5180618" lon="11.0838135"><ele>74.85714285714285</ele><time>2026-05-03T07:29:47.419Z</time></trkpt><trkpt lat="43.518134" lon="11.0837842"><ele>75.0</ele><time>2026-05-03T07:29:48.408Z</time></trkpt><trkpt lat="43.5182079" lon="11.0837581"><ele>75.0</ele><time>2026-05-03T07:29:49.415Z</time></trkpt><trkpt lat="43.5182697" lon="11.0837394"><ele>75.0</ele><time>2026-05-03T07:29:50.461Z</time></trkpt><trkpt lat="43.5183849" lon="11.0837149"><ele>75.0</ele><time>2026-05-03T07:29:52.401Z</time></trkpt><trkpt lat="43.5185051" lon="11.0837034"><ele>75.0</ele><time>2026-05-03T07:29:54.409Z</time></trkpt><trkpt lat="43.5186247" lon="11.083707"><ele>75.0</ele><time>2026-05-03T07:29:56.497Z</time></trkpt><trkpt lat="43.5187368" lon="11.0837366"><ele>74.8</ele><time>2026-05-03T07:29:58.408Z</time></trkpt><trkpt lat="43.518838" lon="11.0838103"><ele>74.6</ele><time>2026-05-03T07:30:00.416Z</time></trkpt><trkpt lat="43.5189248" lon="11.0839058"><ele>74.4</ele><time>2026-05-03T07:30:02.41Z</time></trkpt><trkpt lat="43.5189855" lon="11.084028"><ele>74.2</ele><time>2026-05-03T07:30:04.409Z</time></trkpt><trkpt lat="43.5189935" lon="11.0841256"><ele>74.0</ele><time>2026-05-03T07:30:05.473Z</time></trkpt><trkpt lat="43.5189877" lon="11.0842138"><ele>74.33333333333334</ele><time>2026-05-03T07:30:06.47Z</time></trkpt><trkpt lat="43.5189718" lon="11.0843043"><ele>74.66666666666667</ele><time>2026-05-03T07:30:07.406Z</time></trkpt><trkpt lat="43.5189611" lon="11.084391"><ele>75.0</ele><time>2026-05-03T07:30:08.397Z</time></trkpt><trkpt lat="43.5189494" lon="11.0845144"><ele>75.33333333333333</ele><time>2026-05-03T07:30:10.402Z</time></trkpt><trkpt lat="43.5189139" lon="11.0846264"><ele>75.66666666666666</ele><time>2026-05-03T07:30:12.398Z</time></trkpt><trkpt lat="43.5188653" lon="11.0847266"><ele>76.0</ele><time>2026-05-03T07:30:14.414Z</time></trkpt><trkpt lat="43.518807" lon="11.0848059"><ele>76.0</ele><time>2026-05-03T07:30:16.401Z</time></trkpt><trkpt lat="43.5187494" lon="11.084875"><ele>76.0</ele><time>2026-05-03T07:30:18.412Z</time></trkpt><trkpt lat="43.518689" lon="11.084944"><ele>76.0</ele><time>2026-05-03T07:30:20.385Z</time></trkpt><trkpt lat="43.5186347" lon="11.0849935"><ele>76.0</ele><time>2026-05-03T07:30:22.391Z</time></trkpt><trkpt lat="43.5185699" lon="11.0850774"><ele>76.0</ele><time>2026-05-03T07:30:25.466Z</time></trkpt><trkpt lat="43.5185295" lon="11.0851696"><ele>76.0</ele><time>2026-05-03T07:30:28.413Z</time></trkpt><trkpt lat="43.5184899" lon="11.0852515"><ele>76.16666666666666</ele><time>2026-05-03T07:30:30.478Z</time></trkpt><trkpt lat="43.5184603" lon="11.0853482"><ele>76.33333333333333</ele><time>2026-05-03T07:30:32.403Z</time></trkpt><trkpt lat="43.5184459" lon="11.0854484"><ele>76.5</ele><time>2026-05-03T07:30:34.408Z</time></trkpt><trkpt lat="43.518449" lon="11.0855575"><ele>76.66666666666667</ele><time>2026-05-03T07:30:36.474Z</time></trkpt><trkpt lat="43.5184419" lon="11.0856692"><ele>76.83333333333334</ele><time>2026-05-03T07:30:38.403Z</time></trkpt><trkpt lat="43.5184367" lon="11.0857771"><ele>77.0</ele><time>2026-05-03T07:30:41.464Z</time></trkpt><trkpt lat="43.5184252" lon="11.0858796"><ele>77.28571428571429</ele><time>2026-05-03T07:30:44.399Z</time></trkpt><trkpt lat="43.5184201" lon="11.0859815"><ele>77.57142857142857</ele><time>2026-05-03T07:30:47.405Z</time></trkpt><trkpt lat="43.5184225" lon="11.0860843"><ele>77.85714285714286</ele><time>2026-05-03T07:30:51.412Z</time></trkpt><trkpt lat="43.518441" lon="11.0861862"><ele>78.14285714285714</ele><time>2026-05-03T07:30:56.411Z</time></trkpt><trkpt lat="43.5184719" lon="11.0862756"><ele>78.42857142857143</ele><time>2026-05-03T07:31:02.403Z</time></trkpt><trkpt lat="43.5185197" lon="11.0863443"><ele>78.71428571428572</ele><time>2026-05-03T07:31:08.395Z</time></trkpt><trkpt lat="43.5185538" lon="11.0864329"><ele>79.0</ele><time>2026-05-03T07:31:14.394Z</time></trkpt><trkpt lat="43.5185958" lon="11.0865149"><ele>79.0</ele><time>2026-05-03T07:31:20.407Z</time></trkpt><trkpt lat="43.5186288" lon="11.0865919"><ele>79.0</ele><time>2026-05-03T07:31:25.408Z</time></trkpt><trkpt lat="43.5186673" lon="11.0866718"><ele>79.0</ele><time>2026-05-03T07:31:31.412Z</time></trkpt><trkpt lat="43.518706" lon="11.0867457"><ele>79.0</ele><time>2026-05-03T07:31:37.401Z</time></trkpt><trkpt lat="43.5187512" lon="11.0868551"><ele>79.0</ele><time>2026-05-03T07:31:54.399Z</time></trkpt><trkpt lat="43.5188065" lon="11.086965"><ele>79.0</ele><time>2026-05-03T07:32:00.396Z</time></trkpt><trkpt lat="43.518843" lon="11.0870401"><ele>81.42857142857143</ele><time>2026-05-03T07:32:04.402Z</time></trkpt><trkpt lat="43.518896" lon="11.0871205"><ele>83.85714285714286</ele><time>2026-05-03T07:32:11.406Z</time></trkpt><trkpt lat="43.5189338" lon="11.0872034"><ele>86.28571428571428</ele><time>2026-05-03T07:32:21.475Z</time></trkpt><trkpt lat="43.5189755" lon="11.087289"><ele>88.71428571428572</ele><time>2026-05-03T07:32:26.401Z</time></trkpt><trkpt lat="43.5189995" lon="11.0873725"><ele>91.14285714285714</ele><time>2026-05-03T07:32:30.495Z</time></trkpt><trkpt lat="43.5190429" lon="11.0874362"><ele>93.57142857142857</ele><time>2026-05-03T07:32:42.416Z</time></trkpt><trkpt lat="43.519085" lon="11.0875104"><ele>96.0</ele><time>2026-05-03T07:32:52.394Z</time></trkpt><trkpt lat="43.5191162" lon="11.0875879"><ele>96.42857142857142</ele><time>2026-05-03T07:32:56.415Z</time></trkpt><trkpt lat="43.5191608" lon="11.0876637"><ele>96.85714285714286</ele><time>2026-05-03T07:33:04.472Z</time></trkpt><trkpt lat="43.5192189" lon="11.0877101"><ele>97.28571428571428</ele><time>2026-05-03T07:33:09.419Z</time></trkpt><trkpt lat="43.5192852" lon="11.0877624"><ele>97.71428571428571</ele><time>2026-05-03T07:33:14.408Z</time></trkpt><trkpt lat="43.5193542" lon="11.0877754"><ele>98.14285714285714</ele><time>2026-05-03T07:33:19.408Z</time></trkpt><trkpt lat="43.5194171" lon="11.0878005"><ele>98.57142857142857</ele><time>2026-05-03T07:33:24.406Z</time></trkpt><trkpt lat="43.5194839" lon="11.0878131"><ele>99.0</ele><time>2026-05-03T07:33:29.387Z</time></trkpt><trkpt lat="43.5195557" lon="11.0878281"><ele>100.71428571428572</ele><time>2026-05-03T07:33:34.397Z</time></trkpt><trkpt lat="43.5196294" lon="11.0878264"><ele>102.42857142857142</ele><time>2026-05-03T07:33:40.478Z</time></trkpt><trkpt lat="43.5196881" lon="11.0877844"><ele>104.14285714285714</ele><time>2026-05-03T07:33:42.4Z</time></trkpt><trkpt lat="43.5197557" lon="11.0878442"><ele>105.85714285714286</ele><time>2026-05-03T07:33:53.413Z</time></trkpt><trkpt lat="43.5198272" lon="11.0878649"><ele>107.57142857142858</ele><time>2026-05-03T07:33:59.403Z</time></trkpt><trkpt lat="43.5198831" lon="11.0879208"><ele>109.28571428571428</ele><time>2026-05-03T07:34:04.479Z</time></trkpt><trkpt lat="43.5199487" lon="11.0879052"><ele>111.0</ele><time>2026-05-03T07:34:09.482Z</time></trkpt><trkpt lat="43.5200215" lon="11.087896"><ele>111.0</ele><time>2026-05-03T07:34:15.397Z</time></trkpt><trkpt lat="43.5200847" lon="11.0879175"><ele>111.0</ele><time>2026-05-03T07:34:21.403Z</time></trkpt><trkpt lat="43.5201467" lon="11.0879414"><ele>111.0</ele><time>2026-05-03T07:34:26.406Z</time></trkpt><trkpt lat="43.520211" lon="11.0879604"><ele>111.0</ele><time>2026-05-03T07:34:32.386Z</time></trkpt><trkpt lat="43.5202774" lon="11.0879685"><ele>111.0</ele><time>2026-05-03T07:34:37.412Z</time></trkpt><trkpt lat="43.5203484" lon="11.0879986"><ele>111.0</ele><time>2026-05-03T07:34:43.418Z</time></trkpt><trkpt lat="43.520419" lon="11.0880171"><ele>111.0</ele><time>2026-05-03T07:34:48.416Z</time></trkpt><trkpt lat="43.5204829" lon="11.0879972"><ele>112.14285714285714</ele><time>2026-05-03T07:34:51.409Z</time></trkpt><trkpt lat="43.5205534" lon="11.0880071"><ele>113.28571428571429</ele><time>2026-05-03T07:34:57.399Z</time></trkpt><trkpt lat="43.5206198" lon="11.0880218"><ele>114.42857142857143</ele><time>2026-05-03T07:35:03.41Z</time></trkpt><trkpt lat="43.5206909" lon="11.0880491"><ele>115.57142857142857</ele><time>2026-05-03T07:35:09.417Z</time></trkpt><trkpt lat="43.520761" lon="11.088059"><ele>116.71428571428572</ele><time>2026-05-03T07:35:16.476Z</time></trkpt><trkpt lat="43.5208222" lon="11.0881048"><ele>117.85714285714286</ele><time>2026-05-03T07:35:20.385Z</time></trkpt><trkpt lat="43.5209004" lon="11.0881164"><ele>119.0</ele><time>2026-05-03T07:35:27.415Z</time></trkpt><trkpt lat="43.5209622" lon="11.0880929"><ele>118.99999999999999</ele><time>2026-05-03T07:35:31.47Z</time></trkpt><trkpt lat="43.5210328" lon="11.0881169"><ele>119.0</ele><time>2026-05-03T07:35:37.416Z</time></trkpt><trkpt lat="43.5210996" lon="11.0881359"><ele>119.0</ele><time>2026-05-03T07:35:42.402Z</time></trkpt><trkpt lat="43.5211865" lon="11.0881602"><ele>119.0</ele><time>2026-05-03T07:35:47.402Z</time></trkpt><trkpt lat="43.5211478" lon="11.0880915"><ele>118.99999999999999</ele><time>2026-05-03T07:35:50.476Z</time></trkpt><trkpt lat="43.5212157" lon="11.0881503"><ele>119.0</ele><time>2026-05-03T07:35:53.39Z</time></trkpt><trkpt lat="43.5213027" lon="11.0881836"><ele>121.2</ele><time>2026-05-03T07:35:58.404Z</time></trkpt><trkpt lat="43.5213928" lon="11.0882061"><ele>123.4</ele><time>2026-05-03T07:36:24.47Z</time></trkpt><trkpt lat="43.521464" lon="11.0882363"><ele>125.6</ele><time>2026-05-03T07:36:28.409Z</time></trkpt><trkpt lat="43.5215357" lon="11.0882608"><ele>127.8</ele><time>2026-05-03T07:36:30.463Z</time></trkpt><trkpt lat="43.5216823" lon="11.0882754"><ele>130.0</ele><time>2026-05-03T07:36:40.476Z</time></trkpt><trkpt lat="43.5217639" lon="11.0882935"><ele>130.14285714285717</ele><time>2026-05-03T07:36:46.403Z</time></trkpt><trkpt lat="43.5218336" lon="11.0883259"><ele>130.28571428571428</ele><time>2026-05-03T07:36:56.42Z</time></trkpt><trkpt lat="43.5219009" lon="11.0883255"><ele>130.42857142857144</ele><time>2026-05-03T07:37:01.391Z</time></trkpt><trkpt lat="43.5219675" lon="11.088289"><ele>130.57142857142858</ele><time>2026-05-03T07:37:08.406Z</time></trkpt><trkpt lat="43.5220304" lon="11.0883387"><ele>130.71428571428572</ele><time>2026-05-03T07:37:15.383Z</time></trkpt><trkpt lat="43.5221014" lon="11.0883717"><ele>130.85714285714286</ele><time>2026-05-03T07:37:22.413Z</time></trkpt><trkpt lat="43.5221895" lon="11.0883914"><ele>131.0</ele><time>2026-05-03T07:37:38.405Z</time></trkpt><trkpt lat="43.5222566" lon="11.0884166"><ele>133.42857142857144</ele><time>2026-05-03T07:37:41.489Z</time></trkpt><trkpt lat="43.5223218" lon="11.0883982"><ele>135.85714285714286</ele><time>2026-05-03T07:37:48.413Z</time></trkpt><trkpt lat="43.5223755" lon="11.0884446"><ele>138.28571428571428</ele><time>2026-05-03T07:37:51.401Z</time></trkpt><trkpt lat="43.5224565" lon="11.0884983"><ele>140.71428571428572</ele><time>2026-05-03T07:37:55.399Z</time></trkpt><trkpt lat="43.5225246" lon="11.0885194"><ele>143.14285714285714</ele><time>2026-05-03T07:37:59.402Z</time></trkpt><trkpt lat="43.5225798" lon="11.0885766"><ele>145.57142857142858</ele><time>2026-05-03T07:38:05.399Z</time></trkpt><trkpt lat="43.5226375" lon="11.0886179"><ele>148.0</ele><time>2026-05-03T07:38:10.413Z</time></trkpt><trkpt lat="43.5227001" lon="11.0886648"><ele>148.0</ele><time>2026-05-03T07:38:15.416Z</time></trkpt><trkpt lat="43.5227505" lon="11.0887175"><ele>148.0</ele><time>2026-05-03T07:38:19.402Z</time></trkpt><trkpt lat="43.5228115" lon="11.0887551"><ele>148.0</ele><time>2026-05-03T07:38:23.413Z</time></trkpt><trkpt lat="43.5228761" lon="11.088801"><ele>148.0</ele><time>2026-05-03T07:38:30.474Z</time></trkpt><trkpt lat="43.5229447" lon="11.0888167"><ele>148.0</ele><time>2026-05-03T07:38:34.405Z</time></trkpt><trkpt lat="43.5230154" lon="11.0888566"><ele>148.0</ele><time>2026-05-03T07:38:39.398Z</time></trkpt><trkpt lat="43.5230818" lon="11.0888409"><ele>148.0</ele><time>2026-05-03T07:38:44.397Z</time></trkpt><trkpt lat="43.5231406" lon="11.0888923"><ele>148.0</ele><time>2026-05-03T07:38:48.403Z</time></trkpt><trkpt lat="43.5231818" lon="11.08899"><ele>148.0</ele><time>2026-05-03T07:38:52.402Z</time></trkpt><trkpt lat="43.5232417" lon="11.0890876"><ele>148.0</ele><time>2026-05-03T07:38:55.395Z</time></trkpt><trkpt lat="43.5233075" lon="11.0891787"><ele>148.0</ele><time>2026-05-03T07:38:58.405Z</time></trkpt><trkpt lat="43.5233482" lon="11.0892469"><ele>148.0</ele><time>2026-05-03T07:39:00.467Z</time></trkpt><trkpt lat="43.5233949" lon="11.0893267"><ele>148.0</ele><time>2026-05-03T07:39:02.401Z</time></trkpt><trkpt lat="43.5234303" lon="11.0894114"><ele>148.0</ele><time>2026-05-03T07:39:04.413Z</time></trkpt><trkpt lat="43.5234811" lon="11.0895098"><ele>148.0</ele><time>2026-05-03T07:39:07.404Z</time></trkpt><trkpt lat="43.5235393" lon="11.0896253"><ele>148.0</ele><time>2026-05-03T07:39:10.402Z</time></trkpt><trkpt lat="43.5235742" lon="11.0897107"><ele>148.0</ele><time>2026-05-03T07:39:12.408Z</time></trkpt><trkpt lat="43.5236037" lon="11.0897925"><ele>148.0</ele><time>2026-05-03T07:39:14.408Z</time></trkpt><trkpt lat="43.5236246" lon="11.0898759"><ele>148.0</ele><time>2026-05-03T07:39:16.404Z</time></trkpt><trkpt lat="43.5236506" lon="11.0899977"><ele>147.83333333333334</ele><time>2026-05-03T07:39:19.408Z</time></trkpt><trkpt lat="43.5236909" lon="11.0901083"><ele>147.66666666666669</ele><time>2026-05-03T07:39:22.408Z</time></trkpt><trkpt lat="43.5237206" lon="11.0902179"><ele>147.5</ele><time>2026-05-03T07:39:25.409Z</time></trkpt><trkpt lat="43.523747" lon="11.0903352"><ele>147.33333333333334</ele><time>2026-05-03T07:39:28.41Z</time></trkpt><trkpt lat="43.5237676" lon="11.0904186"><ele>147.16666666666666</ele><time>2026-05-03T07:39:30.414Z</time></trkpt><trkpt lat="43.5237879" lon="11.0905033"><ele>147.0</ele><time>2026-05-03T07:39:32.402Z</time></trkpt><trkpt lat="43.5238027" lon="11.0905901"><ele>147.28571428571428</ele><time>2026-05-03T07:39:34.404Z</time></trkpt><trkpt lat="43.5238256" lon="11.0906734"><ele>147.57142857142856</ele><time>2026-05-03T07:39:36.493Z</time></trkpt><trkpt lat="43.5238483" lon="11.0907636"><ele>147.85714285714286</ele><time>2026-05-03T07:39:38.405Z</time></trkpt><trkpt lat="43.5238762" lon="11.0908536"><ele>148.14285714285714</ele><time>2026-05-03T07:39:40.471Z</time></trkpt><trkpt lat="43.5239059" lon="11.0909764"><ele>148.42857142857142</ele><time>2026-05-03T07:39:43.418Z</time></trkpt><trkpt lat="43.5239248" lon="11.0910771"><ele>148.71428571428572</ele><time>2026-05-03T07:39:45.4Z</time></trkpt><trkpt lat="43.5239413" lon="11.0911691"><ele>149.0</ele><time>2026-05-03T07:39:47.406Z</time></trkpt><trkpt lat="43.5239612" lon="11.0912585"><ele>150.0</ele><time>2026-05-03T07:39:49.407Z</time></trkpt><trkpt lat="43.5239872" lon="11.091382"><ele>151.0</ele><time>2026-05-03T07:39:52.412Z</time></trkpt><trkpt lat="43.5240165" lon="11.09149"><ele>152.0</ele><time>2026-05-03T07:39:55.404Z</time></trkpt><trkpt lat="43.5240404" lon="11.0915942"><ele>153.0</ele><time>2026-05-03T07:39:58.406Z</time></trkpt><trkpt lat="43.5240654" lon="11.0916911"><ele>154.0</ele><time>2026-05-03T07:40:01.467Z</time></trkpt><trkpt lat="43.5240885" lon="11.0917896"><ele>155.0</ele><time>2026-05-03T07:40:04.413Z</time></trkpt><trkpt lat="43.524108" lon="11.0918867"><ele>155.28571428571428</ele><time>2026-05-03T07:40:07.383Z</time></trkpt><trkpt lat="43.5241274" lon="11.0919815"><ele>155.57142857142856</ele><time>2026-05-03T07:40:10.483Z</time></trkpt><trkpt lat="43.5241569" lon="11.0920973"><ele>155.85714285714283</ele><time>2026-05-03T07:40:13.404Z</time></trkpt><trkpt lat="43.5241652" lon="11.0921871"><ele>156.14285714285714</ele><time>2026-05-03T07:40:17.423Z</time></trkpt><trkpt lat="43.5241861" lon="11.0922785"><ele>156.42857142857142</ele><time>2026-05-03T07:40:22.411Z</time></trkpt><trkpt lat="43.5242211" lon="11.0923733"><ele>156.7142857142857</ele><time>2026-05-03T07:40:27.408Z</time></trkpt><trkpt lat="43.524248" lon="11.0924622"><ele>157.0</ele><time>2026-05-03T07:40:32.407Z</time></trkpt><trkpt lat="43.524293" lon="11.0925411"><ele>157.7142857142857</ele><time>2026-05-03T07:40:39.427Z</time></trkpt><trkpt lat="43.5243185" lon="11.0926399"><ele>158.42857142857142</ele><time>2026-05-03T07:40:43.408Z</time></trkpt><trkpt lat="43.5243335" lon="11.0927249"><ele>159.14285714285714</ele><time>2026-05-03T07:40:46.466Z</time></trkpt><trkpt lat="43.5243542" lon="11.092812"><ele>159.85714285714283</ele><time>2026-05-03T07:40:49.4Z</time></trkpt><trkpt lat="43.5243688" lon="11.0928975"><ele>160.57142857142856</ele><time>2026-05-03T07:40:52.412Z</time></trkpt><trkpt lat="43.5243852" lon="11.0929988"><ele>161.28571428571428</ele><time>2026-05-03T07:40:55.397Z</time></trkpt><trkpt lat="43.5244032" lon="11.0931126"><ele>162.0</ele><time>2026-05-03T07:40:58.409Z</time></trkpt><trkpt lat="43.5244136" lon="11.093199"><ele>162.33333333333334</ele><time>2026-05-03T07:41:00.387Z</time></trkpt><trkpt lat="43.5244223" lon="11.0932969"><ele>162.66666666666666</ele><time>2026-05-03T07:41:02.405Z</time></trkpt><trkpt lat="43.5244243" lon="11.0933989"><ele>163.0</ele><time>2026-05-03T07:41:04.512Z</time></trkpt><trkpt lat="43.5244328" lon="11.0935522"><ele>163.33333333333331</ele><time>2026-05-03T07:41:06.408Z</time></trkpt><trkpt lat="43.5244296" lon="11.0936628"><ele>163.66666666666666</ele><time>2026-05-03T07:41:08.404Z</time></trkpt><trkpt lat="43.5244193" lon="11.0937982"><ele>164.0</ele><time>2026-05-03T07:41:10.478Z</time></trkpt><trkpt lat="43.5243881" lon="11.0939583"><ele>164.2</ele><time>2026-05-03T07:41:12.393Z</time></trkpt><trkpt lat="43.5243624" lon="11.0941154"><ele>164.39999999999998</ele><time>2026-05-03T07:41:14.404Z</time></trkpt><trkpt lat="43.5243517" lon="11.0942575"><ele>164.6</ele><time>2026-05-03T07:41:16.475Z</time></trkpt><trkpt lat="43.5243557" lon="11.0944289"><ele>164.8</ele><time>2026-05-03T07:41:18.401Z</time></trkpt><trkpt lat="43.5243643" lon="11.0945252"><ele>165.0</ele><time>2026-05-03T07:41:19.403Z</time></trkpt><trkpt lat="43.5243801" lon="11.0946903"><ele>165.0</ele><time>2026-05-03T07:41:21.384Z</time></trkpt><trkpt lat="43.5244054" lon="11.0948341"><ele>165.0</ele><time>2026-05-03T07:41:23.399Z</time></trkpt><trkpt lat="43.5244453" lon="11.0949549"><ele>165.0</ele><time>2026-05-03T07:41:25.471Z</time></trkpt><trkpt lat="43.5244911" lon="11.0950553"><ele>165.0</ele><time>2026-05-03T07:41:27.447Z</time></trkpt><trkpt lat="43.5245376" lon="11.095146"><ele>165.0</ele><time>2026-05-03T07:41:29.401Z</time></trkpt><trkpt lat="43.5245857" lon="11.0952225"><ele>165.0</ele><time>2026-05-03T07:41:31.415Z</time></trkpt><trkpt lat="43.5246369" lon="11.095283"><ele>164.5</ele><time>2026-05-03T07:41:33.413Z</time></trkpt><trkpt lat="43.5247021" lon="11.0953451"><ele>164.0</ele><time>2026-05-03T07:41:35.388Z</time></trkpt><trkpt lat="43.5247828" lon="11.0954046"><ele>163.5</ele><time>2026-05-03T07:41:37.409Z</time></trkpt><trkpt lat="43.524856" lon="11.0954862"><ele>163.0</ele><time>2026-05-03T07:41:39.411Z</time></trkpt><trkpt lat="43.5248975" lon="11.0955825"><ele>162.5</ele><time>2026-05-03T07:41:41.502Z</time></trkpt><trkpt lat="43.5248799" lon="11.0956761"><ele>162.0</ele><time>2026-05-03T07:41:43.412Z</time></trkpt><trkpt lat="43.5248465" lon="11.0957586"><ele>162.0</ele><time>2026-05-03T07:41:45.41Z</time></trkpt><trkpt lat="43.5248112" lon="11.0958578"><ele>162.0</ele><time>2026-05-03T07:41:48.401Z</time></trkpt><trkpt lat="43.5247561" lon="11.0959415"><ele>162.0</ele><time>2026-05-03T07:41:50.404Z</time></trkpt><trkpt lat="43.5247147" lon="11.0960336"><ele>162.0</ele><time>2026-05-03T07:41:52.419Z</time></trkpt><trkpt lat="43.5246704" lon="11.0961286"><ele>162.0</ele><time>2026-05-03T07:41:54.4Z</time></trkpt><trkpt lat="43.5246284" lon="11.09621"><ele>162.0</ele><time>2026-05-03T07:41:56.414Z</time></trkpt><trkpt lat="43.524607" lon="11.0963237"><ele>162.0</ele><time>2026-05-03T07:41:58.415Z</time></trkpt><trkpt lat="43.5245813" lon="11.0964423"><ele>162.0</ele><time>2026-05-03T07:42:00.408Z</time></trkpt><trkpt lat="43.5245627" lon="11.0965584"><ele>162.0</ele><time>2026-05-03T07:42:02.409Z</time></trkpt><trkpt lat="43.5245622" lon="11.096678"><ele>162.0</ele><time>2026-05-03T07:42:04.414Z</time></trkpt><trkpt lat="43.5245711" lon="11.0968004"><ele>162.0</ele><time>2026-05-03T07:42:06.413Z</time></trkpt><trkpt lat="43.524593" lon="11.0969307"><ele>162.0</ele><time>2026-05-03T07:42:08.414Z</time></trkpt><trkpt lat="43.5246498" lon="11.097044"><ele>161.25</ele><time>2026-05-03T07:42:10.411Z</time></trkpt><trkpt lat="43.5247276" lon="11.0971575"><ele>160.5</ele><time>2026-05-03T07:42:12.4Z</time></trkpt><trkpt lat="43.5248102" lon="11.0972778"><ele>159.75</ele><time>2026-05-03T07:42:14.413Z</time></trkpt><trkpt lat="43.5248963" lon="11.0973965"><ele>159.0</ele><time>2026-05-03T07:42:16.468Z</time></trkpt><trkpt lat="43.5249814" lon="11.0975135"><ele>159.0</ele><time>2026-05-03T07:42:18.4Z</time></trkpt><trkpt lat="43.5250655" lon="11.0976091"><ele>159.0</ele><time>2026-05-03T07:42:20.382Z</time></trkpt><trkpt lat="43.5251444" lon="11.0977096"><ele>159.0</ele><time>2026-05-03T07:42:22.389Z</time></trkpt><trkpt lat="43.5252185" lon="11.0978227"><ele>159.0</ele><time>2026-05-03T07:42:24.404Z</time></trkpt><trkpt lat="43.5252961" lon="11.0979335"><ele>159.0</ele><time>2026-05-03T07:42:26.462Z</time></trkpt><trkpt lat="43.5253888" lon="11.0980107"><ele>158.0</ele><time>2026-05-03T07:42:28.399Z</time></trkpt><trkpt lat="43.5254562" lon="11.0980982"><ele>157.0</ele><time>2026-05-03T07:42:30.466Z</time></trkpt><trkpt lat="43.5254944" lon="11.0981764"><ele>156.0</ele><time>2026-05-03T07:42:32.416Z</time></trkpt><trkpt lat="43.525538" lon="11.0982736"><ele>155.0</ele><time>2026-05-03T07:42:34.409Z</time></trkpt><trkpt lat="43.5256053" lon="11.0983896"><ele>154.0</ele><time>2026-05-03T07:42:36.404Z</time></trkpt><trkpt lat="43.5256818" lon="11.0985051"><ele>154.0</ele><time>2026-05-03T07:42:38.405Z</time></trkpt><trkpt lat="43.5257609" lon="11.0986216"><ele>154.0</ele><time>2026-05-03T07:42:40.408Z</time></trkpt><trkpt lat="43.5258391" lon="11.0987377"><ele>154.0</ele><time>2026-05-03T07:42:42.4Z</time></trkpt><trkpt lat="43.5259082" lon="11.0988483"><ele>154.0</ele><time>2026-05-03T07:42:44.41Z</time></trkpt><trkpt lat="43.5259801" lon="11.0989751"><ele>154.8</ele><time>2026-05-03T07:42:46.427Z</time></trkpt><trkpt lat="43.5260562" lon="11.0991132"><ele>155.60000000000002</ele><time>2026-05-03T07:42:48.396Z</time></trkpt><trkpt lat="43.526094" lon="11.0991925"><ele>156.4</ele><time>2026-05-03T07:42:49.406Z</time></trkpt><trkpt lat="43.5261283" lon="11.0992674"><ele>157.20000000000002</ele><time>2026-05-03T07:42:50.412Z</time></trkpt><trkpt lat="43.5261972" lon="11.099407"><ele>158.0</ele><time>2026-05-03T07:42:52.402Z</time></trkpt><trkpt lat="43.5262668" lon="11.0995433"><ele>156.4</ele><time>2026-05-03T07:42:54.411Z</time></trkpt><trkpt lat="43.5263374" lon="11.099666"><ele>154.8</ele><time>2026-05-03T07:42:56.411Z</time></trkpt><trkpt lat="43.5264214" lon="11.099793"><ele>153.2</ele><time>2026-05-03T07:42:58.397Z</time></trkpt><trkpt lat="43.5264631" lon="11.0998647"><ele>151.6</ele><time>2026-05-03T07:42:59.398Z</time></trkpt><trkpt lat="43.5265057" lon="11.0999442"><ele>150.0</ele><time>2026-05-03T07:43:00.407Z</time></trkpt><trkpt lat="43.5265491" lon="11.1000256"><ele>149.99999999999997</ele><time>2026-05-03T07:43:01.408Z</time></trkpt><trkpt lat="43.5265918" lon="11.1001049"><ele>150.0</ele><time>2026-05-03T07:43:02.415Z</time></trkpt><trkpt lat="43.5266353" lon="11.1001825"><ele>150.0</ele><time>2026-05-03T07:43:03.409Z</time></trkpt><trkpt lat="43.5266757" lon="11.1002626"><ele>150.0</ele><time>2026-05-03T07:43:04.467Z</time></trkpt><trkpt lat="43.5267208" lon="11.1003416"><ele>150.0</ele><time>2026-05-03T07:43:05.408Z</time></trkpt><trkpt lat="43.5267621" lon="11.1004198"><ele>149.99999999999997</ele><time>2026-05-03T07:43:06.401Z</time></trkpt><trkpt lat="43.5268039" lon="11.1005015"><ele>150.0</ele><time>2026-05-03T07:43:07.391Z</time></trkpt><trkpt lat="43.5268459" lon="11.1005879"><ele>150.0</ele><time>2026-05-03T07:43:08.411Z</time></trkpt><trkpt lat="43.5268897" lon="11.1006756"><ele>150.0</ele><time>2026-05-03T07:43:09.389Z</time></trkpt><trkpt lat="43.526931" lon="11.1007619"><ele>150.0</ele><time>2026-05-03T07:43:10.483Z</time></trkpt><trkpt lat="43.5269697" lon="11.1008409"><ele>150.0</ele><time>2026-05-03T07:43:11.399Z</time></trkpt><trkpt lat="43.5270376" lon="11.1009672"><ele>150.0</ele><time>2026-05-03T07:43:13.402Z</time></trkpt><trkpt lat="43.5270715" lon="11.1010504"><ele>150.0</ele><time>2026-05-03T07:43:14.415Z</time></trkpt><trkpt lat="43.5270841" lon="11.1011502"><ele>149.8</ele><time>2026-05-03T07:43:15.474Z</time></trkpt><trkpt lat="43.527086" lon="11.1012481"><ele>149.6</ele><time>2026-05-03T07:43:16.472Z</time></trkpt><trkpt lat="43.5270304" lon="11.1014119"><ele>149.4</ele><time>2026-05-03T07:43:18.409Z</time></trkpt><trkpt lat="43.527003" lon="11.1014905"><ele>149.2</ele><time>2026-05-03T07:43:19.402Z</time></trkpt><trkpt lat="43.5269583" lon="11.1016406"><ele>149.0</ele><time>2026-05-03T07:43:21.404Z</time></trkpt><trkpt lat="43.5269195" lon="11.1017852"><ele>148.66666666666666</ele><time>2026-05-03T07:43:23.409Z</time></trkpt><trkpt lat="43.5268905" lon="11.101897"><ele>148.33333333333331</ele><time>2026-05-03T07:43:25.488Z</time></trkpt><trkpt lat="43.5268643" lon="11.1020168"><ele>148.0</ele><time>2026-05-03T07:43:27.389Z</time></trkpt><trkpt lat="43.526834" lon="11.1021203"><ele>147.66666666666666</ele><time>2026-05-03T07:43:29.413Z</time></trkpt><trkpt lat="43.5268078" lon="11.1022052"><ele>147.33333333333334</ele><time>2026-05-03T07:43:31.405Z</time></trkpt><trkpt lat="43.5267717" lon="11.1023329"><ele>147.0</ele><time>2026-05-03T07:43:34.41Z</time></trkpt><trkpt lat="43.5267311" lon="11.10247"><ele>147.0</ele><time>2026-05-03T07:43:36.41Z</time></trkpt><trkpt lat="43.5266991" lon="11.1026214"><ele>147.0</ele><time>2026-05-03T07:43:38.41Z</time></trkpt><trkpt lat="43.5266746" lon="11.102776"><ele>147.0</ele><time>2026-05-03T07:43:40.41Z</time></trkpt><trkpt lat="43.5266367" lon="11.1029186"><ele>147.0</ele><time>2026-05-03T07:43:42.397Z</time></trkpt><trkpt lat="43.5265982" lon="11.103059"><ele>147.0</ele><time>2026-05-03T07:43:44.384Z</time></trkpt><trkpt lat="43.5265569" lon="11.1031925"><ele>147.0</ele><time>2026-05-03T07:43:46.465Z</time></trkpt><trkpt lat="43.5265143" lon="11.1033175"><ele>147.0</ele><time>2026-05-03T07:43:48.412Z</time></trkpt><trkpt lat="43.5264777" lon="11.1034547"><ele>147.0</ele><time>2026-05-03T07:43:50.407Z</time></trkpt><trkpt lat="43.5264515" lon="11.1035814"><ele>147.0</ele><time>2026-05-03T07:43:52.414Z</time></trkpt><trkpt lat="43.526423" lon="11.1036946"><ele>147.0</ele><time>2026-05-03T07:43:54.404Z</time></trkpt><trkpt lat="43.5263908" lon="11.1037886"><ele>147.0</ele><time>2026-05-03T07:43:56.399Z</time></trkpt><trkpt lat="43.526352" lon="11.1038769"><ele>147.0</ele><time>2026-05-03T07:43:58.4Z</time></trkpt><trkpt lat="43.526332" lon="11.1039831"><ele>147.0</ele><time>2026-05-03T07:44:00.405Z</time></trkpt><trkpt lat="43.5263212" lon="11.1040839"><ele>147.0</ele><time>2026-05-03T07:44:02.379Z</time></trkpt><trkpt lat="43.5263024" lon="11.1041813"><ele>147.0</ele><time>2026-05-03T07:44:04.396Z</time></trkpt><trkpt lat="43.5262679" lon="11.1042745"><ele>147.0</ele><time>2026-05-03T07:44:06.402Z</time></trkpt><trkpt lat="43.5262365" lon="11.1043928"><ele>147.6</ele><time>2026-05-03T07:44:09.395Z</time></trkpt><trkpt lat="43.5262087" lon="11.104492"><ele>148.2</ele><time>2026-05-03T07:44:12.396Z</time></trkpt><trkpt lat="43.5261706" lon="11.1045664"><ele>148.8</ele><time>2026-05-03T07:44:15.4Z</time></trkpt><trkpt lat="43.5261148" lon="11.1046446"><ele>149.4</ele><time>2026-05-03T07:44:19.504Z</time></trkpt><trkpt lat="43.5260632" lon="11.1047114"><ele>150.0</ele><time>2026-05-03T07:44:22.391Z</time></trkpt><trkpt lat="43.5259189" lon="11.1048655"><ele>150.5</ele><time>2026-05-03T07:44:28.396Z</time></trkpt><trkpt lat="43.5258684" lon="11.104952"><ele>151.0</ele><time>2026-05-03T07:44:35.475Z</time></trkpt><trkpt lat="43.5258277" lon="11.1050294"><ele>151.5</ele><time>2026-05-03T07:44:38.394Z</time></trkpt><trkpt lat="43.5257732" lon="11.1050818"><ele>152.0</ele><time>2026-05-03T07:44:40.418Z</time></trkpt><trkpt lat="43.5257033" lon="11.1051507"><ele>152.5</ele><time>2026-05-03T07:44:42.409Z</time></trkpt><trkpt lat="43.5256227" lon="11.1052136"><ele>153.0</ele><time>2026-05-03T07:44:44.414Z</time></trkpt><trkpt lat="43.5255441" lon="11.1052956"><ele>153.0</ele><time>2026-05-03T07:44:46.4Z</time></trkpt><trkpt lat="43.5254627" lon="11.1053795"><ele>153.0</ele><time>2026-05-03T07:44:48.386Z</time></trkpt><trkpt lat="43.5253854" lon="11.1054656"><ele>153.0</ele><time>2026-05-03T07:44:50.393Z</time></trkpt><trkpt lat="43.5253003" lon="11.1055528"><ele>153.0</ele><time>2026-05-03T07:44:52.415Z</time></trkpt><trkpt lat="43.5252247" lon="11.1056346"><ele>153.0</ele><time>2026-05-03T07:44:54.411Z</time></trkpt><trkpt lat="43.5251805" lon="11.1057574"><ele>150.6</ele><time>2026-05-03T07:44:56.408Z</time></trkpt><trkpt lat="43.5251649" lon="11.1059134"><ele>148.20000000000002</ele><time>2026-05-03T07:44:58.403Z</time></trkpt><trkpt lat="43.5251548" lon="11.1060762"><ele>145.8</ele><time>2026-05-03T07:45:00.386Z</time></trkpt><trkpt lat="43.5251569" lon="11.1062421"><ele>143.4</ele><time>2026-05-03T07:45:02.406Z</time></trkpt><trkpt lat="43.5251746" lon="11.1063288"><ele>141.0</ele><time>2026-05-03T07:45:03.403Z</time></trkpt><trkpt lat="43.5251951" lon="11.1064157"><ele>141.0</ele><time>2026-05-03T07:45:04.403Z</time></trkpt><trkpt lat="43.5252457" lon="11.1065674"><ele>141.0</ele><time>2026-05-03T07:45:06.465Z</time></trkpt><trkpt lat="43.5252622" lon="11.106687"><ele>141.0</ele><time>2026-05-03T07:45:08.419Z</time></trkpt><trkpt lat="43.5253112" lon="11.106782"><ele>141.0</ele><time>2026-05-03T07:45:10.416Z</time></trkpt><trkpt lat="43.5253678" lon="11.1068787"><ele>141.0</ele><time>2026-05-03T07:45:12.419Z</time></trkpt><trkpt lat="43.5254066" lon="11.1069699"><ele>141.14285714285714</ele><time>2026-05-03T07:45:14.418Z</time></trkpt><trkpt lat="43.5254215" lon="11.1070873"><ele>141.28571428571428</ele><time>2026-05-03T07:45:17.398Z</time></trkpt><trkpt lat="43.5254637" lon="11.1071684"><ele>141.42857142857142</ele><time>2026-05-03T07:45:20.408Z</time></trkpt><trkpt lat="43.5255089" lon="11.1072343"><ele>141.57142857142856</ele><time>2026-05-03T07:45:23.411Z</time></trkpt><trkpt lat="43.5255392" lon="11.1073105"><ele>141.7142857142857</ele><time>2026-05-03T07:45:27.397Z</time></trkpt><trkpt lat="43.5255477" lon="11.1074094"><ele>141.85714285714286</ele><time>2026-05-03T07:45:34.396Z</time></trkpt><trkpt lat="43.5255382" lon="11.1074966"><ele>142.0</ele><time>2026-05-03T07:45:44.399Z</time></trkpt><trkpt lat="43.5255129" lon="11.1076021"><ele>142.85714285714286</ele><time>2026-05-03T07:45:48.404Z</time></trkpt><trkpt lat="43.5254866" lon="11.1076819"><ele>143.7142857142857</ele><time>2026-05-03T07:45:51.469Z</time></trkpt><trkpt lat="43.5254411" lon="11.1077519"><ele>144.57142857142856</ele><time>2026-05-03T07:45:56.399Z</time></trkpt><trkpt lat="43.5254077" lon="11.1078298"><ele>145.42857142857142</ele><time>2026-05-03T07:46:00.417Z</time></trkpt><trkpt lat="43.5253708" lon="11.1079122"><ele>146.28571428571428</ele><time>2026-05-03T07:46:05.403Z</time></trkpt><trkpt lat="43.525341" lon="11.1080003"><ele>147.14285714285714</ele><time>2026-05-03T07:46:10.401Z</time></trkpt><trkpt lat="43.5253132" lon="11.1080874"><ele>148.0</ele><time>2026-05-03T07:46:16.414Z</time></trkpt><trkpt lat="43.5253263" lon="11.1081817"><ele>148.14285714285714</ele><time>2026-05-03T07:46:22.397Z</time></trkpt><trkpt lat="43.5253424" lon="11.1082805"><ele>148.28571428571428</ele><time>2026-05-03T07:46:28.401Z</time></trkpt><trkpt lat="43.5253576" lon="11.1083663"><ele>148.42857142857142</ele><time>2026-05-03T07:46:33.401Z</time></trkpt><trkpt lat="43.5253934" lon="11.1084393"><ele>148.57142857142856</ele><time>2026-05-03T07:46:38.405Z</time></trkpt><trkpt lat="43.5254408" lon="11.1085084"><ele>148.7142857142857</ele><time>2026-05-03T07:46:43.4Z</time></trkpt><trkpt lat="43.5254884" lon="11.1085825"><ele>148.85714285714286</ele><time>2026-05-03T07:46:49.403Z</time></trkpt><trkpt lat="43.525536" lon="11.1086451"><ele>149.0</ele><time>2026-05-03T07:46:54.402Z</time></trkpt><trkpt lat="43.5255811" lon="11.1087121"><ele>150.8</ele><time>2026-05-03T07:46:57.411Z</time></trkpt><trkpt lat="43.5256284" lon="11.1087871"><ele>152.60000000000002</ele><time>2026-05-03T07:46:59.403Z</time></trkpt><trkpt lat="43.5256985" lon="11.1088792"><ele>154.4</ele><time>2026-05-03T07:47:01.396Z</time></trkpt><trkpt lat="43.5257735" lon="11.1089913"><ele>156.20000000000002</ele><time>2026-05-03T07:47:03.398Z</time></trkpt><trkpt lat="43.5258551" lon="11.1091031"><ele>158.0</ele><time>2026-05-03T07:47:05.394Z</time></trkpt><trkpt lat="43.5259318" lon="11.1092383"><ele>158.0</ele><time>2026-05-03T07:47:07.397Z</time></trkpt><trkpt lat="43.5259718" lon="11.1093155"><ele>158.0</ele><time>2026-05-03T07:47:08.386Z</time></trkpt><trkpt lat="43.5260171" lon="11.1093944"><ele>158.0</ele><time>2026-05-03T07:47:09.413Z</time></trkpt><trkpt lat="43.5260651" lon="11.1094752"><ele>158.0</ele><time>2026-05-03T07:47:10.405Z</time></trkpt><trkpt lat="43.5261165" lon="11.1095541"><ele>158.0</ele><time>2026-05-03T07:47:11.387Z</time></trkpt><trkpt lat="43.5261712" lon="11.1096331"><ele>158.0</ele><time>2026-05-03T07:47:12.418Z</time></trkpt><trkpt lat="43.5262251" lon="11.1097099"><ele>157.0</ele><time>2026-05-03T07:47:13.396Z</time></trkpt><trkpt lat="43.5262782" lon="11.1097934"><ele>156.0</ele><time>2026-05-03T07:47:14.402Z</time></trkpt><trkpt lat="43.5263306" lon="11.1098775"><ele>155.0</ele><time>2026-05-03T07:47:15.494Z</time></trkpt><trkpt lat="43.5263787" lon="11.1099625"><ele>154.0</ele><time>2026-05-03T07:47:16.466Z</time></trkpt><trkpt lat="43.5264319" lon="11.1100516"><ele>153.0</ele><time>2026-05-03T07:47:17.397Z</time></trkpt><trkpt lat="43.5264844" lon="11.1101462"><ele>152.0</ele><time>2026-05-03T07:47:18.403Z</time></trkpt><trkpt lat="43.5265312" lon="11.1102337"><ele>152.0</ele><time>2026-05-03T07:47:19.395Z</time></trkpt><trkpt lat="43.5265724" lon="11.1103126"><ele>152.0</ele><time>2026-05-03T07:47:20.379Z</time></trkpt><trkpt lat="43.5266078" lon="11.1103931"><ele>152.0</ele><time>2026-05-03T07:47:21.482Z</time></trkpt><trkpt lat="43.52665" lon="11.1104682"><ele>152.0</ele><time>2026-05-03T07:47:22.455Z</time></trkpt><trkpt lat="43.5267075" lon="11.1105384"><ele>152.0</ele><time>2026-05-03T07:47:23.406Z</time></trkpt><trkpt lat="43.5267663" lon="11.1106081"><ele>152.0</ele><time>2026-05-03T07:47:24.414Z</time></trkpt><trkpt lat="43.5268241" lon="11.1106616"><ele>152.0</ele><time>2026-05-03T07:47:25.416Z</time></trkpt><trkpt lat="43.5268808" lon="11.1107082"><ele>152.14285714285714</ele><time>2026-05-03T07:47:26.399Z</time></trkpt><trkpt lat="43.5269346" lon="11.1107542"><ele>152.2857142857143</ele><time>2026-05-03T07:47:27.401Z</time></trkpt><trkpt lat="43.5269885" lon="11.1108092"><ele>152.42857142857144</ele><time>2026-05-03T07:47:28.404Z</time></trkpt><trkpt lat="43.5270389" lon="11.1108722"><ele>152.57142857142856</ele><time>2026-05-03T07:47:29.412Z</time></trkpt><trkpt lat="43.5270887" lon="11.1109345"><ele>152.71428571428572</ele><time>2026-05-03T07:47:30.41Z</time></trkpt><trkpt lat="43.5271387" lon="11.1110005"><ele>152.85714285714286</ele><time>2026-05-03T07:47:31.413Z</time></trkpt><trkpt lat="43.527189" lon="11.1110605"><ele>153.0</ele><time>2026-05-03T07:47:32.392Z</time></trkpt><trkpt lat="43.5272892" lon="11.1111625"><ele>153.0</ele><time>2026-05-03T07:47:34.38Z</time></trkpt><trkpt lat="43.5273889" lon="11.1112548"><ele>153.0</ele><time>2026-05-03T07:47:36.392Z</time></trkpt><trkpt lat="43.5274861" lon="11.1113402"><ele>153.0</ele><time>2026-05-03T07:47:38.39Z</time></trkpt><trkpt lat="43.5275785" lon="11.1114104"><ele>153.0</ele><time>2026-05-03T07:47:40.387Z</time></trkpt><trkpt lat="43.5276678" lon="11.1114729"><ele>153.0</ele><time>2026-05-03T07:47:42.403Z</time></trkpt><trkpt lat="43.5277561" lon="11.1115321"><ele>153.28571428571428</ele><time>2026-05-03T07:47:44.389Z</time></trkpt><trkpt lat="43.5278169" lon="11.1115832"><ele>153.57142857142858</ele><time>2026-05-03T07:47:46.471Z</time></trkpt><trkpt lat="43.5278853" lon="11.111613"><ele>153.85714285714286</ele><time>2026-05-03T07:47:48.405Z</time></trkpt><trkpt lat="43.5279791" lon="11.1116316"><ele>154.14285714285714</ele><time>2026-05-03T07:47:50.468Z</time></trkpt><trkpt lat="43.5280434" lon="11.1116426"><ele>154.42857142857142</ele><time>2026-05-03T07:47:52.406Z</time></trkpt><trkpt lat="43.52811" lon="11.1116476"><ele>154.71428571428572</ele><time>2026-05-03T07:47:55.471Z</time></trkpt><trkpt lat="43.5281733" lon="11.111611"><ele>155.0</ele><time>2026-05-03T07:47:58.394Z</time></trkpt><trkpt lat="43.5282465" lon="11.1116125"><ele>155.57142857142858</ele><time>2026-05-03T07:48:01.472Z</time></trkpt><trkpt lat="43.528321" lon="11.1116048"><ele>156.14285714285714</ele><time>2026-05-03T07:48:04.405Z</time></trkpt><trkpt lat="43.5283908" lon="11.111604"><ele>156.71428571428572</ele><time>2026-05-03T07:48:08.397Z</time></trkpt><trkpt lat="43.5284577" lon="11.111593"><ele>157.28571428571428</ele><time>2026-05-03T07:48:12.394Z</time></trkpt><trkpt lat="43.5285293" lon="11.1115794"><ele>157.85714285714286</ele><time>2026-05-03T07:48:17.391Z</time></trkpt><trkpt lat="43.5285998" lon="11.1115715"><ele>158.42857142857142</ele><time>2026-05-03T07:48:21.474Z</time></trkpt><trkpt lat="43.5286648" lon="11.1115471"><ele>159.0</ele><time>2026-05-03T07:48:25.478Z</time></trkpt><trkpt lat="43.5287306" lon="11.1115206"><ele>159.5</ele><time>2026-05-03T07:48:33.403Z</time></trkpt><trkpt lat="43.5288081" lon="11.1114332"><ele>160.0</ele><time>2026-05-03T07:48:38.407Z</time></trkpt><trkpt lat="43.5288722" lon="11.1113811"><ele>160.5</ele><time>2026-05-03T07:48:42.4Z</time></trkpt><trkpt lat="43.5289349" lon="11.111368"><ele>161.0</ele><time>2026-05-03T07:48:47.403Z</time></trkpt><trkpt lat="43.5290028" lon="11.111333"><ele>161.5</ele><time>2026-05-03T07:48:53.403Z</time></trkpt><trkpt lat="43.52908" lon="11.1113702"><ele>162.0</ele><time>2026-05-03T07:48:58.396Z</time></trkpt><trkpt lat="43.5291734" lon="11.1114367"><ele>162.0</ele><time>2026-05-03T07:49:01.473Z</time></trkpt><trkpt lat="43.529256" lon="11.1115234"><ele>162.0</ele><time>2026-05-03T07:49:03.407Z</time></trkpt><trkpt lat="43.5293074" lon="11.1115812"><ele>162.0</ele><time>2026-05-03T07:49:04.408Z</time></trkpt><trkpt lat="43.5293544" lon="11.1116434"><ele>162.0</ele><time>2026-05-03T07:49:05.466Z</time></trkpt><trkpt lat="43.5293985" lon="11.1117102"><ele>162.0</ele><time>2026-05-03T07:49:06.472Z</time></trkpt><trkpt lat="43.5294476" lon="11.1117907"><ele>162.0</ele><time>2026-05-03T07:49:07.392Z</time></trkpt><trkpt lat="43.5294986" lon="11.1118741"><ele>161.83333333333334</ele><time>2026-05-03T07:49:08.409Z</time></trkpt><trkpt lat="43.5295589" lon="11.1119474"><ele>161.66666666666666</ele><time>2026-05-03T07:49:09.389Z</time></trkpt><trkpt lat="43.5296203" lon="11.1120198"><ele>161.5</ele><time>2026-05-03T07:49:10.468Z</time></trkpt><trkpt lat="43.5296768" lon="11.1120845"><ele>161.33333333333331</ele><time>2026-05-03T07:49:11.4Z</time></trkpt><trkpt lat="43.5297369" lon="11.1121448"><ele>161.16666666666666</ele><time>2026-05-03T07:49:12.404Z</time></trkpt><trkpt lat="43.5297915" lon="11.1121942"><ele>161.0</ele><time>2026-05-03T07:49:13.394Z</time></trkpt><trkpt lat="43.529885" lon="11.1122759"><ele>161.0</ele><time>2026-05-03T07:49:15.416Z</time></trkpt><trkpt lat="43.5299717" lon="11.1123556"><ele>161.0</ele><time>2026-05-03T07:49:17.403Z</time></trkpt><trkpt lat="43.5300557" lon="11.1124255"><ele>161.0</ele><time>2026-05-03T07:49:19.386Z</time></trkpt><trkpt lat="43.5301278" lon="11.1124921"><ele>161.0</ele><time>2026-05-03T07:49:21.412Z</time></trkpt><trkpt lat="43.5301942" lon="11.1125437"><ele>161.0</ele><time>2026-05-03T07:49:23.404Z</time></trkpt><trkpt lat="43.5302625" lon="11.1125844"><ele>161.0</ele><time>2026-05-03T07:49:25.396Z</time></trkpt><trkpt lat="43.5303356" lon="11.1126244"><ele>161.5</ele><time>2026-05-03T07:49:27.413Z</time></trkpt><trkpt lat="43.5304208" lon="11.1126552"><ele>162.0</ele><time>2026-05-03T07:49:29.406Z</time></trkpt><trkpt lat="43.5305145" lon="11.1126905"><ele>162.5</ele><time>2026-05-03T07:49:31.472Z</time></trkpt><trkpt lat="43.5307691" lon="11.1127623"><ele>163.0</ele><time>2026-05-03T07:49:36.465Z</time></trkpt><trkpt lat="43.5309237" lon="11.1127705"><ele>163.0</ele><time>2026-05-03T07:49:38.402Z</time></trkpt><trkpt lat="43.5309667" lon="11.1128398"><ele>163.0</ele><time>2026-05-03T07:49:40.415Z</time></trkpt><trkpt lat="43.5310707" lon="11.1128469"><ele>163.0</ele><time>2026-05-03T07:49:42.417Z</time></trkpt><trkpt lat="43.5311534" lon="11.1128628"><ele>163.0</ele><time>2026-05-03T07:49:44.408Z</time></trkpt><trkpt lat="43.531239" lon="11.1128715"><ele>163.0</ele><time>2026-05-03T07:49:46.415Z</time></trkpt><trkpt lat="43.5313169" lon="11.1128804"><ele>163.0</ele><time>2026-05-03T07:49:48.401Z</time></trkpt><trkpt lat="43.5313921" lon="11.1128947"><ele>162.5</ele><time>2026-05-03T07:49:50.409Z</time></trkpt><trkpt lat="43.5314726" lon="11.1128967"><ele>162.0</ele><time>2026-05-03T07:49:52.413Z</time></trkpt><trkpt lat="43.5315647" lon="11.1129311"><ele>161.5</ele><time>2026-05-03T07:49:54.407Z</time></trkpt><trkpt lat="43.5316537" lon="11.112969"><ele>161.0</ele><time>2026-05-03T07:49:56.436Z</time></trkpt><trkpt lat="43.5317282" lon="11.1130131"><ele>160.5</ele><time>2026-05-03T07:49:58.415Z</time></trkpt><trkpt lat="43.5317753" lon="11.1130899"><ele>160.0</ele><time>2026-05-03T07:50:00.39Z</time></trkpt><trkpt lat="43.5318183" lon="11.1131772"><ele>159.42857142857142</ele><time>2026-05-03T07:50:02.416Z</time></trkpt><trkpt lat="43.5318516" lon="11.11328"><ele>158.85714285714286</ele><time>2026-05-03T07:50:04.408Z</time></trkpt><trkpt lat="43.5318808" lon="11.1133658"><ele>158.28571428571428</ele><time>2026-05-03T07:50:06.487Z</time></trkpt><trkpt lat="43.5318992" lon="11.1134828"><ele>157.71428571428572</ele><time>2026-05-03T07:50:09.406Z</time></trkpt><trkpt lat="43.5319291" lon="11.1135617"><ele>157.14285714285714</ele><time>2026-05-03T07:50:12.406Z</time></trkpt><trkpt lat="43.5319543" lon="11.1136416"><ele>156.57142857142858</ele><time>2026-05-03T07:50:14.425Z</time></trkpt><trkpt lat="43.5319903" lon="11.1137257"><ele>156.0</ele><time>2026-05-03T07:50:16.411Z</time></trkpt><trkpt lat="43.5320347" lon="11.1137957"><ele>156.14285714285714</ele><time>2026-05-03T07:50:18.412Z</time></trkpt><trkpt lat="43.5320782" lon="11.1138589"><ele>156.28571428571428</ele><time>2026-05-03T07:50:20.415Z</time></trkpt><trkpt lat="43.5321309" lon="11.1139138"><ele>156.42857142857142</ele><time>2026-05-03T07:50:22.415Z</time></trkpt><trkpt lat="43.5321952" lon="11.1139935"><ele>156.57142857142856</ele><time>2026-05-03T07:50:25.417Z</time></trkpt><trkpt lat="43.5322502" lon="11.1140384"><ele>156.71428571428572</ele><time>2026-05-03T07:50:27.413Z</time></trkpt><trkpt lat="43.5323142" lon="11.1140766"><ele>156.85714285714283</ele><time>2026-05-03T07:50:29.397Z</time></trkpt><trkpt lat="43.5323795" lon="11.114105"><ele>157.0</ele><time>2026-05-03T07:50:31.413Z</time></trkpt><trkpt lat="43.5324482" lon="11.1141236"><ele>157.5</ele><time>2026-05-03T07:50:33.41Z</time></trkpt><trkpt lat="43.5325121" lon="11.1141418"><ele>158.0</ele><time>2026-05-03T07:50:35.408Z</time></trkpt><trkpt lat="43.5325764" lon="11.114147"><ele>158.5</ele><time>2026-05-03T07:50:37.399Z</time></trkpt><trkpt lat="43.5326634" lon="11.1141585"><ele>159.0</ele><time>2026-05-03T07:50:40.411Z</time></trkpt><trkpt lat="43.5327511" lon="11.1141879"><ele>159.5</ele><time>2026-05-03T07:50:43.406Z</time></trkpt><trkpt lat="43.5328445" lon="11.1142"><ele>160.0</ele><time>2026-05-03T07:50:46.471Z</time></trkpt><trkpt lat="43.5329093" lon="11.1142188"><ele>160.0</ele><time>2026-05-03T07:50:49.402Z</time></trkpt><trkpt lat="43.5329846" lon="11.1142208"><ele>160.0</ele><time>2026-05-03T07:50:51.404Z</time></trkpt><trkpt lat="43.5330579" lon="11.1142034"><ele>160.0</ele><time>2026-05-03T07:50:53.406Z</time></trkpt><trkpt lat="43.5331547" lon="11.1142477"><ele>160.0</ele><time>2026-05-03T07:50:56.402Z</time></trkpt><trkpt lat="43.5332311" lon="11.1142412"><ele>160.0</ele><time>2026-05-03T07:50:58.42Z</time></trkpt><trkpt lat="43.5333033" lon="11.1142423"><ele>160.0</ele><time>2026-05-03T07:51:00.412Z</time></trkpt><trkpt lat="43.5333908" lon="11.1142616"><ele>160.0</ele><time>2026-05-03T07:51:02.406Z</time></trkpt><trkpt lat="43.5334995" lon="11.1142617"><ele>160.0</ele><time>2026-05-03T07:51:04.414Z</time></trkpt><trkpt lat="43.5336207" lon="11.1142505"><ele>160.0</ele><time>2026-05-03T07:51:06.401Z</time></trkpt><trkpt lat="43.5336893" lon="11.1142497"><ele>160.0</ele><time>2026-05-03T07:51:07.396Z</time></trkpt><trkpt lat="43.5337626" lon="11.1142546"><ele>160.0</ele><time>2026-05-03T07:51:08.404Z</time></trkpt><trkpt lat="43.5338378" lon="11.1142566"><ele>160.0</ele><time>2026-05-03T07:51:09.389Z</time></trkpt><trkpt lat="43.5339151" lon="11.1142552"><ele>159.71428571428572</ele><time>2026-05-03T07:51:10.4Z</time></trkpt><trkpt lat="43.5339957" lon="11.1142614"><ele>159.42857142857144</ele><time>2026-05-03T07:51:11.477Z</time></trkpt><trkpt lat="43.5340726" lon="11.1142736"><ele>159.14285714285717</ele><time>2026-05-03T07:51:12.406Z</time></trkpt><trkpt lat="43.5341494" lon="11.1142943"><ele>158.85714285714286</ele><time>2026-05-03T07:51:13.399Z</time></trkpt><trkpt lat="43.5342218" lon="11.1143165"><ele>158.57142857142858</ele><time>2026-05-03T07:51:14.413Z</time></trkpt><trkpt lat="43.5342918" lon="11.1143356"><ele>158.2857142857143</ele><time>2026-05-03T07:51:15.481Z</time></trkpt><trkpt lat="43.5343534" lon="11.1143549"><ele>158.0</ele><time>2026-05-03T07:51:16.416Z</time></trkpt><trkpt lat="43.5344706" lon="11.1143898"><ele>158.60000000000002</ele><time>2026-05-03T07:51:18.4Z</time></trkpt><trkpt lat="43.5345765" lon="11.1144057"><ele>159.20000000000002</ele><time>2026-05-03T07:51:20.381Z</time></trkpt><trkpt lat="43.5346683" lon="11.1144162"><ele>159.8</ele><time>2026-05-03T07:51:22.394Z</time></trkpt><trkpt lat="43.5347416" lon="11.1144651"><ele>160.4</ele><time>2026-05-03T07:51:24.408Z</time></trkpt><trkpt lat="43.5348239" lon="11.1145275"><ele>161.0</ele><time>2026-05-03T07:51:26.404Z</time></trkpt><trkpt lat="43.5349053" lon="11.1145821"><ele>161.0</ele><time>2026-05-03T07:51:28.419Z</time></trkpt><trkpt lat="43.5349837" lon="11.1146345"><ele>161.0</ele><time>2026-05-03T07:51:30.41Z</time></trkpt><trkpt lat="43.5350546" lon="11.114701"><ele>161.0</ele><time>2026-05-03T07:51:32.394Z</time></trkpt><trkpt lat="43.5351302" lon="11.1147521"><ele>161.0</ele><time>2026-05-03T07:51:34.419Z</time></trkpt><trkpt lat="43.535207" lon="11.1147983"><ele>161.0</ele><time>2026-05-03T07:51:36.392Z</time></trkpt><trkpt lat="43.5352858" lon="11.11485"><ele>161.0</ele><time>2026-05-03T07:51:38.397Z</time></trkpt><trkpt lat="43.5353594" lon="11.1149024"><ele>161.66666666666666</ele><time>2026-05-03T07:51:40.399Z</time></trkpt><trkpt lat="43.5354299" lon="11.1149496"><ele>162.33333333333331</ele><time>2026-05-03T07:51:42.414Z</time></trkpt><trkpt lat="43.5355005" lon="11.1149988"><ele>163.0</ele><time>2026-05-03T07:51:44.412Z</time></trkpt><trkpt lat="43.5355685" lon="11.1150377"><ele>163.66666666666666</ele><time>2026-05-03T07:51:46.387Z</time></trkpt><trkpt lat="43.5356345" lon="11.1150561"><ele>164.33333333333334</ele><time>2026-05-03T07:51:48.393Z</time></trkpt><trkpt lat="43.5357007" lon="11.1150913"><ele>165.0</ele><time>2026-05-03T07:51:50.395Z</time></trkpt><trkpt lat="43.5357817" lon="11.115143"><ele>165.0</ele><time>2026-05-03T07:51:53.384Z</time></trkpt><trkpt lat="43.5358545" lon="11.1151742"><ele>165.0</ele><time>2026-05-03T07:51:56.392Z</time></trkpt><trkpt lat="43.5359258" lon="11.1152137"><ele>165.0</ele><time>2026-05-03T07:52:00.395Z</time></trkpt><trkpt lat="43.5359883" lon="11.1152401"><ele>165.0</ele><time>2026-05-03T07:52:03.403Z</time></trkpt><trkpt lat="43.5360511" lon="11.1152646"><ele>165.0</ele><time>2026-05-03T07:52:06.402Z</time></trkpt><trkpt lat="43.5361271" lon="11.1153271"><ele>165.0</ele><time>2026-05-03T07:52:09.421Z</time></trkpt><trkpt lat="43.5361949" lon="11.1153928"><ele>165.5</ele><time>2026-05-03T07:52:12.391Z</time></trkpt><trkpt lat="43.5362593" lon="11.1154552"><ele>166.0</ele><time>2026-05-03T07:52:15.395Z</time></trkpt><trkpt lat="43.5363319" lon="11.1155265"><ele>166.5</ele><time>2026-05-03T07:52:18.406Z</time></trkpt><trkpt lat="43.5364068" lon="11.115615"><ele>167.0</ele><time>2026-05-03T07:52:21.429Z</time></trkpt><trkpt lat="43.5364599" lon="11.1156845"><ele>167.5</ele><time>2026-05-03T07:52:23.404Z</time></trkpt><trkpt lat="43.5365129" lon="11.1157445"><ele>168.0</ele><time>2026-05-03T07:52:25.407Z</time></trkpt><trkpt lat="43.5365701" lon="11.1157963"><ele>168.0</ele><time>2026-05-03T07:52:27.405Z</time></trkpt><trkpt lat="43.5366319" lon="11.1158425"><ele>168.0</ele><time>2026-05-03T07:52:29.411Z</time></trkpt><trkpt lat="43.5366975" lon="11.1158801"><ele>168.0</ele><time>2026-05-03T07:52:31.395Z</time></trkpt><trkpt lat="43.5367647" lon="11.1159136"><ele>168.0</ele><time>2026-05-03T07:52:33.4Z</time></trkpt><trkpt lat="43.5368387" lon="11.1159518"><ele>168.0</ele><time>2026-05-03T07:52:35.433Z</time></trkpt><trkpt lat="43.536923" lon="11.1159666"><ele>168.0</ele><time>2026-05-03T07:52:37.411Z</time></trkpt><trkpt lat="43.5369975" lon="11.1159785"><ele>168.83333333333334</ele><time>2026-05-03T07:52:39.415Z</time></trkpt><trkpt lat="43.5370802" lon="11.115986"><ele>169.66666666666666</ele><time>2026-05-03T07:52:41.396Z</time></trkpt><trkpt lat="43.537155" lon="11.1160039"><ele>170.5</ele><time>2026-05-03T07:52:43.407Z</time></trkpt><trkpt lat="43.5372275" lon="11.1160179"><ele>171.33333333333331</ele><time>2026-05-03T07:52:45.399Z</time></trkpt><trkpt lat="43.5372989" lon="11.1160399"><ele>172.16666666666666</ele><time>2026-05-03T07:52:47.413Z</time></trkpt><trkpt lat="43.5373686" lon="11.1160594"><ele>173.0</ele><time>2026-05-03T07:52:49.4Z</time></trkpt><trkpt lat="43.5374364" lon="11.1160982"><ele>173.0</ele><time>2026-05-03T07:52:51.401Z</time></trkpt><trkpt lat="43.537502" lon="11.1161406"><ele>173.0</ele><time>2026-05-03T07:52:53.408Z</time></trkpt><trkpt lat="43.537562" lon="11.1161835"><ele>173.0</ele><time>2026-05-03T07:52:55.415Z</time></trkpt><trkpt lat="43.5376195" lon="11.1162354"><ele>173.0</ele><time>2026-05-03T07:52:57.397Z</time></trkpt><trkpt lat="43.5376917" lon="11.1163152"><ele>173.0</ele><time>2026-05-03T07:53:00.398Z</time></trkpt><trkpt lat="43.5377362" lon="11.1163881"><ele>173.0</ele><time>2026-05-03T07:53:02.418Z</time></trkpt><trkpt lat="43.5377828" lon="11.1164663"><ele>173.0</ele><time>2026-05-03T07:53:04.407Z</time></trkpt><trkpt lat="43.5378235" lon="11.1165392"><ele>172.0</ele><time>2026-05-03T07:53:06.406Z</time></trkpt><trkpt lat="43.5378675" lon="11.1166104"><ele>171.0</ele><time>2026-05-03T07:53:08.405Z</time></trkpt><trkpt lat="43.5379149" lon="11.1166922"><ele>170.0</ele><time>2026-05-03T07:53:10.394Z</time></trkpt><trkpt lat="43.5379562" lon="11.1167848"><ele>169.0</ele><time>2026-05-03T07:53:12.406Z</time></trkpt><trkpt lat="43.5380003" lon="11.1168816"><ele>168.0</ele><time>2026-05-03T07:53:14.415Z</time></trkpt><trkpt lat="43.5380403" lon="11.116979"><ele>167.0</ele><time>2026-05-03T07:53:16.44Z</time></trkpt><trkpt lat="43.538079" lon="11.117063"><ele>167.0</ele><time>2026-05-03T07:53:18.4Z</time></trkpt><trkpt lat="43.5381158" lon="11.1171446"><ele>167.0</ele><time>2026-05-03T07:53:20.419Z</time></trkpt><trkpt lat="43.5381579" lon="11.1172242"><ele>167.0</ele><time>2026-05-03T07:53:22.419Z</time></trkpt><trkpt lat="43.5382018" lon="11.117304"><ele>167.0</ele><time>2026-05-03T07:53:24.424Z</time></trkpt><trkpt lat="43.5382396" lon="11.1173957"><ele>167.0</ele><time>2026-05-03T07:53:26.419Z</time></trkpt><trkpt lat="43.5382866" lon="11.1174814"><ele>167.0</ele><time>2026-05-03T07:53:28.409Z</time></trkpt><trkpt lat="43.5383397" lon="11.1175636"><ele>167.0</ele><time>2026-05-03T07:53:30.406Z</time></trkpt><trkpt lat="43.538398" lon="11.1176406"><ele>167.0</ele><time>2026-05-03T07:53:32.411Z</time></trkpt><trkpt lat="43.5384538" lon="11.117721"><ele>167.0</ele><time>2026-05-03T07:53:34.413Z</time></trkpt><trkpt lat="43.5385103" lon="11.1178039"><ele>167.0</ele><time>2026-05-03T07:53:36.401Z</time></trkpt><trkpt lat="43.5385644" lon="11.1178891"><ele>167.0</ele><time>2026-05-03T07:53:38.415Z</time></trkpt><trkpt lat="43.5386205" lon="11.1179703"><ele>167.0</ele><time>2026-05-03T07:53:40.43Z</time></trkpt><trkpt lat="43.5386793" lon="11.1180446"><ele>167.0</ele><time>2026-05-03T07:53:42.397Z</time></trkpt><trkpt lat="43.5387365" lon="11.1181192"><ele>167.0</ele><time>2026-05-03T07:53:44.413Z</time></trkpt><trkpt lat="43.5387927" lon="11.1182029"><ele>167.0</ele><time>2026-05-03T07:53:46.394Z</time></trkpt><trkpt lat="43.5388533" lon="11.1182713"><ele>167.0</ele><time>2026-05-03T07:53:48.386Z</time></trkpt><trkpt lat="43.5389116" lon="11.1183345"><ele>167.0</ele><time>2026-05-03T07:53:50.414Z</time></trkpt><trkpt lat="43.5389704" lon="11.1184065"><ele>167.0</ele><time>2026-05-03T07:53:52.408Z</time></trkpt><trkpt lat="43.5390274" lon="11.1184784"><ele>167.0</ele><time>2026-05-03T07:53:54.409Z</time></trkpt><trkpt lat="43.5390802" lon="11.1185509"><ele>167.66666666666666</ele><time>2026-05-03T07:53:56.415Z</time></trkpt><trkpt lat="43.5391356" lon="11.1186156"><ele>168.33333333333331</ele><time>2026-05-03T07:53:58.42Z</time></trkpt><trkpt lat="43.5391877" lon="11.1186791"><ele>169.0</ele><time>2026-05-03T07:54:00.411Z</time></trkpt><trkpt lat="43.5392557" lon="11.1187722"><ele>169.66666666666666</ele><time>2026-05-03T07:54:03.4Z</time></trkpt><trkpt lat="43.5393186" lon="11.1188467"><ele>170.33333333333334</ele><time>2026-05-03T07:54:06.41Z</time></trkpt><trkpt lat="43.5393732" lon="11.1189316"><ele>171.0</ele><time>2026-05-03T07:54:09.417Z</time></trkpt><trkpt lat="43.5394152" lon="11.119021"><ele>170.85714285714283</ele><time>2026-05-03T07:54:12.4Z</time></trkpt><trkpt lat="43.5394616" lon="11.1190925"><ele>170.71428571428572</ele><time>2026-05-03T07:54:15.47Z</time></trkpt><trkpt lat="43.5395091" lon="11.1191828"><ele>170.57142857142856</ele><time>2026-05-03T07:54:19.407Z</time></trkpt><trkpt lat="43.5395453" lon="11.119257"><ele>170.42857142857142</ele><time>2026-05-03T07:54:22.387Z</time></trkpt><trkpt lat="43.5395781" lon="11.1193528"><ele>170.28571428571428</ele><time>2026-05-03T07:54:26.412Z</time></trkpt><trkpt lat="43.5396138" lon="11.1194393"><ele>170.14285714285714</ele><time>2026-05-03T07:54:30.413Z</time></trkpt><trkpt lat="43.5396546" lon="11.1195184"><ele>170.0</ele><time>2026-05-03T07:54:34.389Z</time></trkpt><trkpt lat="43.5397087" lon="11.1195793"><ele>171.71428571428572</ele><time>2026-05-03T07:54:38.388Z</time></trkpt><trkpt lat="43.5397481" lon="11.1196551"><ele>173.42857142857142</ele><time>2026-05-03T07:54:42.475Z</time></trkpt><trkpt lat="43.5397844" lon="11.1197379"><ele>175.14285714285714</ele><time>2026-05-03T07:54:46.405Z</time></trkpt><trkpt lat="43.5398288" lon="11.1198195"><ele>176.85714285714286</ele><time>2026-05-03T07:54:51.471Z</time></trkpt><trkpt lat="43.5398747" lon="11.1198917"><ele>178.57142857142856</ele><time>2026-05-03T07:54:55.415Z</time></trkpt><trkpt lat="43.5399167" lon="11.1199714"><ele>180.28571428571428</ele><time>2026-05-03T07:55:00.401Z</time></trkpt><trkpt lat="43.5399618" lon="11.1200356"><ele>182.0</ele><time>2026-05-03T07:55:05.399Z</time></trkpt><trkpt lat="43.5399978" lon="11.1201177"><ele>182.42857142857142</ele><time>2026-05-03T07:55:10.478Z</time></trkpt><trkpt lat="43.5400473" lon="11.1201832"><ele>182.85714285714286</ele><time>2026-05-03T07:55:17.401Z</time></trkpt><trkpt lat="43.5401012" lon="11.1202583"><ele>183.28571428571428</ele><time>2026-05-03T07:55:25.409Z</time></trkpt><trkpt lat="43.5401489" lon="11.1203198"><ele>183.71428571428572</ele><time>2026-05-03T07:55:31.402Z</time></trkpt><trkpt lat="43.5402047" lon="11.1204123"><ele>184.14285714285714</ele><time>2026-05-03T07:55:51.389Z</time></trkpt><trkpt lat="43.5402508" lon="11.1204994"><ele>184.57142857142856</ele><time>2026-05-03T07:55:54.408Z</time></trkpt><trkpt lat="43.5402934" lon="11.1205748"><ele>185.0</ele><time>2026-05-03T07:55:59.401Z</time></trkpt><trkpt lat="43.5403594" lon="11.1206405"><ele>185.28571428571428</ele><time>2026-05-03T07:56:07.402Z</time></trkpt><trkpt lat="43.5404149" lon="11.1206946"><ele>185.57142857142856</ele><time>2026-05-03T07:56:14.413Z</time></trkpt><trkpt lat="43.5404469" lon="11.1207782"><ele>185.85714285714283</ele><time>2026-05-03T07:56:21.4Z</time></trkpt><trkpt lat="43.5404839" lon="11.1208647"><ele>186.14285714285714</ele><time>2026-05-03T07:56:25.466Z</time></trkpt><trkpt lat="43.5405184" lon="11.1209526"><ele>186.42857142857144</ele><time>2026-05-03T07:56:33.394Z</time></trkpt><trkpt lat="43.5405519" lon="11.1210371"><ele>186.7142857142857</ele><time>2026-05-03T07:56:38.388Z</time></trkpt><trkpt lat="43.5405163" lon="11.1211162"><ele>187.0</ele><time>2026-05-03T07:56:44.407Z</time></trkpt><trkpt lat="43.5404899" lon="11.1212017"><ele>187.42857142857142</ele><time>2026-05-03T07:56:49.397Z</time></trkpt><trkpt lat="43.5404673" lon="11.1212835"><ele>187.85714285714286</ele><time>2026-05-03T07:56:53.388Z</time></trkpt><trkpt lat="43.5404312" lon="11.1213674"><ele>188.28571428571428</ele><time>2026-05-03T07:56:58.408Z</time></trkpt><trkpt lat="43.5403936" lon="11.1214423"><ele>188.71428571428572</ele><time>2026-05-03T07:57:03.41Z</time></trkpt><trkpt lat="43.5403312" lon="11.121499"><ele>189.14285714285717</ele><time>2026-05-03T07:57:08.409Z</time></trkpt><trkpt lat="43.5402788" lon="11.1215605"><ele>189.57142857142858</ele><time>2026-05-03T07:57:13.406Z</time></trkpt><trkpt lat="43.540237" lon="11.1216347"><ele>190.0</ele><time>2026-05-03T07:57:18.415Z</time></trkpt><trkpt lat="43.5401931" lon="11.121726"><ele>191.14285714285714</ele><time>2026-05-03T07:57:23.398Z</time></trkpt><trkpt lat="43.5402122" lon="11.1218146"><ele>192.28571428571428</ele><time>2026-05-03T07:57:28.38Z</time></trkpt><trkpt lat="43.5401858" lon="11.1219063"><ele>193.42857142857144</ele><time>2026-05-03T07:57:32.411Z</time></trkpt><trkpt lat="43.5402005" lon="11.1219956"><ele>194.57142857142856</ele><time>2026-05-03T07:57:36.463Z</time></trkpt><trkpt lat="43.5402225" lon="11.1220877"><ele>195.7142857142857</ele><time>2026-05-03T07:57:40.406Z</time></trkpt><trkpt lat="43.540269" lon="11.1221624"><ele>196.85714285714286</ele><time>2026-05-03T07:57:44.391Z</time></trkpt><trkpt lat="43.5403242" lon="11.122211"><ele>198.0</ele><time>2026-05-03T07:57:48.383Z</time></trkpt><trkpt lat="43.5403832" lon="11.1222621"><ele>198.57142857142858</ele><time>2026-05-03T07:57:53.395Z</time></trkpt><trkpt lat="43.5404426" lon="11.1223146"><ele>199.14285714285714</ele><time>2026-05-03T07:57:59.419Z</time></trkpt><trkpt lat="43.5405074" lon="11.1223614"><ele>199.71428571428572</ele><time>2026-05-03T07:58:04.413Z</time></trkpt><trkpt lat="43.5405597" lon="11.122413"><ele>200.28571428571428</ele><time>2026-05-03T07:58:09.401Z</time></trkpt><trkpt lat="43.5406096" lon="11.1224733"><ele>200.85714285714283</ele><time>2026-05-03T07:58:21.417Z</time></trkpt><trkpt lat="43.5406654" lon="11.122547"><ele>201.42857142857142</ele><time>2026-05-03T07:58:34.388Z</time></trkpt><trkpt lat="43.5407242" lon="11.1226292"><ele>202.0</ele><time>2026-05-03T07:58:37.423Z</time></trkpt><trkpt lat="43.5407765" lon="11.1226885"><ele>204.0</ele><time>2026-05-03T07:58:42.416Z</time></trkpt><trkpt lat="43.540819" lon="11.1227542"><ele>206.0</ele><time>2026-05-03T07:58:46.403Z</time></trkpt><trkpt lat="43.5408446" lon="11.1228369"><ele>208.0</ele><time>2026-05-03T07:58:51.399Z</time></trkpt><trkpt lat="43.54082" lon="11.1229174"><ele>210.0</ele><time>2026-05-03T07:58:57.402Z</time></trkpt><trkpt lat="43.5407537" lon="11.1229848"><ele>212.0</ele><time>2026-05-03T07:59:12.406Z</time></trkpt><trkpt lat="43.5406991" lon="11.1230473"><ele>214.0</ele><time>2026-05-03T07:59:20.404Z</time></trkpt><trkpt lat="43.5406446" lon="11.1230932"><ele>216.0</ele><time>2026-05-03T07:59:27.413Z</time></trkpt><trkpt lat="43.5405851" lon="11.1231485"><ele>216.0</ele><time>2026-05-03T07:59:34.413Z</time></trkpt><trkpt lat="43.5405144" lon="11.1232299"><ele>216.0</ele><time>2026-05-03T07:59:53.41Z</time></trkpt><trkpt lat="43.5404688" lon="11.1232953"><ele>216.0</ele><time>2026-05-03T07:59:58.41Z</time></trkpt><trkpt lat="43.5404278" lon="11.123378"><ele>216.0</ele><time>2026-05-03T08:00:04.4Z</time></trkpt><trkpt lat="43.5403921" lon="11.1234636"><ele>216.0</ele><time>2026-05-03T08:00:11.403Z</time></trkpt><trkpt lat="43.5403571" lon="11.1235467"><ele>216.0</ele><time>2026-05-03T08:00:16.389Z</time></trkpt><trkpt lat="43.5403294" lon="11.1236362"><ele>216.0</ele><time>2026-05-03T08:00:22.413Z</time></trkpt><trkpt lat="43.5403054" lon="11.123719"><ele>217.14285714285714</ele><time>2026-05-03T08:00:26.4Z</time></trkpt><trkpt lat="43.5402752" lon="11.1238105"><ele>218.28571428571428</ele><time>2026-05-03T08:00:36.419Z</time></trkpt><trkpt lat="43.5402429" lon="11.1238854"><ele>219.42857142857144</ele><time>2026-05-03T08:00:39.405Z</time></trkpt><trkpt lat="43.5402177" lon="11.123973"><ele>220.57142857142856</ele><time>2026-05-03T08:00:43.414Z</time></trkpt><trkpt lat="43.5401973" lon="11.1240685"><ele>221.71428571428572</ele><time>2026-05-03T08:00:49.406Z</time></trkpt><trkpt lat="43.5402058" lon="11.1241711"><ele>222.85714285714286</ele><time>2026-05-03T08:00:56.41Z</time></trkpt><trkpt lat="43.5401978" lon="11.1242637"><ele>224.0</ele><time>2026-05-03T08:01:04.402Z</time></trkpt><trkpt lat="43.540209" lon="11.1243517"><ele>225.85714285714286</ele><time>2026-05-03T08:01:10.401Z</time></trkpt><trkpt lat="43.5402194" lon="11.1244504"><ele>227.71428571428572</ele><time>2026-05-03T08:01:17.411Z</time></trkpt><trkpt lat="43.5402028" lon="11.1245509"><ele>229.57142857142856</ele><time>2026-05-03T08:01:34.404Z</time></trkpt><trkpt lat="43.5401916" lon="11.1246376"><ele>231.42857142857142</ele><time>2026-05-03T08:01:38.414Z</time></trkpt><trkpt lat="43.5401937" lon="11.1247439"><ele>233.28571428571428</ele><time>2026-05-03T08:01:41.491Z</time></trkpt><trkpt lat="43.5402127" lon="11.1248459"><ele>235.1428571428571</ele><time>2026-05-03T08:01:44.406Z</time></trkpt><trkpt lat="43.5402257" lon="11.1249506"><ele>236.99999999999997</ele><time>2026-05-03T08:01:48.398Z</time></trkpt><trkpt lat="43.5402548" lon="11.1250532"><ele>237.1428571428571</ele><time>2026-05-03T08:01:53.414Z</time></trkpt><trkpt lat="43.5403012" lon="11.1251178"><ele>237.28571428571428</ele><time>2026-05-03T08:01:58.406Z</time></trkpt><trkpt lat="43.5403409" lon="11.1251894"><ele>237.42857142857142</ele><time>2026-05-03T08:02:05.418Z</time></trkpt><trkpt lat="43.5403827" lon="11.1252675"><ele>237.57142857142856</ele><time>2026-05-03T08:02:17.409Z</time></trkpt><trkpt lat="43.540436" lon="11.1253485"><ele>237.71428571428572</ele><time>2026-05-03T08:02:21.482Z</time></trkpt><trkpt lat="43.540502" lon="11.1254"><ele>237.85714285714286</ele><time>2026-05-03T08:02:33.4Z</time></trkpt><trkpt lat="43.5405634" lon="11.1254778"><ele>238.0</ele><time>2026-05-03T08:02:36.4Z</time></trkpt><trkpt lat="43.5406087" lon="11.1255622"><ele>241.33333333333331</ele><time>2026-05-03T08:02:52.469Z</time></trkpt><trkpt lat="43.5406769" lon="11.1256344"><ele>244.66666666666666</ele><time>2026-05-03T08:02:55.402Z</time></trkpt><trkpt lat="43.5407326" lon="11.1256976"><ele>248.0</ele><time>2026-05-03T08:03:08.397Z</time></trkpt><trkpt lat="43.5407841" lon="11.1257546"><ele>251.33333333333331</ele><time>2026-05-03T08:03:14.404Z</time></trkpt><trkpt lat="43.540846" lon="11.1257785"><ele>254.66666666666666</ele><time>2026-05-03T08:03:20.407Z</time></trkpt><trkpt lat="43.5409473" lon="11.1257856"><ele>258.0</ele><time>2026-05-03T08:03:37.47Z</time></trkpt><trkpt lat="43.5410231" lon="11.1258165"><ele>257.99999999999994</ele><time>2026-05-03T08:03:41.415Z</time></trkpt><trkpt lat="43.5410649" lon="11.1258936"><ele>258.0</ele><time>2026-05-03T08:03:45.409Z</time></trkpt><trkpt lat="43.5411048" lon="11.1259618"><ele>258.0</ele><time>2026-05-03T08:03:48.406Z</time></trkpt><trkpt lat="43.5411172" lon="11.1260621"><ele>258.0</ele><time>2026-05-03T08:03:52.408Z</time></trkpt><trkpt lat="43.5411272" lon="11.126153"><ele>258.0</ele><time>2026-05-03T08:03:56.412Z</time></trkpt><trkpt lat="43.5411364" lon="11.1262432"><ele>257.99999999999994</ele><time>2026-05-03T08:04:00.401Z</time></trkpt><trkpt lat="43.5411373" lon="11.1263552"><ele>258.0</ele><time>2026-05-03T08:04:04.409Z</time></trkpt><trkpt lat="43.5411572" lon="11.1264485"><ele>258.0</ele><time>2026-05-03T08:04:09.4Z</time></trkpt><trkpt lat="43.5411697" lon="11.1265504"><ele>258.0</ele><time>2026-05-03T08:04:15.391Z</time></trkpt><trkpt lat="43.5411708" lon="11.1266427"><ele>258.0</ele><time>2026-05-03T08:04:21.42Z</time></trkpt><trkpt lat="43.5411769" lon="11.1267294"><ele>258.0</ele><time>2026-05-03T08:04:26.416Z</time></trkpt><trkpt lat="43.5411878" lon="11.1268241"><ele>258.0</ele><time>2026-05-03T08:04:32.474Z</time></trkpt><trkpt lat="43.5411669" lon="11.1269952"><ele>258.0</ele><time>2026-05-03T08:04:40.403Z</time></trkpt><trkpt lat="43.5412" lon="11.1270858"><ele>258.85714285714283</ele><time>2026-05-03T08:04:48.398Z</time></trkpt><trkpt lat="43.5412321" lon="11.1271685"><ele>259.7142857142857</ele><time>2026-05-03T08:04:53.412Z</time></trkpt><trkpt lat="43.5412309" lon="11.1272594"><ele>260.57142857142856</ele><time>2026-05-03T08:04:59.397Z</time></trkpt><trkpt lat="43.5412414" lon="11.1273451"><ele>261.42857142857144</ele><time>2026-05-03T08:05:04.402Z</time></trkpt><trkpt lat="43.5412612" lon="11.1274284"><ele>262.2857142857143</ele><time>2026-05-03T08:05:09.413Z</time></trkpt><trkpt lat="43.5412654" lon="11.1275165"><ele>263.1428571428571</ele><time>2026-05-03T08:05:15.408Z</time></trkpt><trkpt lat="43.5412643" lon="11.1276325"><ele>264.0</ele><time>2026-05-03T08:05:21.478Z</time></trkpt><trkpt lat="43.54128" lon="11.1277278"><ele>265.2857142857143</ele><time>2026-05-03T08:05:27.468Z</time></trkpt><trkpt lat="43.5412864" lon="11.1278253"><ele>266.57142857142856</ele><time>2026-05-03T08:05:34.416Z</time></trkpt><trkpt lat="43.5413165" lon="11.1279106"><ele>267.8571428571429</ele><time>2026-05-03T08:05:39.402Z</time></trkpt><trkpt lat="43.5412983" lon="11.1280159"><ele>269.1428571428571</ele><time>2026-05-03T08:05:44.398Z</time></trkpt><trkpt lat="43.5413197" lon="11.1281126"><ele>270.42857142857144</ele><time>2026-05-03T08:05:52.398Z</time></trkpt><trkpt lat="43.541337" lon="11.1281982"><ele>271.7142857142857</ele><time>2026-05-03T08:05:58.399Z</time></trkpt><trkpt lat="43.5413273" lon="11.1282853"><ele>273.0</ele><time>2026-05-03T08:06:03.415Z</time></trkpt><trkpt lat="43.5413311" lon="11.1283819"><ele>274.14285714285717</ele><time>2026-05-03T08:06:09.411Z</time></trkpt><trkpt lat="43.5413328" lon="11.1284694"><ele>275.2857142857143</ele><time>2026-05-03T08:06:13.394Z</time></trkpt><trkpt lat="43.5413496" lon="11.128555"><ele>276.42857142857144</ele><time>2026-05-03T08:06:19.403Z</time></trkpt><trkpt lat="43.5413743" lon="11.128649"><ele>277.57142857142856</ele><time>2026-05-03T08:06:27.486Z</time></trkpt><trkpt lat="43.5413766" lon="11.1287438"><ele>278.7142857142857</ele><time>2026-05-03T08:06:32.415Z</time></trkpt><trkpt lat="43.5413839" lon="11.1288425"><ele>279.8571428571429</ele><time>2026-05-03T08:06:38.416Z</time></trkpt><trkpt lat="43.5413753" lon="11.1289408"><ele>281.0</ele><time>2026-05-03T08:06:44.419Z</time></trkpt><trkpt lat="43.5413356" lon="11.1290509"><ele>281.8571428571429</ele><time>2026-05-03T08:06:48.406Z</time></trkpt><trkpt lat="43.5413607" lon="11.129159"><ele>282.7142857142857</ele><time>2026-05-03T08:06:53.401Z</time></trkpt><trkpt lat="43.5413999" lon="11.1292438"><ele>283.57142857142856</ele><time>2026-05-03T08:07:01.42Z</time></trkpt><trkpt lat="43.5413856" lon="11.1293459"><ele>284.42857142857144</ele><time>2026-05-03T08:07:08.414Z</time></trkpt><trkpt lat="43.5414186" lon="11.129437"><ele>285.2857142857143</ele><time>2026-05-03T08:07:12.41Z</time></trkpt><trkpt lat="43.541436" lon="11.1295341"><ele>286.14285714285717</ele><time>2026-05-03T08:07:18.418Z</time></trkpt><trkpt lat="43.5414244" lon="11.1296242"><ele>287.0</ele><time>2026-05-03T08:08:48.403Z</time></trkpt><trkpt lat="43.541489" lon="11.1295741"><ele>287.0</ele><time>2026-05-03T08:10:18.41Z</time></trkpt><trkpt lat="43.541423" lon="11.1295656"><ele>287.0</ele><time>2026-05-03T08:11:32.397Z</time></trkpt><trkpt lat="43.5414652" lon="11.1296338"><ele>287.0</ele><time>2026-05-03T08:12:44.407Z</time></trkpt><trkpt lat="43.5415043" lon="11.1297466"><ele>287.0</ele><time>2026-05-03T08:12:48.41Z</time></trkpt><trkpt lat="43.5415382" lon="11.1298334"><ele>287.0</ele><time>2026-05-03T08:12:50.416Z</time></trkpt><trkpt lat="43.541582" lon="11.1299424"><ele>287.0</ele><time>2026-05-03T08:12:52.411Z</time></trkpt><trkpt lat="43.5416104" lon="11.1300644"><ele>287.2</ele><time>2026-05-03T08:12:54.395Z</time></trkpt><trkpt lat="43.5416442" lon="11.1301932"><ele>287.4</ele><time>2026-05-03T08:12:56.389Z</time></trkpt><trkpt lat="43.5416824" lon="11.130327"><ele>287.6</ele><time>2026-05-03T08:12:58.474Z</time></trkpt><trkpt lat="43.5417027" lon="11.1304586"><ele>287.8</ele><time>2026-05-03T08:13:00.425Z</time></trkpt><trkpt lat="43.5417453" lon="11.1305991"><ele>288.0</ele><time>2026-05-03T08:13:02.409Z</time></trkpt><trkpt lat="43.5417861" lon="11.1307367"><ele>288.1666666666667</ele><time>2026-05-03T08:13:04.41Z</time></trkpt><trkpt lat="43.5417903" lon="11.1308517"><ele>288.3333333333333</ele><time>2026-05-03T08:13:06.478Z</time></trkpt><trkpt lat="43.5417751" lon="11.1309364"><ele>288.5</ele><time>2026-05-03T08:13:07.473Z</time></trkpt><trkpt lat="43.5417532" lon="11.1310208"><ele>288.66666666666663</ele><time>2026-05-03T08:13:08.407Z</time></trkpt><trkpt lat="43.5417431" lon="11.1311434"><ele>288.8333333333333</ele><time>2026-05-03T08:13:10.403Z</time></trkpt><trkpt lat="43.5417296" lon="11.1313043"><ele>289.0</ele><time>2026-05-03T08:13:12.405Z</time></trkpt><trkpt lat="43.5417101" lon="11.1314609"><ele>288.5</ele><time>2026-05-03T08:13:14.409Z</time></trkpt><trkpt lat="43.5417022" lon="11.1315597"><ele>288.0</ele><time>2026-05-03T08:13:15.411Z</time></trkpt><trkpt lat="43.5416924" lon="11.1316707"><ele>287.5</ele><time>2026-05-03T08:13:16.414Z</time></trkpt><trkpt lat="43.5416763" lon="11.131786"><ele>287.0</ele><time>2026-05-03T08:13:17.413Z</time></trkpt><trkpt lat="43.5416559" lon="11.1319075"><ele>286.5</ele><time>2026-05-03T08:13:18.407Z</time></trkpt><trkpt lat="43.5416357" lon="11.1320255"><ele>286.0</ele><time>2026-05-03T08:13:19.417Z</time></trkpt><trkpt lat="43.5416178" lon="11.1321488"><ele>286.0</ele><time>2026-05-03T08:13:20.411Z</time></trkpt><trkpt lat="43.5416001" lon="11.1322777"><ele>286.0</ele><time>2026-05-03T08:13:21.411Z</time></trkpt><trkpt lat="43.541587" lon="11.1324035"><ele>286.0</ele><time>2026-05-03T08:13:22.426Z</time></trkpt><trkpt lat="43.5415726" lon="11.1325269"><ele>286.0</ele><time>2026-05-03T08:13:23.412Z</time></trkpt><trkpt lat="43.5415595" lon="11.1326466"><ele>286.0</ele><time>2026-05-03T08:13:24.41Z</time></trkpt><trkpt lat="43.5415446" lon="11.1327706"><ele>285.0</ele><time>2026-05-03T08:13:25.418Z</time></trkpt><trkpt lat="43.5415274" lon="11.1328979"><ele>284.0</ele><time>2026-05-03T08:13:26.407Z</time></trkpt><trkpt lat="43.5415091" lon="11.1330244"><ele>283.0</ele><time>2026-05-03T08:13:27.49Z</time></trkpt><trkpt lat="43.5414932" lon="11.1331458"><ele>282.0</ele><time>2026-05-03T08:13:28.401Z</time></trkpt><trkpt lat="43.5414785" lon="11.1332769"><ele>281.0</ele><time>2026-05-03T08:13:29.41Z</time></trkpt><trkpt lat="43.5414646" lon="11.133404"><ele>280.2</ele><time>2026-05-03T08:13:30.404Z</time></trkpt><trkpt lat="43.5414501" lon="11.1335318"><ele>279.40000000000003</ele><time>2026-05-03T08:13:31.405Z</time></trkpt><trkpt lat="43.5414342" lon="11.1336629"><ele>278.6</ele><time>2026-05-03T08:13:32.474Z</time></trkpt><trkpt lat="43.5414203" lon="11.1337863"><ele>277.8</ele><time>2026-05-03T08:13:33.391Z</time></trkpt><trkpt lat="43.5414046" lon="11.1339149"><ele>277.0</ele><time>2026-05-03T08:13:34.395Z</time></trkpt><trkpt lat="43.5413876" lon="11.1340441"><ele>276.0</ele><time>2026-05-03T08:13:35.403Z</time></trkpt><trkpt lat="43.5413695" lon="11.1341752"><ele>275.0</ele><time>2026-05-03T08:13:36.465Z</time></trkpt><trkpt lat="43.5413533" lon="11.134302"><ele>274.0</ele><time>2026-05-03T08:13:37.415Z</time></trkpt><trkpt lat="43.541332" lon="11.1344277"><ele>273.0</ele><time>2026-05-03T08:13:38.43Z</time></trkpt><trkpt lat="43.5413109" lon="11.1345429"><ele>272.0</ele><time>2026-05-03T08:13:39.413Z</time></trkpt><trkpt lat="43.5412918" lon="11.1346729"><ele>272.0</ele><time>2026-05-03T08:13:40.412Z</time></trkpt><trkpt lat="43.5412723" lon="11.1348078"><ele>272.0</ele><time>2026-05-03T08:13:41.385Z</time></trkpt><trkpt lat="43.5412523" lon="11.1349392"><ele>272.0</ele><time>2026-05-03T08:13:42.495Z</time></trkpt><trkpt lat="43.5412219" lon="11.1352146"><ele>272.0</ele><time>2026-05-03T08:13:44.426Z</time></trkpt><trkpt lat="43.5412103" lon="11.1353472"><ele>271.33333333333337</ele><time>2026-05-03T08:13:45.412Z</time></trkpt><trkpt lat="43.5412009" lon="11.1354766"><ele>270.6666666666667</ele><time>2026-05-03T08:13:46.392Z</time></trkpt><trkpt lat="43.5411896" lon="11.1356046"><ele>270.0</ele><time>2026-05-03T08:13:47.46Z</time></trkpt><trkpt lat="43.5411794" lon="11.1357233"><ele>269.3333333333333</ele><time>2026-05-03T08:13:48.409Z</time></trkpt><trkpt lat="43.5411745" lon="11.1358401"><ele>268.66666666666663</ele><time>2026-05-03T08:13:49.406Z</time></trkpt><trkpt lat="43.5411769" lon="11.135963"><ele>268.0</ele><time>2026-05-03T08:13:50.431Z</time></trkpt><trkpt lat="43.541182" lon="11.1360833"><ele>267.66666666666663</ele><time>2026-05-03T08:13:51.417Z</time></trkpt><trkpt lat="43.5411907" lon="11.1362015"><ele>267.3333333333333</ele><time>2026-05-03T08:13:52.41Z</time></trkpt><trkpt lat="43.5412009" lon="11.1363152"><ele>267.0</ele><time>2026-05-03T08:13:53.425Z</time></trkpt><trkpt lat="43.5412097" lon="11.1364226"><ele>266.6666666666667</ele><time>2026-05-03T08:13:54.411Z</time></trkpt><trkpt lat="43.5412197" lon="11.1365321"><ele>266.33333333333337</ele><time>2026-05-03T08:13:55.404Z</time></trkpt><trkpt lat="43.5412313" lon="11.1366407"><ele>266.0</ele><time>2026-05-03T08:13:56.411Z</time></trkpt><trkpt lat="43.5412444" lon="11.1367431"><ele>266.0</ele><time>2026-05-03T08:13:57.414Z</time></trkpt><trkpt lat="43.5412543" lon="11.1368394"><ele>266.0</ele><time>2026-05-03T08:13:58.397Z</time></trkpt><trkpt lat="43.5412626" lon="11.136935"><ele>266.0</ele><time>2026-05-03T08:13:59.398Z</time></trkpt><trkpt lat="43.5412669" lon="11.1370316"><ele>266.0</ele><time>2026-05-03T08:14:00.386Z</time></trkpt><trkpt lat="43.5412682" lon="11.1371288"><ele>266.0</ele><time>2026-05-03T08:14:01.405Z</time></trkpt><trkpt lat="43.541267" lon="11.1372208"><ele>266.0</ele><time>2026-05-03T08:14:02.392Z</time></trkpt><trkpt lat="43.5412666" lon="11.1373883"><ele>265.40000000000003</ele><time>2026-05-03T08:14:04.407Z</time></trkpt><trkpt lat="43.5412577" lon="11.1375671"><ele>264.8</ele><time>2026-05-03T08:14:06.391Z</time></trkpt><trkpt lat="43.5412397" lon="11.1376599"><ele>264.20000000000005</ele><time>2026-05-03T08:14:07.417Z</time></trkpt><trkpt lat="43.5412191" lon="11.137752"><ele>263.6</ele><time>2026-05-03T08:14:08.464Z</time></trkpt><trkpt lat="43.5411802" lon="11.1379038"><ele>263.0</ele><time>2026-05-03T08:14:10.411Z</time></trkpt><trkpt lat="43.5411355" lon="11.1380523"><ele>263.2</ele><time>2026-05-03T08:14:12.467Z</time></trkpt><trkpt lat="43.5410878" lon="11.1381915"><ele>263.4</ele><time>2026-05-03T08:14:14.41Z</time></trkpt><trkpt lat="43.5410401" lon="11.138329"><ele>263.59999999999997</ele><time>2026-05-03T08:14:16.407Z</time></trkpt><trkpt lat="43.5410001" lon="11.1384731"><ele>263.8</ele><time>2026-05-03T08:14:18.389Z</time></trkpt><trkpt lat="43.5409648" lon="11.1386078"><ele>264.0</ele><time>2026-05-03T08:14:20.405Z</time></trkpt><trkpt lat="43.5409257" lon="11.1387388"><ele>264.0</ele><time>2026-05-03T08:14:22.407Z</time></trkpt><trkpt lat="43.5408806" lon="11.1388635"><ele>264.0</ele><time>2026-05-03T08:14:24.402Z</time></trkpt><trkpt lat="43.5408312" lon="11.1389919"><ele>264.0</ele><time>2026-05-03T08:14:26.413Z</time></trkpt><trkpt lat="43.5407886" lon="11.1391348"><ele>264.0</ele><time>2026-05-03T08:14:28.413Z</time></trkpt><trkpt lat="43.5407422" lon="11.139289"><ele>264.0</ele><time>2026-05-03T08:14:30.419Z</time></trkpt><trkpt lat="43.5407133" lon="11.1393716"><ele>264.3333333333333</ele><time>2026-05-03T08:14:31.414Z</time></trkpt><trkpt lat="43.540678" lon="11.1394563"><ele>264.6666666666667</ele><time>2026-05-03T08:14:32.409Z</time></trkpt><trkpt lat="43.5406414" lon="11.1395371"><ele>265.0</ele><time>2026-05-03T08:14:33.426Z</time></trkpt><trkpt lat="43.540608" lon="11.1396214"><ele>265.33333333333337</ele><time>2026-05-03T08:14:34.409Z</time></trkpt><trkpt lat="43.5405729" lon="11.1396977"><ele>265.6666666666667</ele><time>2026-05-03T08:14:35.414Z</time></trkpt><trkpt lat="43.5405337" lon="11.1397669"><ele>266.0</ele><time>2026-05-03T08:14:36.462Z</time></trkpt><trkpt lat="43.5404584" lon="11.1398799"><ele>266.2</ele><time>2026-05-03T08:14:38.404Z</time></trkpt><trkpt lat="43.5403762" lon="11.1399781"><ele>266.40000000000003</ele><time>2026-05-03T08:14:40.407Z</time></trkpt><trkpt lat="43.5403035" lon="11.1400547"><ele>266.6</ele><time>2026-05-03T08:14:42.47Z</time></trkpt><trkpt lat="43.5402028" lon="11.1401179"><ele>266.8</ele><time>2026-05-03T08:14:44.404Z</time></trkpt><trkpt lat="43.5401334" lon="11.1401715"><ele>267.0</ele><time>2026-05-03T08:14:46.398Z</time></trkpt><trkpt lat="43.5400724" lon="11.1402366"><ele>267.00000000000006</ele><time>2026-05-03T08:14:48.478Z</time></trkpt><trkpt lat="43.5400137" lon="11.1402944"><ele>267.0</ele><time>2026-05-03T08:14:50.414Z</time></trkpt><trkpt lat="43.5399493" lon="11.140354"><ele>267.0</ele><time>2026-05-03T08:14:52.476Z</time></trkpt><trkpt lat="43.5398781" lon="11.1404091"><ele>267.0</ele><time>2026-05-03T08:14:54.403Z</time></trkpt><trkpt lat="43.5398143" lon="11.1404547"><ele>267.0</ele><time>2026-05-03T08:14:56.403Z</time></trkpt><trkpt lat="43.5397524" lon="11.1404936"><ele>267.00000000000006</ele><time>2026-05-03T08:14:58.403Z</time></trkpt><trkpt lat="43.5396935" lon="11.14053"><ele>267.0</ele><time>2026-05-03T08:15:00.399Z</time></trkpt><trkpt lat="43.5396293" lon="11.1405614"><ele>267.00000000000006</ele><time>2026-05-03T08:15:02.411Z</time></trkpt><trkpt lat="43.5395617" lon="11.1405952"><ele>267.0</ele><time>2026-05-03T08:15:04.391Z</time></trkpt><trkpt lat="43.5395039" lon="11.1406319"><ele>267.0</ele><time>2026-05-03T08:15:06.48Z</time></trkpt><trkpt lat="43.5394226" lon="11.1406748"><ele>267.0</ele><time>2026-05-03T08:15:09.391Z</time></trkpt><trkpt lat="43.5393594" lon="11.1407011"><ele>267.0</ele><time>2026-05-03T08:15:11.456Z</time></trkpt><trkpt lat="43.5392882" lon="11.140709"><ele>267.00000000000006</ele><time>2026-05-03T08:15:13.49Z</time></trkpt><trkpt lat="43.5392154" lon="11.1407317"><ele>267.0</ele><time>2026-05-03T08:15:15.406Z</time></trkpt><trkpt lat="43.5391475" lon="11.1407585"><ele>268.1666666666667</ele><time>2026-05-03T08:15:17.471Z</time></trkpt><trkpt lat="43.5390753" lon="11.1407882"><ele>269.3333333333333</ele><time>2026-05-03T08:15:19.385Z</time></trkpt><trkpt lat="43.539002" lon="11.1408183"><ele>270.5</ele><time>2026-05-03T08:15:21.401Z</time></trkpt><trkpt lat="43.5389451" lon="11.1408664"><ele>271.66666666666663</ele><time>2026-05-03T08:15:23.469Z</time></trkpt><trkpt lat="43.5388495" lon="11.1409288"><ele>272.8333333333333</ele><time>2026-05-03T08:15:25.406Z</time></trkpt><trkpt lat="43.5387824" lon="11.1409391"><ele>274.0</ele><time>2026-05-03T08:15:27.47Z</time></trkpt><trkpt lat="43.5387037" lon="11.1409298"><ele>274.28571428571433</ele><time>2026-05-03T08:15:30.405Z</time></trkpt><trkpt lat="43.5386371" lon="11.1409343"><ele>274.57142857142856</ele><time>2026-05-03T08:15:32.418Z</time></trkpt><trkpt lat="43.5385666" lon="11.1409263"><ele>274.8571428571429</ele><time>2026-05-03T08:15:34.404Z</time></trkpt><trkpt lat="43.5384937" lon="11.1409279"><ele>275.14285714285717</ele><time>2026-05-03T08:15:36.398Z</time></trkpt><trkpt lat="43.538427" lon="11.140929"><ele>275.42857142857144</ele><time>2026-05-03T08:15:38.409Z</time></trkpt><trkpt lat="43.5383324" lon="11.1409417"><ele>275.7142857142857</ele><time>2026-05-03T08:15:41.408Z</time></trkpt><trkpt lat="43.5382694" lon="11.1409434"><ele>276.0</ele><time>2026-05-03T08:15:43.385Z</time></trkpt><trkpt lat="43.538177" lon="11.1409226"><ele>276.0</ele><time>2026-05-03T08:15:46.485Z</time></trkpt><trkpt lat="43.5381095" lon="11.140923"><ele>276.0</ele><time>2026-05-03T08:15:48.455Z</time></trkpt><trkpt lat="43.538058" lon="11.1408711"><ele>276.0</ele><time>2026-05-03T08:15:50.399Z</time></trkpt><trkpt lat="43.5379779" lon="11.1408214"><ele>276.0</ele><time>2026-05-03T08:15:53.477Z</time></trkpt><trkpt lat="43.5379144" lon="11.1407885"><ele>276.0</ele><time>2026-05-03T08:15:55.403Z</time></trkpt><trkpt lat="43.537829" lon="11.1407968"><ele>276.0</ele><time>2026-05-03T08:15:58.469Z</time></trkpt><trkpt lat="43.537741" lon="11.1408269"><ele>276.0</ele><time>2026-05-03T08:16:01.405Z</time></trkpt><trkpt lat="43.5376868" lon="11.1408747"><ele>276.0</ele><time>2026-05-03T08:16:03.474Z</time></trkpt><trkpt lat="43.5376296" lon="11.1409431"><ele>276.0</ele><time>2026-05-03T08:16:06.403Z</time></trkpt><trkpt lat="43.5375695" lon="11.1409704"><ele>276.0</ele><time>2026-05-03T08:16:08.409Z</time></trkpt><trkpt lat="43.5375052" lon="11.1410198"><ele>276.0</ele><time>2026-05-03T08:16:10.403Z</time></trkpt><trkpt lat="43.5374321" lon="11.1410613"><ele>276.0</ele><time>2026-05-03T08:16:12.403Z</time></trkpt><trkpt lat="43.537359" lon="11.141103"><ele>276.0</ele><time>2026-05-03T08:16:14.408Z</time></trkpt><trkpt lat="43.5372884" lon="11.1411541"><ele>276.0</ele><time>2026-05-03T08:16:16.401Z</time></trkpt><trkpt lat="43.5372188" lon="11.1411947"><ele>276.0</ele><time>2026-05-03T08:16:18.398Z</time></trkpt><trkpt lat="43.537154" lon="11.1412366"><ele>276.0</ele><time>2026-05-03T08:16:20.416Z</time></trkpt><trkpt lat="43.5370893" lon="11.1412734"><ele>276.0</ele><time>2026-05-03T08:16:22.482Z</time></trkpt><trkpt lat="43.5370031" lon="11.1412919"><ele>276.0</ele><time>2026-05-03T08:16:24.402Z</time></trkpt><trkpt lat="43.5369341" lon="11.1413358"><ele>276.0</ele><time>2026-05-03T08:16:26.415Z</time></trkpt><trkpt lat="43.5368704" lon="11.1413949"><ele>276.6666666666667</ele><time>2026-05-03T08:16:28.476Z</time></trkpt><trkpt lat="43.5368097" lon="11.1414321"><ele>277.3333333333333</ele><time>2026-05-03T08:16:30.396Z</time></trkpt><trkpt lat="43.5367201" lon="11.1414854"><ele>278.0</ele><time>2026-05-03T08:16:33.488Z</time></trkpt><trkpt lat="43.5366613" lon="11.1415282"><ele>278.66666666666663</ele><time>2026-05-03T08:16:35.417Z</time></trkpt><trkpt lat="43.5365847" lon="11.1415918"><ele>279.3333333333333</ele><time>2026-05-03T08:16:38.466Z</time></trkpt><trkpt lat="43.536506" lon="11.1416376"><ele>280.0</ele><time>2026-05-03T08:16:41.474Z</time></trkpt><trkpt lat="43.5364211" lon="11.1416813"><ele>280.0</ele><time>2026-05-03T08:16:44.41Z</time></trkpt><trkpt lat="43.5363406" lon="11.1417269"><ele>280.0</ele><time>2026-05-03T08:16:47.411Z</time></trkpt><trkpt lat="43.5362641" lon="11.1417676"><ele>280.0</ele><time>2026-05-03T08:16:50.398Z</time></trkpt><trkpt lat="43.5361918" lon="11.1418088"><ele>280.0</ele><time>2026-05-03T08:16:53.414Z</time></trkpt><trkpt lat="43.5361408" lon="11.1418723"><ele>280.0</ele><time>2026-05-03T08:16:56.408Z</time></trkpt><trkpt lat="43.5360839" lon="11.1419232"><ele>280.0</ele><time>2026-05-03T08:16:59.394Z</time></trkpt><trkpt lat="43.5360221" lon="11.1419956"><ele>280.0</ele><time>2026-05-03T08:17:02.481Z</time></trkpt><trkpt lat="43.5359712" lon="11.1420573"><ele>280.0</ele><time>2026-05-03T08:17:05.398Z</time></trkpt><trkpt lat="43.5359341" lon="11.1421331"><ele>280.0</ele><time>2026-05-03T08:17:11.402Z</time></trkpt><trkpt lat="43.5358911" lon="11.1422018"><ele>280.0</ele><time>2026-05-03T08:17:14.41Z</time></trkpt><trkpt lat="43.5358101" lon="11.1422505"><ele>280.0</ele><time>2026-05-03T08:17:16.413Z</time></trkpt><trkpt lat="43.5357409" lon="11.1423247"><ele>280.0</ele><time>2026-05-03T08:17:18.396Z</time></trkpt><trkpt lat="43.53568" lon="11.1423956"><ele>279.6</ele><time>2026-05-03T08:17:20.392Z</time></trkpt><trkpt lat="43.5356013" lon="11.1425147"><ele>279.2</ele><time>2026-05-03T08:17:22.421Z</time></trkpt><trkpt lat="43.5355228" lon="11.1426197"><ele>278.8</ele><time>2026-05-03T08:17:24.405Z</time></trkpt><trkpt lat="43.5354431" lon="11.1427249"><ele>278.4</ele><time>2026-05-03T08:17:26.407Z</time></trkpt><trkpt lat="43.5353622" lon="11.1428305"><ele>278.0</ele><time>2026-05-03T08:17:28.406Z</time></trkpt><trkpt lat="43.5353146" lon="11.1428887"><ele>278.0</ele><time>2026-05-03T08:17:29.406Z</time></trkpt><trkpt lat="43.535268" lon="11.1429504"><ele>278.0</ele><time>2026-05-03T08:17:30.401Z</time></trkpt><trkpt lat="43.5352181" lon="11.1430039"><ele>278.0</ele><time>2026-05-03T08:17:31.47Z</time></trkpt><trkpt lat="43.5351288" lon="11.1431308"><ele>278.0</ele><time>2026-05-03T08:17:33.479Z</time></trkpt><trkpt lat="43.5350924" lon="11.1432018"><ele>278.0</ele><time>2026-05-03T08:17:34.395Z</time></trkpt><trkpt lat="43.534989" lon="11.1433171"><ele>278.0</ele><time>2026-05-03T08:17:36.471Z</time></trkpt><trkpt lat="43.5349217" lon="11.1433804"><ele>278.0</ele><time>2026-05-03T08:17:37.482Z</time></trkpt><trkpt lat="43.5348559" lon="11.1434315"><ele>278.0</ele><time>2026-05-03T08:17:38.466Z</time></trkpt><trkpt lat="43.5347852" lon="11.1434764"><ele>278.0</ele><time>2026-05-03T08:17:39.397Z</time></trkpt><trkpt lat="43.53466" lon="11.1435696"><ele>278.0</ele><time>2026-05-03T08:17:41.411Z</time></trkpt><trkpt lat="43.5345917" lon="11.1436204"><ele>275.5</ele><time>2026-05-03T08:17:42.406Z</time></trkpt><trkpt lat="43.5345148" lon="11.1436787"><ele>273.0</ele><time>2026-05-03T08:17:43.474Z</time></trkpt><trkpt lat="43.5344503" lon="11.1437545"><ele>270.5</ele><time>2026-05-03T08:17:44.403Z</time></trkpt><trkpt lat="43.5344023" lon="11.1438511"><ele>268.0</ele><time>2026-05-03T08:17:45.41Z</time></trkpt><trkpt lat="43.5343656" lon="11.1439764"><ele>265.5</ele><time>2026-05-03T08:17:46.398Z</time></trkpt><trkpt lat="43.5343276" lon="11.1440952"><ele>263.0</ele><time>2026-05-03T08:17:47.394Z</time></trkpt><trkpt lat="43.5342842" lon="11.1442114"><ele>262.8</ele><time>2026-05-03T08:17:48.49Z</time></trkpt><trkpt lat="43.5342279" lon="11.1443278"><ele>262.6</ele><time>2026-05-03T08:17:49.396Z</time></trkpt><trkpt lat="43.5341658" lon="11.144436"><ele>262.4</ele><time>2026-05-03T08:17:50.411Z</time></trkpt><trkpt lat="43.5340919" lon="11.1445397"><ele>262.2</ele><time>2026-05-03T08:17:51.405Z</time></trkpt><trkpt lat="43.5340088" lon="11.1446288"><ele>262.0</ele><time>2026-05-03T08:17:52.47Z</time></trkpt><trkpt lat="43.5339216" lon="11.1447084"><ele>262.0</ele><time>2026-05-03T08:17:53.491Z</time></trkpt><trkpt lat="43.5338346" lon="11.1447753"><ele>262.0</ele><time>2026-05-03T08:17:54.411Z</time></trkpt><trkpt lat="43.5337449" lon="11.1448371"><ele>262.0</ele><time>2026-05-03T08:17:55.406Z</time></trkpt><trkpt lat="43.5336606" lon="11.1448922"><ele>262.0</ele><time>2026-05-03T08:17:56.411Z</time></trkpt><trkpt lat="43.5335737" lon="11.1449411"><ele>262.0</ele><time>2026-05-03T08:17:57.425Z</time></trkpt><trkpt lat="43.5334884" lon="11.144989"><ele>261.66666666666663</ele><time>2026-05-03T08:17:58.433Z</time></trkpt><trkpt lat="43.5334069" lon="11.1450379"><ele>261.3333333333333</ele><time>2026-05-03T08:17:59.407Z</time></trkpt><trkpt lat="43.5333309" lon="11.1450814"><ele>261.0</ele><time>2026-05-03T08:18:00.423Z</time></trkpt><trkpt lat="43.5332568" lon="11.1451274"><ele>260.6666666666667</ele><time>2026-05-03T08:18:01.408Z</time></trkpt><trkpt lat="43.5331847" lon="11.1451701"><ele>260.33333333333337</ele><time>2026-05-03T08:18:02.416Z</time></trkpt><trkpt lat="43.5331137" lon="11.1452071"><ele>260.0</ele><time>2026-05-03T08:18:03.409Z</time></trkpt><trkpt lat="43.5330462" lon="11.1452371"><ele>260.0</ele><time>2026-05-03T08:18:04.43Z</time></trkpt><trkpt lat="43.5329819" lon="11.1452657"><ele>260.0</ele><time>2026-05-03T08:18:05.421Z</time></trkpt><trkpt lat="43.5328696" lon="11.1453177"><ele>260.0</ele><time>2026-05-03T08:18:07.478Z</time></trkpt><trkpt lat="43.5327629" lon="11.1453503"><ele>260.0</ele><time>2026-05-03T08:18:09.394Z</time></trkpt><trkpt lat="43.5326722" lon="11.1453886"><ele>260.0</ele><time>2026-05-03T08:18:11.408Z</time></trkpt><trkpt lat="43.5325904" lon="11.1454228"><ele>259.5</ele><time>2026-05-03T08:18:13.4Z</time></trkpt><trkpt lat="43.5325035" lon="11.1454547"><ele>259.0</ele><time>2026-05-03T08:18:15.403Z</time></trkpt><trkpt lat="43.5324293" lon="11.1454757"><ele>258.5</ele><time>2026-05-03T08:18:18.485Z</time></trkpt><trkpt lat="43.5323568" lon="11.1455307"><ele>258.0</ele><time>2026-05-03T08:18:21.431Z</time></trkpt><trkpt lat="43.5322918" lon="11.145584"><ele>257.5</ele><time>2026-05-03T08:18:24.398Z</time></trkpt><trkpt lat="43.5322385" lon="11.1456339"><ele>257.0</ele><time>2026-05-03T08:18:27.477Z</time></trkpt><trkpt lat="43.5321788" lon="11.1457007"><ele>257.57142857142856</ele><time>2026-05-03T08:18:30.409Z</time></trkpt><trkpt lat="43.5321351" lon="11.1457703"><ele>258.14285714285717</ele><time>2026-05-03T08:18:33.414Z</time></trkpt><trkpt lat="43.5321007" lon="11.1458551"><ele>258.7142857142857</ele><time>2026-05-03T08:18:37.415Z</time></trkpt><trkpt lat="43.5320751" lon="11.1459534"><ele>259.2857142857143</ele><time>2026-05-03T08:18:41.408Z</time></trkpt><trkpt lat="43.5320765" lon="11.1460499"><ele>259.85714285714283</ele><time>2026-05-03T08:18:45.399Z</time></trkpt><trkpt lat="43.5320628" lon="11.1461549"><ele>260.42857142857144</ele><time>2026-05-03T08:18:49.389Z</time></trkpt><trkpt lat="43.5320228" lon="11.1462318"><ele>261.0</ele><time>2026-05-03T08:18:53.483Z</time></trkpt><trkpt lat="43.531978" lon="11.1463254"><ele>261.0</ele><time>2026-05-03T08:18:57.485Z</time></trkpt><trkpt lat="43.5319608" lon="11.1464321"><ele>261.0</ele><time>2026-05-03T08:19:00.41Z</time></trkpt><trkpt lat="43.5319184" lon="11.1465112"><ele>261.0</ele><time>2026-05-03T08:19:04.392Z</time></trkpt><trkpt lat="43.5318726" lon="11.1465905"><ele>261.0</ele><time>2026-05-03T08:19:09.418Z</time></trkpt><trkpt lat="43.5318231" lon="11.1466523"><ele>261.0</ele><time>2026-05-03T08:19:13.409Z</time></trkpt><trkpt lat="43.5317726" lon="11.1467146"><ele>261.0</ele><time>2026-05-03T08:19:17.399Z</time></trkpt><trkpt lat="43.5317205" lon="11.1467854"><ele>261.0</ele><time>2026-05-03T08:19:22.467Z</time></trkpt><trkpt lat="43.5316802" lon="11.1468827"><ele>263.2857142857143</ele><time>2026-05-03T08:19:27.477Z</time></trkpt><trkpt lat="43.5316169" lon="11.1468881"><ele>265.57142857142856</ele><time>2026-05-03T08:19:31.41Z</time></trkpt><trkpt lat="43.531566" lon="11.1469479"><ele>267.85714285714283</ele><time>2026-05-03T08:19:36.404Z</time></trkpt><trkpt lat="43.5315097" lon="11.1470217"><ele>270.1428571428571</ele><time>2026-05-03T08:19:42.412Z</time></trkpt><trkpt lat="43.5314555" lon="11.1470805"><ele>272.4285714285714</ele><time>2026-05-03T08:19:46.419Z</time></trkpt><trkpt lat="43.5313993" lon="11.1471361"><ele>274.7142857142857</ele><time>2026-05-03T08:19:51.404Z</time></trkpt><trkpt lat="43.5313434" lon="11.1471977"><ele>277.0</ele><time>2026-05-03T08:19:56.407Z</time></trkpt><trkpt lat="43.5312921" lon="11.1472593"><ele>276.57142857142856</ele><time>2026-05-03T08:20:01.486Z</time></trkpt><trkpt lat="43.5312196" lon="11.1473209"><ele>276.1428571428571</ele><time>2026-05-03T08:20:07.464Z</time></trkpt><trkpt lat="43.5311604" lon="11.1473853"><ele>275.7142857142857</ele><time>2026-05-03T08:20:11.407Z</time></trkpt><trkpt lat="43.5311077" lon="11.1474456"><ele>275.2857142857143</ele><time>2026-05-03T08:20:15.407Z</time></trkpt><trkpt lat="43.5310407" lon="11.1475001"><ele>274.8571428571429</ele><time>2026-05-03T08:20:20.394Z</time></trkpt><trkpt lat="43.5309878" lon="11.1475594"><ele>274.42857142857144</ele><time>2026-05-03T08:20:25.388Z</time></trkpt><trkpt lat="43.5309308" lon="11.1476174"><ele>274.0</ele><time>2026-05-03T08:20:31.404Z</time></trkpt><trkpt lat="43.5308714" lon="11.1476802"><ele>275.66666666666663</ele><time>2026-05-03T08:20:37.471Z</time></trkpt><trkpt lat="43.5308226" lon="11.1477359"><ele>277.3333333333333</ele><time>2026-05-03T08:20:42.477Z</time></trkpt><trkpt lat="43.5307659" lon="11.1477937"><ele>279.0</ele><time>2026-05-03T08:20:48.481Z</time></trkpt><trkpt lat="43.5307271" lon="11.1478684"><ele>280.6666666666667</ele><time>2026-05-03T08:20:55.403Z</time></trkpt><trkpt lat="43.530714" lon="11.1479534"><ele>282.33333333333337</ele><time>2026-05-03T08:20:59.402Z</time></trkpt><trkpt lat="43.530711" lon="11.1480491"><ele>284.0</ele><time>2026-05-03T08:21:04.403Z</time></trkpt><trkpt lat="43.5307677" lon="11.1482012"><ele>286.0</ele><time>2026-05-03T08:21:12.407Z</time></trkpt><trkpt lat="43.5308413" lon="11.148325"><ele>288.0</ele><time>2026-05-03T08:21:17.397Z</time></trkpt><trkpt lat="43.5308895" lon="11.1483975"><ele>290.0</ele><time>2026-05-03T08:21:25.412Z</time></trkpt><trkpt lat="43.5309139" lon="11.1484844"><ele>292.0</ele><time>2026-05-03T08:21:31.418Z</time></trkpt><trkpt lat="43.5309404" lon="11.1485665"><ele>294.0</ele><time>2026-05-03T08:21:36.409Z</time></trkpt><trkpt lat="43.5309816" lon="11.1486488"><ele>296.0</ele><time>2026-05-03T08:21:42.488Z</time></trkpt><trkpt lat="43.531015" lon="11.1487347"><ele>296.0</ele><time>2026-05-03T08:21:47.47Z</time></trkpt><trkpt lat="43.5310733" lon="11.1487883"><ele>296.0</ele><time>2026-05-03T08:21:51.412Z</time></trkpt><trkpt lat="43.5310816" lon="11.1488856"><ele>296.0</ele><time>2026-05-03T08:21:55.414Z</time></trkpt><trkpt lat="43.5311152" lon="11.1489698"><ele>296.0</ele><time>2026-05-03T08:22:00.404Z</time></trkpt><trkpt lat="43.5311564" lon="11.1490569"><ele>296.0</ele><time>2026-05-03T08:22:04.406Z</time></trkpt><trkpt lat="43.5311712" lon="11.1491508"><ele>296.0</ele><time>2026-05-03T08:22:10.407Z</time></trkpt><trkpt lat="43.5311841" lon="11.1492467"><ele>296.0</ele><time>2026-05-03T08:22:16.423Z</time></trkpt><trkpt lat="43.5311899" lon="11.1493517"><ele>296.5</ele><time>2026-05-03T08:22:22.475Z</time></trkpt><trkpt lat="43.5311876" lon="11.1494397"><ele>297.0</ele><time>2026-05-03T08:22:27.471Z</time></trkpt><trkpt lat="43.5312559" lon="11.1495589"><ele>297.5</ele><time>2026-05-03T08:22:32.478Z</time></trkpt><trkpt lat="43.5311887" lon="11.1495748"><ele>298.0</ele><time>2026-05-03T08:22:35.403Z</time></trkpt><trkpt lat="43.5311593" lon="11.1497087"><ele>298.5</ele><time>2026-05-03T08:22:41.387Z</time></trkpt><trkpt lat="43.5311195" lon="11.149809"><ele>299.0</ele><time>2026-05-03T08:22:42.379Z</time></trkpt><trkpt lat="43.531125" lon="11.149899"><ele>301.1428571428571</ele><time>2026-05-03T08:22:46.394Z</time></trkpt><trkpt lat="43.531097" lon="11.1500016"><ele>303.2857142857143</ele><time>2026-05-03T08:22:51.388Z</time></trkpt><trkpt lat="43.5310976" lon="11.1500965"><ele>305.42857142857144</ele><time>2026-05-03T08:22:55.395Z</time></trkpt><trkpt lat="43.5310951" lon="11.1501934"><ele>307.57142857142856</ele><time>2026-05-03T08:23:00.391Z</time></trkpt><trkpt lat="43.531102" lon="11.1502847"><ele>309.7142857142857</ele><time>2026-05-03T08:23:04.364Z</time></trkpt><trkpt lat="43.5311075" lon="11.1503728"><ele>311.85714285714283</ele><time>2026-05-03T08:23:09.363Z</time></trkpt><trkpt lat="43.531084" lon="11.1504628"><ele>314.0</ele><time>2026-05-03T08:23:13.457Z</time></trkpt><trkpt lat="43.5310835" lon="11.1505757"><ele>314.0</ele><time>2026-05-03T08:23:18.385Z</time></trkpt><trkpt lat="43.531084" lon="11.1506805"><ele>314.0</ele><time>2026-05-03T08:23:21.383Z</time></trkpt><trkpt lat="43.5310797" lon="11.1508078"><ele>314.0</ele><time>2026-05-03T08:23:24.386Z</time></trkpt><trkpt lat="43.5310699" lon="11.1509298"><ele>314.0</ele><time>2026-05-03T08:23:27.395Z</time></trkpt><trkpt lat="43.5310727" lon="11.1510521"><ele>314.0</ele><time>2026-05-03T08:23:30.386Z</time></trkpt><trkpt lat="43.5310658" lon="11.1511873"><ele>314.0</ele><time>2026-05-03T08:23:33.468Z</time></trkpt><trkpt lat="43.5310582" lon="11.1512996"><ele>314.0</ele><time>2026-05-03T08:23:35.396Z</time></trkpt><trkpt lat="43.5310481" lon="11.1514153"><ele>314.0</ele><time>2026-05-03T08:23:37.446Z</time></trkpt><trkpt lat="43.5310471" lon="11.1515378"><ele>314.0</ele><time>2026-05-03T08:23:39.392Z</time></trkpt><trkpt lat="43.5310368" lon="11.1516675"><ele>314.0</ele><time>2026-05-03T08:23:41.363Z</time></trkpt><trkpt lat="43.5310258" lon="11.1518044"><ele>314.0</ele><time>2026-05-03T08:23:43.388Z</time></trkpt><trkpt lat="43.5309941" lon="11.1519341"><ele>313.1666666666667</ele><time>2026-05-03T08:23:45.386Z</time></trkpt><trkpt lat="43.5309156" lon="11.1520308"><ele>312.33333333333337</ele><time>2026-05-03T08:23:47.38Z</time></trkpt><trkpt lat="43.530824" lon="11.1520548"><ele>311.5</ele><time>2026-05-03T08:23:49.396Z</time></trkpt><trkpt lat="43.5307573" lon="11.1520051"><ele>310.6666666666667</ele><time>2026-05-03T08:23:51.463Z</time></trkpt><trkpt lat="43.5307093" lon="11.1519223"><ele>309.8333333333333</ele><time>2026-05-03T08:23:53.401Z</time></trkpt><trkpt lat="43.5306631" lon="11.1518499"><ele>309.0</ele><time>2026-05-03T08:23:55.375Z</time></trkpt><trkpt lat="43.5306231" lon="11.1517773"><ele>309.0</ele><time>2026-05-03T08:23:57.395Z</time></trkpt><trkpt lat="43.5305727" lon="11.1516643"><ele>309.0</ele><time>2026-05-03T08:24:00.392Z</time></trkpt><trkpt lat="43.5305274" lon="11.1515851"><ele>309.0</ele><time>2026-05-03T08:24:02.392Z</time></trkpt><trkpt lat="43.5304809" lon="11.1514927"><ele>309.0</ele><time>2026-05-03T08:24:04.39Z</time></trkpt><trkpt lat="43.5304267" lon="11.1514027"><ele>309.0</ele><time>2026-05-03T08:24:06.38Z</time></trkpt><trkpt lat="43.5303664" lon="11.1513183"><ele>309.0</ele><time>2026-05-03T08:24:08.395Z</time></trkpt><trkpt lat="43.5303122" lon="11.1512277"><ele>308.59999999999997</ele><time>2026-05-03T08:24:10.394Z</time></trkpt><trkpt lat="43.5302567" lon="11.1511242"><ele>308.2</ele><time>2026-05-03T08:24:12.463Z</time></trkpt><trkpt lat="43.5302039" lon="11.1510227"><ele>307.79999999999995</ele><time>2026-05-03T08:24:14.375Z</time></trkpt><trkpt lat="43.5301409" lon="11.1509266"><ele>307.4</ele><time>2026-05-03T08:24:16.391Z</time></trkpt><trkpt lat="43.5300839" lon="11.1508245"><ele>307.0</ele><time>2026-05-03T08:24:18.468Z</time></trkpt><trkpt lat="43.5300211" lon="11.1507407"><ele>307.6</ele><time>2026-05-03T08:24:20.381Z</time></trkpt><trkpt lat="43.5299645" lon="11.1506411"><ele>308.2</ele><time>2026-05-03T08:24:22.38Z</time></trkpt><trkpt lat="43.5299122" lon="11.1505385"><ele>308.8</ele><time>2026-05-03T08:24:24.397Z</time></trkpt><trkpt lat="43.5298435" lon="11.1504384"><ele>309.4</ele><time>2026-05-03T08:24:26.366Z</time></trkpt><trkpt lat="43.5297639" lon="11.1503216"><ele>310.0</ele><time>2026-05-03T08:24:28.391Z</time></trkpt><trkpt lat="43.5297137" lon="11.1502616"><ele>310.0</ele><time>2026-05-03T08:24:29.398Z</time></trkpt><trkpt lat="43.529659" lon="11.1502079"><ele>310.0</ele><time>2026-05-03T08:24:30.39Z</time></trkpt><trkpt lat="43.5295993" lon="11.1501434"><ele>310.0</ele><time>2026-05-03T08:24:31.411Z</time></trkpt><trkpt lat="43.5295381" lon="11.1500731"><ele>310.0</ele><time>2026-05-03T08:24:32.385Z</time></trkpt><trkpt lat="43.5294694" lon="11.1500135"><ele>310.0</ele><time>2026-05-03T08:24:33.393Z</time></trkpt><trkpt lat="43.5293989" lon="11.1499569"><ele>310.0</ele><time>2026-05-03T08:24:34.366Z</time></trkpt><trkpt lat="43.529322" lon="11.1499047"><ele>307.2</ele><time>2026-05-03T08:24:35.39Z</time></trkpt><trkpt lat="43.5292394" lon="11.1498544"><ele>304.4</ele><time>2026-05-03T08:24:36.391Z</time></trkpt><trkpt lat="43.5291522" lon="11.1498049"><ele>301.6</ele><time>2026-05-03T08:24:37.41Z</time></trkpt><trkpt lat="43.5290611" lon="11.1497518"><ele>298.8</ele><time>2026-05-03T08:24:38.387Z</time></trkpt><trkpt lat="43.5289644" lon="11.1497054"><ele>296.0</ele><time>2026-05-03T08:24:39.397Z</time></trkpt><trkpt lat="43.5288666" lon="11.1496616"><ele>296.0</ele><time>2026-05-03T08:24:40.391Z</time></trkpt><trkpt lat="43.5287697" lon="11.1496171"><ele>296.0</ele><time>2026-05-03T08:24:41.368Z</time></trkpt><trkpt lat="43.5286747" lon="11.1495714"><ele>296.0</ele><time>2026-05-03T08:24:42.389Z</time></trkpt><trkpt lat="43.52858" lon="11.1495285"><ele>296.0</ele><time>2026-05-03T08:24:43.461Z</time></trkpt><trkpt lat="43.5284813" lon="11.149469"><ele>296.0</ele><time>2026-05-03T08:24:44.388Z</time></trkpt><trkpt lat="43.5283807" lon="11.1494005"><ele>295.40000000000003</ele><time>2026-05-03T08:24:45.377Z</time></trkpt><trkpt lat="43.5282741" lon="11.1493486"><ele>294.8</ele><time>2026-05-03T08:24:46.367Z</time></trkpt><trkpt lat="43.5281537" lon="11.1493141"><ele>294.20000000000005</ele><time>2026-05-03T08:24:47.368Z</time></trkpt><trkpt lat="43.5280609" lon="11.1492717"><ele>293.6</ele><time>2026-05-03T08:24:48.48Z</time></trkpt><trkpt lat="43.5279672" lon="11.1492361"><ele>293.0</ele><time>2026-05-03T08:24:49.381Z</time></trkpt><trkpt lat="43.5278913" lon="11.149194"><ele>292.8</ele><time>2026-05-03T08:24:50.382Z</time></trkpt><trkpt lat="43.5278135" lon="11.1491622"><ele>292.6</ele><time>2026-05-03T08:24:51.395Z</time></trkpt><trkpt lat="43.527736" lon="11.1491286"><ele>292.4</ele><time>2026-05-03T08:24:52.447Z</time></trkpt><trkpt lat="43.5276374" lon="11.1490626"><ele>292.2</ele><time>2026-05-03T08:24:54.39Z</time></trkpt><trkpt lat="43.5275433" lon="11.1489955"><ele>292.0</ele><time>2026-05-03T08:24:56.362Z</time></trkpt><trkpt lat="43.5274772" lon="11.1489502"><ele>292.0</ele><time>2026-05-03T08:24:57.476Z</time></trkpt><trkpt lat="43.5274182" lon="11.1489013"><ele>292.0</ele><time>2026-05-03T08:24:58.45Z</time></trkpt><trkpt lat="43.5273225" lon="11.1488132"><ele>292.0</ele><time>2026-05-03T08:25:00.389Z</time></trkpt><trkpt lat="43.5272797" lon="11.1487433"><ele>292.0</ele><time>2026-05-03T08:25:01.392Z</time></trkpt><trkpt lat="43.5272069" lon="11.1486635"><ele>292.0</ele><time>2026-05-03T08:25:03.483Z</time></trkpt><trkpt lat="43.5271283" lon="11.1486091"><ele>292.0</ele><time>2026-05-03T08:25:05.389Z</time></trkpt><trkpt lat="43.5270462" lon="11.1485833"><ele>292.6</ele><time>2026-05-03T08:25:07.402Z</time></trkpt><trkpt lat="43.5269595" lon="11.1485742"><ele>293.2</ele><time>2026-05-03T08:25:09.391Z</time></trkpt><trkpt lat="43.526882" lon="11.1485668"><ele>293.8</ele><time>2026-05-03T08:25:11.401Z</time></trkpt><trkpt lat="43.5267856" lon="11.1485815"><ele>294.4</ele><time>2026-05-03T08:25:13.398Z</time></trkpt><trkpt lat="43.5266907" lon="11.1485802"><ele>295.0</ele><time>2026-05-03T08:25:15.376Z</time></trkpt><trkpt lat="43.5265884" lon="11.1485583"><ele>295.0</ele><time>2026-05-03T08:25:17.391Z</time></trkpt><trkpt lat="43.5264893" lon="11.1485496"><ele>295.0</ele><time>2026-05-03T08:25:19.387Z</time></trkpt><trkpt lat="43.5264166" lon="11.1485647"><ele>295.0</ele><time>2026-05-03T08:25:21.474Z</time></trkpt><trkpt lat="43.5263333" lon="11.148554"><ele>295.0</ele><time>2026-05-03T08:25:23.388Z</time></trkpt><trkpt lat="43.5262313" lon="11.1485187"><ele>295.0</ele><time>2026-05-03T08:25:25.392Z</time></trkpt><trkpt lat="43.5261264" lon="11.1485385"><ele>294.6</ele><time>2026-05-03T08:25:27.374Z</time></trkpt><trkpt lat="43.5260051" lon="11.1485401"><ele>294.2</ele><time>2026-05-03T08:25:29.387Z</time></trkpt><trkpt lat="43.5258822" lon="11.1485792"><ele>293.8</ele><time>2026-05-03T08:25:31.454Z</time></trkpt><trkpt lat="43.5258149" lon="11.1486025"><ele>293.4</ele><time>2026-05-03T08:25:32.393Z</time></trkpt><trkpt lat="43.5257436" lon="11.1486279"><ele>293.0</ele><time>2026-05-03T08:25:33.375Z</time></trkpt><trkpt lat="43.5256672" lon="11.1486628"><ele>293.0</ele><time>2026-05-03T08:25:34.381Z</time></trkpt><trkpt lat="43.5255686" lon="11.1487442"><ele>293.0</ele><time>2026-05-03T08:25:36.421Z</time></trkpt><trkpt lat="43.5254684" lon="11.1488249"><ele>293.0</ele><time>2026-05-03T08:25:38.393Z</time></trkpt><trkpt lat="43.5253621" lon="11.1488875"><ele>293.0</ele><time>2026-05-03T08:25:40.379Z</time></trkpt><trkpt lat="43.525262" lon="11.1489581"><ele>292.8</ele><time>2026-05-03T08:25:42.389Z</time></trkpt><trkpt lat="43.5251697" lon="11.14903"><ele>292.6</ele><time>2026-05-03T08:25:44.391Z</time></trkpt><trkpt lat="43.5250756" lon="11.149105"><ele>292.4</ele><time>2026-05-03T08:25:46.379Z</time></trkpt><trkpt lat="43.5249797" lon="11.1491919"><ele>292.2</ele><time>2026-05-03T08:25:48.456Z</time></trkpt><trkpt lat="43.5248813" lon="11.1492742"><ele>292.0</ele><time>2026-05-03T08:25:50.394Z</time></trkpt><trkpt lat="43.524771" lon="11.1493675"><ele>292.0</ele><time>2026-05-03T08:25:52.457Z</time></trkpt><trkpt lat="43.5247144" lon="11.1494202"><ele>292.0</ele><time>2026-05-03T08:25:53.38Z</time></trkpt><trkpt lat="43.5246544" lon="11.1494746"><ele>292.0</ele><time>2026-05-03T08:25:54.401Z</time></trkpt><trkpt lat="43.5245837" lon="11.1495282"><ele>292.0</ele><time>2026-05-03T08:25:55.385Z</time></trkpt><trkpt lat="43.5245052" lon="11.1495894"><ele>292.0</ele><time>2026-05-03T08:25:56.379Z</time></trkpt><trkpt lat="43.5244212" lon="11.149663"><ele>292.0</ele><time>2026-05-03T08:25:57.475Z</time></trkpt><trkpt lat="43.5243331" lon="11.1497362"><ele>290.75</ele><time>2026-05-03T08:25:58.457Z</time></trkpt><trkpt lat="43.5242387" lon="11.1498175"><ele>289.5</ele><time>2026-05-03T08:25:59.395Z</time></trkpt><trkpt lat="43.524136" lon="11.1499074"><ele>288.25</ele><time>2026-05-03T08:26:00.383Z</time></trkpt><trkpt lat="43.5240258" lon="11.1499964"><ele>287.0</ele><time>2026-05-03T08:26:01.39Z</time></trkpt><trkpt lat="43.5239095" lon="11.1500932"><ele>285.75</ele><time>2026-05-03T08:26:02.397Z</time></trkpt><trkpt lat="43.5237978" lon="11.150193"><ele>284.5</ele><time>2026-05-03T08:26:03.473Z</time></trkpt><trkpt lat="43.5236829" lon="11.1502877"><ele>283.25</ele><time>2026-05-03T08:26:04.379Z</time></trkpt><trkpt lat="43.5235711" lon="11.150389"><ele>282.0</ele><time>2026-05-03T08:26:05.39Z</time></trkpt><trkpt lat="43.5234846" lon="11.1505092"><ele>279.5</ele><time>2026-05-03T08:26:06.38Z</time></trkpt><trkpt lat="43.523402" lon="11.15065"><ele>277.0</ele><time>2026-05-03T08:26:07.458Z</time></trkpt><trkpt lat="43.5233231" lon="11.1507892"><ele>274.5</ele><time>2026-05-03T08:26:08.384Z</time></trkpt><trkpt lat="43.523248" lon="11.150918"><ele>272.0</ele><time>2026-05-03T08:26:09.387Z</time></trkpt><trkpt lat="43.5231701" lon="11.1510204"><ele>271.6</ele><time>2026-05-03T08:26:10.391Z</time></trkpt><trkpt lat="43.523097" lon="11.151109"><ele>271.2</ele><time>2026-05-03T08:26:11.375Z</time></trkpt><trkpt lat="43.5230201" lon="11.1511972"><ele>270.8</ele><time>2026-05-03T08:26:12.387Z</time></trkpt><trkpt lat="43.5229303" lon="11.1512817"><ele>270.4</ele><time>2026-05-03T08:26:13.387Z</time></trkpt><trkpt lat="43.522838" lon="11.1513648"><ele>270.0</ele><time>2026-05-03T08:26:14.383Z</time></trkpt><trkpt lat="43.5227484" lon="11.1514389"><ele>270.0</ele><time>2026-05-03T08:26:15.391Z</time></trkpt><trkpt lat="43.5226634" lon="11.1515064"><ele>270.0</ele><time>2026-05-03T08:26:16.402Z</time></trkpt><trkpt lat="43.5225828" lon="11.1515723"><ele>270.0</ele><time>2026-05-03T08:26:17.38Z</time></trkpt><trkpt lat="43.5224953" lon="11.1516322"><ele>270.0</ele><time>2026-05-03T08:26:18.362Z</time></trkpt><trkpt lat="43.522409" lon="11.1516543"><ele>270.0</ele><time>2026-05-03T08:26:19.39Z</time></trkpt><trkpt lat="43.5223262" lon="11.1516387"><ele>270.0</ele><time>2026-05-03T08:26:20.385Z</time></trkpt><trkpt lat="43.5222537" lon="11.1515797"><ele>270.0</ele><time>2026-05-03T08:26:21.391Z</time></trkpt><trkpt lat="43.5221897" lon="11.1515042"><ele>270.0</ele><time>2026-05-03T08:26:22.39Z</time></trkpt><trkpt lat="43.5221187" lon="11.1514175"><ele>270.0</ele><time>2026-05-03T08:26:23.39Z</time></trkpt><trkpt lat="43.5220407" lon="11.1513209"><ele>270.0</ele><time>2026-05-03T08:26:24.389Z</time></trkpt><trkpt lat="43.5219597" lon="11.1512252"><ele>268.0</ele><time>2026-05-03T08:26:25.36Z</time></trkpt><trkpt lat="43.5218726" lon="11.1511271"><ele>266.0</ele><time>2026-05-03T08:26:26.45Z</time></trkpt><trkpt lat="43.5217848" lon="11.151022"><ele>264.0</ele><time>2026-05-03T08:26:27.458Z</time></trkpt><trkpt lat="43.5216866" lon="11.1509072"><ele>262.0</ele><time>2026-05-03T08:26:28.464Z</time></trkpt><trkpt lat="43.5215951" lon="11.1508047"><ele>262.0</ele><time>2026-05-03T08:26:29.379Z</time></trkpt><trkpt lat="43.5215064" lon="11.1507111"><ele>262.0</ele><time>2026-05-03T08:26:30.392Z</time></trkpt><trkpt lat="43.5214142" lon="11.1506333"><ele>262.0</ele><time>2026-05-03T08:26:31.392Z</time></trkpt><trkpt lat="43.5213216" lon="11.1505668"><ele>262.0</ele><time>2026-05-03T08:26:32.385Z</time></trkpt><trkpt lat="43.5212266" lon="11.1504929"><ele>262.0</ele><time>2026-05-03T08:26:33.456Z</time></trkpt><trkpt lat="43.5211342" lon="11.1504207"><ele>261.2</ele><time>2026-05-03T08:26:34.408Z</time></trkpt><trkpt lat="43.5210416" lon="11.1503475"><ele>260.4</ele><time>2026-05-03T08:26:35.399Z</time></trkpt><trkpt lat="43.5209468" lon="11.1502769"><ele>259.6</ele><time>2026-05-03T08:26:36.395Z</time></trkpt><trkpt lat="43.5208491" lon="11.1502086"><ele>258.8</ele><time>2026-05-03T08:26:37.471Z</time></trkpt><trkpt lat="43.5207518" lon="11.1501459"><ele>258.0</ele><time>2026-05-03T08:26:38.397Z</time></trkpt><trkpt lat="43.5206458" lon="11.1500799"><ele>258.0</ele><time>2026-05-03T08:26:39.397Z</time></trkpt><trkpt lat="43.5205361" lon="11.1500211"><ele>258.0</ele><time>2026-05-03T08:26:40.392Z</time></trkpt><trkpt lat="43.5204373" lon="11.1499819"><ele>258.0</ele><time>2026-05-03T08:26:41.385Z</time></trkpt><trkpt lat="43.5203438" lon="11.1499427"><ele>258.0</ele><time>2026-05-03T08:26:42.384Z</time></trkpt><trkpt lat="43.5202514" lon="11.1498754"><ele>258.0</ele><time>2026-05-03T08:26:43.452Z</time></trkpt><trkpt lat="43.5201689" lon="11.1498091"><ele>257.6</ele><time>2026-05-03T08:26:44.379Z</time></trkpt><trkpt lat="43.5200697" lon="11.1497907"><ele>257.20000000000005</ele><time>2026-05-03T08:26:45.386Z</time></trkpt><trkpt lat="43.5199767" lon="11.1497847"><ele>256.8</ele><time>2026-05-03T08:26:46.385Z</time></trkpt><trkpt lat="43.5198848" lon="11.1497865"><ele>256.40000000000003</ele><time>2026-05-03T08:26:47.37Z</time></trkpt><trkpt lat="43.5197967" lon="11.1497861"><ele>256.0</ele><time>2026-05-03T08:26:48.39Z</time></trkpt><trkpt lat="43.5197105" lon="11.1497855"><ele>255.99999999999997</ele><time>2026-05-03T08:26:49.4Z</time></trkpt><trkpt lat="43.5196275" lon="11.1497773"><ele>256.0</ele><time>2026-05-03T08:26:50.399Z</time></trkpt><trkpt lat="43.5195466" lon="11.1497653"><ele>256.0</ele><time>2026-05-03T08:26:51.383Z</time></trkpt><trkpt lat="43.5194674" lon="11.1497485"><ele>256.0</ele><time>2026-05-03T08:26:52.381Z</time></trkpt><trkpt lat="43.5193936" lon="11.1497316"><ele>255.99999999999997</ele><time>2026-05-03T08:26:53.387Z</time></trkpt><trkpt lat="43.5193243" lon="11.1497147"><ele>256.0</ele><time>2026-05-03T08:26:54.382Z</time></trkpt><trkpt lat="43.5192566" lon="11.149697"><ele>256.5</ele><time>2026-05-03T08:26:55.376Z</time></trkpt><trkpt lat="43.5191872" lon="11.1496788"><ele>257.0</ele><time>2026-05-03T08:26:56.461Z</time></trkpt><trkpt lat="43.5191249" lon="11.149663"><ele>257.5</ele><time>2026-05-03T08:26:57.457Z</time></trkpt><trkpt lat="43.5190127" lon="11.1496276"><ele>258.0</ele><time>2026-05-03T08:26:59.387Z</time></trkpt><trkpt lat="43.5189012" lon="11.1495898"><ele>258.5</ele><time>2026-05-03T08:27:01.383Z</time></trkpt><trkpt lat="43.518839" lon="11.1495759"><ele>259.0</ele><time>2026-05-03T08:27:02.401Z</time></trkpt><trkpt lat="43.5187212" lon="11.149547"><ele>259.2</ele><time>2026-05-03T08:27:04.389Z</time></trkpt><trkpt lat="43.518615" lon="11.1495116"><ele>259.4</ele><time>2026-05-03T08:27:06.37Z</time></trkpt><trkpt lat="43.5185211" lon="11.1494752"><ele>259.6</ele><time>2026-05-03T08:27:08.395Z</time></trkpt><trkpt lat="43.5184235" lon="11.1494408"><ele>259.8</ele><time>2026-05-03T08:27:10.382Z</time></trkpt><trkpt lat="43.518327" lon="11.1494054"><ele>260.0</ele><time>2026-05-03T08:27:12.379Z</time></trkpt><trkpt lat="43.5182337" lon="11.1493689"><ele>260.0</ele><time>2026-05-03T08:27:14.383Z</time></trkpt><trkpt lat="43.5181389" lon="11.1493346"><ele>260.0</ele><time>2026-05-03T08:27:16.383Z</time></trkpt><trkpt lat="43.5180484" lon="11.1492992"><ele>260.0</ele><time>2026-05-03T08:27:18.476Z</time></trkpt><trkpt lat="43.5179632" lon="11.1492551"><ele>260.0</ele><time>2026-05-03T08:27:20.384Z</time></trkpt><trkpt lat="43.5178877" lon="11.1492075"><ele>260.0</ele><time>2026-05-03T08:27:22.398Z</time></trkpt><trkpt lat="43.5178125" lon="11.1491667"><ele>260.0</ele><time>2026-05-03T08:27:24.392Z</time></trkpt><trkpt lat="43.5177384" lon="11.149133"><ele>259.7142857142857</ele><time>2026-05-03T08:27:26.391Z</time></trkpt><trkpt lat="43.5176687" lon="11.1491029"><ele>259.42857142857144</ele><time>2026-05-03T08:27:28.372Z</time></trkpt><trkpt lat="43.5175955" lon="11.1490811"><ele>259.1428571428571</ele><time>2026-05-03T08:27:30.389Z</time></trkpt><trkpt lat="43.5175271" lon="11.1490507"><ele>258.8571428571429</ele><time>2026-05-03T08:27:32.392Z</time></trkpt><trkpt lat="43.5174614" lon="11.1490241"><ele>258.57142857142856</ele><time>2026-05-03T08:27:34.387Z</time></trkpt><trkpt lat="43.5173918" lon="11.1489964"><ele>258.2857142857143</ele><time>2026-05-03T08:27:36.448Z</time></trkpt><trkpt lat="43.5173305" lon="11.1489524"><ele>258.0</ele><time>2026-05-03T08:27:38.481Z</time></trkpt><trkpt lat="43.5172697" lon="11.1489177"><ele>258.0</ele><time>2026-05-03T08:27:40.405Z</time></trkpt><trkpt lat="43.5172045" lon="11.1488903"><ele>258.0</ele><time>2026-05-03T08:27:42.475Z</time></trkpt><trkpt lat="43.5171224" lon="11.1488506"><ele>258.0</ele><time>2026-05-03T08:27:45.404Z</time></trkpt><trkpt lat="43.5170407" lon="11.1488329"><ele>258.0</ele><time>2026-05-03T08:27:48.478Z</time></trkpt><trkpt lat="43.5169769" lon="11.1488514"><ele>258.0</ele><time>2026-05-03T08:27:50.403Z</time></trkpt><trkpt lat="43.5169056" lon="11.1488246"><ele>258.0</ele><time>2026-05-03T08:27:52.47Z</time></trkpt><trkpt lat="43.5168399" lon="11.148875"><ele>258.8333333333333</ele><time>2026-05-03T08:27:55.409Z</time></trkpt><trkpt lat="43.5167791" lon="11.1488489"><ele>259.6666666666667</ele><time>2026-05-03T08:27:57.41Z</time></trkpt><trkpt lat="43.5167044" lon="11.1488122"><ele>260.5</ele><time>2026-05-03T08:27:59.409Z</time></trkpt><trkpt lat="43.5166391" lon="11.1487914"><ele>261.33333333333337</ele><time>2026-05-03T08:28:01.409Z</time></trkpt><trkpt lat="43.5165653" lon="11.1487723"><ele>262.1666666666667</ele><time>2026-05-03T08:28:03.417Z</time></trkpt><trkpt lat="43.5164827" lon="11.1487535"><ele>263.0</ele><time>2026-05-03T08:28:05.419Z</time></trkpt><trkpt lat="43.5163997" lon="11.1487471"><ele>263.0</ele><time>2026-05-03T08:28:07.413Z</time></trkpt><trkpt lat="43.5163052" lon="11.1487418"><ele>263.0</ele><time>2026-05-03T08:28:09.416Z</time></trkpt><trkpt lat="43.516209" lon="11.1487418"><ele>263.0</ele><time>2026-05-03T08:28:11.38Z</time></trkpt><trkpt lat="43.5161078" lon="11.1487411"><ele>263.0</ele><time>2026-05-03T08:28:13.402Z</time></trkpt><trkpt lat="43.5160021" lon="11.1487399"><ele>263.0</ele><time>2026-05-03T08:28:15.412Z</time></trkpt><trkpt lat="43.5159022" lon="11.1487443"><ele>262.8</ele><time>2026-05-03T08:28:17.384Z</time></trkpt><trkpt lat="43.5158045" lon="11.1487476"><ele>262.6</ele><time>2026-05-03T08:28:19.401Z</time></trkpt><trkpt lat="43.5156959" lon="11.148748"><ele>262.4</ele><time>2026-05-03T08:28:21.403Z</time></trkpt><trkpt lat="43.5155747" lon="11.148739"><ele>262.2</ele><time>2026-05-03T08:28:23.41Z</time></trkpt><trkpt lat="43.5154736" lon="11.1487335"><ele>262.0</ele><time>2026-05-03T08:28:25.412Z</time></trkpt><trkpt lat="43.5153794" lon="11.1487097"><ele>261.8</ele><time>2026-05-03T08:28:27.387Z</time></trkpt><trkpt lat="43.5152792" lon="11.1486778"><ele>261.6</ele><time>2026-05-03T08:28:29.411Z</time></trkpt><trkpt lat="43.5151899" lon="11.1486806"><ele>261.40000000000003</ele><time>2026-05-03T08:28:31.415Z</time></trkpt><trkpt lat="43.5150968" lon="11.1486832"><ele>261.2</ele><time>2026-05-03T08:28:33.409Z</time></trkpt><trkpt lat="43.5150007" lon="11.1486436"><ele>261.0</ele><time>2026-05-03T08:28:35.401Z</time></trkpt><trkpt lat="43.5149037" lon="11.1485827"><ele>261.0</ele><time>2026-05-03T08:28:37.422Z</time></trkpt><trkpt lat="43.5148086" lon="11.1485104"><ele>261.0</ele><time>2026-05-03T08:28:39.409Z</time></trkpt><trkpt lat="43.5147153" lon="11.14843"><ele>261.0</ele><time>2026-05-03T08:28:41.416Z</time></trkpt><trkpt lat="43.5146293" lon="11.1483516"><ele>261.0</ele><time>2026-05-03T08:28:43.414Z</time></trkpt><trkpt lat="43.5145482" lon="11.1482595"><ele>261.0</ele><time>2026-05-03T08:28:45.404Z</time></trkpt><trkpt lat="43.5144787" lon="11.148161"><ele>262.3333333333333</ele><time>2026-05-03T08:28:47.481Z</time></trkpt><trkpt lat="43.5144146" lon="11.1480746"><ele>263.6666666666667</ele><time>2026-05-03T08:28:49.386Z</time></trkpt><trkpt lat="43.5143578" lon="11.1479708"><ele>265.0</ele><time>2026-05-03T08:28:51.403Z</time></trkpt><trkpt lat="43.514302" lon="11.1478675"><ele>266.33333333333337</ele><time>2026-05-03T08:28:53.468Z</time></trkpt><trkpt lat="43.5142377" lon="11.1477913"><ele>267.6666666666667</ele><time>2026-05-03T08:28:55.383Z</time></trkpt><trkpt lat="43.5141783" lon="11.1477233"><ele>269.0</ele><time>2026-05-03T08:28:57.477Z</time></trkpt><trkpt lat="43.5141284" lon="11.1476605"><ele>269.0</ele><time>2026-05-03T08:28:59.408Z</time></trkpt><trkpt lat="43.5140839" lon="11.147592"><ele>269.0</ele><time>2026-05-03T08:29:01.476Z</time></trkpt><trkpt lat="43.5140366" lon="11.1475335"><ele>269.0</ele><time>2026-05-03T08:29:03.401Z</time></trkpt><trkpt lat="43.5139873" lon="11.1474462"><ele>269.0</ele><time>2026-05-03T08:29:06.474Z</time></trkpt><trkpt lat="43.5139359" lon="11.1473522"><ele>269.0</ele><time>2026-05-03T08:29:09.403Z</time></trkpt><trkpt lat="43.5139009" lon="11.1472647"><ele>269.0</ele><time>2026-05-03T08:29:11.414Z</time></trkpt><trkpt lat="43.5138659" lon="11.1471734"><ele>269.0</ele><time>2026-05-03T08:29:13.38Z</time></trkpt><trkpt lat="43.5138391" lon="11.1470727"><ele>269.83333333333337</ele><time>2026-05-03T08:29:16.475Z</time></trkpt><trkpt lat="43.5138073" lon="11.146982"><ele>270.6666666666667</ele><time>2026-05-03T08:29:18.486Z</time></trkpt><trkpt lat="43.5137538" lon="11.1468627"><ele>271.5</ele><time>2026-05-03T08:29:20.404Z</time></trkpt><trkpt lat="43.5137216" lon="11.1467541"><ele>272.3333333333333</ele><time>2026-05-03T08:29:22.461Z</time></trkpt><trkpt lat="43.5136792" lon="11.1466434"><ele>273.16666666666663</ele><time>2026-05-03T08:29:24.413Z</time></trkpt><trkpt lat="43.5136457" lon="11.1465607"><ele>274.0</ele><time>2026-05-03T08:29:26.415Z</time></trkpt><trkpt lat="43.5135937" lon="11.1464771"><ele>271.66666666666663</ele><time>2026-05-03T08:29:28.464Z</time></trkpt><trkpt lat="43.5135186" lon="11.1464052"><ele>269.3333333333333</ele><time>2026-05-03T08:29:30.413Z</time></trkpt><trkpt lat="43.513435" lon="11.146354"><ele>267.0</ele><time>2026-05-03T08:29:32.475Z</time></trkpt><trkpt lat="43.513359" lon="11.1463159"><ele>264.6666666666667</ele><time>2026-05-03T08:29:34.394Z</time></trkpt><trkpt lat="43.51329" lon="11.1462967"><ele>262.33333333333337</ele><time>2026-05-03T08:29:36.4Z</time></trkpt><trkpt lat="43.5132067" lon="11.1462821"><ele>260.0</ele><time>2026-05-03T08:29:39.412Z</time></trkpt><trkpt lat="43.5131199" lon="11.1462603"><ele>260.0</ele><time>2026-05-03T08:29:42.42Z</time></trkpt><trkpt lat="43.5130379" lon="11.1463052"><ele>260.0</ele><time>2026-05-03T08:29:44.425Z</time></trkpt><trkpt lat="43.512951" lon="11.1463589"><ele>260.0</ele><time>2026-05-03T08:29:46.412Z</time></trkpt><trkpt lat="43.5128678" lon="11.1464075"><ele>260.0</ele><time>2026-05-03T08:29:48.399Z</time></trkpt><trkpt lat="43.5127785" lon="11.1464003"><ele>260.0</ele><time>2026-05-03T08:29:50.402Z</time></trkpt><trkpt lat="43.5126756" lon="11.1463718"><ele>259.6</ele><time>2026-05-03T08:29:52.404Z</time></trkpt><trkpt lat="43.512564" lon="11.1463202"><ele>259.2</ele><time>2026-05-03T08:29:54.412Z</time></trkpt><trkpt lat="43.5124512" lon="11.1462703"><ele>258.8</ele><time>2026-05-03T08:29:56.444Z</time></trkpt><trkpt lat="43.5123299" lon="11.1462339"><ele>258.4</ele><time>2026-05-03T08:29:58.403Z</time></trkpt><trkpt lat="43.5122677" lon="11.1462114"><ele>258.0</ele><time>2026-05-03T08:29:59.407Z</time></trkpt><trkpt lat="43.5122042" lon="11.1461858"><ele>257.99999999999994</ele><time>2026-05-03T08:30:00.403Z</time></trkpt><trkpt lat="43.5121422" lon="11.1461553"><ele>258.0</ele><time>2026-05-03T08:30:01.417Z</time></trkpt><trkpt lat="43.5120778" lon="11.1461279"><ele>258.0</ele><time>2026-05-03T08:30:02.412Z</time></trkpt><trkpt lat="43.5120112" lon="11.1461014"><ele>258.0</ele><time>2026-05-03T08:30:03.404Z</time></trkpt><trkpt lat="43.5119403" lon="11.1460755"><ele>258.0</ele><time>2026-05-03T08:30:04.391Z</time></trkpt><trkpt lat="43.5118689" lon="11.146046"><ele>257.99999999999994</ele><time>2026-05-03T08:30:05.414Z</time></trkpt><trkpt lat="43.5118035" lon="11.1460127"><ele>258.0</ele><time>2026-05-03T08:30:06.412Z</time></trkpt><trkpt lat="43.5117362" lon="11.1459781"><ele>256.8333333333333</ele><time>2026-05-03T08:30:07.47Z</time></trkpt><trkpt lat="43.5116771" lon="11.1459387"><ele>255.66666666666669</ele><time>2026-05-03T08:30:08.401Z</time></trkpt><trkpt lat="43.5116181" lon="11.1458988"><ele>254.5</ele><time>2026-05-03T08:30:09.403Z</time></trkpt><trkpt lat="43.5115483" lon="11.1458669"><ele>253.33333333333334</ele><time>2026-05-03T08:30:10.405Z</time></trkpt><trkpt lat="43.5114718" lon="11.1458179"><ele>252.16666666666669</ele><time>2026-05-03T08:30:11.479Z</time></trkpt><trkpt lat="43.5113954" lon="11.1457716"><ele>251.0</ele><time>2026-05-03T08:30:12.47Z</time></trkpt><trkpt lat="43.5113183" lon="11.1457312"><ele>250.0</ele><time>2026-05-03T08:30:13.398Z</time></trkpt><trkpt lat="43.5112407" lon="11.1456843"><ele>249.00000000000003</ele><time>2026-05-03T08:30:14.41Z</time></trkpt><trkpt lat="43.5111485" lon="11.1456257"><ele>248.00000000000003</ele><time>2026-05-03T08:30:15.398Z</time></trkpt><trkpt lat="43.511067" lon="11.1455594"><ele>247.0</ele><time>2026-05-03T08:30:16.408Z</time></trkpt><trkpt lat="43.5109798" lon="11.1455038"><ele>246.0</ele><time>2026-05-03T08:30:17.402Z</time></trkpt><trkpt lat="43.5108906" lon="11.1454443"><ele>245.0</ele><time>2026-05-03T08:30:18.396Z</time></trkpt><trkpt lat="43.510794" lon="11.145386"><ele>244.00000000000003</ele><time>2026-05-03T08:30:19.398Z</time></trkpt><trkpt lat="43.5106931" lon="11.1453376"><ele>243.00000000000003</ele><time>2026-05-03T08:30:20.424Z</time></trkpt><trkpt lat="43.5105836" lon="11.1453021"><ele>242.0</ele><time>2026-05-03T08:30:21.399Z</time></trkpt><trkpt lat="43.5104632" lon="11.1452793"><ele>241.0</ele><time>2026-05-03T08:30:22.42Z</time></trkpt><trkpt lat="43.5103454" lon="11.1452495"><ele>238.75</ele><time>2026-05-03T08:30:23.389Z</time></trkpt><trkpt lat="43.5102274" lon="11.1452214"><ele>236.5</ele><time>2026-05-03T08:30:24.388Z</time></trkpt><trkpt lat="43.5101106" lon="11.145194"><ele>234.25</ele><time>2026-05-03T08:30:25.404Z</time></trkpt><trkpt lat="43.5099986" lon="11.1451779"><ele>232.0</ele><time>2026-05-03T08:30:26.398Z</time></trkpt><trkpt lat="43.5098913" lon="11.1451618"><ele>232.0</ele><time>2026-05-03T08:30:27.425Z</time></trkpt><trkpt lat="43.5097913" lon="11.14514"><ele>232.0</ele><time>2026-05-03T08:30:28.482Z</time></trkpt><trkpt lat="43.5097049" lon="11.145118"><ele>232.0</ele><time>2026-05-03T08:30:29.416Z</time></trkpt><trkpt lat="43.5096173" lon="11.1451052"><ele>232.0</ele><time>2026-05-03T08:30:30.404Z</time></trkpt><trkpt lat="43.5095305" lon="11.1451005"><ele>232.0</ele><time>2026-05-03T08:30:31.399Z</time></trkpt><trkpt lat="43.5094396" lon="11.1451119"><ele>232.66666666666666</ele><time>2026-05-03T08:30:32.399Z</time></trkpt><trkpt lat="43.5093512" lon="11.1451302"><ele>233.33333333333331</ele><time>2026-05-03T08:30:33.469Z</time></trkpt><trkpt lat="43.5092617" lon="11.1451502"><ele>234.0</ele><time>2026-05-03T08:30:34.41Z</time></trkpt><trkpt lat="43.5091739" lon="11.1451579"><ele>234.66666666666669</ele><time>2026-05-03T08:30:35.406Z</time></trkpt><trkpt lat="43.5090911" lon="11.1451729"><ele>235.33333333333334</ele><time>2026-05-03T08:30:36.481Z</time></trkpt><trkpt lat="43.5090221" lon="11.1451842"><ele>236.0</ele><time>2026-05-03T08:30:37.473Z</time></trkpt><trkpt lat="43.5089125" lon="11.1452005"><ele>236.0</ele><time>2026-05-03T08:30:39.414Z</time></trkpt><trkpt lat="43.5088278" lon="11.1452391"><ele>236.00000000000003</ele><time>2026-05-03T08:30:41.405Z</time></trkpt><trkpt lat="43.5087252" lon="11.1452693"><ele>236.00000000000003</ele><time>2026-05-03T08:30:43.476Z</time></trkpt><trkpt lat="43.5086424" lon="11.1452763"><ele>236.0</ele><time>2026-05-03T08:30:45.4Z</time></trkpt><trkpt lat="43.5085116" lon="11.145323"><ele>236.0</ele><time>2026-05-03T08:30:47.472Z</time></trkpt><trkpt lat="43.5084435" lon="11.1453505"><ele>237.16666666666669</ele><time>2026-05-03T08:30:48.47Z</time></trkpt><trkpt lat="43.5083743" lon="11.145378"><ele>238.33333333333334</ele><time>2026-05-03T08:30:49.402Z</time></trkpt><trkpt lat="43.5083078" lon="11.1454038"><ele>239.5</ele><time>2026-05-03T08:30:50.404Z</time></trkpt><trkpt lat="43.508241" lon="11.1454309"><ele>240.66666666666669</ele><time>2026-05-03T08:30:51.402Z</time></trkpt><trkpt lat="43.5081762" lon="11.1454512"><ele>241.83333333333334</ele><time>2026-05-03T08:30:52.406Z</time></trkpt><trkpt lat="43.5081136" lon="11.1454625"><ele>243.0</ele><time>2026-05-03T08:30:53.416Z</time></trkpt><trkpt lat="43.5079877" lon="11.1454877"><ele>243.0</ele><time>2026-05-03T08:30:55.41Z</time></trkpt><trkpt lat="43.5079136" lon="11.1454973"><ele>243.0</ele><time>2026-05-03T08:30:56.414Z</time></trkpt><trkpt lat="43.5078386" lon="11.1455068"><ele>243.0</ele><time>2026-05-03T08:30:57.41Z</time></trkpt><trkpt lat="43.5077653" lon="11.1455177"><ele>243.0</ele><time>2026-05-03T08:30:58.406Z</time></trkpt><trkpt lat="43.5076907" lon="11.1455208"><ele>243.0</ele><time>2026-05-03T08:30:59.425Z</time></trkpt><trkpt lat="43.5076148" lon="11.1455068"><ele>243.0</ele><time>2026-05-03T08:31:00.423Z</time></trkpt><trkpt lat="43.5075322" lon="11.1454735"><ele>242.16666666666666</ele><time>2026-05-03T08:31:01.479Z</time></trkpt><trkpt lat="43.5074561" lon="11.1454424"><ele>241.33333333333331</ele><time>2026-05-03T08:31:02.403Z</time></trkpt><trkpt lat="43.5073788" lon="11.1454167"><ele>240.5</ele><time>2026-05-03T08:31:03.397Z</time></trkpt><trkpt lat="43.5073046" lon="11.145393"><ele>239.66666666666666</ele><time>2026-05-03T08:31:04.412Z</time></trkpt><trkpt lat="43.5072278" lon="11.14538"><ele>238.83333333333331</ele><time>2026-05-03T08:31:05.413Z</time></trkpt><trkpt lat="43.5071489" lon="11.1453729"><ele>238.0</ele><time>2026-05-03T08:31:06.401Z</time></trkpt><trkpt lat="43.5070646" lon="11.1453712"><ele>236.66666666666666</ele><time>2026-05-03T08:31:07.475Z</time></trkpt><trkpt lat="43.5069921" lon="11.1453735"><ele>235.33333333333331</ele><time>2026-05-03T08:31:08.475Z</time></trkpt><trkpt lat="43.506928" lon="11.1453807"><ele>234.0</ele><time>2026-05-03T08:31:09.384Z</time></trkpt><trkpt lat="43.5068521" lon="11.1453935"><ele>232.66666666666669</ele><time>2026-05-03T08:31:10.393Z</time></trkpt><trkpt lat="43.5067748" lon="11.1454061"><ele>231.33333333333334</ele><time>2026-05-03T08:31:11.413Z</time></trkpt><trkpt lat="43.5066802" lon="11.1454258"><ele>230.0</ele><time>2026-05-03T08:31:12.477Z</time></trkpt><trkpt lat="43.5065954" lon="11.1454281"><ele>230.0</ele><time>2026-05-03T08:31:13.385Z</time></trkpt><trkpt lat="43.5065103" lon="11.1454243"><ele>230.0</ele><time>2026-05-03T08:31:14.407Z</time></trkpt><trkpt lat="43.5064239" lon="11.1454209"><ele>230.0</ele><time>2026-05-03T08:31:15.406Z</time></trkpt><trkpt lat="43.5063268" lon="11.1454228"><ele>230.0</ele><time>2026-05-03T08:31:16.415Z</time></trkpt><trkpt lat="43.5062266" lon="11.1454251"><ele>230.0</ele><time>2026-05-03T08:31:17.476Z</time></trkpt><trkpt lat="43.5061237" lon="11.1454385"><ele>228.33333333333334</ele><time>2026-05-03T08:31:18.474Z</time></trkpt><trkpt lat="43.5060321" lon="11.1454485"><ele>226.66666666666669</ele><time>2026-05-03T08:31:19.392Z</time></trkpt><trkpt lat="43.5059374" lon="11.1454585"><ele>225.0</ele><time>2026-05-03T08:31:20.398Z</time></trkpt><trkpt lat="43.5058491" lon="11.1454701"><ele>223.33333333333331</ele><time>2026-05-03T08:31:21.399Z</time></trkpt><trkpt lat="43.5057669" lon="11.1454786"><ele>221.66666666666666</ele><time>2026-05-03T08:31:22.406Z</time></trkpt><trkpt lat="43.5056942" lon="11.1454788"><ele>220.0</ele><time>2026-05-03T08:31:23.482Z</time></trkpt><trkpt lat="43.5055603" lon="11.1454852"><ele>219.99999999999997</ele><time>2026-05-03T08:31:25.43Z</time></trkpt><trkpt lat="43.5054937" lon="11.1454874"><ele>220.0</ele><time>2026-05-03T08:31:26.406Z</time></trkpt><trkpt lat="43.5054213" lon="11.1454965"><ele>220.0</ele><time>2026-05-03T08:31:27.406Z</time></trkpt><trkpt lat="43.5053481" lon="11.1455019"><ele>220.0</ele><time>2026-05-03T08:31:28.424Z</time></trkpt><trkpt lat="43.5052731" lon="11.1454996"><ele>220.0</ele><time>2026-05-03T08:31:29.416Z</time></trkpt><trkpt lat="43.5052024" lon="11.1455011"><ele>219.99999999999997</ele><time>2026-05-03T08:31:30.407Z</time></trkpt><trkpt lat="43.5051308" lon="11.1455032"><ele>220.0</ele><time>2026-05-03T08:31:31.41Z</time></trkpt><trkpt lat="43.5050548" lon="11.1455123"><ele>218.66666666666666</ele><time>2026-05-03T08:31:32.412Z</time></trkpt><trkpt lat="43.5049777" lon="11.145517"><ele>217.33333333333331</ele><time>2026-05-03T08:31:33.413Z</time></trkpt><trkpt lat="43.5049016" lon="11.1455212"><ele>216.0</ele><time>2026-05-03T08:31:34.404Z</time></trkpt><trkpt lat="43.5048213" lon="11.1455297"><ele>214.66666666666669</ele><time>2026-05-03T08:31:35.41Z</time></trkpt><trkpt lat="43.5047442" lon="11.1455414"><ele>213.33333333333334</ele><time>2026-05-03T08:31:36.403Z</time></trkpt><trkpt lat="43.5046673" lon="11.1455605"><ele>212.0</ele><time>2026-05-03T08:31:37.481Z</time></trkpt><trkpt lat="43.5046011" lon="11.1455905"><ele>210.16666666666669</ele><time>2026-05-03T08:31:38.469Z</time></trkpt><trkpt lat="43.5045363" lon="11.145614"><ele>208.33333333333334</ele><time>2026-05-03T08:31:39.407Z</time></trkpt><trkpt lat="43.5044177" lon="11.1456329"><ele>206.5</ele><time>2026-05-03T08:31:41.419Z</time></trkpt><trkpt lat="43.504324" lon="11.1455371"><ele>204.66666666666669</ele><time>2026-05-03T08:31:43.48Z</time></trkpt><trkpt lat="43.5042987" lon="11.1454421"><ele>202.83333333333334</ele><time>2026-05-03T08:31:44.39Z</time></trkpt><trkpt lat="43.5042637" lon="11.1453593"><ele>201.0</ele><time>2026-05-03T08:31:45.422Z</time></trkpt><trkpt lat="43.5041359" lon="11.1453392"><ele>201.0</ele><time>2026-05-03T08:31:47.468Z</time></trkpt><trkpt lat="43.5040548" lon="11.1453724"><ele>201.0</ele><time>2026-05-03T08:31:48.472Z</time></trkpt><trkpt lat="43.5039949" lon="11.1454239"><ele>201.0</ele><time>2026-05-03T08:31:49.378Z</time></trkpt><trkpt lat="43.5039229" lon="11.1454828"><ele>201.0</ele><time>2026-05-03T08:31:50.405Z</time></trkpt><trkpt lat="43.5038658" lon="11.1455228"><ele>201.0</ele><time>2026-05-03T08:31:51.401Z</time></trkpt><trkpt lat="43.5037696" lon="11.145489"><ele>201.0</ele><time>2026-05-03T08:31:53.404Z</time></trkpt><trkpt lat="43.5037258" lon="11.1454201"><ele>199.0</ele><time>2026-05-03T08:31:54.406Z</time></trkpt><trkpt lat="43.5036751" lon="11.1453094"><ele>197.0</ele><time>2026-05-03T08:31:55.415Z</time></trkpt><trkpt lat="43.5036372" lon="11.1451877"><ele>195.0</ele><time>2026-05-03T08:31:56.402Z</time></trkpt><trkpt lat="43.5036064" lon="11.1450751"><ele>193.0</ele><time>2026-05-03T08:31:57.48Z</time></trkpt><trkpt lat="43.503586" lon="11.1449843"><ele>191.0</ele><time>2026-05-03T08:31:58.475Z</time></trkpt><trkpt lat="43.5035548" lon="11.1449015"><ele>189.0</ele><time>2026-05-03T08:31:59.433Z</time></trkpt><trkpt lat="43.503503" lon="11.1448345"><ele>189.0</ele><time>2026-05-03T08:32:00.397Z</time></trkpt><trkpt lat="43.5034237" lon="11.1447873"><ele>189.0</ele><time>2026-05-03T08:32:01.403Z</time></trkpt><trkpt lat="43.5033205" lon="11.1447786"><ele>189.0</ele><time>2026-05-03T08:32:02.416Z</time></trkpt><trkpt lat="43.5032172" lon="11.1447722"><ele>189.0</ele><time>2026-05-03T08:32:03.399Z</time></trkpt><trkpt lat="43.5031099" lon="11.1447601"><ele>189.0</ele><time>2026-05-03T08:32:04.407Z</time></trkpt><trkpt lat="43.5029993" lon="11.1447385"><ele>185.25</ele><time>2026-05-03T08:32:05.399Z</time></trkpt><trkpt lat="43.5028878" lon="11.1446983"><ele>181.5</ele><time>2026-05-03T08:32:06.418Z</time></trkpt><trkpt lat="43.5027812" lon="11.144644"><ele>177.75</ele><time>2026-05-03T08:32:07.404Z</time></trkpt><trkpt lat="43.5026776" lon="11.1445738"><ele>174.0</ele><time>2026-05-03T08:32:08.391Z</time></trkpt><trkpt lat="43.5025767" lon="11.1445068"><ele>174.0</ele><time>2026-05-03T08:32:09.405Z</time></trkpt><trkpt lat="43.502479" lon="11.1444404"><ele>174.0</ele><time>2026-05-03T08:32:10.418Z</time></trkpt><trkpt lat="43.5023819" lon="11.1443685"><ele>174.0</ele><time>2026-05-03T08:32:11.434Z</time></trkpt><trkpt lat="43.502276" lon="11.144302"><ele>174.0</ele><time>2026-05-03T08:32:12.412Z</time></trkpt><trkpt lat="43.5021632" lon="11.1442321"><ele>172.79999999999998</ele><time>2026-05-03T08:32:13.472Z</time></trkpt><trkpt lat="43.5020663" lon="11.1441816"><ele>171.6</ele><time>2026-05-03T08:32:14.401Z</time></trkpt><trkpt lat="43.5019665" lon="11.1441382"><ele>170.4</ele><time>2026-05-03T08:32:15.412Z</time></trkpt><trkpt lat="43.5018587" lon="11.1440855"><ele>169.2</ele><time>2026-05-03T08:32:16.407Z</time></trkpt><trkpt lat="43.5017501" lon="11.1440205"><ele>168.0</ele><time>2026-05-03T08:32:17.389Z</time></trkpt><trkpt lat="43.5016467" lon="11.1439511"><ele>168.0</ele><time>2026-05-03T08:32:18.407Z</time></trkpt><trkpt lat="43.5015542" lon="11.1438852"><ele>168.0</ele><time>2026-05-03T08:32:19.399Z</time></trkpt><trkpt lat="43.5014617" lon="11.1438205"><ele>168.0</ele><time>2026-05-03T08:32:20.415Z</time></trkpt><trkpt lat="43.50137" lon="11.1437605"><ele>168.0</ele><time>2026-05-03T08:32:21.41Z</time></trkpt><trkpt lat="43.5012742" lon="11.1437008"><ele>168.0</ele><time>2026-05-03T08:32:22.48Z</time></trkpt><trkpt lat="43.5011844" lon="11.1436529"><ele>167.5</ele><time>2026-05-03T08:32:23.412Z</time></trkpt><trkpt lat="43.5010897" lon="11.1436244"><ele>167.0</ele><time>2026-05-03T08:32:24.417Z</time></trkpt><trkpt lat="43.5009975" lon="11.1436128"><ele>166.5</ele><time>2026-05-03T08:32:25.404Z</time></trkpt><trkpt lat="43.5009116" lon="11.1436071"><ele>166.0</ele><time>2026-05-03T08:32:26.421Z</time></trkpt><trkpt lat="43.5008331" lon="11.1436086"><ele>165.5</ele><time>2026-05-03T08:32:27.395Z</time></trkpt><trkpt lat="43.5007586" lon="11.1436092"><ele>165.0</ele><time>2026-05-03T08:32:28.464Z</time></trkpt><trkpt lat="43.5006933" lon="11.1436002"><ele>165.0</ele><time>2026-05-03T08:32:29.402Z</time></trkpt><trkpt lat="43.5005742" lon="11.1435813"><ele>165.0</ele><time>2026-05-03T08:32:31.472Z</time></trkpt><trkpt lat="43.5004803" lon="11.1435716"><ele>165.0</ele><time>2026-05-03T08:32:33.402Z</time></trkpt><trkpt lat="43.5003971" lon="11.1435642"><ele>165.0</ele><time>2026-05-03T08:32:35.401Z</time></trkpt><trkpt lat="43.5003277" lon="11.1435557"><ele>165.0</ele><time>2026-05-03T08:32:37.409Z</time></trkpt><trkpt lat="43.5002344" lon="11.1435406"><ele>166.66666666666666</ele><time>2026-05-03T08:32:40.426Z</time></trkpt><trkpt lat="43.5001643" lon="11.1435419"><ele>168.33333333333334</ele><time>2026-05-03T08:32:42.475Z</time></trkpt><trkpt lat="43.5000869" lon="11.1435095"><ele>170.0</ele><time>2026-05-03T08:32:44.392Z</time></trkpt><trkpt lat="43.5000011" lon="11.1434425"><ele>171.66666666666669</ele><time>2026-05-03T08:32:46.391Z</time></trkpt><trkpt lat="43.4999191" lon="11.1434246"><ele>173.33333333333334</ele><time>2026-05-03T08:32:48.478Z</time></trkpt><trkpt lat="43.4998385" lon="11.1434959"><ele>175.0</ele><time>2026-05-03T08:32:50.397Z</time></trkpt><trkpt lat="43.4997725" lon="11.1435484"><ele>175.0</ele><time>2026-05-03T08:32:52.467Z</time></trkpt><trkpt lat="43.4997067" lon="11.1435861"><ele>175.0</ele><time>2026-05-03T08:32:54.409Z</time></trkpt><trkpt lat="43.4996159" lon="11.143635"><ele>175.0</ele><time>2026-05-03T08:32:56.396Z</time></trkpt><trkpt lat="43.4995301" lon="11.1436635"><ele>175.0</ele><time>2026-05-03T08:32:58.471Z</time></trkpt><trkpt lat="43.499414" lon="11.1436613"><ele>175.0</ele><time>2026-05-03T08:33:00.405Z</time></trkpt><trkpt lat="43.4992997" lon="11.14365"><ele>177.0</ele><time>2026-05-03T08:33:02.4Z</time></trkpt><trkpt lat="43.4991854" lon="11.1436168"><ele>179.0</ele><time>2026-05-03T08:33:04.408Z</time></trkpt><trkpt lat="43.4990803" lon="11.1436026"><ele>181.0</ele><time>2026-05-03T08:33:06.401Z</time></trkpt><trkpt lat="43.4989845" lon="11.1435826"><ele>183.0</ele><time>2026-05-03T08:33:08.452Z</time></trkpt><trkpt lat="43.4988514" lon="11.143553"><ele>183.0</ele><time>2026-05-03T08:33:11.426Z</time></trkpt><trkpt lat="43.4987559" lon="11.143537"><ele>183.0</ele><time>2026-05-03T08:33:13.428Z</time></trkpt><trkpt lat="43.4986542" lon="11.1435244"><ele>183.0</ele><time>2026-05-03T08:33:15.43Z</time></trkpt><trkpt lat="43.4985415" lon="11.1435136"><ele>183.0</ele><time>2026-05-03T08:33:17.429Z</time></trkpt><trkpt lat="43.4984332" lon="11.143494"><ele>183.0</ele><time>2026-05-03T08:33:19.4Z</time></trkpt><trkpt lat="43.4983307" lon="11.1434701"><ele>182.0</ele><time>2026-05-03T08:33:21.409Z</time></trkpt><trkpt lat="43.4982169" lon="11.1434531"><ele>181.0</ele><time>2026-05-03T08:33:23.411Z</time></trkpt><trkpt lat="43.4981034" lon="11.1434344"><ele>180.0</ele><time>2026-05-03T08:33:25.395Z</time></trkpt><trkpt lat="43.4979912" lon="11.1434203"><ele>179.0</ele><time>2026-05-03T08:33:27.399Z</time></trkpt><trkpt lat="43.4978827" lon="11.143398"><ele>177.0</ele><time>2026-05-03T08:33:29.432Z</time></trkpt><trkpt lat="43.4977678" lon="11.1433688"><ele>175.0</ele><time>2026-05-03T08:33:31.387Z</time></trkpt><trkpt lat="43.4976452" lon="11.1433342"><ele>173.0</ele><time>2026-05-03T08:33:33.393Z</time></trkpt><trkpt lat="43.4975809" lon="11.1433089"><ele>171.0</ele><time>2026-05-03T08:33:34.394Z</time></trkpt><trkpt lat="43.4975142" lon="11.1432689"><ele>169.0</ele><time>2026-05-03T08:33:35.421Z</time></trkpt><trkpt lat="43.4974437" lon="11.1432244"><ele>170.5</ele><time>2026-05-03T08:33:36.405Z</time></trkpt><trkpt lat="43.4973773" lon="11.1431721"><ele>172.0</ele><time>2026-05-03T08:33:37.415Z</time></trkpt><trkpt lat="43.4973114" lon="11.1431192"><ele>173.5</ele><time>2026-05-03T08:33:38.414Z</time></trkpt><trkpt lat="43.4972444" lon="11.1430713"><ele>175.0</ele><time>2026-05-03T08:33:39.399Z</time></trkpt><trkpt lat="43.4971743" lon="11.1430318"><ele>176.5</ele><time>2026-05-03T08:33:40.405Z</time></trkpt><trkpt lat="43.4970985" lon="11.1430144"><ele>178.0</ele><time>2026-05-03T08:33:41.401Z</time></trkpt><trkpt lat="43.4970198" lon="11.1430171"><ele>178.0</ele><time>2026-05-03T08:33:42.396Z</time></trkpt><trkpt lat="43.4969353" lon="11.1430348"><ele>178.0</ele><time>2026-05-03T08:33:43.405Z</time></trkpt><trkpt lat="43.4968494" lon="11.1430603"><ele>178.0</ele><time>2026-05-03T08:33:44.403Z</time></trkpt><trkpt lat="43.4967663" lon="11.1430845"><ele>178.0</ele><time>2026-05-03T08:33:45.393Z</time></trkpt><trkpt lat="43.4966874" lon="11.1431037"><ele>178.0</ele><time>2026-05-03T08:33:46.401Z</time></trkpt><trkpt lat="43.4966079" lon="11.1431237"><ele>178.0</ele><time>2026-05-03T08:33:47.416Z</time></trkpt><trkpt lat="43.496526" lon="11.1431447"><ele>178.0</ele><time>2026-05-03T08:33:48.401Z</time></trkpt><trkpt lat="43.4964428" lon="11.143164"><ele>178.0</ele><time>2026-05-03T08:33:49.399Z</time></trkpt><trkpt lat="43.4963631" lon="11.1431861"><ele>178.0</ele><time>2026-05-03T08:33:50.388Z</time></trkpt><trkpt lat="43.4962869" lon="11.1432086"><ele>178.0</ele><time>2026-05-03T08:33:51.423Z</time></trkpt><trkpt lat="43.4962063" lon="11.1432296"><ele>178.0</ele><time>2026-05-03T08:33:52.401Z</time></trkpt><trkpt lat="43.4961234" lon="11.1432558"><ele>178.0</ele><time>2026-05-03T08:33:53.406Z</time></trkpt><trkpt lat="43.4960413" lon="11.1432833"><ele>175.16666666666669</ele><time>2026-05-03T08:33:54.403Z</time></trkpt><trkpt lat="43.4959565" lon="11.1433043"><ele>172.33333333333334</ele><time>2026-05-03T08:33:55.4Z</time></trkpt><trkpt lat="43.4958715" lon="11.1433278"><ele>169.5</ele><time>2026-05-03T08:33:56.411Z</time></trkpt><trkpt lat="43.4957822" lon="11.1433549"><ele>166.66666666666666</ele><time>2026-05-03T08:33:57.407Z</time></trkpt><trkpt lat="43.4956947" lon="11.1433907"><ele>163.83333333333331</ele><time>2026-05-03T08:33:58.414Z</time></trkpt><trkpt lat="43.4956078" lon="11.1434179"><ele>161.0</ele><time>2026-05-03T08:33:59.403Z</time></trkpt><trkpt lat="43.4955222" lon="11.1434408"><ele>161.0</ele><time>2026-05-03T08:34:00.401Z</time></trkpt><trkpt lat="43.495441" lon="11.1434634"><ele>161.0</ele><time>2026-05-03T08:34:01.406Z</time></trkpt><trkpt lat="43.495355" lon="11.1434875"><ele>161.0</ele><time>2026-05-03T08:34:02.401Z</time></trkpt><trkpt lat="43.4952725" lon="11.1435143"><ele>161.0</ele><time>2026-05-03T08:34:03.4Z</time></trkpt><trkpt lat="43.4951947" lon="11.143541"><ele>161.0</ele><time>2026-05-03T08:34:04.433Z</time></trkpt><trkpt lat="43.4951145" lon="11.1435673"><ele>161.0</ele><time>2026-05-03T08:34:05.394Z</time></trkpt><trkpt lat="43.4950328" lon="11.1435891"><ele>161.0</ele><time>2026-05-03T08:34:06.415Z</time></trkpt><trkpt lat="43.4949454" lon="11.1436101"><ele>161.0</ele><time>2026-05-03T08:34:07.397Z</time></trkpt><trkpt lat="43.4948586" lon="11.1436321"><ele>161.0</ele><time>2026-05-03T08:34:08.405Z</time></trkpt><trkpt lat="43.4947728" lon="11.1436529"><ele>161.0</ele><time>2026-05-03T08:34:09.395Z</time></trkpt><trkpt lat="43.4946869" lon="11.1436883"><ele>161.0</ele><time>2026-05-03T08:34:10.402Z</time></trkpt><trkpt lat="43.4946012" lon="11.143731"><ele>161.0</ele><time>2026-05-03T08:34:11.403Z</time></trkpt><trkpt lat="43.4945148" lon="11.1437745"><ele>160.8</ele><time>2026-05-03T08:34:12.394Z</time></trkpt><trkpt lat="43.4944281" lon="11.143819"><ele>160.60000000000002</ele><time>2026-05-03T08:34:13.419Z</time></trkpt><trkpt lat="43.4943364" lon="11.1438651"><ele>160.4</ele><time>2026-05-03T08:34:14.389Z</time></trkpt><trkpt lat="43.4942412" lon="11.1439069"><ele>160.2</ele><time>2026-05-03T08:34:15.407Z</time></trkpt><trkpt lat="43.4941516" lon="11.1439489"><ele>160.0</ele><time>2026-05-03T08:34:16.396Z</time></trkpt><trkpt lat="43.4940619" lon="11.1439919"><ele>160.0</ele><time>2026-05-03T08:34:17.392Z</time></trkpt><trkpt lat="43.4939759" lon="11.1440421"><ele>160.0</ele><time>2026-05-03T08:34:18.411Z</time></trkpt><trkpt lat="43.4938951" lon="11.1440846"><ele>160.0</ele><time>2026-05-03T08:34:19.409Z</time></trkpt><trkpt lat="43.4938173" lon="11.1441197"><ele>160.0</ele><time>2026-05-03T08:34:20.394Z</time></trkpt><trkpt lat="43.4937376" lon="11.1441594"><ele>160.0</ele><time>2026-05-03T08:34:21.411Z</time></trkpt><trkpt lat="43.4936645" lon="11.1441984"><ele>160.0</ele><time>2026-05-03T08:34:22.422Z</time></trkpt><trkpt lat="43.493597" lon="11.1442314"><ele>159.28571428571428</ele><time>2026-05-03T08:34:23.407Z</time></trkpt><trkpt lat="43.493527" lon="11.1442663"><ele>158.57142857142858</ele><time>2026-05-03T08:34:24.394Z</time></trkpt><trkpt lat="43.4934541" lon="11.1442966"><ele>157.85714285714286</ele><time>2026-05-03T08:34:25.405Z</time></trkpt><trkpt lat="43.493384" lon="11.144328"><ele>157.14285714285714</ele><time>2026-05-03T08:34:26.394Z</time></trkpt><trkpt lat="43.4933156" lon="11.1443605"><ele>156.42857142857142</ele><time>2026-05-03T08:34:27.397Z</time></trkpt><trkpt lat="43.4932482" lon="11.1443973"><ele>155.71428571428572</ele><time>2026-05-03T08:34:28.401Z</time></trkpt><trkpt lat="43.4931815" lon="11.1444299"><ele>155.0</ele><time>2026-05-03T08:34:29.384Z</time></trkpt><trkpt lat="43.4931149" lon="11.144461"><ele>155.0</ele><time>2026-05-03T08:34:30.415Z</time></trkpt><trkpt lat="43.4930023" lon="11.1445076"><ele>155.0</ele><time>2026-05-03T08:34:32.407Z</time></trkpt><trkpt lat="43.4928942" lon="11.1445578"><ele>155.0</ele><time>2026-05-03T08:34:34.393Z</time></trkpt><trkpt lat="43.492793" lon="11.1446171"><ele>155.0</ele><time>2026-05-03T08:34:36.413Z</time></trkpt><trkpt lat="43.49268" lon="11.1446796"><ele>155.57142857142858</ele><time>2026-05-03T08:34:38.399Z</time></trkpt><trkpt lat="43.492616" lon="11.1447101"><ele>156.14285714285714</ele><time>2026-05-03T08:34:39.398Z</time></trkpt><trkpt lat="43.4925553" lon="11.1447401"><ele>156.71428571428572</ele><time>2026-05-03T08:34:40.418Z</time></trkpt><trkpt lat="43.4924925" lon="11.1447675"><ele>157.28571428571428</ele><time>2026-05-03T08:34:41.415Z</time></trkpt><trkpt lat="43.4924324" lon="11.1447997"><ele>157.85714285714286</ele><time>2026-05-03T08:34:42.413Z</time></trkpt><trkpt lat="43.492372" lon="11.1448377"><ele>158.42857142857142</ele><time>2026-05-03T08:34:43.423Z</time></trkpt><trkpt lat="43.4923108" lon="11.1448716"><ele>159.0</ele><time>2026-05-03T08:34:44.397Z</time></trkpt><trkpt lat="43.4922407" lon="11.1449136"><ele>156.83333333333334</ele><time>2026-05-03T08:34:45.402Z</time></trkpt><trkpt lat="43.4921729" lon="11.1449501"><ele>154.66666666666666</ele><time>2026-05-03T08:34:46.416Z</time></trkpt><trkpt lat="43.492103" lon="11.1449861"><ele>152.5</ele><time>2026-05-03T08:34:47.402Z</time></trkpt><trkpt lat="43.4920276" lon="11.1450172"><ele>150.33333333333331</ele><time>2026-05-03T08:34:48.418Z</time></trkpt><trkpt lat="43.4919493" lon="11.145049"><ele>148.16666666666666</ele><time>2026-05-03T08:34:49.392Z</time></trkpt><trkpt lat="43.4918787" lon="11.1450834"><ele>146.0</ele><time>2026-05-03T08:34:50.4Z</time></trkpt><trkpt lat="43.4918089" lon="11.1451162"><ele>145.83333333333331</ele><time>2026-05-03T08:34:51.397Z</time></trkpt><trkpt lat="43.4917425" lon="11.1451519"><ele>145.66666666666666</ele><time>2026-05-03T08:34:52.408Z</time></trkpt><trkpt lat="43.4916725" lon="11.1451812"><ele>145.5</ele><time>2026-05-03T08:34:53.402Z</time></trkpt><trkpt lat="43.4915993" lon="11.1452189"><ele>145.33333333333334</ele><time>2026-05-03T08:34:54.383Z</time></trkpt><trkpt lat="43.491529" lon="11.1452551"><ele>145.16666666666669</ele><time>2026-05-03T08:34:55.407Z</time></trkpt><trkpt lat="43.4914568" lon="11.1452935"><ele>145.0</ele><time>2026-05-03T08:34:56.39Z</time></trkpt><trkpt lat="43.4913768" lon="11.1453336"><ele>145.0</ele><time>2026-05-03T08:34:57.415Z</time></trkpt><trkpt lat="43.4912953" lon="11.1453652"><ele>145.0</ele><time>2026-05-03T08:34:58.413Z</time></trkpt><trkpt lat="43.491206" lon="11.1453886"><ele>145.0</ele><time>2026-05-03T08:34:59.407Z</time></trkpt><trkpt lat="43.4911071" lon="11.1454024"><ele>145.0</ele><time>2026-05-03T08:35:00.408Z</time></trkpt><trkpt lat="43.4910052" lon="11.145411"><ele>145.0</ele><time>2026-05-03T08:35:01.39Z</time></trkpt><trkpt lat="43.4909017" lon="11.1454282"><ele>144.4</ele><time>2026-05-03T08:35:02.39Z</time></trkpt><trkpt lat="43.4908002" lon="11.1454484"><ele>143.8</ele><time>2026-05-03T08:35:03.41Z</time></trkpt><trkpt lat="43.4906985" lon="11.1454723"><ele>143.2</ele><time>2026-05-03T08:35:04.403Z</time></trkpt><trkpt lat="43.4906001" lon="11.1454924"><ele>142.6</ele><time>2026-05-03T08:35:05.394Z</time></trkpt><trkpt lat="43.4905022" lon="11.1455129"><ele>142.0</ele><time>2026-05-03T08:35:06.424Z</time></trkpt><trkpt lat="43.4904062" lon="11.145536"><ele>142.0</ele><time>2026-05-03T08:35:07.407Z</time></trkpt><trkpt lat="43.4903098" lon="11.1455768"><ele>142.0</ele><time>2026-05-03T08:35:08.408Z</time></trkpt><trkpt lat="43.490216" lon="11.1456366"><ele>142.0</ele><time>2026-05-03T08:35:09.427Z</time></trkpt><trkpt lat="43.4901289" lon="11.1457102"><ele>142.0</ele><time>2026-05-03T08:35:10.419Z</time></trkpt><trkpt lat="43.4900484" lon="11.1457955"><ele>142.0</ele><time>2026-05-03T08:35:11.395Z</time></trkpt><trkpt lat="43.4899694" lon="11.1458827"><ele>139.79999999999998</ele><time>2026-05-03T08:35:12.399Z</time></trkpt><trkpt lat="43.4898868" lon="11.1459735"><ele>137.6</ele><time>2026-05-03T08:35:13.396Z</time></trkpt><trkpt lat="43.4898005" lon="11.1460647"><ele>135.39999999999998</ele><time>2026-05-03T08:35:14.408Z</time></trkpt><trkpt lat="43.4897184" lon="11.1461542"><ele>133.2</ele><time>2026-05-03T08:35:15.408Z</time></trkpt><trkpt lat="43.4896351" lon="11.1462457"><ele>131.0</ele><time>2026-05-03T08:35:16.4Z</time></trkpt><trkpt lat="43.4895492" lon="11.1463264"><ele>130.4</ele><time>2026-05-03T08:35:17.401Z</time></trkpt><trkpt lat="43.4894519" lon="11.1463845"><ele>129.8</ele><time>2026-05-03T08:35:18.396Z</time></trkpt><trkpt lat="43.4893497" lon="11.1464339"><ele>129.20000000000002</ele><time>2026-05-03T08:35:19.402Z</time></trkpt><trkpt lat="43.4892453" lon="11.1464763"><ele>128.6</ele><time>2026-05-03T08:35:20.393Z</time></trkpt><trkpt lat="43.4891403" lon="11.1465192"><ele>128.0</ele><time>2026-05-03T08:35:21.391Z</time></trkpt><trkpt lat="43.4890333" lon="11.1465583"><ele>126.2</ele><time>2026-05-03T08:35:22.405Z</time></trkpt><trkpt lat="43.4889288" lon="11.1465754"><ele>124.4</ele><time>2026-05-03T08:35:23.407Z</time></trkpt><trkpt lat="43.4888311" lon="11.1465795"><ele>122.60000000000001</ele><time>2026-05-03T08:35:24.391Z</time></trkpt><trkpt lat="43.4887356" lon="11.1465831"><ele>120.80000000000001</ele><time>2026-05-03T08:35:25.408Z</time></trkpt><trkpt lat="43.4886456" lon="11.146612"><ele>119.0</ele><time>2026-05-03T08:35:26.391Z</time></trkpt><trkpt lat="43.4885649" lon="11.1466841"><ele>117.80000000000001</ele><time>2026-05-03T08:35:27.392Z</time></trkpt><trkpt lat="43.4885099" lon="11.1467932"><ele>116.60000000000001</ele><time>2026-05-03T08:35:28.388Z</time></trkpt><trkpt lat="43.4884852" lon="11.1469302"><ele>115.4</ele><time>2026-05-03T08:35:29.409Z</time></trkpt><trkpt lat="43.4884763" lon="11.1470773"><ele>114.2</ele><time>2026-05-03T08:35:30.401Z</time></trkpt><trkpt lat="43.4884762" lon="11.1472281"><ele>113.0</ele><time>2026-05-03T08:35:31.401Z</time></trkpt><trkpt lat="43.4884779" lon="11.1473773"><ele>112.60000000000001</ele><time>2026-05-03T08:35:32.409Z</time></trkpt><trkpt lat="43.4884778" lon="11.147529"><ele>112.20000000000002</ele><time>2026-05-03T08:35:33.397Z</time></trkpt><trkpt lat="43.4884779" lon="11.1476853"><ele>111.8</ele><time>2026-05-03T08:35:34.385Z</time></trkpt><trkpt lat="43.4884787" lon="11.1478399"><ele>111.4</ele><time>2026-05-03T08:35:35.409Z</time></trkpt><trkpt lat="43.4884797" lon="11.1479927"><ele>111.0</ele><time>2026-05-03T08:35:36.414Z</time></trkpt><trkpt lat="43.4884816" lon="11.1481517"><ele>110.5</ele><time>2026-05-03T08:35:37.398Z</time></trkpt><trkpt lat="43.4884861" lon="11.1483173"><ele>110.0</ele><time>2026-05-03T08:35:38.411Z</time></trkpt><trkpt lat="43.4884875" lon="11.1484782"><ele>109.5</ele><time>2026-05-03T08:35:39.41Z</time></trkpt><trkpt lat="43.488478" lon="11.1486383"><ele>109.0</ele><time>2026-05-03T08:35:40.404Z</time></trkpt><trkpt lat="43.4884635" lon="11.1487935"><ele>109.0</ele><time>2026-05-03T08:35:41.416Z</time></trkpt><trkpt lat="43.4884456" lon="11.1489413"><ele>109.0</ele><time>2026-05-03T08:35:42.398Z</time></trkpt><trkpt lat="43.4884211" lon="11.149083"><ele>109.0</ele><time>2026-05-03T08:35:43.405Z</time></trkpt><trkpt lat="43.48839" lon="11.149206"><ele>109.0</ele><time>2026-05-03T08:35:44.42Z</time></trkpt><trkpt lat="43.4883528" lon="11.1493217"><ele>109.0</ele><time>2026-05-03T08:35:45.398Z</time></trkpt><trkpt lat="43.4883155" lon="11.1494324"><ele>109.0</ele><time>2026-05-03T08:35:46.419Z</time></trkpt><trkpt lat="43.4882817" lon="11.1495374"><ele>109.0</ele><time>2026-05-03T08:35:47.406Z</time></trkpt><trkpt lat="43.4882561" lon="11.1496363"><ele>109.0</ele><time>2026-05-03T08:35:48.389Z</time></trkpt><trkpt lat="43.488247" lon="11.1497335"><ele>109.0</ele><time>2026-05-03T08:35:49.403Z</time></trkpt><trkpt lat="43.4882466" lon="11.1498327"><ele>109.0</ele><time>2026-05-03T08:35:50.409Z</time></trkpt><trkpt lat="43.4882485" lon="11.1499323"><ele>109.0</ele><time>2026-05-03T08:35:51.391Z</time></trkpt><trkpt lat="43.4882475" lon="11.1500279"><ele>109.0</ele><time>2026-05-03T08:35:52.4Z</time></trkpt><trkpt lat="43.4882434" lon="11.1501206"><ele>109.16666666666667</ele><time>2026-05-03T08:35:53.393Z</time></trkpt><trkpt lat="43.4882447" lon="11.1502084"><ele>109.33333333333334</ele><time>2026-05-03T08:35:54.422Z</time></trkpt><trkpt lat="43.4882576" lon="11.1503501"><ele>109.5</ele><time>2026-05-03T08:35:56.412Z</time></trkpt><trkpt lat="43.4882533" lon="11.1504386"><ele>109.66666666666666</ele><time>2026-05-03T08:35:58.401Z</time></trkpt><trkpt lat="43.4881702" lon="11.1504875"><ele>109.83333333333333</ele><time>2026-05-03T08:36:01.402Z</time></trkpt><trkpt lat="43.4880802" lon="11.1504845"><ele>110.0</ele><time>2026-05-03T08:36:03.391Z</time></trkpt><trkpt lat="43.4879915" lon="11.150473"><ele>109.6</ele><time>2026-05-03T08:36:05.42Z</time></trkpt><trkpt lat="43.4879007" lon="11.1504587"><ele>109.2</ele><time>2026-05-03T08:36:07.408Z</time></trkpt><trkpt lat="43.4878089" lon="11.1504588"><ele>108.80000000000001</ele><time>2026-05-03T08:36:09.409Z</time></trkpt><trkpt lat="43.4877123" lon="11.1504616"><ele>108.4</ele><time>2026-05-03T08:36:11.409Z</time></trkpt><trkpt lat="43.4876135" lon="11.1504866"><ele>108.0</ele><time>2026-05-03T08:36:13.405Z</time></trkpt><trkpt lat="43.4875115" lon="11.1505021"><ele>108.0</ele><time>2026-05-03T08:36:15.392Z</time></trkpt><trkpt lat="43.4874137" lon="11.1505091"><ele>108.00000000000001</ele><time>2026-05-03T08:36:17.407Z</time></trkpt><trkpt lat="43.4873044" lon="11.1505168"><ele>108.00000000000001</ele><time>2026-05-03T08:36:19.415Z</time></trkpt><trkpt lat="43.4871943" lon="11.1505279"><ele>108.0</ele><time>2026-05-03T08:36:21.419Z</time></trkpt><trkpt lat="43.4870774" lon="11.1505348"><ele>108.0</ele><time>2026-05-03T08:36:23.42Z</time></trkpt><trkpt lat="43.4869618" lon="11.1505061"><ele>107.75</ele><time>2026-05-03T08:36:25.41Z</time></trkpt><trkpt lat="43.4868545" lon="11.1504286"><ele>107.5</ele><time>2026-05-03T08:36:27.415Z</time></trkpt><trkpt lat="43.4867631" lon="11.150318"><ele>107.25</ele><time>2026-05-03T08:36:29.401Z</time></trkpt><trkpt lat="43.486683" lon="11.1501916"><ele>107.0</ele><time>2026-05-03T08:36:31.425Z</time></trkpt><trkpt lat="43.4865923" lon="11.1500802"><ele>106.99999999999999</ele><time>2026-05-03T08:36:33.405Z</time></trkpt><trkpt lat="43.4864767" lon="11.1500221"><ele>107.0</ele><time>2026-05-03T08:36:35.405Z</time></trkpt><trkpt lat="43.4864118" lon="11.1500182"><ele>107.0</ele><time>2026-05-03T08:36:36.413Z</time></trkpt><trkpt lat="43.4863476" lon="11.1500263"><ele>107.0</ele><time>2026-05-03T08:36:37.414Z</time></trkpt><trkpt lat="43.4862287" lon="11.1500734"><ele>106.99999999999999</ele><time>2026-05-03T08:36:39.39Z</time></trkpt><trkpt lat="43.486169" lon="11.1501084"><ele>107.0</ele><time>2026-05-03T08:36:40.403Z</time></trkpt><trkpt lat="43.48611" lon="11.1501525"><ele>107.0</ele><time>2026-05-03T08:36:41.404Z</time></trkpt><trkpt lat="43.4860534" lon="11.1502047"><ele>106.99999999999999</ele><time>2026-05-03T08:36:42.408Z</time></trkpt><trkpt lat="43.4859982" lon="11.150257"><ele>106.99999999999999</ele><time>2026-05-03T08:36:43.394Z</time></trkpt><trkpt lat="43.4858865" lon="11.1503295"><ele>107.0</ele><time>2026-05-03T08:36:45.406Z</time></trkpt><trkpt lat="43.4857578" lon="11.1503533"><ele>107.0</ele><time>2026-05-03T08:36:47.417Z</time></trkpt><trkpt lat="43.4856904" lon="11.1503492"><ele>106.99999999999999</ele><time>2026-05-03T08:36:48.402Z</time></trkpt><trkpt lat="43.4856273" lon="11.1503316"><ele>107.0</ele><time>2026-05-03T08:36:49.394Z</time></trkpt><trkpt lat="43.4855053" lon="11.1502954"><ele>107.0</ele><time>2026-05-03T08:36:51.406Z</time></trkpt><trkpt lat="43.4854412" lon="11.150277"><ele>107.0</ele><time>2026-05-03T08:36:52.412Z</time></trkpt><trkpt lat="43.485376" lon="11.1502587"><ele>106.99999999999999</ele><time>2026-05-03T08:36:53.407Z</time></trkpt><trkpt lat="43.4853118" lon="11.1502442"><ele>107.0</ele><time>2026-05-03T08:36:54.416Z</time></trkpt><trkpt lat="43.4852473" lon="11.1502274"><ele>107.0</ele><time>2026-05-03T08:36:55.398Z</time></trkpt><trkpt lat="43.4851246" lon="11.1501934"><ele>107.0</ele><time>2026-05-03T08:36:57.407Z</time></trkpt><trkpt lat="43.485007" lon="11.150172"><ele>107.0</ele><time>2026-05-03T08:36:59.413Z</time></trkpt><trkpt lat="43.4848932" lon="11.1501521"><ele>107.0</ele><time>2026-05-03T08:37:01.397Z</time></trkpt><trkpt lat="43.484797" lon="11.1501358"><ele>106.99999999999999</ele><time>2026-05-03T08:37:03.387Z</time></trkpt><trkpt lat="43.4847114" lon="11.1501151"><ele>107.0</ele><time>2026-05-03T08:37:05.389Z</time></trkpt><trkpt lat="43.4846332" lon="11.150083"><ele>107.0</ele><time>2026-05-03T08:37:07.415Z</time></trkpt><trkpt lat="43.4845571" lon="11.150054"><ele>107.0</ele><time>2026-05-03T08:37:09.409Z</time></trkpt><trkpt lat="43.4844775" lon="11.1500325"><ele>106.99999999999999</ele><time>2026-05-03T08:37:11.4Z</time></trkpt><trkpt lat="43.4843958" lon="11.1500004"><ele>107.0</ele><time>2026-05-03T08:37:13.409Z</time></trkpt><trkpt lat="43.4843188" lon="11.1499531"><ele>107.42857142857143</ele><time>2026-05-03T08:37:15.406Z</time></trkpt><trkpt lat="43.4842514" lon="11.1498879"><ele>107.85714285714286</ele><time>2026-05-03T08:37:17.411Z</time></trkpt><trkpt lat="43.4841977" lon="11.1498219"><ele>108.28571428571428</ele><time>2026-05-03T08:37:19.399Z</time></trkpt><trkpt lat="43.4841485" lon="11.1497564"><ele>108.71428571428572</ele><time>2026-05-03T08:37:21.4Z</time></trkpt><trkpt lat="43.4841033" lon="11.1496917"><ele>109.14285714285714</ele><time>2026-05-03T08:37:23.408Z</time></trkpt><trkpt lat="43.4840561" lon="11.1496298"><ele>109.57142857142857</ele><time>2026-05-03T08:37:25.402Z</time></trkpt><trkpt lat="43.4839867" lon="11.1495449"><ele>110.0</ele><time>2026-05-03T08:37:28.405Z</time></trkpt><trkpt lat="43.4839403" lon="11.1494497"><ele>109.99999999999999</ele><time>2026-05-03T08:37:31.395Z</time></trkpt><trkpt lat="43.4838758" lon="11.1493795"><ele>110.0</ele><time>2026-05-03T08:37:34.426Z</time></trkpt><trkpt lat="43.4837939" lon="11.1493103"><ele>110.0</ele><time>2026-05-03T08:37:37.4Z</time></trkpt><trkpt lat="43.4837221" lon="11.1492735"><ele>110.0</ele><time>2026-05-03T08:37:39.403Z</time></trkpt><trkpt lat="43.4836354" lon="11.1492313"><ele>109.99999999999999</ele><time>2026-05-03T08:37:41.418Z</time></trkpt><trkpt lat="43.4835483" lon="11.1491878"><ele>110.0</ele><time>2026-05-03T08:37:43.467Z</time></trkpt><trkpt lat="43.4834759" lon="11.1491501"><ele>109.99999999999999</ele><time>2026-05-03T08:37:45.402Z</time></trkpt><trkpt lat="43.4833838" lon="11.1491058"><ele>110.0</ele><time>2026-05-03T08:37:47.42Z</time></trkpt><trkpt lat="43.4833066" lon="11.1490529"><ele>110.0</ele><time>2026-05-03T08:37:49.406Z</time></trkpt><trkpt lat="43.4832289" lon="11.149007"><ele>110.0</ele><time>2026-05-03T08:37:51.401Z</time></trkpt><trkpt lat="43.4831488" lon="11.1489673"><ele>109.99999999999999</ele><time>2026-05-03T08:37:53.403Z</time></trkpt><trkpt lat="43.4830709" lon="11.1489207"><ele>110.0</ele><time>2026-05-03T08:37:55.4Z</time></trkpt><trkpt lat="43.4829935" lon="11.148883"><ele>110.66666666666666</ele><time>2026-05-03T08:37:57.469Z</time></trkpt><trkpt lat="43.4829176" lon="11.148844"><ele>111.33333333333333</ele><time>2026-05-03T08:37:59.386Z</time></trkpt><trkpt lat="43.4828378" lon="11.1488019"><ele>112.0</ele><time>2026-05-03T08:38:01.396Z</time></trkpt><trkpt lat="43.4827584" lon="11.1487703"><ele>112.66666666666666</ele><time>2026-05-03T08:38:03.467Z</time></trkpt><trkpt lat="43.4826953" lon="11.148738"><ele>113.33333333333333</ele><time>2026-05-03T08:38:05.404Z</time></trkpt><trkpt lat="43.4826366" lon="11.1486783"><ele>114.0</ele><time>2026-05-03T08:38:07.47Z</time></trkpt><trkpt lat="43.4825672" lon="11.1486364"><ele>114.0</ele><time>2026-05-03T08:38:09.387Z</time></trkpt><trkpt lat="43.4824679" lon="11.1486029"><ele>114.0</ele><time>2026-05-03T08:38:11.405Z</time></trkpt><trkpt lat="43.4823756" lon="11.1485683"><ele>114.0</ele><time>2026-05-03T08:38:13.466Z</time></trkpt><trkpt lat="43.4822903" lon="11.1484997"><ele>114.0</ele><time>2026-05-03T08:38:15.4Z</time></trkpt><trkpt lat="43.4822162" lon="11.1484603"><ele>114.0</ele><time>2026-05-03T08:38:17.469Z</time></trkpt><trkpt lat="43.4821374" lon="11.1484308"><ele>114.16666666666667</ele><time>2026-05-03T08:38:19.402Z</time></trkpt><trkpt lat="43.4820675" lon="11.1484063"><ele>114.33333333333334</ele><time>2026-05-03T08:38:21.412Z</time></trkpt><trkpt lat="43.4819882" lon="11.1483665"><ele>114.5</ele><time>2026-05-03T08:38:23.398Z</time></trkpt><trkpt lat="43.4819214" lon="11.1483207"><ele>114.66666666666667</ele><time>2026-05-03T08:38:25.423Z</time></trkpt><trkpt lat="43.4818513" lon="11.1482806"><ele>114.83333333333334</ele><time>2026-05-03T08:38:27.4Z</time></trkpt><trkpt lat="43.481776" lon="11.148247"><ele>115.0</ele><time>2026-05-03T08:38:29.405Z</time></trkpt><trkpt lat="43.481708" lon="11.1482086"><ele>115.00000000000001</ele><time>2026-05-03T08:38:31.384Z</time></trkpt><trkpt lat="43.4816338" lon="11.1481693"><ele>115.0</ele><time>2026-05-03T08:38:33.475Z</time></trkpt><trkpt lat="43.4815707" lon="11.1480973"><ele>115.0</ele><time>2026-05-03T08:38:36.412Z</time></trkpt><trkpt lat="43.4815013" lon="11.1480759"><ele>115.0</ele><time>2026-05-03T08:38:38.397Z</time></trkpt><trkpt lat="43.4814265" lon="11.1480515"><ele>115.00000000000001</ele><time>2026-05-03T08:38:40.398Z</time></trkpt><trkpt lat="43.481351" lon="11.1480346"><ele>115.0</ele><time>2026-05-03T08:38:42.403Z</time></trkpt><trkpt lat="43.4812794" lon="11.1480079"><ele>115.7142857142857</ele><time>2026-05-03T08:38:44.406Z</time></trkpt><trkpt lat="43.4812218" lon="11.1479721"><ele>116.42857142857142</ele><time>2026-05-03T08:38:46.402Z</time></trkpt><trkpt lat="43.4811592" lon="11.1479435"><ele>117.14285714285714</ele><time>2026-05-03T08:38:48.396Z</time></trkpt><trkpt lat="43.481094" lon="11.1479114"><ele>117.85714285714285</ele><time>2026-05-03T08:38:50.408Z</time></trkpt><trkpt lat="43.4810324" lon="11.1478775"><ele>118.57142857142856</ele><time>2026-05-03T08:38:52.47Z</time></trkpt><trkpt lat="43.4809706" lon="11.1478448"><ele>119.28571428571429</ele><time>2026-05-03T08:38:54.398Z</time></trkpt><trkpt lat="43.4809066" lon="11.1478162"><ele>120.0</ele><time>2026-05-03T08:38:56.401Z</time></trkpt><trkpt lat="43.4808442" lon="11.1477932"><ele>120.0</ele><time>2026-05-03T08:38:58.419Z</time></trkpt><trkpt lat="43.4807822" lon="11.1477672"><ele>120.0</ele><time>2026-05-03T08:39:00.385Z</time></trkpt><trkpt lat="43.4806947" lon="11.1477224"><ele>120.0</ele><time>2026-05-03T08:39:03.397Z</time></trkpt><trkpt lat="43.4806086" lon="11.1476861"><ele>120.0</ele><time>2026-05-03T08:39:06.4Z</time></trkpt><trkpt lat="43.4805309" lon="11.147648"><ele>120.0</ele><time>2026-05-03T08:39:09.412Z</time></trkpt><trkpt lat="43.4804553" lon="11.1476148"><ele>120.0</ele><time>2026-05-03T08:39:12.475Z</time></trkpt><trkpt lat="43.4803759" lon="11.147585"><ele>120.8</ele><time>2026-05-03T08:39:15.398Z</time></trkpt><trkpt lat="43.4802975" lon="11.1475516"><ele>121.6</ele><time>2026-05-03T08:39:18.407Z</time></trkpt><trkpt lat="43.4802281" lon="11.1475255"><ele>122.4</ele><time>2026-05-03T08:39:21.405Z</time></trkpt><trkpt lat="43.4801554" lon="11.1475104"><ele>123.2</ele><time>2026-05-03T08:39:24.393Z</time></trkpt><trkpt lat="43.4800339" lon="11.1474811"><ele>124.0</ele><time>2026-05-03T08:39:27.469Z</time></trkpt><trkpt lat="43.4799141" lon="11.147463"><ele>124.0</ele><time>2026-05-03T08:39:29.389Z</time></trkpt><trkpt lat="43.4798452" lon="11.1474695"><ele>124.00000000000001</ele><time>2026-05-03T08:39:30.407Z</time></trkpt><trkpt lat="43.47976" lon="11.1474761"><ele>124.0</ele><time>2026-05-03T08:39:31.402Z</time></trkpt><trkpt lat="43.4796895" lon="11.1474755"><ele>124.0</ele><time>2026-05-03T08:39:32.379Z</time></trkpt><trkpt lat="43.4796226" lon="11.1474745"><ele>124.00000000000001</ele><time>2026-05-03T08:39:33.397Z</time></trkpt><trkpt lat="43.479557" lon="11.1474754"><ele>124.0</ele><time>2026-05-03T08:39:34.406Z</time></trkpt><trkpt lat="43.4794915" lon="11.1474662"><ele>124.0</ele><time>2026-05-03T08:39:35.401Z</time></trkpt><trkpt lat="43.4794177" lon="11.1474599"><ele>122.83333333333334</ele><time>2026-05-03T08:39:36.4Z</time></trkpt><trkpt lat="43.4793347" lon="11.147453"><ele>121.66666666666667</ele><time>2026-05-03T08:39:37.412Z</time></trkpt><trkpt lat="43.4792536" lon="11.1474484"><ele>120.5</ele><time>2026-05-03T08:39:38.412Z</time></trkpt><trkpt lat="43.4791716" lon="11.1474447"><ele>119.33333333333334</ele><time>2026-05-03T08:39:39.401Z</time></trkpt><trkpt lat="43.4790986" lon="11.147437"><ele>118.16666666666667</ele><time>2026-05-03T08:39:40.408Z</time></trkpt><trkpt lat="43.4790175" lon="11.1474268"><ele>117.0</ele><time>2026-05-03T08:39:41.408Z</time></trkpt><trkpt lat="43.4789352" lon="11.1474178"><ele>117.0</ele><time>2026-05-03T08:39:42.404Z</time></trkpt><trkpt lat="43.4788577" lon="11.147407"><ele>117.0</ele><time>2026-05-03T08:39:43.403Z</time></trkpt><trkpt lat="43.4787795" lon="11.147403"><ele>117.0</ele><time>2026-05-03T08:39:44.407Z</time></trkpt><trkpt lat="43.4786997" lon="11.1474064"><ele>117.0</ele><time>2026-05-03T08:39:45.4Z</time></trkpt><trkpt lat="43.4786165" lon="11.1474107"><ele>117.0</ele><time>2026-05-03T08:39:46.403Z</time></trkpt><trkpt lat="43.4785363" lon="11.1474058"><ele>117.0</ele><time>2026-05-03T08:39:47.47Z</time></trkpt><trkpt lat="43.4784669" lon="11.1474017"><ele>115.83333333333333</ele><time>2026-05-03T08:39:48.471Z</time></trkpt><trkpt lat="43.4783979" lon="11.1474081"><ele>114.66666666666666</ele><time>2026-05-03T08:39:49.4Z</time></trkpt><trkpt lat="43.4783188" lon="11.1474092"><ele>113.5</ele><time>2026-05-03T08:39:50.407Z</time></trkpt><trkpt lat="43.4782451" lon="11.1473769"><ele>112.33333333333333</ele><time>2026-05-03T08:39:51.4Z</time></trkpt><trkpt lat="43.4781688" lon="11.1473557"><ele>111.16666666666666</ele><time>2026-05-03T08:39:52.469Z</time></trkpt><trkpt lat="43.4780796" lon="11.1473297"><ele>110.0</ele><time>2026-05-03T08:39:53.47Z</time></trkpt><trkpt lat="43.4779837" lon="11.1472961"><ele>108.66666666666666</ele><time>2026-05-03T08:39:54.41Z</time></trkpt><trkpt lat="43.4778906" lon="11.1472578"><ele>107.33333333333333</ele><time>2026-05-03T08:39:55.405Z</time></trkpt><trkpt lat="43.4778086" lon="11.1472266"><ele>106.0</ele><time>2026-05-03T08:39:56.409Z</time></trkpt><trkpt lat="43.477728" lon="11.1472087"><ele>104.66666666666666</ele><time>2026-05-03T08:39:57.484Z</time></trkpt><trkpt lat="43.4776509" lon="11.1471973"><ele>103.33333333333333</ele><time>2026-05-03T08:39:58.475Z</time></trkpt><trkpt lat="43.4775776" lon="11.1471796"><ele>102.0</ele><time>2026-05-03T08:39:59.399Z</time></trkpt><trkpt lat="43.477509" lon="11.1471575"><ele>102.0</ele><time>2026-05-03T08:40:00.396Z</time></trkpt><trkpt lat="43.477446" lon="11.1471499"><ele>102.0</ele><time>2026-05-03T08:40:01.394Z</time></trkpt><trkpt lat="43.4773745" lon="11.1471369"><ele>102.0</ele><time>2026-05-03T08:40:02.476Z</time></trkpt><trkpt lat="43.4770839" lon="11.1471328"><ele>102.0</ele><time>2026-05-03T08:40:06.412Z</time></trkpt><trkpt lat="43.4770013" lon="11.1471321"><ele>102.0</ele><time>2026-05-03T08:40:07.403Z</time></trkpt><trkpt lat="43.4769291" lon="11.1471138"><ele>102.0</ele><time>2026-05-03T08:40:08.385Z</time></trkpt><trkpt lat="43.4768621" lon="11.1470951"><ele>102.0</ele><time>2026-05-03T08:40:09.398Z</time></trkpt><trkpt lat="43.4767457" lon="11.1470545"><ele>102.0</ele><time>2026-05-03T08:40:11.402Z</time></trkpt><trkpt lat="43.4766316" lon="11.147028"><ele>102.0</ele><time>2026-05-03T08:40:13.407Z</time></trkpt><trkpt lat="43.4765135" lon="11.1470088"><ele>102.0</ele><time>2026-05-03T08:40:15.402Z</time></trkpt><trkpt lat="43.4763945" lon="11.1469909"><ele>102.0</ele><time>2026-05-03T08:40:17.4Z</time></trkpt><trkpt lat="43.4762732" lon="11.1469654"><ele>102.0</ele><time>2026-05-03T08:40:19.383Z</time></trkpt><trkpt lat="43.4762054" lon="11.146957"><ele>102.0</ele><time>2026-05-03T08:40:20.41Z</time></trkpt><trkpt lat="43.4761382" lon="11.1469489"><ele>102.0</ele><time>2026-05-03T08:40:21.401Z</time></trkpt><trkpt lat="43.4760724" lon="11.1469464"><ele>102.0</ele><time>2026-05-03T08:40:22.466Z</time></trkpt><trkpt lat="43.4760064" lon="11.1469416"><ele>101.83333333333333</ele><time>2026-05-03T08:40:23.48Z</time></trkpt><trkpt lat="43.4759345" lon="11.1469303"><ele>101.66666666666666</ele><time>2026-05-03T08:40:24.383Z</time></trkpt><trkpt lat="43.4758637" lon="11.1469239"><ele>101.5</ele><time>2026-05-03T08:40:25.399Z</time></trkpt><trkpt lat="43.4757987" lon="11.1469163"><ele>101.33333333333333</ele><time>2026-05-03T08:40:26.398Z</time></trkpt><trkpt lat="43.4757318" lon="11.1469022"><ele>101.16666666666666</ele><time>2026-05-03T08:40:27.468Z</time></trkpt><trkpt lat="43.4756328" lon="11.1468699"><ele>101.0</ele><time>2026-05-03T08:40:29.4Z</time></trkpt><trkpt lat="43.4755632" lon="11.1468286"><ele>100.99999999999999</ele><time>2026-05-03T08:40:31.414Z</time></trkpt><trkpt lat="43.4754995" lon="11.1468212"><ele>101.0</ele><time>2026-05-03T08:40:32.491Z</time></trkpt><trkpt lat="43.4754343" lon="11.1468271"><ele>101.0</ele><time>2026-05-03T08:40:33.398Z</time></trkpt><trkpt lat="43.4752952" lon="11.1468233"><ele>101.0</ele><time>2026-05-03T08:40:35.4Z</time></trkpt><trkpt lat="43.4752288" lon="11.146822"><ele>100.99999999999999</ele><time>2026-05-03T08:40:36.396Z</time></trkpt><trkpt lat="43.4751657" lon="11.1468307"><ele>101.0</ele><time>2026-05-03T08:40:37.415Z</time></trkpt><trkpt lat="43.4750653" lon="11.1468579"><ele>101.0</ele><time>2026-05-03T08:40:39.421Z</time></trkpt><trkpt lat="43.474954" lon="11.1468626"><ele>101.0</ele><time>2026-05-03T08:40:41.416Z</time></trkpt><trkpt lat="43.474833" lon="11.1468496"><ele>101.0</ele><time>2026-05-03T08:40:43.406Z</time></trkpt><trkpt lat="43.4747163" lon="11.1468377"><ele>101.0</ele><time>2026-05-03T08:40:45.424Z</time></trkpt><trkpt lat="43.4745972" lon="11.1468486"><ele>101.0</ele><time>2026-05-03T08:40:47.415Z</time></trkpt><trkpt lat="43.4744829" lon="11.146848"><ele>101.0</ele><time>2026-05-03T08:40:49.425Z</time></trkpt><trkpt lat="43.474367" lon="11.1468429"><ele>101.0</ele><time>2026-05-03T08:40:51.4Z</time></trkpt><trkpt lat="43.4742564" lon="11.1468428"><ele>101.0</ele><time>2026-05-03T08:40:53.416Z</time></trkpt><trkpt lat="43.4741486" lon="11.1468414"><ele>101.0</ele><time>2026-05-03T08:40:55.402Z</time></trkpt><trkpt lat="43.4740385" lon="11.1468323"><ele>101.0</ele><time>2026-05-03T08:40:57.473Z</time></trkpt><trkpt lat="43.4739352" lon="11.146826"><ele>101.0</ele><time>2026-05-03T08:40:59.403Z</time></trkpt><trkpt lat="43.4738239" lon="11.1468274"><ele>101.0</ele><time>2026-05-03T08:41:01.406Z</time></trkpt><trkpt lat="43.4737141" lon="11.1468135"><ele>101.0</ele><time>2026-05-03T08:41:03.409Z</time></trkpt><trkpt lat="43.4735976" lon="11.1468012"><ele>101.0</ele><time>2026-05-03T08:41:05.406Z</time></trkpt><trkpt lat="43.4734771" lon="11.1467944"><ele>100.75</ele><time>2026-05-03T08:41:07.398Z</time></trkpt><trkpt lat="43.4733536" lon="11.1467964"><ele>100.5</ele><time>2026-05-03T08:41:09.42Z</time></trkpt><trkpt lat="43.4732292" lon="11.1468024"><ele>100.25</ele><time>2026-05-03T08:41:11.403Z</time></trkpt><trkpt lat="43.4731027" lon="11.1468065"><ele>100.0</ele><time>2026-05-03T08:41:13.468Z</time></trkpt><trkpt lat="43.472993" lon="11.1468163"><ele>100.2</ele><time>2026-05-03T08:41:15.407Z</time></trkpt><trkpt lat="43.4728672" lon="11.146804"><ele>100.4</ele><time>2026-05-03T08:41:17.401Z</time></trkpt><trkpt lat="43.4727997" lon="11.1467935"><ele>100.6</ele><time>2026-05-03T08:41:18.495Z</time></trkpt><trkpt lat="43.4727306" lon="11.1467885"><ele>100.8</ele><time>2026-05-03T08:41:19.404Z</time></trkpt><trkpt lat="43.4726061" lon="11.1467887"><ele>101.0</ele><time>2026-05-03T08:41:21.396Z</time></trkpt><trkpt lat="43.4725399" lon="11.146819"><ele>100.99999999999999</ele><time>2026-05-03T08:41:22.419Z</time></trkpt><trkpt lat="43.4724769" lon="11.1468534"><ele>101.0</ele><time>2026-05-03T08:41:23.4Z</time></trkpt><trkpt lat="43.4724166" lon="11.1468989"><ele>101.0</ele><time>2026-05-03T08:41:24.404Z</time></trkpt><trkpt lat="43.4723585" lon="11.146948"><ele>101.0</ele><time>2026-05-03T08:41:25.409Z</time></trkpt><trkpt lat="43.4722638" lon="11.1470504"><ele>100.99999999999999</ele><time>2026-05-03T08:41:27.391Z</time></trkpt><trkpt lat="43.4722007" lon="11.1471938"><ele>101.0</ele><time>2026-05-03T08:41:29.403Z</time></trkpt><trkpt lat="43.4721663" lon="11.1472796"><ele>101.0</ele><time>2026-05-03T08:41:30.398Z</time></trkpt><trkpt lat="43.4721282" lon="11.1473558"><ele>101.0</ele><time>2026-05-03T08:41:31.404Z</time></trkpt><trkpt lat="43.4720864" lon="11.147423"><ele>101.0</ele><time>2026-05-03T08:41:32.479Z</time></trkpt><trkpt lat="43.4719849" lon="11.147617"><ele>101.0</ele><time>2026-05-03T08:41:35.392Z</time></trkpt><trkpt lat="43.4719119" lon="11.1477667"><ele>101.0</ele><time>2026-05-03T08:41:37.401Z</time></trkpt><trkpt lat="43.471869" lon="11.1478459"><ele>100.83333333333333</ele><time>2026-05-03T08:41:38.466Z</time></trkpt><trkpt lat="43.4718476" lon="11.1479293"><ele>100.66666666666666</ele><time>2026-05-03T08:41:39.398Z</time></trkpt><trkpt lat="43.4718274" lon="11.1480176"><ele>100.5</ele><time>2026-05-03T08:41:40.403Z</time></trkpt><trkpt lat="43.4717804" lon="11.1480904"><ele>100.33333333333334</ele><time>2026-05-03T08:41:41.411Z</time></trkpt><trkpt lat="43.4717224" lon="11.1481399"><ele>100.16666666666667</ele><time>2026-05-03T08:41:42.404Z</time></trkpt><trkpt lat="43.4716238" lon="11.148237"><ele>100.0</ele><time>2026-05-03T08:41:44.399Z</time></trkpt><trkpt lat="43.4715491" lon="11.148368"><ele>100.0</ele><time>2026-05-03T08:41:46.396Z</time></trkpt><trkpt lat="43.471478" lon="11.1485055"><ele>100.0</ele><time>2026-05-03T08:41:48.408Z</time></trkpt><trkpt lat="43.4713995" lon="11.1486284"><ele>100.0</ele><time>2026-05-03T08:41:50.396Z</time></trkpt><trkpt lat="43.4713231" lon="11.1487423"><ele>100.0</ele><time>2026-05-03T08:41:52.415Z</time></trkpt><trkpt lat="43.4712504" lon="11.1488595"><ele>100.0</ele><time>2026-05-03T08:41:54.401Z</time></trkpt><trkpt lat="43.4711703" lon="11.1489746"><ele>100.0</ele><time>2026-05-03T08:41:56.404Z</time></trkpt><trkpt lat="43.4710801" lon="11.1490962"><ele>100.0</ele><time>2026-05-03T08:41:58.412Z</time></trkpt><trkpt lat="43.4710364" lon="11.1491587"><ele>100.0</ele><time>2026-05-03T08:41:59.413Z</time></trkpt><trkpt lat="43.4709488" lon="11.1492777"><ele>100.0</ele><time>2026-05-03T08:42:01.407Z</time></trkpt><trkpt lat="43.4708629" lon="11.1493986"><ele>100.25</ele><time>2026-05-03T08:42:03.411Z</time></trkpt><trkpt lat="43.4707883" lon="11.1495266"><ele>100.5</ele><time>2026-05-03T08:42:05.421Z</time></trkpt><trkpt lat="43.4707133" lon="11.1496436"><ele>100.75</ele><time>2026-05-03T08:42:07.401Z</time></trkpt><trkpt lat="43.470633" lon="11.1497555"><ele>101.0</ele><time>2026-05-03T08:42:09.404Z</time></trkpt><trkpt lat="43.4705567" lon="11.1498763"><ele>101.0</ele><time>2026-05-03T08:42:11.409Z</time></trkpt><trkpt lat="43.4704809" lon="11.149988"><ele>101.0</ele><time>2026-05-03T08:42:13.383Z</time></trkpt><trkpt lat="43.4704013" lon="11.1500931"><ele>101.0</ele><time>2026-05-03T08:42:15.411Z</time></trkpt><trkpt lat="43.470324" lon="11.1502019"><ele>101.0</ele><time>2026-05-03T08:42:17.409Z</time></trkpt><trkpt lat="43.4702462" lon="11.1503229"><ele>101.0</ele><time>2026-05-03T08:42:19.402Z</time></trkpt><trkpt lat="43.4701697" lon="11.1504408"><ele>101.0</ele><time>2026-05-03T08:42:21.398Z</time></trkpt><trkpt lat="43.4700937" lon="11.1505525"><ele>101.0</ele><time>2026-05-03T08:42:23.379Z</time></trkpt><trkpt lat="43.4700262" lon="11.1506722"><ele>101.0</ele><time>2026-05-03T08:42:25.399Z</time></trkpt><trkpt lat="43.4699485" lon="11.1507816"><ele>101.0</ele><time>2026-05-03T08:42:27.4Z</time></trkpt><trkpt lat="43.4698851" lon="11.1508815"><ele>101.0</ele><time>2026-05-03T08:42:29.41Z</time></trkpt><trkpt lat="43.4698157" lon="11.150999"><ele>101.0</ele><time>2026-05-03T08:42:31.411Z</time></trkpt><trkpt lat="43.4697666" lon="11.1510606"><ele>101.0</ele><time>2026-05-03T08:42:32.39Z</time></trkpt><trkpt lat="43.4697186" lon="11.1511183"><ele>101.0</ele><time>2026-05-03T08:42:33.403Z</time></trkpt><trkpt lat="43.4696374" lon="11.1512329"><ele>101.0</ele><time>2026-05-03T08:42:35.406Z</time></trkpt><trkpt lat="43.4695625" lon="11.1513435"><ele>101.0</ele><time>2026-05-03T08:42:37.41Z</time></trkpt><trkpt lat="43.4694926" lon="11.1514543"><ele>101.19999999999999</ele><time>2026-05-03T08:42:39.386Z</time></trkpt><trkpt lat="43.4694163" lon="11.1515607"><ele>101.39999999999999</ele><time>2026-05-03T08:42:41.408Z</time></trkpt><trkpt lat="43.4693342" lon="11.1516523"><ele>101.6</ele><time>2026-05-03T08:42:43.455Z</time></trkpt><trkpt lat="43.4692418" lon="11.1517077"><ele>101.8</ele><time>2026-05-03T08:42:45.401Z</time></trkpt><trkpt lat="43.4691369" lon="11.1517553"><ele>102.0</ele><time>2026-05-03T08:42:47.398Z</time></trkpt><trkpt lat="43.4690304" lon="11.1518138"><ele>102.0</ele><time>2026-05-03T08:42:49.385Z</time></trkpt><trkpt lat="43.4689216" lon="11.151876"><ele>102.0</ele><time>2026-05-03T08:42:51.397Z</time></trkpt><trkpt lat="43.4688113" lon="11.1519323"><ele>102.0</ele><time>2026-05-03T08:42:53.414Z</time></trkpt><trkpt lat="43.468709" lon="11.1519795"><ele>102.0</ele><time>2026-05-03T08:42:55.409Z</time></trkpt><trkpt lat="43.4686154" lon="11.152027"><ele>102.0</ele><time>2026-05-03T08:42:57.399Z</time></trkpt><trkpt lat="43.4685341" lon="11.152066"><ele>101.6</ele><time>2026-05-03T08:42:59.406Z</time></trkpt><trkpt lat="43.4684379" lon="11.1521082"><ele>101.19999999999999</ele><time>2026-05-03T08:43:01.404Z</time></trkpt><trkpt lat="43.4683359" lon="11.1521542"><ele>100.8</ele><time>2026-05-03T08:43:03.496Z</time></trkpt><trkpt lat="43.4682172" lon="11.1521874"><ele>100.4</ele><time>2026-05-03T08:43:07.42Z</time></trkpt><trkpt lat="43.4681513" lon="11.1522217"><ele>100.0</ele><time>2026-05-03T08:43:08.403Z</time></trkpt><trkpt lat="43.4680789" lon="11.1522583"><ele>100.00000000000001</ele><time>2026-05-03T08:43:09.406Z</time></trkpt><trkpt lat="43.4680105" lon="11.1522928"><ele>100.0</ele><time>2026-05-03T08:43:10.411Z</time></trkpt><trkpt lat="43.4679476" lon="11.1523209"><ele>100.0</ele><time>2026-05-03T08:43:11.413Z</time></trkpt><trkpt lat="43.4678856" lon="11.1523508"><ele>100.0</ele><time>2026-05-03T08:43:12.421Z</time></trkpt><trkpt lat="43.4678253" lon="11.1523796"><ele>100.00000000000001</ele><time>2026-05-03T08:43:13.406Z</time></trkpt><trkpt lat="43.4677094" lon="11.1524289"><ele>100.0</ele><time>2026-05-03T08:43:15.39Z</time></trkpt><trkpt lat="43.4675929" lon="11.1524746"><ele>100.25</ele><time>2026-05-03T08:43:17.401Z</time></trkpt><trkpt lat="43.4674743" lon="11.152511"><ele>100.5</ele><time>2026-05-03T08:43:19.387Z</time></trkpt><trkpt lat="43.4673621" lon="11.1525161"><ele>100.75</ele><time>2026-05-03T08:43:21.486Z</time></trkpt><trkpt lat="43.4672645" lon="11.1525005"><ele>101.0</ele><time>2026-05-03T08:43:23.404Z</time></trkpt><trkpt lat="43.4671378" lon="11.1525699"><ele>101.57142857142857</ele><time>2026-05-03T08:43:25.404Z</time></trkpt><trkpt lat="43.4670756" lon="11.1526152"><ele>102.14285714285714</ele><time>2026-05-03T08:43:26.411Z</time></trkpt><trkpt lat="43.4670225" lon="11.1526641"><ele>102.71428571428572</ele><time>2026-05-03T08:43:27.408Z</time></trkpt><trkpt lat="43.466971" lon="11.1527221"><ele>103.28571428571428</ele><time>2026-05-03T08:43:28.415Z</time></trkpt><trkpt lat="43.466924" lon="11.1527855"><ele>103.85714285714286</ele><time>2026-05-03T08:43:29.411Z</time></trkpt><trkpt lat="43.4668779" lon="11.1528513"><ele>104.42857142857143</ele><time>2026-05-03T08:43:30.417Z</time></trkpt><trkpt lat="43.4668295" lon="11.1529212"><ele>105.0</ele><time>2026-05-03T08:43:31.401Z</time></trkpt><trkpt lat="43.4667833" lon="11.1529942"><ele>105.0</ele><time>2026-05-03T08:43:32.482Z</time></trkpt><trkpt lat="43.4667435" lon="11.1530648"><ele>105.0</ele><time>2026-05-03T08:43:33.403Z</time></trkpt><trkpt lat="43.4667022" lon="11.1531311"><ele>105.0</ele><time>2026-05-03T08:43:34.408Z</time></trkpt><trkpt lat="43.4666586" lon="11.1532009"><ele>105.0</ele><time>2026-05-03T08:43:35.408Z</time></trkpt><trkpt lat="43.4666231" lon="11.1532755"><ele>105.0</ele><time>2026-05-03T08:43:36.41Z</time></trkpt><trkpt lat="43.4665764" lon="11.1533594"><ele>105.0</ele><time>2026-05-03T08:43:37.476Z</time></trkpt><trkpt lat="43.4665396" lon="11.1534303"><ele>105.0</ele><time>2026-05-03T08:43:38.412Z</time></trkpt><trkpt lat="43.4664532" lon="11.1535472"><ele>105.0</ele><time>2026-05-03T08:43:40.41Z</time></trkpt><trkpt lat="43.4664117" lon="11.1536217"><ele>105.0</ele><time>2026-05-03T08:43:41.407Z</time></trkpt><trkpt lat="43.4663618" lon="11.1537027"><ele>105.0</ele><time>2026-05-03T08:43:42.412Z</time></trkpt><trkpt lat="43.4663148" lon="11.153782"><ele>105.0</ele><time>2026-05-03T08:43:43.413Z</time></trkpt><trkpt lat="43.4662661" lon="11.1538529"><ele>105.0</ele><time>2026-05-03T08:43:44.415Z</time></trkpt><trkpt lat="43.4662189" lon="11.153923"><ele>105.0</ele><time>2026-05-03T08:43:45.407Z</time></trkpt><trkpt lat="43.4661729" lon="11.1539934"><ele>105.0</ele><time>2026-05-03T08:43:46.416Z</time></trkpt><trkpt lat="43.4661292" lon="11.1540642"><ele>105.0</ele><time>2026-05-03T08:43:47.408Z</time></trkpt><trkpt lat="43.4660858" lon="11.1541325"><ele>105.0</ele><time>2026-05-03T08:43:48.404Z</time></trkpt><trkpt lat="43.4660084" lon="11.1542593"><ele>105.0</ele><time>2026-05-03T08:43:50.407Z</time></trkpt><trkpt lat="43.4659431" lon="11.154386"><ele>105.0</ele><time>2026-05-03T08:43:52.411Z</time></trkpt><trkpt lat="43.4658998" lon="11.1545184"><ele>105.0</ele><time>2026-05-03T08:43:54.413Z</time></trkpt><trkpt lat="43.4658639" lon="11.1546628"><ele>105.0</ele><time>2026-05-03T08:43:56.404Z</time></trkpt><trkpt lat="43.4658294" lon="11.1548006"><ele>105.0</ele><time>2026-05-03T08:43:58.401Z</time></trkpt><trkpt lat="43.4657923" lon="11.1549285"><ele>105.0</ele><time>2026-05-03T08:44:00.422Z</time></trkpt><trkpt lat="43.4657517" lon="11.1550555"><ele>105.0</ele><time>2026-05-03T08:44:02.409Z</time></trkpt><trkpt lat="43.4657174" lon="11.1551931"><ele>105.0</ele><time>2026-05-03T08:44:04.388Z</time></trkpt><trkpt lat="43.4656764" lon="11.1553233"><ele>105.0</ele><time>2026-05-03T08:44:06.404Z</time></trkpt><trkpt lat="43.4656364" lon="11.1554613"><ele>105.0</ele><time>2026-05-03T08:44:08.4Z</time></trkpt><trkpt lat="43.4656023" lon="11.1555936"><ele>105.0</ele><time>2026-05-03T08:44:10.414Z</time></trkpt><trkpt lat="43.4655837" lon="11.1556949"><ele>105.0</ele><time>2026-05-03T08:44:12.41Z</time></trkpt><trkpt lat="43.4655579" lon="11.1558061"><ele>105.0</ele><time>2026-05-03T08:44:15.397Z</time></trkpt><trkpt lat="43.4655261" lon="11.1559027"><ele>105.0</ele><time>2026-05-03T08:44:18.404Z</time></trkpt><trkpt lat="43.4654979" lon="11.155991"><ele>105.0</ele><time>2026-05-03T08:44:20.408Z</time></trkpt><trkpt lat="43.4654747" lon="11.1560983"><ele>105.0</ele><time>2026-05-03T08:44:22.416Z</time></trkpt><trkpt lat="43.4654422" lon="11.1562226"><ele>105.0</ele><time>2026-05-03T08:44:24.4Z</time></trkpt><trkpt lat="43.4654122" lon="11.1563542"><ele>105.0</ele><time>2026-05-03T08:44:26.422Z</time></trkpt><trkpt lat="43.4653893" lon="11.1565062"><ele>105.0</ele><time>2026-05-03T08:44:28.411Z</time></trkpt><trkpt lat="43.4653552" lon="11.1566675"><ele>105.0</ele><time>2026-05-03T08:44:30.414Z</time></trkpt><trkpt lat="43.4653326" lon="11.1567509"><ele>105.0</ele><time>2026-05-03T08:44:31.416Z</time></trkpt><trkpt lat="43.4653105" lon="11.1568356"><ele>105.0</ele><time>2026-05-03T08:44:32.408Z</time></trkpt><trkpt lat="43.465273" lon="11.1569927"><ele>105.0</ele><time>2026-05-03T08:44:34.409Z</time></trkpt><trkpt lat="43.4652372" lon="11.157156"><ele>105.0</ele><time>2026-05-03T08:44:36.408Z</time></trkpt><trkpt lat="43.4652206" lon="11.15724"><ele>105.0</ele><time>2026-05-03T08:44:37.405Z</time></trkpt><trkpt lat="43.4651921" lon="11.1574003"><ele>104.2</ele><time>2026-05-03T08:44:39.401Z</time></trkpt><trkpt lat="43.4651628" lon="11.1575556"><ele>103.4</ele><time>2026-05-03T08:44:41.415Z</time></trkpt><trkpt lat="43.4651285" lon="11.1577062"><ele>102.6</ele><time>2026-05-03T08:44:43.416Z</time></trkpt><trkpt lat="43.4650865" lon="11.157845"><ele>101.8</ele><time>2026-05-03T08:44:45.386Z</time></trkpt><trkpt lat="43.465045" lon="11.1579823"><ele>101.0</ele><time>2026-05-03T08:44:47.405Z</time></trkpt><trkpt lat="43.4650125" lon="11.1581189"><ele>101.4</ele><time>2026-05-03T08:44:49.405Z</time></trkpt><trkpt lat="43.4649805" lon="11.1582588"><ele>101.8</ele><time>2026-05-03T08:44:51.407Z</time></trkpt><trkpt lat="43.4649547" lon="11.1583936"><ele>102.2</ele><time>2026-05-03T08:44:53.41Z</time></trkpt><trkpt lat="43.4649272" lon="11.1585277"><ele>102.60000000000001</ele><time>2026-05-03T08:44:55.413Z</time></trkpt><trkpt lat="43.4648901" lon="11.1586671"><ele>103.0</ele><time>2026-05-03T08:44:57.407Z</time></trkpt><trkpt lat="43.4648582" lon="11.1588028"><ele>103.0</ele><time>2026-05-03T08:44:59.409Z</time></trkpt><trkpt lat="43.4648244" lon="11.1589364"><ele>103.0</ele><time>2026-05-03T08:45:01.422Z</time></trkpt><trkpt lat="43.4647848" lon="11.1590683"><ele>103.0</ele><time>2026-05-03T08:45:03.418Z</time></trkpt><trkpt lat="43.4647373" lon="11.1591942"><ele>103.0</ele><time>2026-05-03T08:45:05.419Z</time></trkpt><trkpt lat="43.464686" lon="11.1593162"><ele>103.0</ele><time>2026-05-03T08:45:07.413Z</time></trkpt><trkpt lat="43.4646243" lon="11.1594321"><ele>103.0</ele><time>2026-05-03T08:45:09.41Z</time></trkpt><trkpt lat="43.4645576" lon="11.1595355"><ele>103.0</ele><time>2026-05-03T08:45:11.403Z</time></trkpt><trkpt lat="43.4644915" lon="11.1596437"><ele>103.0</ele><time>2026-05-03T08:45:13.409Z</time></trkpt><trkpt lat="43.464421" lon="11.1597463"><ele>103.0</ele><time>2026-05-03T08:45:15.409Z</time></trkpt><trkpt lat="43.4643398" lon="11.1598453"><ele>103.0</ele><time>2026-05-03T08:45:17.413Z</time></trkpt><trkpt lat="43.4642612" lon="11.1599355"><ele>103.0</ele><time>2026-05-03T08:45:19.413Z</time></trkpt><trkpt lat="43.4641775" lon="11.1600195"><ele>103.0</ele><time>2026-05-03T08:45:21.404Z</time></trkpt><trkpt lat="43.464091" lon="11.1600977"><ele>103.0</ele><time>2026-05-03T08:45:23.416Z</time></trkpt><trkpt lat="43.4640004" lon="11.1601678"><ele>103.0</ele><time>2026-05-03T08:45:25.409Z</time></trkpt><trkpt lat="43.4639092" lon="11.1602262"><ele>103.0</ele><time>2026-05-03T08:45:27.404Z</time></trkpt><trkpt lat="43.4638106" lon="11.1602808"><ele>103.2</ele><time>2026-05-03T08:45:29.408Z</time></trkpt><trkpt lat="43.4637075" lon="11.1603279"><ele>103.4</ele><time>2026-05-03T08:45:31.417Z</time></trkpt><trkpt lat="43.4636097" lon="11.1603815"><ele>103.60000000000001</ele><time>2026-05-03T08:45:33.404Z</time></trkpt><trkpt lat="43.4635063" lon="11.1604409"><ele>103.80000000000001</ele><time>2026-05-03T08:45:35.389Z</time></trkpt><trkpt lat="43.4634031" lon="11.1605091"><ele>104.0</ele><time>2026-05-03T08:45:37.405Z</time></trkpt><trkpt lat="43.4633085" lon="11.1605762"><ele>104.0</ele><time>2026-05-03T08:45:39.408Z</time></trkpt><trkpt lat="43.4632148" lon="11.1606409"><ele>104.0</ele><time>2026-05-03T08:45:41.404Z</time></trkpt><trkpt lat="43.4631144" lon="11.1606877"><ele>104.0</ele><time>2026-05-03T08:45:43.403Z</time></trkpt><trkpt lat="43.4630131" lon="11.1607154"><ele>104.0</ele><time>2026-05-03T08:45:45.412Z</time></trkpt><trkpt lat="43.4629092" lon="11.1606989"><ele>104.0</ele><time>2026-05-03T08:45:47.417Z</time></trkpt><trkpt lat="43.4628115" lon="11.1606422"><ele>104.80000000000001</ele><time>2026-05-03T08:45:49.404Z</time></trkpt><trkpt lat="43.4627121" lon="11.1605863"><ele>105.60000000000001</ele><time>2026-05-03T08:45:51.406Z</time></trkpt><trkpt lat="43.4626256" lon="11.1605436"><ele>106.4</ele><time>2026-05-03T08:45:53.405Z</time></trkpt><trkpt lat="43.462545" lon="11.1605029"><ele>107.2</ele><time>2026-05-03T08:45:55.413Z</time></trkpt><trkpt lat="43.4624635" lon="11.1604707"><ele>108.0</ele><time>2026-05-03T08:45:57.41Z</time></trkpt><trkpt lat="43.4623769" lon="11.160437"><ele>108.0</ele><time>2026-05-03T08:45:59.406Z</time></trkpt><trkpt lat="43.4622953" lon="11.1604017"><ele>108.0</ele><time>2026-05-03T08:46:01.414Z</time></trkpt><trkpt lat="43.4622141" lon="11.1603645"><ele>108.0</ele><time>2026-05-03T08:46:03.41Z</time></trkpt><trkpt lat="43.4621306" lon="11.1603275"><ele>108.0</ele><time>2026-05-03T08:46:05.408Z</time></trkpt><trkpt lat="43.4620481" lon="11.1602905"><ele>108.0</ele><time>2026-05-03T08:46:07.42Z</time></trkpt><trkpt lat="43.4619711" lon="11.1602571"><ele>108.0</ele><time>2026-05-03T08:46:09.417Z</time></trkpt><trkpt lat="43.4618963" lon="11.1602166"><ele>108.14285714285714</ele><time>2026-05-03T08:46:11.393Z</time></trkpt><trkpt lat="43.4618311" lon="11.1601695"><ele>108.28571428571428</ele><time>2026-05-03T08:46:13.421Z</time></trkpt><trkpt lat="43.4617688" lon="11.160115"><ele>108.42857142857143</ele><time>2026-05-03T08:46:15.425Z</time></trkpt><trkpt lat="43.4617044" lon="11.1600825"><ele>108.57142857142857</ele><time>2026-05-03T08:46:17.416Z</time></trkpt><trkpt lat="43.4616358" lon="11.160051"><ele>108.71428571428572</ele><time>2026-05-03T08:46:19.407Z</time></trkpt><trkpt lat="43.4615615" lon="11.1600276"><ele>108.85714285714286</ele><time>2026-05-03T08:46:21.417Z</time></trkpt><trkpt lat="43.4614884" lon="11.1600243"><ele>109.0</ele><time>2026-05-03T08:46:23.406Z</time></trkpt><trkpt lat="43.4614031" lon="11.160009"><ele>109.0</ele><time>2026-05-03T08:46:26.41Z</time></trkpt><trkpt lat="43.4613328" lon="11.1599389"><ele>109.0</ele><time>2026-05-03T08:46:29.421Z</time></trkpt><trkpt lat="43.4612742" lon="11.1598873"><ele>109.0</ele><time>2026-05-03T08:46:31.416Z</time></trkpt><trkpt lat="43.4612025" lon="11.1598321"><ele>109.0</ele><time>2026-05-03T08:46:33.408Z</time></trkpt><trkpt lat="43.4611009" lon="11.1597583"><ele>109.0</ele><time>2026-05-03T08:46:35.417Z</time></trkpt><trkpt lat="43.460989" lon="11.1596874"><ele>110.4</ele><time>2026-05-03T08:46:37.413Z</time></trkpt><trkpt lat="43.4608857" lon="11.1596159"><ele>111.80000000000001</ele><time>2026-05-03T08:46:39.404Z</time></trkpt><trkpt lat="43.4607896" lon="11.1595675"><ele>113.19999999999999</ele><time>2026-05-03T08:46:41.419Z</time></trkpt><trkpt lat="43.4606941" lon="11.1595229"><ele>114.6</ele><time>2026-05-03T08:46:43.411Z</time></trkpt><trkpt lat="43.4606032" lon="11.1594902"><ele>116.0</ele><time>2026-05-03T08:46:45.418Z</time></trkpt><trkpt lat="43.4605109" lon="11.1594913"><ele>115.8</ele><time>2026-05-03T08:46:47.406Z</time></trkpt><trkpt lat="43.4604154" lon="11.1595003"><ele>115.6</ele><time>2026-05-03T08:46:49.401Z</time></trkpt><trkpt lat="43.4603174" lon="11.1595087"><ele>115.4</ele><time>2026-05-03T08:46:51.414Z</time></trkpt><trkpt lat="43.4602247" lon="11.15952"><ele>115.2</ele><time>2026-05-03T08:46:53.389Z</time></trkpt><trkpt lat="43.4601332" lon="11.1595325"><ele>115.0</ele><time>2026-05-03T08:46:55.387Z</time></trkpt><trkpt lat="43.4600414" lon="11.1595554"><ele>115.0</ele><time>2026-05-03T08:46:57.389Z</time></trkpt><trkpt lat="43.459946" lon="11.1595763"><ele>115.0</ele><time>2026-05-03T08:46:59.403Z</time></trkpt><trkpt lat="43.4598555" lon="11.1595928"><ele>115.0</ele><time>2026-05-03T08:47:01.406Z</time></trkpt><trkpt lat="43.4597642" lon="11.1596208"><ele>115.0</ele><time>2026-05-03T08:47:03.406Z</time></trkpt><trkpt lat="43.4596714" lon="11.159638"><ele>115.0</ele><time>2026-05-03T08:47:05.424Z</time></trkpt><trkpt lat="43.4595773" lon="11.1596614"><ele>114.6</ele><time>2026-05-03T08:47:07.412Z</time></trkpt><trkpt lat="43.4594808" lon="11.1596872"><ele>114.2</ele><time>2026-05-03T08:47:09.416Z</time></trkpt><trkpt lat="43.4593879" lon="11.1597235"><ele>113.80000000000001</ele><time>2026-05-03T08:47:11.407Z</time></trkpt><trkpt lat="43.459295" lon="11.1597596"><ele>113.4</ele><time>2026-05-03T08:47:13.409Z</time></trkpt><trkpt lat="43.4592014" lon="11.1597939"><ele>113.0</ele><time>2026-05-03T08:47:15.429Z</time></trkpt><trkpt lat="43.4591114" lon="11.1598366"><ele>111.99999999999999</ele><time>2026-05-03T08:47:17.414Z</time></trkpt><trkpt lat="43.4590215" lon="11.1598784"><ele>111.0</ele><time>2026-05-03T08:47:19.412Z</time></trkpt><trkpt lat="43.458935" lon="11.1599077"><ele>110.0</ele><time>2026-05-03T08:47:21.402Z</time></trkpt><trkpt lat="43.4588564" lon="11.1599592"><ele>109.0</ele><time>2026-05-03T08:47:23.406Z</time></trkpt><trkpt lat="43.458789" lon="11.1600016"><ele>107.99999999999999</ele><time>2026-05-03T08:47:25.407Z</time></trkpt><trkpt lat="43.4587248" lon="11.160021"><ele>107.0</ele><time>2026-05-03T08:47:27.416Z</time></trkpt><trkpt lat="43.4586539" lon="11.1600299"><ele>107.16666666666666</ele><time>2026-05-03T08:47:29.414Z</time></trkpt><trkpt lat="43.4585925" lon="11.1599849"><ele>107.33333333333333</ele><time>2026-05-03T08:47:31.401Z</time></trkpt><trkpt lat="43.4585536" lon="11.1598945"><ele>107.5</ele><time>2026-05-03T08:47:33.413Z</time></trkpt><trkpt lat="43.4585093" lon="11.1597956"><ele>107.66666666666666</ele><time>2026-05-03T08:47:35.419Z</time></trkpt><trkpt lat="43.4584649" lon="11.1596947"><ele>107.83333333333333</ele><time>2026-05-03T08:47:37.413Z</time></trkpt><trkpt lat="43.4584107" lon="11.1596044"><ele>108.0</ele><time>2026-05-03T08:47:39.415Z</time></trkpt><trkpt lat="43.4583601" lon="11.1595046"><ele>108.0</ele><time>2026-05-03T08:47:41.409Z</time></trkpt><trkpt lat="43.4583217" lon="11.1593836"><ele>108.00000000000001</ele><time>2026-05-03T08:47:43.421Z</time></trkpt><trkpt lat="43.4582742" lon="11.1592628"><ele>108.00000000000001</ele><time>2026-05-03T08:47:45.412Z</time></trkpt><trkpt lat="43.4582105" lon="11.159161"><ele>108.0</ele><time>2026-05-03T08:47:47.409Z</time></trkpt><trkpt lat="43.4581522" lon="11.1590675"><ele>108.0</ele><time>2026-05-03T08:47:49.407Z</time></trkpt><trkpt lat="43.4580839" lon="11.1589892"><ele>107.83333333333333</ele><time>2026-05-03T08:47:51.407Z</time></trkpt><trkpt lat="43.4580063" lon="11.1589303"><ele>107.66666666666666</ele><time>2026-05-03T08:47:53.404Z</time></trkpt><trkpt lat="43.4579253" lon="11.1588727"><ele>107.5</ele><time>2026-05-03T08:47:55.411Z</time></trkpt><trkpt lat="43.4578531" lon="11.1588122"><ele>107.33333333333333</ele><time>2026-05-03T08:47:57.412Z</time></trkpt><trkpt lat="43.4578063" lon="11.1587261"><ele>107.16666666666666</ele><time>2026-05-03T08:47:59.403Z</time></trkpt><trkpt lat="43.4577627" lon="11.1586341"><ele>107.0</ele><time>2026-05-03T08:48:01.396Z</time></trkpt><trkpt lat="43.4576949" lon="11.1586177"><ele>106.99999999999999</ele><time>2026-05-03T08:48:03.414Z</time></trkpt><trkpt lat="43.4576232" lon="11.1586719"><ele>107.0</ele><time>2026-05-03T08:48:05.431Z</time></trkpt><trkpt lat="43.4575544" lon="11.1587359"><ele>107.0</ele><time>2026-05-03T08:48:07.404Z</time></trkpt><trkpt lat="43.4574691" lon="11.158775"><ele>107.0</ele><time>2026-05-03T08:48:09.421Z</time></trkpt><trkpt lat="43.4573767" lon="11.1587812"><ele>106.99999999999999</ele><time>2026-05-03T08:48:11.405Z</time></trkpt><trkpt lat="43.4572783" lon="11.1587753"><ele>107.0</ele><time>2026-05-03T08:48:13.408Z</time></trkpt><trkpt lat="43.457174" lon="11.1587594"><ele>106.83333333333333</ele><time>2026-05-03T08:48:15.408Z</time></trkpt><trkpt lat="43.457076" lon="11.15873"><ele>106.66666666666666</ele><time>2026-05-03T08:48:17.404Z</time></trkpt><trkpt lat="43.4569758" lon="11.1587162"><ele>106.5</ele><time>2026-05-03T08:48:19.405Z</time></trkpt><trkpt lat="43.4568854" lon="11.158706"><ele>106.33333333333334</ele><time>2026-05-03T08:48:21.423Z</time></trkpt><trkpt lat="43.4568011" lon="11.1586817"><ele>106.16666666666667</ele><time>2026-05-03T08:48:23.408Z</time></trkpt><trkpt lat="43.4567368" lon="11.1586697"><ele>106.0</ele><time>2026-05-03T08:48:25.409Z</time></trkpt><trkpt lat="43.4566605" lon="11.1586722"><ele>106.00000000000001</ele><time>2026-05-03T08:48:28.409Z</time></trkpt><trkpt lat="43.4566086" lon="11.158619"><ele>106.0</ele><time>2026-05-03T08:48:31.4Z</time></trkpt><trkpt lat="43.4565858" lon="11.1585371"><ele>106.0</ele><time>2026-05-03T08:48:33.4Z</time></trkpt><trkpt lat="43.456543" lon="11.1584252"><ele>106.0</ele><time>2026-05-03T08:48:35.418Z</time></trkpt><trkpt lat="43.4564555" lon="11.1583268"><ele>106.00000000000001</ele><time>2026-05-03T08:48:37.402Z</time></trkpt><trkpt lat="43.4563634" lon="11.1582644"><ele>106.0</ele><time>2026-05-03T08:48:39.423Z</time></trkpt><trkpt lat="43.4562978" lon="11.1582126"><ele>106.19999999999999</ele><time>2026-05-03T08:48:41.411Z</time></trkpt><trkpt lat="43.456229" lon="11.158157"><ele>106.39999999999999</ele><time>2026-05-03T08:48:43.403Z</time></trkpt><trkpt lat="43.4561526" lon="11.1581003"><ele>106.6</ele><time>2026-05-03T08:48:45.407Z</time></trkpt><trkpt lat="43.4560596" lon="11.1580647"><ele>106.8</ele><time>2026-05-03T08:48:47.398Z</time></trkpt><trkpt lat="43.4559656" lon="11.1580444"><ele>107.0</ele><time>2026-05-03T08:48:49.411Z</time></trkpt><trkpt lat="43.4558713" lon="11.1580292"><ele>106.99999999999999</ele><time>2026-05-03T08:48:51.418Z</time></trkpt><trkpt lat="43.4557798" lon="11.158027"><ele>107.0</ele><time>2026-05-03T08:48:53.474Z</time></trkpt><trkpt lat="43.4556896" lon="11.1580391"><ele>107.0</ele><time>2026-05-03T08:48:55.395Z</time></trkpt><trkpt lat="43.4556016" lon="11.1580493"><ele>107.0</ele><time>2026-05-03T08:48:57.409Z</time></trkpt><trkpt lat="43.4555136" lon="11.1580584"><ele>106.99999999999999</ele><time>2026-05-03T08:48:59.412Z</time></trkpt><trkpt lat="43.4554347" lon="11.1580676"><ele>107.0</ele><time>2026-05-03T08:49:01.401Z</time></trkpt><trkpt lat="43.4553658" lon="11.1580704"><ele>107.16666666666666</ele><time>2026-05-03T08:49:03.423Z</time></trkpt><trkpt lat="43.4552913" lon="11.1580678"><ele>107.33333333333333</ele><time>2026-05-03T08:49:05.389Z</time></trkpt><trkpt lat="43.4552134" lon="11.1580323"><ele>107.5</ele><time>2026-05-03T08:49:07.489Z</time></trkpt><trkpt lat="43.4551504" lon="11.1579596"><ele>107.66666666666666</ele><time>2026-05-03T08:49:09.379Z</time></trkpt><trkpt lat="43.455088" lon="11.1578636"><ele>107.83333333333333</ele><time>2026-05-03T08:49:11.382Z</time></trkpt><trkpt lat="43.4550302" lon="11.1577782"><ele>108.0</ele><time>2026-05-03T08:49:13.473Z</time></trkpt><trkpt lat="43.454963" lon="11.1576732"><ele>108.0</ele><time>2026-05-03T08:49:15.409Z</time></trkpt><trkpt lat="43.4548759" lon="11.157602"><ele>108.0</ele><time>2026-05-03T08:49:17.393Z</time></trkpt><trkpt lat="43.4548025" lon="11.1574744"><ele>108.0</ele><time>2026-05-03T08:49:19.495Z</time></trkpt><trkpt lat="43.4547445" lon="11.1573252"><ele>108.0</ele><time>2026-05-03T08:49:21.408Z</time></trkpt><trkpt lat="43.4546674" lon="11.1571961"><ele>108.4</ele><time>2026-05-03T08:49:23.481Z</time></trkpt><trkpt lat="43.4545914" lon="11.1570911"><ele>108.80000000000001</ele><time>2026-05-03T08:49:25.398Z</time></trkpt><trkpt lat="43.4545242" lon="11.1569925"><ele>109.2</ele><time>2026-05-03T08:49:27.411Z</time></trkpt><trkpt lat="43.4544634" lon="11.1568996"><ele>109.6</ele><time>2026-05-03T08:49:29.419Z</time></trkpt><trkpt lat="43.4543977" lon="11.1567987"><ele>110.0</ele><time>2026-05-03T08:49:31.416Z</time></trkpt><trkpt lat="43.4543269" lon="11.1567027"><ele>110.0</ele><time>2026-05-03T08:49:33.404Z</time></trkpt><trkpt lat="43.4542541" lon="11.1566029"><ele>110.0</ele><time>2026-05-03T08:49:35.413Z</time></trkpt><trkpt lat="43.4541777" lon="11.1565057"><ele>110.0</ele><time>2026-05-03T08:49:37.419Z</time></trkpt><trkpt lat="43.4541022" lon="11.1564094"><ele>110.0</ele><time>2026-05-03T08:49:39.417Z</time></trkpt><trkpt lat="43.4540347" lon="11.1563064"><ele>110.0</ele><time>2026-05-03T08:49:41.388Z</time></trkpt><trkpt lat="43.4539624" lon="11.1562044"><ele>110.2</ele><time>2026-05-03T08:49:43.473Z</time></trkpt><trkpt lat="43.4538944" lon="11.1561104"><ele>110.4</ele><time>2026-05-03T08:49:45.385Z</time></trkpt><trkpt lat="43.4538266" lon="11.156022"><ele>110.6</ele><time>2026-05-03T08:49:47.399Z</time></trkpt><trkpt lat="43.4537421" lon="11.1559588"><ele>110.8</ele><time>2026-05-03T08:49:49.474Z</time></trkpt><trkpt lat="43.4536598" lon="11.1558607"><ele>111.0</ele><time>2026-05-03T08:49:51.404Z</time></trkpt><trkpt lat="43.4536091" lon="11.1557653"><ele>110.71428571428571</ele><time>2026-05-03T08:49:53.417Z</time></trkpt><trkpt lat="43.4535927" lon="11.1556673"><ele>110.42857142857143</ele><time>2026-05-03T08:49:55.398Z</time></trkpt><trkpt lat="43.4536062" lon="11.1555797"><ele>110.14285714285714</ele><time>2026-05-03T08:49:57.412Z</time></trkpt><trkpt lat="43.4536303" lon="11.1554973"><ele>109.85714285714286</ele><time>2026-05-03T08:50:00.385Z</time></trkpt><trkpt lat="43.4536279" lon="11.15541"><ele>109.57142857142858</ele><time>2026-05-03T08:50:02.404Z</time></trkpt><trkpt lat="43.4535876" lon="11.1553429"><ele>109.28571428571429</ele><time>2026-05-03T08:50:04.413Z</time></trkpt><trkpt lat="43.4535129" lon="11.1552949"><ele>109.0</ele><time>2026-05-03T08:50:06.398Z</time></trkpt><trkpt lat="43.4534256" lon="11.1552475"><ele>109.0</ele><time>2026-05-03T08:50:08.402Z</time></trkpt><trkpt lat="43.4533425" lon="11.1551937"><ele>109.0</ele><time>2026-05-03T08:50:10.407Z</time></trkpt><trkpt lat="43.4532636" lon="11.1551367"><ele>109.0</ele><time>2026-05-03T08:50:12.387Z</time></trkpt><trkpt lat="43.45319" lon="11.1550723"><ele>109.0</ele><time>2026-05-03T08:50:14.411Z</time></trkpt><trkpt lat="43.4531083" lon="11.1550017"><ele>109.0</ele><time>2026-05-03T08:50:16.409Z</time></trkpt><trkpt lat="43.453012" lon="11.1549198"><ele>108.80000000000001</ele><time>2026-05-03T08:50:18.403Z</time></trkpt><trkpt lat="43.4529388" lon="11.1548361"><ele>108.60000000000001</ele><time>2026-05-03T08:50:20.395Z</time></trkpt><trkpt lat="43.452864" lon="11.1547611"><ele>108.4</ele><time>2026-05-03T08:50:22.409Z</time></trkpt><trkpt lat="43.4527748" lon="11.1546895"><ele>108.2</ele><time>2026-05-03T08:50:24.395Z</time></trkpt><trkpt lat="43.4526955" lon="11.1546037"><ele>108.0</ele><time>2026-05-03T08:50:26.416Z</time></trkpt><trkpt lat="43.452636" lon="11.1545233"><ele>108.0</ele><time>2026-05-03T08:50:28.484Z</time></trkpt><trkpt lat="43.4525908" lon="11.1544162"><ele>108.00000000000001</ele><time>2026-05-03T08:50:30.407Z</time></trkpt><trkpt lat="43.4525453" lon="11.1543042"><ele>108.00000000000001</ele><time>2026-05-03T08:50:32.408Z</time></trkpt><trkpt lat="43.4525155" lon="11.1541822"><ele>108.0</ele><time>2026-05-03T08:50:34.426Z</time></trkpt><trkpt lat="43.4524841" lon="11.1540613"><ele>108.0</ele><time>2026-05-03T08:50:36.407Z</time></trkpt><trkpt lat="43.4524632" lon="11.1539482"><ele>108.0</ele><time>2026-05-03T08:50:38.405Z</time></trkpt><trkpt lat="43.4524481" lon="11.1538291"><ele>108.0</ele><time>2026-05-03T08:50:40.418Z</time></trkpt><trkpt lat="43.452423" lon="11.1537227"><ele>108.0</ele><time>2026-05-03T08:50:42.408Z</time></trkpt><trkpt lat="43.4524066" lon="11.1536071"><ele>108.0</ele><time>2026-05-03T08:50:44.406Z</time></trkpt><trkpt lat="43.4523864" lon="11.1534856"><ele>108.0</ele><time>2026-05-03T08:50:46.412Z</time></trkpt><trkpt lat="43.4523605" lon="11.1533669"><ele>108.0</ele><time>2026-05-03T08:50:48.394Z</time></trkpt><trkpt lat="43.4523392" lon="11.1532586"><ele>108.60000000000001</ele><time>2026-05-03T08:50:50.408Z</time></trkpt><trkpt lat="43.45231" lon="11.1531441"><ele>109.20000000000002</ele><time>2026-05-03T08:50:52.405Z</time></trkpt><trkpt lat="43.4522654" lon="11.1530185"><ele>109.8</ele><time>2026-05-03T08:50:54.411Z</time></trkpt><trkpt lat="43.4522443" lon="11.1529006"><ele>110.4</ele><time>2026-05-03T08:50:56.411Z</time></trkpt><trkpt lat="43.4522373" lon="11.1527733"><ele>111.0</ele><time>2026-05-03T08:50:58.402Z</time></trkpt><trkpt lat="43.4521718" lon="11.1526933"><ele>111.33333333333333</ele><time>2026-05-03T08:51:00.419Z</time></trkpt><trkpt lat="43.4521135" lon="11.1526427"><ele>111.66666666666666</ele><time>2026-05-03T08:51:02.406Z</time></trkpt><trkpt lat="43.4520477" lon="11.1525727"><ele>112.0</ele><time>2026-05-03T08:51:05.407Z</time></trkpt><trkpt lat="43.4519779" lon="11.1525105"><ele>112.33333333333333</ele><time>2026-05-03T08:51:07.409Z</time></trkpt><trkpt lat="43.4519005" lon="11.1524349"><ele>112.66666666666666</ele><time>2026-05-03T08:51:09.414Z</time></trkpt><trkpt lat="43.4518456" lon="11.1523606"><ele>113.0</ele><time>2026-05-03T08:51:11.411Z</time></trkpt><trkpt lat="43.4518055" lon="11.1522521"><ele>113.2</ele><time>2026-05-03T08:51:14.409Z</time></trkpt><trkpt lat="43.4518256" lon="11.1521289"><ele>113.4</ele><time>2026-05-03T08:51:16.415Z</time></trkpt><trkpt lat="43.4518311" lon="11.1519917"><ele>113.60000000000001</ele><time>2026-05-03T08:51:18.388Z</time></trkpt><trkpt lat="43.4517789" lon="11.1518855"><ele>113.80000000000001</ele><time>2026-05-03T08:51:20.415Z</time></trkpt><trkpt lat="43.4517116" lon="11.1517991"><ele>114.0</ele><time>2026-05-03T08:51:22.409Z</time></trkpt><trkpt lat="43.451632" lon="11.1517238"><ele>114.0</ele><time>2026-05-03T08:51:24.483Z</time></trkpt><trkpt lat="43.4515696" lon="11.1516436"><ele>114.0</ele><time>2026-05-03T08:51:26.415Z</time></trkpt><trkpt lat="43.4515088" lon="11.1515701"><ele>114.0</ele><time>2026-05-03T08:51:28.464Z</time></trkpt><trkpt lat="43.4514464" lon="11.1515091"><ele>114.0</ele><time>2026-05-03T08:51:30.409Z</time></trkpt><trkpt lat="43.4513823" lon="11.1514567"><ele>114.0</ele><time>2026-05-03T08:51:32.469Z</time></trkpt><trkpt lat="43.4513222" lon="11.1513835"><ele>114.0</ele><time>2026-05-03T08:51:34.41Z</time></trkpt><trkpt lat="43.4512567" lon="11.1513431"><ele>113.33333333333333</ele><time>2026-05-03T08:51:36.434Z</time></trkpt><trkpt lat="43.4511871" lon="11.1513206"><ele>112.66666666666666</ele><time>2026-05-03T08:51:38.418Z</time></trkpt><trkpt lat="43.4511189" lon="11.1512895"><ele>112.0</ele><time>2026-05-03T08:51:40.413Z</time></trkpt><trkpt lat="43.4510481" lon="11.151266"><ele>111.33333333333333</ele><time>2026-05-03T08:51:42.41Z</time></trkpt><trkpt lat="43.450984" lon="11.1512081"><ele>110.66666666666666</ele><time>2026-05-03T08:51:44.407Z</time></trkpt><trkpt lat="43.4509287" lon="11.1511101"><ele>110.0</ele><time>2026-05-03T08:51:46.415Z</time></trkpt><trkpt lat="43.4508519" lon="11.1509774"><ele>109.99999999999999</ele><time>2026-05-03T08:51:48.412Z</time></trkpt><trkpt lat="43.4508002" lon="11.1509131"><ele>110.0</ele><time>2026-05-03T08:51:49.42Z</time></trkpt><trkpt lat="43.4507473" lon="11.1508612"><ele>110.0</ele><time>2026-05-03T08:51:50.414Z</time></trkpt><trkpt lat="43.450689" lon="11.1508192"><ele>110.0</ele><time>2026-05-03T08:51:51.412Z</time></trkpt><trkpt lat="43.4506294" lon="11.1507832"><ele>109.99999999999999</ele><time>2026-05-03T08:51:52.477Z</time></trkpt><trkpt lat="43.4505128" lon="11.150722"><ele>110.0</ele><time>2026-05-03T08:51:54.468Z</time></trkpt><trkpt lat="43.4504121" lon="11.1506845"><ele>110.2</ele><time>2026-05-03T08:51:56.423Z</time></trkpt><trkpt lat="43.4503081" lon="11.1506568"><ele>110.4</ele><time>2026-05-03T08:51:58.472Z</time></trkpt><trkpt lat="43.4502087" lon="11.1506583"><ele>110.6</ele><time>2026-05-03T08:52:00.391Z</time></trkpt><trkpt lat="43.4501191" lon="11.1506918"><ele>110.8</ele><time>2026-05-03T08:52:02.408Z</time></trkpt><trkpt lat="43.4500294" lon="11.1507357"><ele>111.0</ele><time>2026-05-03T08:52:04.417Z</time></trkpt><trkpt lat="43.4499395" lon="11.1507908"><ele>111.0</ele><time>2026-05-03T08:52:06.406Z</time></trkpt><trkpt lat="43.4498538" lon="11.1508751"><ele>111.0</ele><time>2026-05-03T08:52:08.47Z</time></trkpt><trkpt lat="43.4497819" lon="11.1509614"><ele>111.0</ele><time>2026-05-03T08:52:10.417Z</time></trkpt><trkpt lat="43.4496984" lon="11.1510743"><ele>111.0</ele><time>2026-05-03T08:52:12.419Z</time></trkpt><trkpt lat="43.4496038" lon="11.151169"><ele>111.0</ele><time>2026-05-03T08:52:14.42Z</time></trkpt><trkpt lat="43.4495013" lon="11.1512265"><ele>111.4</ele><time>2026-05-03T08:52:16.409Z</time></trkpt><trkpt lat="43.4494001" lon="11.1513004"><ele>111.8</ele><time>2026-05-03T08:52:18.4Z</time></trkpt><trkpt lat="43.4493129" lon="11.1513857"><ele>112.20000000000002</ele><time>2026-05-03T08:52:20.419Z</time></trkpt><trkpt lat="43.4492284" lon="11.1514737"><ele>112.60000000000001</ele><time>2026-05-03T08:52:22.405Z</time></trkpt><trkpt lat="43.4491511" lon="11.1515882"><ele>113.0</ele><time>2026-05-03T08:52:24.416Z</time></trkpt><trkpt lat="43.4490682" lon="11.1517076"><ele>113.0</ele><time>2026-05-03T08:52:26.412Z</time></trkpt><trkpt lat="43.4489951" lon="11.1518186"><ele>113.00000000000001</ele><time>2026-05-03T08:52:28.469Z</time></trkpt><trkpt lat="43.4489252" lon="11.1519147"><ele>113.00000000000001</ele><time>2026-05-03T08:52:30.41Z</time></trkpt><trkpt lat="43.448849" lon="11.1519949"><ele>113.0</ele><time>2026-05-03T08:52:32.477Z</time></trkpt><trkpt lat="43.4487667" lon="11.1520674"><ele>113.0</ele><time>2026-05-03T08:52:34.469Z</time></trkpt><trkpt lat="43.4486847" lon="11.1521566"><ele>113.25</ele><time>2026-05-03T08:52:36.402Z</time></trkpt><trkpt lat="43.448598" lon="11.1522061"><ele>113.5</ele><time>2026-05-03T08:52:38.471Z</time></trkpt><trkpt lat="43.4485104" lon="11.1522583"><ele>113.75</ele><time>2026-05-03T08:52:40.394Z</time></trkpt><trkpt lat="43.4484167" lon="11.1522875"><ele>114.0</ele><time>2026-05-03T08:52:42.412Z</time></trkpt><trkpt lat="43.4482295" lon="11.1523139"><ele>114.0</ele><time>2026-05-03T08:52:46.395Z</time></trkpt><trkpt lat="43.4481727" lon="11.1522753"><ele>114.0</ele><time>2026-05-03T08:52:47.406Z</time></trkpt><trkpt lat="43.4480992" lon="11.1522485"><ele>114.0</ele><time>2026-05-03T08:52:48.479Z</time></trkpt><trkpt lat="43.4480277" lon="11.1522765"><ele>114.0</ele><time>2026-05-03T08:52:50.41Z</time></trkpt><trkpt lat="43.4479667" lon="11.152335"><ele>114.0</ele><time>2026-05-03T08:52:52.405Z</time></trkpt><trkpt lat="43.4478822" lon="11.1523486"><ele>114.0</ele><time>2026-05-03T08:52:54.38Z</time></trkpt><trkpt lat="43.4477763" lon="11.152363"><ele>114.0</ele><time>2026-05-03T08:52:56.401Z</time></trkpt><trkpt lat="43.4477122" lon="11.1523843"><ele>114.0</ele><time>2026-05-03T08:52:57.383Z</time></trkpt><trkpt lat="43.4476408" lon="11.1524133"><ele>114.0</ele><time>2026-05-03T08:52:58.409Z</time></trkpt><trkpt lat="43.4475707" lon="11.1524419"><ele>114.0</ele><time>2026-05-03T08:52:59.403Z</time></trkpt><trkpt lat="43.4475069" lon="11.1524712"><ele>114.0</ele><time>2026-05-03T08:53:00.403Z</time></trkpt><trkpt lat="43.4473916" lon="11.1525071"><ele>114.0</ele><time>2026-05-03T08:53:02.423Z</time></trkpt><trkpt lat="43.4472815" lon="11.1525342"><ele>114.0</ele><time>2026-05-03T08:53:04.403Z</time></trkpt><trkpt lat="43.4471737" lon="11.1525671"><ele>114.0</ele><time>2026-05-03T08:53:06.412Z</time></trkpt><trkpt lat="43.4470749" lon="11.1525863"><ele>114.0</ele><time>2026-05-03T08:53:08.39Z</time></trkpt><trkpt lat="43.4469804" lon="11.1526078"><ele>114.0</ele><time>2026-05-03T08:53:10.409Z</time></trkpt><trkpt lat="43.4468862" lon="11.152624"><ele>114.0</ele><time>2026-05-03T08:53:12.473Z</time></trkpt><trkpt lat="43.4467868" lon="11.1526324"><ele>113.6</ele><time>2026-05-03T08:53:14.406Z</time></trkpt><trkpt lat="43.4466848" lon="11.1526595"><ele>113.2</ele><time>2026-05-03T08:53:16.412Z</time></trkpt><trkpt lat="43.4465907" lon="11.1526879"><ele>112.79999999999998</ele><time>2026-05-03T08:53:18.391Z</time></trkpt><trkpt lat="43.4465004" lon="11.1527004"><ele>112.39999999999999</ele><time>2026-05-03T08:53:20.4Z</time></trkpt><trkpt lat="43.4464329" lon="11.1527095"><ele>112.0</ele><time>2026-05-03T08:53:22.405Z</time></trkpt><trkpt lat="43.4463414" lon="11.1527116"><ele>112.0</ele><time>2026-05-03T08:53:24.411Z</time></trkpt><trkpt lat="43.4462759" lon="11.1527139"><ele>111.99999999999999</ele><time>2026-05-03T08:53:25.407Z</time></trkpt><trkpt lat="43.4461638" lon="11.152693"><ele>111.99999999999999</ele><time>2026-05-03T08:53:27.407Z</time></trkpt><trkpt lat="43.446052" lon="11.1526421"><ele>112.0</ele><time>2026-05-03T08:53:29.426Z</time></trkpt><trkpt lat="43.4459536" lon="11.1525833"><ele>112.0</ele><time>2026-05-03T08:53:31.428Z</time></trkpt><trkpt lat="43.4458675" lon="11.1524928"><ele>112.0</ele><time>2026-05-03T08:53:33.404Z</time></trkpt><trkpt lat="43.4458009" lon="11.1523796"><ele>111.99999999999999</ele><time>2026-05-03T08:53:35.41Z</time></trkpt><trkpt lat="43.4457421" lon="11.1522741"><ele>111.99999999999999</ele><time>2026-05-03T08:53:37.409Z</time></trkpt><trkpt lat="43.4456804" lon="11.1521763"><ele>112.0</ele><time>2026-05-03T08:53:39.411Z</time></trkpt><trkpt lat="43.4456035" lon="11.1520997"><ele>112.0</ele><time>2026-05-03T08:53:41.402Z</time></trkpt><trkpt lat="43.4455146" lon="11.1520586"><ele>112.0</ele><time>2026-05-03T08:53:43.403Z</time></trkpt><trkpt lat="43.4454231" lon="11.1520535"><ele>111.99999999999999</ele><time>2026-05-03T08:53:45.408Z</time></trkpt><trkpt lat="43.4453102" lon="11.1520617"><ele>111.99999999999999</ele><time>2026-05-03T08:53:47.476Z</time></trkpt><trkpt lat="43.4451949" lon="11.1520556"><ele>112.0</ele><time>2026-05-03T08:53:49.411Z</time></trkpt><trkpt lat="43.4450772" lon="11.1520623"><ele>112.0</ele><time>2026-05-03T08:53:51.414Z</time></trkpt><trkpt lat="43.4449529" lon="11.1520923"><ele>112.0</ele><time>2026-05-03T08:53:53.481Z</time></trkpt><trkpt lat="43.4448426" lon="11.1521081"><ele>111.99999999999999</ele><time>2026-05-03T08:53:55.407Z</time></trkpt><trkpt lat="43.4447272" lon="11.152113"><ele>111.99999999999999</ele><time>2026-05-03T08:53:57.412Z</time></trkpt><trkpt lat="43.4446139" lon="11.1521047"><ele>112.0</ele><time>2026-05-03T08:53:59.415Z</time></trkpt><trkpt lat="43.4445158" lon="11.1521098"><ele>112.0</ele><time>2026-05-03T08:54:01.404Z</time></trkpt><trkpt lat="43.4444262" lon="11.1521118"><ele>111.8</ele><time>2026-05-03T08:54:03.388Z</time></trkpt><trkpt lat="43.4443315" lon="11.1521192"><ele>111.6</ele><time>2026-05-03T08:54:05.41Z</time></trkpt><trkpt lat="43.4442297" lon="11.1521371"><ele>111.39999999999999</ele><time>2026-05-03T08:54:07.417Z</time></trkpt><trkpt lat="43.4441397" lon="11.1522153"><ele>111.19999999999999</ele><time>2026-05-03T08:54:09.411Z</time></trkpt><trkpt lat="43.4440507" lon="11.1523067"><ele>111.0</ele><time>2026-05-03T08:54:11.412Z</time></trkpt><trkpt lat="43.4439701" lon="11.1524041"><ele>111.0</ele><time>2026-05-03T08:54:13.4Z</time></trkpt><trkpt lat="43.4438795" lon="11.1524854"><ele>111.0</ele><time>2026-05-03T08:54:15.398Z</time></trkpt><trkpt lat="43.4438183" lon="11.1525307"><ele>111.0</ele><time>2026-05-03T08:54:16.41Z</time></trkpt><trkpt lat="43.4437595" lon="11.1525631"><ele>111.0</ele><time>2026-05-03T08:54:17.386Z</time></trkpt><trkpt lat="43.4436955" lon="11.1525816"><ele>111.0</ele><time>2026-05-03T08:54:18.405Z</time></trkpt><trkpt lat="43.4436211" lon="11.1525638"><ele>111.0</ele><time>2026-05-03T08:54:20.408Z</time></trkpt><trkpt lat="43.4435126" lon="11.1525339"><ele>111.0</ele><time>2026-05-03T08:54:22.413Z</time></trkpt><trkpt lat="43.4433994" lon="11.1525163"><ele>111.0</ele><time>2026-05-03T08:54:24.395Z</time></trkpt><trkpt lat="43.443294" lon="11.1525096"><ele>111.0</ele><time>2026-05-03T08:54:26.409Z</time></trkpt><trkpt lat="43.4431949" lon="11.1525414"><ele>111.0</ele><time>2026-05-03T08:54:28.384Z</time></trkpt><trkpt lat="43.4431131" lon="11.15259"><ele>111.0</ele><time>2026-05-03T08:54:30.4Z</time></trkpt><trkpt lat="43.4430283" lon="11.1526416"><ele>111.4</ele><time>2026-05-03T08:54:32.398Z</time></trkpt><trkpt lat="43.4429526" lon="11.1527081"><ele>111.8</ele><time>2026-05-03T08:54:34.389Z</time></trkpt><trkpt lat="43.4428884" lon="11.1527783"><ele>112.20000000000002</ele><time>2026-05-03T08:54:36.434Z</time></trkpt><trkpt lat="43.4428003" lon="11.1528929"><ele>112.60000000000001</ele><time>2026-05-03T08:54:39.409Z</time></trkpt><trkpt lat="43.4427439" lon="11.1529833"><ele>113.0</ele><time>2026-05-03T08:54:41.408Z</time></trkpt><trkpt lat="43.4426898" lon="11.1530799"><ele>113.0</ele><time>2026-05-03T08:54:43.41Z</time></trkpt><trkpt lat="43.4426396" lon="11.1531928"><ele>113.00000000000001</ele><time>2026-05-03T08:54:45.403Z</time></trkpt><trkpt lat="43.4425894" lon="11.1533022"><ele>113.00000000000001</ele><time>2026-05-03T08:54:47.381Z</time></trkpt><trkpt lat="43.4425185" lon="11.1533888"><ele>113.0</ele><time>2026-05-03T08:54:49.4Z</time></trkpt><trkpt lat="43.4424344" lon="11.1534417"><ele>113.0</ele><time>2026-05-03T08:54:51.389Z</time></trkpt><trkpt lat="43.4423582" lon="11.1535212"><ele>113.2</ele><time>2026-05-03T08:54:53.401Z</time></trkpt><trkpt lat="43.4422833" lon="11.1536046"><ele>113.4</ele><time>2026-05-03T08:54:55.4Z</time></trkpt><trkpt lat="43.4422077" lon="11.1536851"><ele>113.60000000000001</ele><time>2026-05-03T08:54:57.395Z</time></trkpt><trkpt lat="43.4421281" lon="11.1537641"><ele>113.80000000000001</ele><time>2026-05-03T08:54:59.427Z</time></trkpt><trkpt lat="43.4420427" lon="11.1538253"><ele>114.0</ele><time>2026-05-03T08:55:01.411Z</time></trkpt><trkpt lat="43.4419575" lon="11.1538768"><ele>114.0</ele><time>2026-05-03T08:55:03.405Z</time></trkpt><trkpt lat="43.4418672" lon="11.1539194"><ele>114.0</ele><time>2026-05-03T08:55:05.398Z</time></trkpt><trkpt lat="43.4417767" lon="11.153958"><ele>114.0</ele><time>2026-05-03T08:55:07.397Z</time></trkpt><trkpt lat="43.4416778" lon="11.1539936"><ele>114.0</ele><time>2026-05-03T08:55:09.413Z</time></trkpt><trkpt lat="43.4415753" lon="11.1540049"><ele>114.0</ele><time>2026-05-03T08:55:11.405Z</time></trkpt><trkpt lat="43.4414793" lon="11.1539734"><ele>114.0</ele><time>2026-05-03T08:55:13.41Z</time></trkpt><trkpt lat="43.4413919" lon="11.1538872"><ele>114.0</ele><time>2026-05-03T08:55:15.406Z</time></trkpt><trkpt lat="43.4413086" lon="11.1537821"><ele>114.0</ele><time>2026-05-03T08:55:17.408Z</time></trkpt><trkpt lat="43.4412309" lon="11.1536783"><ele>114.0</ele><time>2026-05-03T08:55:19.417Z</time></trkpt><trkpt lat="43.4411477" lon="11.1535745"><ele>114.0</ele><time>2026-05-03T08:55:21.39Z</time></trkpt><trkpt lat="43.4410529" lon="11.1534916"><ele>114.2</ele><time>2026-05-03T08:55:23.388Z</time></trkpt><trkpt lat="43.4409441" lon="11.1534767"><ele>114.4</ele><time>2026-05-03T08:55:25.392Z</time></trkpt><trkpt lat="43.4408316" lon="11.1534843"><ele>114.6</ele><time>2026-05-03T08:55:27.398Z</time></trkpt><trkpt lat="43.4407254" lon="11.1535009"><ele>114.8</ele><time>2026-05-03T08:55:29.419Z</time></trkpt><trkpt lat="43.4406271" lon="11.1535241"><ele>115.0</ele><time>2026-05-03T08:55:31.424Z</time></trkpt><trkpt lat="43.4405357" lon="11.153555"><ele>115.16666666666667</ele><time>2026-05-03T08:55:33.393Z</time></trkpt><trkpt lat="43.4404466" lon="11.1535942"><ele>115.33333333333334</ele><time>2026-05-03T08:55:35.401Z</time></trkpt><trkpt lat="43.4403671" lon="11.1536402"><ele>115.5</ele><time>2026-05-03T08:55:37.425Z</time></trkpt><trkpt lat="43.4402959" lon="11.1536771"><ele>115.66666666666666</ele><time>2026-05-03T08:55:39.395Z</time></trkpt><trkpt lat="43.4402162" lon="11.1537138"><ele>115.83333333333333</ele><time>2026-05-03T08:55:42.398Z</time></trkpt><trkpt lat="43.4401508" lon="11.1537566"><ele>116.0</ele><time>2026-05-03T08:55:44.388Z</time></trkpt><trkpt lat="43.4400656" lon="11.1538198"><ele>116.0</ele><time>2026-05-03T08:55:46.4Z</time></trkpt><trkpt lat="43.439988" lon="11.1538825"><ele>116.0</ele><time>2026-05-03T08:55:48.404Z</time></trkpt><trkpt lat="43.4399079" lon="11.1539524"><ele>116.0</ele><time>2026-05-03T08:55:50.395Z</time></trkpt><trkpt lat="43.4398258" lon="11.1540187"><ele>116.0</ele><time>2026-05-03T08:55:52.407Z</time></trkpt><trkpt lat="43.4397412" lon="11.1540895"><ele>116.0</ele><time>2026-05-03T08:55:54.393Z</time></trkpt><trkpt lat="43.4396503" lon="11.1541623"><ele>116.4</ele><time>2026-05-03T08:55:56.396Z</time></trkpt><trkpt lat="43.4395629" lon="11.1542409"><ele>116.8</ele><time>2026-05-03T08:55:58.426Z</time></trkpt><trkpt lat="43.4394781" lon="11.1543113"><ele>117.20000000000002</ele><time>2026-05-03T08:56:00.398Z</time></trkpt><trkpt lat="43.4393889" lon="11.154386"><ele>117.60000000000001</ele><time>2026-05-03T08:56:02.399Z</time></trkpt><trkpt lat="43.4392992" lon="11.1544601"><ele>118.0</ele><time>2026-05-03T08:56:04.403Z</time></trkpt><trkpt lat="43.4392121" lon="11.1545542"><ele>118.0</ele><time>2026-05-03T08:56:06.399Z</time></trkpt><trkpt lat="43.4391448" lon="11.1546625"><ele>118.00000000000001</ele><time>2026-05-03T08:56:08.399Z</time></trkpt><trkpt lat="43.4390767" lon="11.1547751"><ele>118.00000000000001</ele><time>2026-05-03T08:56:10.395Z</time></trkpt><trkpt lat="43.4390062" lon="11.1548909"><ele>118.0</ele><time>2026-05-03T08:56:12.395Z</time></trkpt><trkpt lat="43.4389368" lon="11.1549994"><ele>118.0</ele><time>2026-05-03T08:56:14.395Z</time></trkpt><trkpt lat="43.4388671" lon="11.1551066"><ele>119.4</ele><time>2026-05-03T08:56:16.386Z</time></trkpt><trkpt lat="43.4387992" lon="11.1552186"><ele>120.80000000000001</ele><time>2026-05-03T08:56:18.39Z</time></trkpt><trkpt lat="43.4387318" lon="11.1553281"><ele>122.2</ele><time>2026-05-03T08:56:20.384Z</time></trkpt><trkpt lat="43.4386688" lon="11.1554485"><ele>123.6</ele><time>2026-05-03T08:56:22.4Z</time></trkpt><trkpt lat="43.4386327" lon="11.1555931"><ele>125.0</ele><time>2026-05-03T08:56:24.4Z</time></trkpt><trkpt lat="43.4386322" lon="11.1557479"><ele>125.0</ele><time>2026-05-03T08:56:26.405Z</time></trkpt><trkpt lat="43.4386624" lon="11.155893"><ele>125.0</ele><time>2026-05-03T08:56:28.387Z</time></trkpt><trkpt lat="43.4387167" lon="11.1560168"><ele>125.0</ele><time>2026-05-03T08:56:30.4Z</time></trkpt><trkpt lat="43.4387724" lon="11.1561429"><ele>125.0</ele><time>2026-05-03T08:56:32.394Z</time></trkpt><trkpt lat="43.4388258" lon="11.1562696"><ele>125.0</ele><time>2026-05-03T08:56:34.394Z</time></trkpt><trkpt lat="43.438886" lon="11.1563975"><ele>123.4</ele><time>2026-05-03T08:56:36.402Z</time></trkpt><trkpt lat="43.4389361" lon="11.1565327"><ele>121.8</ele><time>2026-05-03T08:56:38.393Z</time></trkpt><trkpt lat="43.438984" lon="11.156668"><ele>120.19999999999999</ele><time>2026-05-03T08:56:40.396Z</time></trkpt><trkpt lat="43.439005" lon="11.1568106"><ele>118.6</ele><time>2026-05-03T08:56:42.409Z</time></trkpt><trkpt lat="43.4390058" lon="11.1569556"><ele>117.0</ele><time>2026-05-03T08:56:44.392Z</time></trkpt><trkpt lat="43.4390033" lon="11.1570982"><ele>117.0</ele><time>2026-05-03T08:56:46.395Z</time></trkpt><trkpt lat="43.4389997" lon="11.1572373"><ele>116.99999999999999</ele><time>2026-05-03T08:56:48.402Z</time></trkpt><trkpt lat="43.4389921" lon="11.1573779"><ele>116.99999999999999</ele><time>2026-05-03T08:56:50.399Z</time></trkpt><trkpt lat="43.4389876" lon="11.1575043"><ele>117.0</ele><time>2026-05-03T08:56:52.389Z</time></trkpt><trkpt lat="43.4389758" lon="11.1576281"><ele>117.0</ele><time>2026-05-03T08:56:54.393Z</time></trkpt><trkpt lat="43.4389575" lon="11.1577596"><ele>118.0</ele><time>2026-05-03T08:56:56.395Z</time></trkpt><trkpt lat="43.4389144" lon="11.1578754"><ele>118.99999999999999</ele><time>2026-05-03T08:56:58.394Z</time></trkpt><trkpt lat="43.4388392" lon="11.1579719"><ele>119.99999999999999</ele><time>2026-05-03T08:57:00.398Z</time></trkpt><trkpt lat="43.4387697" lon="11.1580685"><ele>121.0</ele><time>2026-05-03T08:57:02.397Z</time></trkpt><trkpt lat="43.4387072" lon="11.1581716"><ele>122.0</ele><time>2026-05-03T08:57:04.392Z</time></trkpt><trkpt lat="43.4386472" lon="11.1582798"><ele>122.19999999999999</ele><time>2026-05-03T08:57:06.391Z</time></trkpt><trkpt lat="43.438583" lon="11.1583917"><ele>122.39999999999999</ele><time>2026-05-03T08:57:08.396Z</time></trkpt><trkpt lat="43.4385138" lon="11.1585021"><ele>122.60000000000001</ele><time>2026-05-03T08:57:10.394Z</time></trkpt><trkpt lat="43.4384416" lon="11.1586172"><ele>122.80000000000001</ele><time>2026-05-03T08:57:12.411Z</time></trkpt><trkpt lat="43.438377" lon="11.158739"><ele>123.0</ele><time>2026-05-03T08:57:14.394Z</time></trkpt><trkpt lat="43.4383185" lon="11.1588621"><ele>123.0</ele><time>2026-05-03T08:57:16.381Z</time></trkpt><trkpt lat="43.4382482" lon="11.1589874"><ele>123.0</ele><time>2026-05-03T08:57:18.405Z</time></trkpt><trkpt lat="43.438175" lon="11.159119"><ele>123.0</ele><time>2026-05-03T08:57:20.399Z</time></trkpt><trkpt lat="43.4381091" lon="11.1592551"><ele>123.0</ele><time>2026-05-03T08:57:22.388Z</time></trkpt><trkpt lat="43.4380503" lon="11.1593892"><ele>123.0</ele><time>2026-05-03T08:57:24.392Z</time></trkpt><trkpt lat="43.4379948" lon="11.1595269"><ele>123.00000000000001</ele><time>2026-05-03T08:57:26.394Z</time></trkpt><trkpt lat="43.437945" lon="11.1596625"><ele>123.00000000000001</ele><time>2026-05-03T08:57:28.395Z</time></trkpt><trkpt lat="43.4378943" lon="11.1597929"><ele>123.0</ele><time>2026-05-03T08:57:30.407Z</time></trkpt><trkpt lat="43.4378415" lon="11.1599271"><ele>123.0</ele><time>2026-05-03T08:57:32.388Z</time></trkpt><trkpt lat="43.4377831" lon="11.1600545"><ele>122.60000000000001</ele><time>2026-05-03T08:57:34.396Z</time></trkpt><trkpt lat="43.4377425" lon="11.1601922"><ele>122.20000000000002</ele><time>2026-05-03T08:57:36.399Z</time></trkpt><trkpt lat="43.4377078" lon="11.1603183"><ele>121.8</ele><time>2026-05-03T08:57:38.401Z</time></trkpt><trkpt lat="43.4376701" lon="11.1604383"><ele>121.4</ele><time>2026-05-03T08:57:40.389Z</time></trkpt><trkpt lat="43.4376375" lon="11.1605683"><ele>121.0</ele><time>2026-05-03T08:57:42.381Z</time></trkpt><trkpt lat="43.4376066" lon="11.1607054"><ele>121.0</ele><time>2026-05-03T08:57:44.383Z</time></trkpt><trkpt lat="43.4375682" lon="11.1608454"><ele>121.0</ele><time>2026-05-03T08:57:46.419Z</time></trkpt><trkpt lat="43.4375401" lon="11.1609798"><ele>121.0</ele><time>2026-05-03T08:57:48.393Z</time></trkpt><trkpt lat="43.4375154" lon="11.1611209"><ele>121.0</ele><time>2026-05-03T08:57:50.406Z</time></trkpt><trkpt lat="43.4374971" lon="11.1612627"><ele>121.0</ele><time>2026-05-03T08:57:52.402Z</time></trkpt><trkpt lat="43.4374751" lon="11.1614073"><ele>120.75</ele><time>2026-05-03T08:57:54.389Z</time></trkpt><trkpt lat="43.4374591" lon="11.1615589"><ele>120.5</ele><time>2026-05-03T08:57:56.385Z</time></trkpt><trkpt lat="43.4374392" lon="11.1617152"><ele>120.25</ele><time>2026-05-03T08:57:58.404Z</time></trkpt><trkpt lat="43.4374157" lon="11.1618726"><ele>120.0</ele><time>2026-05-03T08:58:00.385Z</time></trkpt><trkpt lat="43.4373954" lon="11.1620343"><ele>120.0</ele><time>2026-05-03T08:58:02.398Z</time></trkpt><trkpt lat="43.4373758" lon="11.1621954"><ele>120.0</ele><time>2026-05-03T08:58:04.395Z</time></trkpt><trkpt lat="43.4373546" lon="11.1623444"><ele>120.0</ele><time>2026-05-03T08:58:06.387Z</time></trkpt><trkpt lat="43.437333" lon="11.1624957"><ele>120.0</ele><time>2026-05-03T08:58:08.402Z</time></trkpt><trkpt lat="43.4373082" lon="11.1626472"><ele>120.4</ele><time>2026-05-03T08:58:10.392Z</time></trkpt><trkpt lat="43.4372928" lon="11.1627936"><ele>120.8</ele><time>2026-05-03T08:58:12.39Z</time></trkpt><trkpt lat="43.4372859" lon="11.1629422"><ele>121.19999999999999</ele><time>2026-05-03T08:58:14.388Z</time></trkpt><trkpt lat="43.437283" lon="11.1630917"><ele>121.6</ele><time>2026-05-03T08:58:16.392Z</time></trkpt><trkpt lat="43.4372759" lon="11.1632356"><ele>122.0</ele><time>2026-05-03T08:58:18.386Z</time></trkpt><trkpt lat="43.4372738" lon="11.1633807"><ele>122.0</ele><time>2026-05-03T08:58:20.395Z</time></trkpt><trkpt lat="43.4372739" lon="11.1635294"><ele>121.99999999999999</ele><time>2026-05-03T08:58:22.389Z</time></trkpt><trkpt lat="43.4372833" lon="11.1636833"><ele>121.99999999999999</ele><time>2026-05-03T08:58:24.393Z</time></trkpt><trkpt lat="43.4372928" lon="11.1638378"><ele>122.0</ele><time>2026-05-03T08:58:26.394Z</time></trkpt><trkpt lat="43.4373028" lon="11.163994"><ele>122.0</ele><time>2026-05-03T08:58:28.393Z</time></trkpt><trkpt lat="43.4373242" lon="11.1641484"><ele>122.25</ele><time>2026-05-03T08:58:30.392Z</time></trkpt><trkpt lat="43.4373556" lon="11.1643046"><ele>122.5</ele><time>2026-05-03T08:58:32.396Z</time></trkpt><trkpt lat="43.4373868" lon="11.1644624"><ele>122.75</ele><time>2026-05-03T08:58:34.402Z</time></trkpt><trkpt lat="43.4374232" lon="11.1646138"><ele>123.0</ele><time>2026-05-03T08:58:36.388Z</time></trkpt><trkpt lat="43.4374678" lon="11.1647547"><ele>122.75</ele><time>2026-05-03T08:58:38.396Z</time></trkpt><trkpt lat="43.4375146" lon="11.1649023"><ele>122.5</ele><time>2026-05-03T08:58:40.395Z</time></trkpt><trkpt lat="43.4375679" lon="11.1650425"><ele>122.25</ele><time>2026-05-03T08:58:42.398Z</time></trkpt><trkpt lat="43.4376235" lon="11.1651826"><ele>122.0</ele><time>2026-05-03T08:58:44.379Z</time></trkpt><trkpt lat="43.4376864" lon="11.1653088"><ele>122.0</ele><time>2026-05-03T08:58:46.397Z</time></trkpt><trkpt lat="43.4377545" lon="11.1654138"><ele>121.99999999999999</ele><time>2026-05-03T08:58:48.393Z</time></trkpt><trkpt lat="43.4378217" lon="11.1655111"><ele>121.99999999999999</ele><time>2026-05-03T08:58:50.403Z</time></trkpt><trkpt lat="43.437871" lon="11.1656183"><ele>122.0</ele><time>2026-05-03T08:58:52.392Z</time></trkpt><trkpt lat="43.437926" lon="11.1657322"><ele>122.0</ele><time>2026-05-03T08:58:54.394Z</time></trkpt><trkpt lat="43.4379825" lon="11.165842"><ele>122.66666666666666</ele><time>2026-05-03T08:58:56.405Z</time></trkpt><trkpt lat="43.4380397" lon="11.1659485"><ele>123.33333333333333</ele><time>2026-05-03T08:58:58.386Z</time></trkpt><trkpt lat="43.4380928" lon="11.1660497"><ele>124.0</ele><time>2026-05-03T08:59:00.398Z</time></trkpt><trkpt lat="43.4381489" lon="11.1661379"><ele>124.66666666666666</ele><time>2026-05-03T08:59:02.39Z</time></trkpt><trkpt lat="43.4382126" lon="11.1662091"><ele>125.33333333333333</ele><time>2026-05-03T08:59:04.394Z</time></trkpt><trkpt lat="43.4382621" lon="11.1662785"><ele>126.0</ele><time>2026-05-03T08:59:06.404Z</time></trkpt><trkpt lat="43.4383173" lon="11.1663402"><ele>126.0</ele><time>2026-05-03T08:59:08.398Z</time></trkpt><trkpt lat="43.4383745" lon="11.1664053"><ele>126.0</ele><time>2026-05-03T08:59:10.393Z</time></trkpt><trkpt lat="43.438425" lon="11.1664715"><ele>126.0</ele><time>2026-05-03T08:59:12.394Z</time></trkpt><trkpt lat="43.4384887" lon="11.1665323"><ele>126.0</ele><time>2026-05-03T08:59:14.397Z</time></trkpt><trkpt lat="43.4385654" lon="11.166579"><ele>126.0</ele><time>2026-05-03T08:59:16.404Z</time></trkpt><trkpt lat="43.4386428" lon="11.1666329"><ele>126.0</ele><time>2026-05-03T08:59:18.391Z</time></trkpt><trkpt lat="43.4387273" lon="11.1667011"><ele>126.75</ele><time>2026-05-03T08:59:20.397Z</time></trkpt><trkpt lat="43.4388152" lon="11.1667838"><ele>127.5</ele><time>2026-05-03T08:59:22.4Z</time></trkpt><trkpt lat="43.438908" lon="11.1668811"><ele>128.25</ele><time>2026-05-03T08:59:24.385Z</time></trkpt><trkpt lat="43.4390081" lon="11.1669779"><ele>129.0</ele><time>2026-05-03T08:59:26.389Z</time></trkpt><trkpt lat="43.4391194" lon="11.1670436"><ele>129.0</ele><time>2026-05-03T08:59:28.392Z</time></trkpt><trkpt lat="43.4392249" lon="11.1670864"><ele>129.0</ele><time>2026-05-03T08:59:30.396Z</time></trkpt><trkpt lat="43.4393116" lon="11.1671242"><ele>129.0</ele><time>2026-05-03T08:59:32.401Z</time></trkpt><trkpt lat="43.4393707" lon="11.1671946"><ele>129.0</ele><time>2026-05-03T08:59:35.388Z</time></trkpt><trkpt lat="43.4394458" lon="11.1672946"><ele>129.0</ele><time>2026-05-03T08:59:38.396Z</time></trkpt><trkpt lat="43.4395262" lon="11.16741"><ele>128.83333333333334</ele><time>2026-05-03T08:59:40.389Z</time></trkpt><trkpt lat="43.4395805" lon="11.1674784"><ele>128.66666666666666</ele><time>2026-05-03T08:59:41.4Z</time></trkpt><trkpt lat="43.439643" lon="11.1675514"><ele>128.5</ele><time>2026-05-03T08:59:42.387Z</time></trkpt><trkpt lat="43.4397086" lon="11.1676303"><ele>128.33333333333331</ele><time>2026-05-03T08:59:43.402Z</time></trkpt><trkpt lat="43.4397683" lon="11.1677113"><ele>128.16666666666666</ele><time>2026-05-03T08:59:44.386Z</time></trkpt><trkpt lat="43.439816" lon="11.1678027"><ele>128.0</ele><time>2026-05-03T08:59:45.401Z</time></trkpt><trkpt lat="43.4398473" lon="11.1679004"><ele>128.0</ele><time>2026-05-03T08:59:46.396Z</time></trkpt><trkpt lat="43.4398675" lon="11.168002"><ele>127.99999999999999</ele><time>2026-05-03T08:59:47.381Z</time></trkpt><trkpt lat="43.4398967" lon="11.1680996"><ele>128.0</ele><time>2026-05-03T08:59:48.385Z</time></trkpt><trkpt lat="43.4399322" lon="11.1681838"><ele>128.0</ele><time>2026-05-03T08:59:49.39Z</time></trkpt><trkpt lat="43.4399715" lon="11.1682577"><ele>127.99999999999999</ele><time>2026-05-03T08:59:50.382Z</time></trkpt><trkpt lat="43.4400108" lon="11.1683292"><ele>128.0</ele><time>2026-05-03T08:59:51.392Z</time></trkpt><trkpt lat="43.4400481" lon="11.1684002"><ele>128.0</ele><time>2026-05-03T08:59:52.396Z</time></trkpt><trkpt lat="43.4400854" lon="11.1684702"><ele>127.0</ele><time>2026-05-03T08:59:53.391Z</time></trkpt><trkpt lat="43.4401236" lon="11.1685409"><ele>126.00000000000001</ele><time>2026-05-03T08:59:54.401Z</time></trkpt><trkpt lat="43.4401874" lon="11.1686843"><ele>125.00000000000001</ele><time>2026-05-03T08:59:56.389Z</time></trkpt><trkpt lat="43.4402414" lon="11.1688208"><ele>124.0</ele><time>2026-05-03T08:59:58.404Z</time></trkpt><trkpt lat="43.4402953" lon="11.1689601"><ele>123.0</ele><time>2026-05-03T09:00:00.415Z</time></trkpt><trkpt lat="43.4403534" lon="11.1691032"><ele>122.83333333333333</ele><time>2026-05-03T09:00:02.391Z</time></trkpt><trkpt lat="43.440413" lon="11.169251"><ele>122.66666666666666</ele><time>2026-05-03T09:00:04.392Z</time></trkpt><trkpt lat="43.4404433" lon="11.1693339"><ele>122.5</ele><time>2026-05-03T09:00:05.39Z</time></trkpt><trkpt lat="43.4404733" lon="11.1694125"><ele>122.33333333333333</ele><time>2026-05-03T09:00:06.389Z</time></trkpt><trkpt lat="43.4405012" lon="11.1694954"><ele>122.16666666666666</ele><time>2026-05-03T09:00:07.404Z</time></trkpt><trkpt lat="43.4405274" lon="11.1695774"><ele>122.0</ele><time>2026-05-03T09:00:08.397Z</time></trkpt><trkpt lat="43.440553" lon="11.1696604"><ele>122.5</ele><time>2026-05-03T09:00:09.387Z</time></trkpt><trkpt lat="43.4405804" lon="11.1697386"><ele>123.0</ele><time>2026-05-03T09:00:10.392Z</time></trkpt><trkpt lat="43.4406093" lon="11.1698204"><ele>123.5</ele><time>2026-05-03T09:00:11.394Z</time></trkpt><trkpt lat="43.4406352" lon="11.1699013"><ele>124.0</ele><time>2026-05-03T09:00:12.386Z</time></trkpt><trkpt lat="43.4406595" lon="11.1699814"><ele>124.5</ele><time>2026-05-03T09:00:13.388Z</time></trkpt><trkpt lat="43.4406875" lon="11.1700615"><ele>125.0</ele><time>2026-05-03T09:00:14.398Z</time></trkpt><trkpt lat="43.4407154" lon="11.1701431"><ele>125.5</ele><time>2026-05-03T09:00:15.396Z</time></trkpt><trkpt lat="43.4407387" lon="11.1702237"><ele>126.0</ele><time>2026-05-03T09:00:16.382Z</time></trkpt><trkpt lat="43.4407842" lon="11.1703745"><ele>126.0</ele><time>2026-05-03T09:00:18.409Z</time></trkpt><trkpt lat="43.4408056" lon="11.1705249"><ele>126.0</ele><time>2026-05-03T09:00:20.385Z</time></trkpt><trkpt lat="43.4407786" lon="11.1706835"><ele>126.0</ele><time>2026-05-03T09:00:22.387Z</time></trkpt><trkpt lat="43.4407606" lon="11.1708408"><ele>126.0</ele><time>2026-05-03T09:00:24.41Z</time></trkpt><trkpt lat="43.4407492" lon="11.1710039"><ele>125.6</ele><time>2026-05-03T09:00:26.394Z</time></trkpt><trkpt lat="43.4407423" lon="11.1711521"><ele>125.19999999999999</ele><time>2026-05-03T09:00:28.385Z</time></trkpt><trkpt lat="43.4407265" lon="11.1712919"><ele>124.80000000000001</ele><time>2026-05-03T09:00:30.389Z</time></trkpt><trkpt lat="43.4407058" lon="11.1714399"><ele>124.4</ele><time>2026-05-03T09:00:32.389Z</time></trkpt><trkpt lat="43.4406644" lon="11.1715869"><ele>124.0</ele><time>2026-05-03T09:00:34.393Z</time></trkpt><trkpt lat="43.4405925" lon="11.1717328"><ele>124.0</ele><time>2026-05-03T09:00:36.388Z</time></trkpt><trkpt lat="43.4405556" lon="11.1718079"><ele>124.0</ele><time>2026-05-03T09:00:37.398Z</time></trkpt><trkpt lat="43.4405173" lon="11.1718778"><ele>124.0</ele><time>2026-05-03T09:00:38.401Z</time></trkpt><trkpt lat="43.4404357" lon="11.1719987"><ele>124.0</ele><time>2026-05-03T09:00:40.411Z</time></trkpt><trkpt lat="43.4403531" lon="11.1721091"><ele>124.0</ele><time>2026-05-03T09:00:42.389Z</time></trkpt><trkpt lat="43.4402734" lon="11.1722123"><ele>124.0</ele><time>2026-05-03T09:00:44.409Z</time></trkpt><trkpt lat="43.4401979" lon="11.172314"><ele>124.0</ele><time>2026-05-03T09:00:46.402Z</time></trkpt><trkpt lat="43.440116" lon="11.1724103"><ele>124.0</ele><time>2026-05-03T09:00:48.41Z</time></trkpt><trkpt lat="43.4400319" lon="11.1725075"><ele>124.0</ele><time>2026-05-03T09:00:50.397Z</time></trkpt><trkpt lat="43.4399523" lon="11.1725991"><ele>124.0</ele><time>2026-05-03T09:00:52.404Z</time></trkpt><trkpt lat="43.4398654" lon="11.1726838"><ele>123.4</ele><time>2026-05-03T09:00:54.389Z</time></trkpt><trkpt lat="43.4397856" lon="11.1727673"><ele>122.80000000000001</ele><time>2026-05-03T09:00:56.404Z</time></trkpt><trkpt lat="43.4396977" lon="11.172844"><ele>122.19999999999999</ele><time>2026-05-03T09:00:58.393Z</time></trkpt><trkpt lat="43.4396116" lon="11.172917"><ele>121.6</ele><time>2026-05-03T09:01:00.391Z</time></trkpt><trkpt lat="43.4395313" lon="11.1729775"><ele>121.0</ele><time>2026-05-03T09:01:02.398Z</time></trkpt><trkpt lat="43.4394581" lon="11.1730243"><ele>121.4</ele><time>2026-05-03T09:01:04.399Z</time></trkpt><trkpt lat="43.4393963" lon="11.1730851"><ele>121.8</ele><time>2026-05-03T09:01:06.394Z</time></trkpt><trkpt lat="43.4393579" lon="11.1731834"><ele>122.20000000000002</ele><time>2026-05-03T09:01:08.397Z</time></trkpt><trkpt lat="43.4393445" lon="11.1733132"><ele>122.60000000000001</ele><time>2026-05-03T09:01:10.392Z</time></trkpt><trkpt lat="43.4393392" lon="11.1734475"><ele>123.0</ele><time>2026-05-03T09:01:12.392Z</time></trkpt><trkpt lat="43.4393627" lon="11.1735844"><ele>123.0</ele><time>2026-05-03T09:01:14.407Z</time></trkpt><trkpt lat="43.4394046" lon="11.1737271"><ele>123.00000000000001</ele><time>2026-05-03T09:01:16.399Z</time></trkpt><trkpt lat="43.4394498" lon="11.1738705"><ele>123.00000000000001</ele><time>2026-05-03T09:01:18.393Z</time></trkpt><trkpt lat="43.4394833" lon="11.1740144"><ele>123.0</ele><time>2026-05-03T09:01:20.396Z</time></trkpt><trkpt lat="43.4395121" lon="11.1741586"><ele>123.0</ele><time>2026-05-03T09:01:22.392Z</time></trkpt><trkpt lat="43.4395426" lon="11.1743004"><ele>123.0</ele><time>2026-05-03T09:01:24.387Z</time></trkpt><trkpt lat="43.4395642" lon="11.1744423"><ele>123.00000000000001</ele><time>2026-05-03T09:01:26.398Z</time></trkpt><trkpt lat="43.4395689" lon="11.1745838"><ele>123.00000000000001</ele><time>2026-05-03T09:01:28.39Z</time></trkpt><trkpt lat="43.4395634" lon="11.174729"><ele>123.0</ele><time>2026-05-03T09:01:30.388Z</time></trkpt><trkpt lat="43.4395479" lon="11.1748703"><ele>123.0</ele><time>2026-05-03T09:01:32.393Z</time></trkpt><trkpt lat="43.4395173" lon="11.1750154"><ele>123.0</ele><time>2026-05-03T09:01:34.408Z</time></trkpt><trkpt lat="43.4394802" lon="11.1751599"><ele>123.00000000000001</ele><time>2026-05-03T09:01:36.391Z</time></trkpt><trkpt lat="43.4394419" lon="11.1753025"><ele>123.00000000000001</ele><time>2026-05-03T09:01:38.399Z</time></trkpt><trkpt lat="43.4394051" lon="11.1754395"><ele>123.0</ele><time>2026-05-03T09:01:40.388Z</time></trkpt><trkpt lat="43.4393761" lon="11.1755814"><ele>123.0</ele><time>2026-05-03T09:01:42.416Z</time></trkpt><trkpt lat="43.439345" lon="11.1757252"><ele>123.0</ele><time>2026-05-03T09:01:44.391Z</time></trkpt><trkpt lat="43.439314" lon="11.1758704"><ele>123.00000000000001</ele><time>2026-05-03T09:01:46.404Z</time></trkpt><trkpt lat="43.4392838" lon="11.1760189"><ele>123.00000000000001</ele><time>2026-05-03T09:01:48.391Z</time></trkpt><trkpt lat="43.4392582" lon="11.1761683"><ele>123.0</ele><time>2026-05-03T09:01:50.398Z</time></trkpt><trkpt lat="43.4392292" lon="11.1763075"><ele>123.0</ele><time>2026-05-03T09:01:52.382Z</time></trkpt><trkpt lat="43.4392048" lon="11.1764592"><ele>123.5</ele><time>2026-05-03T09:01:54.393Z</time></trkpt><trkpt lat="43.4391835" lon="11.1766099"><ele>124.0</ele><time>2026-05-03T09:01:56.401Z</time></trkpt><trkpt lat="43.4391598" lon="11.1767623"><ele>124.5</ele><time>2026-05-03T09:01:58.391Z</time></trkpt><trkpt lat="43.4391457" lon="11.1769215"><ele>125.0</ele><time>2026-05-03T09:02:00.394Z</time></trkpt><trkpt lat="43.4391457" lon="11.1770785"><ele>125.0</ele><time>2026-05-03T09:02:02.388Z</time></trkpt><trkpt lat="43.4391662" lon="11.177234"><ele>125.0</ele><time>2026-05-03T09:02:04.396Z</time></trkpt><trkpt lat="43.439192" lon="11.1773853"><ele>125.0</ele><time>2026-05-03T09:02:06.416Z</time></trkpt><trkpt lat="43.4392173" lon="11.1775243"><ele>125.0</ele><time>2026-05-03T09:02:08.397Z</time></trkpt><trkpt lat="43.4392398" lon="11.1776571"><ele>125.0</ele><time>2026-05-03T09:02:10.395Z</time></trkpt><trkpt lat="43.4392488" lon="11.1777795"><ele>125.0</ele><time>2026-05-03T09:02:12.391Z</time></trkpt><trkpt lat="43.4392492" lon="11.1779057"><ele>125.0</ele><time>2026-05-03T09:02:14.396Z</time></trkpt><trkpt lat="43.4392424" lon="11.1780323"><ele>125.0</ele><time>2026-05-03T09:02:16.397Z</time></trkpt><trkpt lat="43.4392174" lon="11.1781657"><ele>125.0</ele><time>2026-05-03T09:02:18.396Z</time></trkpt><trkpt lat="43.4391838" lon="11.1782978"><ele>125.0</ele><time>2026-05-03T09:02:20.391Z</time></trkpt><trkpt lat="43.4391245" lon="11.1784356"><ele>125.0</ele><time>2026-05-03T09:02:22.4Z</time></trkpt><trkpt lat="43.4390541" lon="11.1785667"><ele>125.0</ele><time>2026-05-03T09:02:24.384Z</time></trkpt><trkpt lat="43.4389727" lon="11.178687"><ele>125.0</ele><time>2026-05-03T09:02:26.386Z</time></trkpt><trkpt lat="43.4389024" lon="11.1787973"><ele>125.0</ele><time>2026-05-03T09:02:28.396Z</time></trkpt><trkpt lat="43.4388317" lon="11.1789122"><ele>125.0</ele><time>2026-05-03T09:02:30.398Z</time></trkpt><trkpt lat="43.4387605" lon="11.1790142"><ele>125.0</ele><time>2026-05-03T09:02:32.396Z</time></trkpt><trkpt lat="43.4386684" lon="11.1790996"><ele>125.0</ele><time>2026-05-03T09:02:34.396Z</time></trkpt><trkpt lat="43.438565" lon="11.1791487"><ele>125.0</ele><time>2026-05-03T09:02:36.398Z</time></trkpt><trkpt lat="43.4384623" lon="11.1791903"><ele>125.0</ele><time>2026-05-03T09:02:38.397Z</time></trkpt><trkpt lat="43.4383768" lon="11.1792105"><ele>125.0</ele><time>2026-05-03T09:02:40.39Z</time></trkpt><trkpt lat="43.438286" lon="11.1792299"><ele>125.0</ele><time>2026-05-03T09:02:42.404Z</time></trkpt><trkpt lat="43.4381965" lon="11.1792525"><ele>125.0</ele><time>2026-05-03T09:02:44.383Z</time></trkpt><trkpt lat="43.4380925" lon="11.1792596"><ele>125.0</ele><time>2026-05-03T09:02:46.388Z</time></trkpt><trkpt lat="43.4379786" lon="11.1792587"><ele>125.0</ele><time>2026-05-03T09:02:48.396Z</time></trkpt><trkpt lat="43.4378632" lon="11.1792339"><ele>125.2</ele><time>2026-05-03T09:02:50.389Z</time></trkpt><trkpt lat="43.4377663" lon="11.1791946"><ele>125.4</ele><time>2026-05-03T09:02:52.389Z</time></trkpt><trkpt lat="43.4376741" lon="11.1791568"><ele>125.6</ele><time>2026-05-03T09:02:54.391Z</time></trkpt><trkpt lat="43.4375841" lon="11.1791177"><ele>125.8</ele><time>2026-05-03T09:02:56.4Z</time></trkpt><trkpt lat="43.4374881" lon="11.1790813"><ele>126.0</ele><time>2026-05-03T09:02:58.397Z</time></trkpt><trkpt lat="43.4373902" lon="11.179038"><ele>126.0</ele><time>2026-05-03T09:03:00.397Z</time></trkpt><trkpt lat="43.4372952" lon="11.1790043"><ele>126.0</ele><time>2026-05-03T09:03:02.398Z</time></trkpt><trkpt lat="43.4371965" lon="11.1789615"><ele>126.0</ele><time>2026-05-03T09:03:04.407Z</time></trkpt><trkpt lat="43.4371017" lon="11.1789143"><ele>126.0</ele><time>2026-05-03T09:03:06.425Z</time></trkpt><trkpt lat="43.4370007" lon="11.1788681"><ele>126.0</ele><time>2026-05-03T09:03:08.404Z</time></trkpt><trkpt lat="43.436906" lon="11.1788261"><ele>126.4</ele><time>2026-05-03T09:03:10.399Z</time></trkpt><trkpt lat="43.4368108" lon="11.1787784"><ele>126.8</ele><time>2026-05-03T09:03:12.407Z</time></trkpt><trkpt lat="43.4367158" lon="11.1787338"><ele>127.20000000000002</ele><time>2026-05-03T09:03:14.413Z</time></trkpt><trkpt lat="43.4366169" lon="11.1786867"><ele>127.60000000000001</ele><time>2026-05-03T09:03:16.404Z</time></trkpt><trkpt lat="43.4365192" lon="11.1786485"><ele>128.0</ele><time>2026-05-03T09:03:18.395Z</time></trkpt><trkpt lat="43.4364255" lon="11.1786205"><ele>128.0</ele><time>2026-05-03T09:03:20.4Z</time></trkpt><trkpt lat="43.4363334" lon="11.1785981"><ele>128.0</ele><time>2026-05-03T09:03:22.413Z</time></trkpt><trkpt lat="43.4362343" lon="11.1785798"><ele>128.0</ele><time>2026-05-03T09:03:24.406Z</time></trkpt><trkpt lat="43.436134" lon="11.1785614"><ele>128.0</ele><time>2026-05-03T09:03:26.409Z</time></trkpt><trkpt lat="43.4360284" lon="11.1785648"><ele>128.0</ele><time>2026-05-03T09:03:28.406Z</time></trkpt><trkpt lat="43.4359188" lon="11.1785822"><ele>128.4</ele><time>2026-05-03T09:03:30.402Z</time></trkpt><trkpt lat="43.4358135" lon="11.1786116"><ele>128.8</ele><time>2026-05-03T09:03:32.392Z</time></trkpt><trkpt lat="43.4357139" lon="11.1786265"><ele>129.2</ele><time>2026-05-03T09:03:34.393Z</time></trkpt><trkpt lat="43.4356075" lon="11.1786505"><ele>129.6</ele><time>2026-05-03T09:03:36.386Z</time></trkpt><trkpt lat="43.4355007" lon="11.1786751"><ele>130.0</ele><time>2026-05-03T09:03:38.401Z</time></trkpt><trkpt lat="43.4353904" lon="11.178687"><ele>130.0</ele><time>2026-05-03T09:03:40.393Z</time></trkpt><trkpt lat="43.4352907" lon="11.1787058"><ele>130.0</ele><time>2026-05-03T09:03:42.41Z</time></trkpt><trkpt lat="43.4351957" lon="11.1787111"><ele>130.0</ele><time>2026-05-03T09:03:44.412Z</time></trkpt><trkpt lat="43.4351019" lon="11.1787169"><ele>130.0</ele><time>2026-05-03T09:03:46.395Z</time></trkpt><trkpt lat="43.4349941" lon="11.1787297"><ele>130.0</ele><time>2026-05-03T09:03:48.394Z</time></trkpt><trkpt lat="43.4348886" lon="11.1787438"><ele>130.0</ele><time>2026-05-03T09:03:50.386Z</time></trkpt><trkpt lat="43.4347826" lon="11.1787673"><ele>130.0</ele><time>2026-05-03T09:03:52.401Z</time></trkpt><trkpt lat="43.4346836" lon="11.1787893"><ele>130.0</ele><time>2026-05-03T09:03:54.4Z</time></trkpt><trkpt lat="43.4345798" lon="11.1788046"><ele>130.0</ele><time>2026-05-03T09:03:56.412Z</time></trkpt><trkpt lat="43.4344768" lon="11.1788212"><ele>130.0</ele><time>2026-05-03T09:03:58.392Z</time></trkpt><trkpt lat="43.4343717" lon="11.1788381"><ele>129.8</ele><time>2026-05-03T09:04:00.39Z</time></trkpt><trkpt lat="43.4342681" lon="11.1788462"><ele>129.6</ele><time>2026-05-03T09:04:02.411Z</time></trkpt><trkpt lat="43.4341668" lon="11.1788567"><ele>129.4</ele><time>2026-05-03T09:04:04.394Z</time></trkpt><trkpt lat="43.4340623" lon="11.178861"><ele>129.2</ele><time>2026-05-03T09:04:06.407Z</time></trkpt><trkpt lat="43.4339582" lon="11.1788568"><ele>129.0</ele><time>2026-05-03T09:04:08.409Z</time></trkpt><trkpt lat="43.4338613" lon="11.1788629"><ele>129.16666666666666</ele><time>2026-05-03T09:04:10.397Z</time></trkpt><trkpt lat="43.43377" lon="11.1788612"><ele>129.33333333333334</ele><time>2026-05-03T09:04:12.401Z</time></trkpt><trkpt lat="43.4336899" lon="11.1788446"><ele>129.5</ele><time>2026-05-03T09:04:14.408Z</time></trkpt><trkpt lat="43.4336145" lon="11.1788049"><ele>129.66666666666669</ele><time>2026-05-03T09:04:16.408Z</time></trkpt><trkpt lat="43.4335501" lon="11.1787401"><ele>129.83333333333334</ele><time>2026-05-03T09:04:18.404Z</time></trkpt><trkpt lat="43.4334853" lon="11.1786761"><ele>130.0</ele><time>2026-05-03T09:04:20.398Z</time></trkpt><trkpt lat="43.4334167" lon="11.1786161"><ele>130.0</ele><time>2026-05-03T09:04:22.398Z</time></trkpt><trkpt lat="43.43334" lon="11.1785772"><ele>130.0</ele><time>2026-05-03T09:04:24.401Z</time></trkpt><trkpt lat="43.4332479" lon="11.1785646"><ele>130.0</ele><time>2026-05-03T09:04:26.414Z</time></trkpt><trkpt lat="43.4331582" lon="11.1785838"><ele>130.0</ele><time>2026-05-03T09:04:28.402Z</time></trkpt><trkpt lat="43.4330683" lon="11.1786215"><ele>130.0</ele><time>2026-05-03T09:04:30.411Z</time></trkpt><trkpt lat="43.4329872" lon="11.1786674"><ele>130.0</ele><time>2026-05-03T09:04:32.401Z</time></trkpt><trkpt lat="43.4329088" lon="11.1787267"><ele>130.0</ele><time>2026-05-03T09:04:34.403Z</time></trkpt><trkpt lat="43.4328369" lon="11.1787792"><ele>130.0</ele><time>2026-05-03T09:04:36.391Z</time></trkpt><trkpt lat="43.4327785" lon="11.1788399"><ele>130.0</ele><time>2026-05-03T09:04:38.409Z</time></trkpt><trkpt lat="43.4327307" lon="11.1789044"><ele>130.0</ele><time>2026-05-03T09:04:40.401Z</time></trkpt><trkpt lat="43.4326655" lon="11.1789819"><ele>130.0</ele><time>2026-05-03T09:04:43.391Z</time></trkpt><trkpt lat="43.432591" lon="11.1790333"><ele>130.0</ele><time>2026-05-03T09:04:46.392Z</time></trkpt><trkpt lat="43.4325278" lon="11.1790464"><ele>130.0</ele><time>2026-05-03T09:04:49.402Z</time></trkpt><trkpt lat="43.4324437" lon="11.1790414"><ele>130.0</ele><time>2026-05-03T09:04:53.4Z</time></trkpt><trkpt lat="43.4323757" lon="11.1790416"><ele>130.0</ele><time>2026-05-03T09:04:56.386Z</time></trkpt><trkpt lat="43.4322909" lon="11.1790288"><ele>130.0</ele><time>2026-05-03T09:04:59.412Z</time></trkpt><trkpt lat="43.4322074" lon="11.178994"><ele>130.0</ele><time>2026-05-03T09:05:02.401Z</time></trkpt><trkpt lat="43.4321259" lon="11.1789614"><ele>130.0</ele><time>2026-05-03T09:05:05.409Z</time></trkpt><trkpt lat="43.4320444" lon="11.1789124"><ele>130.6</ele><time>2026-05-03T09:05:08.392Z</time></trkpt><trkpt lat="43.431985" lon="11.178866"><ele>131.2</ele><time>2026-05-03T09:05:10.418Z</time></trkpt><trkpt lat="43.4319192" lon="11.17881"><ele>131.8</ele><time>2026-05-03T09:05:12.401Z</time></trkpt><trkpt lat="43.4318337" lon="11.1787243"><ele>132.4</ele><time>2026-05-03T09:05:14.397Z</time></trkpt><trkpt lat="43.4317537" lon="11.1786366"><ele>133.0</ele><time>2026-05-03T09:05:16.397Z</time></trkpt><trkpt lat="43.4316483" lon="11.1785604"><ele>133.0</ele><time>2026-05-03T09:05:18.396Z</time></trkpt><trkpt lat="43.4315356" lon="11.1784861"><ele>133.0</ele><time>2026-05-03T09:05:20.396Z</time></trkpt><trkpt lat="43.4314289" lon="11.1784245"><ele>133.0</ele><time>2026-05-03T09:05:22.397Z</time></trkpt><trkpt lat="43.4313331" lon="11.1783766"><ele>133.0</ele><time>2026-05-03T09:05:24.39Z</time></trkpt><trkpt lat="43.4312457" lon="11.1783372"><ele>133.0</ele><time>2026-05-03T09:05:26.404Z</time></trkpt><trkpt lat="43.4311702" lon="11.1782981"><ele>132.83333333333334</ele><time>2026-05-03T09:05:28.392Z</time></trkpt><trkpt lat="43.4310978" lon="11.178259"><ele>132.66666666666669</ele><time>2026-05-03T09:05:30.416Z</time></trkpt><trkpt lat="43.4310294" lon="11.1782143"><ele>132.5</ele><time>2026-05-03T09:05:32.404Z</time></trkpt><trkpt lat="43.4309598" lon="11.1781726"><ele>132.33333333333334</ele><time>2026-05-03T09:05:34.409Z</time></trkpt><trkpt lat="43.4308847" lon="11.1781135"><ele>132.16666666666666</ele><time>2026-05-03T09:05:36.404Z</time></trkpt><trkpt lat="43.4308051" lon="11.1780494"><ele>132.0</ele><time>2026-05-03T09:05:38.39Z</time></trkpt><trkpt lat="43.4307277" lon="11.1779908"><ele>131.79999999999998</ele><time>2026-05-03T09:05:40.4Z</time></trkpt><trkpt lat="43.4306509" lon="11.1779265"><ele>131.6</ele><time>2026-05-03T09:05:42.406Z</time></trkpt><trkpt lat="43.4305683" lon="11.1778611"><ele>131.39999999999998</ele><time>2026-05-03T09:05:44.391Z</time></trkpt><trkpt lat="43.430481" lon="11.1778019"><ele>131.2</ele><time>2026-05-03T09:05:46.395Z</time></trkpt><trkpt lat="43.4303973" lon="11.1777491"><ele>131.0</ele><time>2026-05-03T09:05:48.387Z</time></trkpt><trkpt lat="43.4303103" lon="11.1776981"><ele>131.0</ele><time>2026-05-03T09:05:50.398Z</time></trkpt><trkpt lat="43.4302275" lon="11.1776628"><ele>131.0</ele><time>2026-05-03T09:05:52.405Z</time></trkpt><trkpt lat="43.4301538" lon="11.177625"><ele>131.0</ele><time>2026-05-03T09:05:54.381Z</time></trkpt><trkpt lat="43.4300795" lon="11.1775937"><ele>131.0</ele><time>2026-05-03T09:05:56.405Z</time></trkpt><trkpt lat="43.430002" lon="11.1775599"><ele>131.0</ele><time>2026-05-03T09:05:58.401Z</time></trkpt><trkpt lat="43.4299221" lon="11.1775236"><ele>131.0</ele><time>2026-05-03T09:06:00.398Z</time></trkpt><trkpt lat="43.4298375" lon="11.1775081"><ele>131.0</ele><time>2026-05-03T09:06:02.396Z</time></trkpt><trkpt lat="43.4297505" lon="11.1775111"><ele>131.0</ele><time>2026-05-03T09:06:04.404Z</time></trkpt><trkpt lat="43.4296709" lon="11.1775291"><ele>131.0</ele><time>2026-05-03T09:06:06.428Z</time></trkpt><trkpt lat="43.4295942" lon="11.1775608"><ele>131.0</ele><time>2026-05-03T09:06:08.394Z</time></trkpt><trkpt lat="43.4295254" lon="11.1776012"><ele>131.0</ele><time>2026-05-03T09:06:10.399Z</time></trkpt><trkpt lat="43.4294691" lon="11.1776539"><ele>131.0</ele><time>2026-05-03T09:06:12.388Z</time></trkpt><trkpt lat="43.4294216" lon="11.1777146"><ele>131.16666666666666</ele><time>2026-05-03T09:06:14.4Z</time></trkpt><trkpt lat="43.4293743" lon="11.1777913"><ele>131.33333333333331</ele><time>2026-05-03T09:06:16.403Z</time></trkpt><trkpt lat="43.4293296" lon="11.1778816"><ele>131.5</ele><time>2026-05-03T09:06:18.383Z</time></trkpt><trkpt lat="43.4292761" lon="11.1779858"><ele>131.66666666666666</ele><time>2026-05-03T09:06:20.393Z</time></trkpt><trkpt lat="43.4292355" lon="11.1780875"><ele>131.83333333333334</ele><time>2026-05-03T09:06:22.414Z</time></trkpt><trkpt lat="43.4291997" lon="11.1781777"><ele>132.0</ele><time>2026-05-03T09:06:24.401Z</time></trkpt><trkpt lat="43.4291787" lon="11.1782642"><ele>132.0</ele><time>2026-05-03T09:06:26.402Z</time></trkpt><trkpt lat="43.4291494" lon="11.1783426"><ele>132.0</ele><time>2026-05-03T09:06:28.399Z</time></trkpt><trkpt lat="43.4291092" lon="11.1784451"><ele>132.0</ele><time>2026-05-03T09:06:31.415Z</time></trkpt><trkpt lat="43.4290736" lon="11.1785497"><ele>132.0</ele><time>2026-05-03T09:06:34.383Z</time></trkpt><trkpt lat="43.4290391" lon="11.1786674"><ele>132.0</ele><time>2026-05-03T09:06:37.39Z</time></trkpt><trkpt lat="43.4290051" lon="11.1787702"><ele>132.0</ele><time>2026-05-03T09:06:40.397Z</time></trkpt><trkpt lat="43.4289743" lon="11.1788671"><ele>132.0</ele><time>2026-05-03T09:06:43.395Z</time></trkpt><trkpt lat="43.4289518" lon="11.1789624"><ele>132.0</ele><time>2026-05-03T09:06:46.411Z</time></trkpt><trkpt lat="43.4289169" lon="11.1790451"><ele>132.0</ele><time>2026-05-03T09:06:49.388Z</time></trkpt><trkpt lat="43.4288824" lon="11.1791353"><ele>132.0</ele><time>2026-05-03T09:06:52.425Z</time></trkpt><trkpt lat="43.4288412" lon="11.1792282"><ele>132.0</ele><time>2026-05-03T09:06:56.414Z</time></trkpt><trkpt lat="43.4287924" lon="11.1793091"><ele>132.0</ele><time>2026-05-03T09:06:59.399Z</time></trkpt><trkpt lat="43.4287368" lon="11.1793945"><ele>132.66666666666666</ele><time>2026-05-03T09:07:02.4Z</time></trkpt><trkpt lat="43.4286903" lon="11.1794545"><ele>133.33333333333334</ele><time>2026-05-03T09:07:04.399Z</time></trkpt><trkpt lat="43.4286259" lon="11.1795478"><ele>134.0</ele><time>2026-05-03T09:07:07.399Z</time></trkpt><trkpt lat="43.4285743" lon="11.1796061"><ele>134.66666666666669</ele><time>2026-05-03T09:07:09.397Z</time></trkpt><trkpt lat="43.4285003" lon="11.1796695"><ele>135.33333333333334</ele><time>2026-05-03T09:07:11.392Z</time></trkpt><trkpt lat="43.428395" lon="11.1797221"><ele>136.0</ele><time>2026-05-03T09:07:13.397Z</time></trkpt><trkpt lat="43.428288" lon="11.1797796"><ele>136.0</ele><time>2026-05-03T09:07:15.4Z</time></trkpt><trkpt lat="43.4281842" lon="11.1798418"><ele>136.0</ele><time>2026-05-03T09:07:17.402Z</time></trkpt><trkpt lat="43.4280863" lon="11.1799358"><ele>136.0</ele><time>2026-05-03T09:07:19.398Z</time></trkpt><trkpt lat="43.4280129" lon="11.1800622"><ele>136.0</ele><time>2026-05-03T09:07:21.394Z</time></trkpt><trkpt lat="43.4279525" lon="11.1801624"><ele>136.0</ele><time>2026-05-03T09:07:23.415Z</time></trkpt><trkpt lat="43.4279126" lon="11.1802362"><ele>136.0</ele><time>2026-05-03T09:07:25.394Z</time></trkpt><trkpt lat="43.4278629" lon="11.1803318"><ele>136.0</ele><time>2026-05-03T09:07:28.4Z</time></trkpt><trkpt lat="43.4278247" lon="11.1804095"><ele>136.0</ele><time>2026-05-03T09:07:31.393Z</time></trkpt><trkpt lat="43.427783" lon="11.1804993"><ele>136.0</ele><time>2026-05-03T09:07:35.402Z</time></trkpt><trkpt lat="43.4277679" lon="11.1806046"><ele>136.0</ele><time>2026-05-03T09:07:40.399Z</time></trkpt><trkpt lat="43.4277664" lon="11.1807138"><ele>136.0</ele><time>2026-05-03T09:07:45.394Z</time></trkpt><trkpt lat="43.4277404" lon="11.1807972"><ele>136.99999999999997</ele><time>2026-05-03T09:07:49.409Z</time></trkpt><trkpt lat="43.4277012" lon="11.1808848"><ele>138.0</ele><time>2026-05-03T09:07:53.404Z</time></trkpt><trkpt lat="43.4276515" lon="11.1809569"><ele>139.0</ele><time>2026-05-03T09:07:57.402Z</time></trkpt><trkpt lat="43.4276159" lon="11.1810294"><ele>140.0</ele><time>2026-05-03T09:08:00.397Z</time></trkpt><trkpt lat="43.4275728" lon="11.1811176"><ele>141.0</ele><time>2026-05-03T09:08:04.386Z</time></trkpt><trkpt lat="43.4275328" lon="11.1812068"><ele>141.99999999999997</ele><time>2026-05-03T09:08:08.396Z</time></trkpt><trkpt lat="43.4274965" lon="11.1812792"><ele>143.0</ele><time>2026-05-03T09:08:12.378Z</time></trkpt><trkpt lat="43.4274717" lon="11.1813698"><ele>143.0</ele><time>2026-05-03T09:08:17.395Z</time></trkpt><trkpt lat="43.4274811" lon="11.1814751"><ele>143.0</ele><time>2026-05-03T09:08:21.415Z</time></trkpt><trkpt lat="43.427516" lon="11.1815653"><ele>143.0</ele><time>2026-05-03T09:08:26.409Z</time></trkpt><trkpt lat="43.4274664" lon="11.1816389"><ele>143.0</ele><time>2026-05-03T09:08:31.387Z</time></trkpt><trkpt lat="43.4274012" lon="11.1816761"><ele>143.0</ele><time>2026-05-03T09:08:34.391Z</time></trkpt><trkpt lat="43.4273309" lon="11.1817306"><ele>143.0</ele><time>2026-05-03T09:08:37.388Z</time></trkpt><trkpt lat="43.4272612" lon="11.1817657"><ele>143.0</ele><time>2026-05-03T09:08:40.391Z</time></trkpt><trkpt lat="43.4272011" lon="11.181808"><ele>143.0</ele><time>2026-05-03T09:08:43.405Z</time></trkpt><trkpt lat="43.4271255" lon="11.1818526"><ele>143.0</ele><time>2026-05-03T09:08:46.395Z</time></trkpt><trkpt lat="43.427039" lon="11.1818885"><ele>143.0</ele><time>2026-05-03T09:08:49.393Z</time></trkpt><trkpt lat="43.4269432" lon="11.1819249"><ele>143.0</ele><time>2026-05-03T09:08:52.396Z</time></trkpt><trkpt lat="43.4268616" lon="11.1819568"><ele>143.0</ele><time>2026-05-03T09:08:54.42Z</time></trkpt><trkpt lat="43.4267521" lon="11.1819955"><ele>143.0</ele><time>2026-05-03T09:08:56.404Z</time></trkpt><trkpt lat="43.426627" lon="11.1820294"><ele>143.0</ele><time>2026-05-03T09:08:58.392Z</time></trkpt><trkpt lat="43.4265582" lon="11.1820469"><ele>143.0</ele><time>2026-05-03T09:08:59.399Z</time></trkpt><trkpt lat="43.4264861" lon="11.1820696"><ele>143.0</ele><time>2026-05-03T09:09:00.394Z</time></trkpt><trkpt lat="43.4264111" lon="11.1820902"><ele>143.0</ele><time>2026-05-03T09:09:01.405Z</time></trkpt><trkpt lat="43.4263337" lon="11.1821021"><ele>143.0</ele><time>2026-05-03T09:09:02.384Z</time></trkpt><trkpt lat="43.4262557" lon="11.182102"><ele>143.28571428571428</ele><time>2026-05-03T09:09:03.395Z</time></trkpt><trkpt lat="43.4261775" lon="11.1820943"><ele>143.57142857142856</ele><time>2026-05-03T09:09:04.399Z</time></trkpt><trkpt lat="43.4261006" lon="11.1820852"><ele>143.85714285714286</ele><time>2026-05-03T09:09:05.41Z</time></trkpt><trkpt lat="43.426025" lon="11.1820799"><ele>144.14285714285714</ele><time>2026-05-03T09:09:06.415Z</time></trkpt><trkpt lat="43.4259524" lon="11.1820789"><ele>144.42857142857144</ele><time>2026-05-03T09:09:07.394Z</time></trkpt><trkpt lat="43.4258846" lon="11.1820947"><ele>144.71428571428572</ele><time>2026-05-03T09:09:08.396Z</time></trkpt><trkpt lat="43.4258253" lon="11.1821298"><ele>145.0</ele><time>2026-05-03T09:09:09.402Z</time></trkpt><trkpt lat="43.4257732" lon="11.1821825"><ele>145.0</ele><time>2026-05-03T09:09:10.393Z</time></trkpt><trkpt lat="43.4257316" lon="11.1822566"><ele>145.0</ele><time>2026-05-03T09:09:11.397Z</time></trkpt><trkpt lat="43.4256977" lon="11.1823414"><ele>145.0</ele><time>2026-05-03T09:09:12.392Z</time></trkpt><trkpt lat="43.4256666" lon="11.1824213"><ele>145.0</ele><time>2026-05-03T09:09:13.405Z</time></trkpt><trkpt lat="43.4256159" lon="11.1825578"><ele>145.0</ele><time>2026-05-03T09:09:15.417Z</time></trkpt><trkpt lat="43.4255676" lon="11.1826679"><ele>145.0</ele><time>2026-05-03T09:09:17.402Z</time></trkpt><trkpt lat="43.4255171" lon="11.1827684"><ele>146.28571428571428</ele><time>2026-05-03T09:09:19.394Z</time></trkpt><trkpt lat="43.4254744" lon="11.1828571"><ele>147.57142857142858</ele><time>2026-05-03T09:09:21.407Z</time></trkpt><trkpt lat="43.4254367" lon="11.1829326"><ele>148.85714285714286</ele><time>2026-05-03T09:09:23.388Z</time></trkpt><trkpt lat="43.4253873" lon="11.1830145"><ele>150.14285714285714</ele><time>2026-05-03T09:09:26.41Z</time></trkpt><trkpt lat="43.425343" lon="11.1830931"><ele>151.42857142857144</ele><time>2026-05-03T09:09:29.417Z</time></trkpt><trkpt lat="43.4252966" lon="11.183179"><ele>152.71428571428572</ele><time>2026-05-03T09:09:33.419Z</time></trkpt><trkpt lat="43.4252572" lon="11.1832484"><ele>154.0</ele><time>2026-05-03T09:09:37.387Z</time></trkpt><trkpt lat="43.4251944" lon="11.1832996"><ele>154.0</ele><time>2026-05-03T09:09:42.404Z</time></trkpt><trkpt lat="43.425129" lon="11.1832977"><ele>154.0</ele><time>2026-05-03T09:09:47.399Z</time></trkpt><trkpt lat="43.4250722" lon="11.1832486"><ele>154.0</ele><time>2026-05-03T09:09:53.399Z</time></trkpt><trkpt lat="43.4250164" lon="11.183177"><ele>154.0</ele><time>2026-05-03T09:09:59.387Z</time></trkpt><trkpt lat="43.4249646" lon="11.1831066"><ele>154.0</ele><time>2026-05-03T09:10:04.437Z</time></trkpt><trkpt lat="43.4248935" lon="11.1830886"><ele>154.0</ele><time>2026-05-03T09:10:10.401Z</time></trkpt><trkpt lat="43.4248335" lon="11.1831485"><ele>154.0</ele><time>2026-05-03T09:10:15.396Z</time></trkpt><trkpt lat="43.4247878" lon="11.1832153"><ele>154.0</ele><time>2026-05-03T09:10:21.405Z</time></trkpt><trkpt lat="43.4247443" lon="11.1832781"><ele>154.0</ele><time>2026-05-03T09:10:26.393Z</time></trkpt><trkpt lat="43.4246988" lon="11.1833417"><ele>154.0</ele><time>2026-05-03T09:10:33.396Z</time></trkpt><trkpt lat="43.4246441" lon="11.1834149"><ele>154.0</ele><time>2026-05-03T09:10:40.39Z</time></trkpt><trkpt lat="43.424593" lon="11.1834688"><ele>154.0</ele><time>2026-05-03T09:10:46.406Z</time></trkpt><trkpt lat="43.4245384" lon="11.1835344"><ele>154.0</ele><time>2026-05-03T09:10:52.385Z</time></trkpt><trkpt lat="43.4244874" lon="11.1835967"><ele>154.0</ele><time>2026-05-03T09:10:56.399Z</time></trkpt><trkpt lat="43.42442" lon="11.1835926"><ele>155.71428571428572</ele><time>2026-05-03T09:11:02.393Z</time></trkpt><trkpt lat="43.4243645" lon="11.18354"><ele>157.42857142857144</ele><time>2026-05-03T09:11:06.407Z</time></trkpt><trkpt lat="43.4243011" lon="11.1834916"><ele>159.14285714285714</ele><time>2026-05-03T09:11:10.386Z</time></trkpt><trkpt lat="43.4242353" lon="11.1834818"><ele>160.85714285714286</ele><time>2026-05-03T09:11:13.395Z</time></trkpt><trkpt lat="43.4241661" lon="11.1834671"><ele>162.57142857142858</ele><time>2026-05-03T09:11:17.409Z</time></trkpt><trkpt lat="43.4240952" lon="11.1834568"><ele>164.28571428571428</ele><time>2026-05-03T09:11:21.392Z</time></trkpt><trkpt lat="43.4240212" lon="11.1834496"><ele>166.0</ele><time>2026-05-03T09:11:25.396Z</time></trkpt><trkpt lat="43.4239509" lon="11.1834415"><ele>166.0</ele><time>2026-05-03T09:11:29.394Z</time></trkpt><trkpt lat="43.4238769" lon="11.1834415"><ele>166.0</ele><time>2026-05-03T09:11:32.401Z</time></trkpt><trkpt lat="43.4237961" lon="11.1834303"><ele>166.0</ele><time>2026-05-03T09:11:36.393Z</time></trkpt><trkpt lat="43.4237212" lon="11.1834047"><ele>166.0</ele><time>2026-05-03T09:11:40.399Z</time></trkpt><trkpt lat="43.4236434" lon="11.183378"><ele>166.0</ele><time>2026-05-03T09:11:44.4Z</time></trkpt><trkpt lat="43.4235838" lon="11.1833498"><ele>166.0</ele><time>2026-05-03T09:11:47.398Z</time></trkpt><trkpt lat="43.4235142" lon="11.1833347"><ele>166.0</ele><time>2026-05-03T09:11:52.404Z</time></trkpt><trkpt lat="43.4234453" lon="11.1833212"><ele>166.42857142857142</ele><time>2026-05-03T09:11:55.394Z</time></trkpt><trkpt lat="43.4233697" lon="11.1833159"><ele>166.85714285714286</ele><time>2026-05-03T09:11:58.419Z</time></trkpt><trkpt lat="43.4233019" lon="11.1833145"><ele>167.28571428571428</ele><time>2026-05-03T09:12:01.395Z</time></trkpt><trkpt lat="43.4232329" lon="11.1833181"><ele>167.71428571428572</ele><time>2026-05-03T09:12:04.389Z</time></trkpt><trkpt lat="43.4231655" lon="11.1833027"><ele>168.14285714285714</ele><time>2026-05-03T09:12:07.382Z</time></trkpt><trkpt lat="43.4230952" lon="11.183291"><ele>168.57142857142858</ele><time>2026-05-03T09:12:10.394Z</time></trkpt><trkpt lat="43.4230246" lon="11.183288"><ele>169.0</ele><time>2026-05-03T09:12:13.402Z</time></trkpt><trkpt lat="43.4229532" lon="11.1832883"><ele>169.28571428571428</ele><time>2026-05-03T09:12:16.41Z</time></trkpt><trkpt lat="43.4228823" lon="11.1832907"><ele>169.57142857142856</ele><time>2026-05-03T09:12:19.4Z</time></trkpt><trkpt lat="43.4228077" lon="11.1832904"><ele>169.85714285714283</ele><time>2026-05-03T09:12:22.422Z</time></trkpt><trkpt lat="43.4227423" lon="11.1833134"><ele>170.14285714285714</ele><time>2026-05-03T09:12:25.391Z</time></trkpt><trkpt lat="43.4226752" lon="11.1833602"><ele>170.42857142857142</ele><time>2026-05-03T09:12:28.404Z</time></trkpt><trkpt lat="43.4226123" lon="11.1834063"><ele>170.7142857142857</ele><time>2026-05-03T09:12:31.406Z</time></trkpt><trkpt lat="43.422547" lon="11.1834647"><ele>171.0</ele><time>2026-05-03T09:12:34.42Z</time></trkpt><trkpt lat="43.4224956" lon="11.1835262"><ele>171.0</ele><time>2026-05-03T09:12:37.398Z</time></trkpt><trkpt lat="43.4224352" lon="11.1835727"><ele>171.0</ele><time>2026-05-03T09:12:40.405Z</time></trkpt><trkpt lat="43.4223755" lon="11.1836263"><ele>171.0</ele><time>2026-05-03T09:12:43.39Z</time></trkpt><trkpt lat="43.4223022" lon="11.1836711"><ele>171.0</ele><time>2026-05-03T09:12:46.413Z</time></trkpt><trkpt lat="43.4222374" lon="11.1837294"><ele>171.0</ele><time>2026-05-03T09:12:49.416Z</time></trkpt><trkpt lat="43.422175" lon="11.1837983"><ele>171.0</ele><time>2026-05-03T09:12:52.399Z</time></trkpt><trkpt lat="43.4221121" lon="11.1838665"><ele>171.66666666666666</ele><time>2026-05-03T09:12:55.407Z</time></trkpt><trkpt lat="43.422052" lon="11.1839126"><ele>172.33333333333334</ele><time>2026-05-03T09:12:58.402Z</time></trkpt><trkpt lat="43.4219912" lon="11.18385"><ele>173.0</ele><time>2026-05-03T09:13:03.403Z</time></trkpt><trkpt lat="43.4219634" lon="11.1837576"><ele>173.66666666666669</ele><time>2026-05-03T09:13:06.406Z</time></trkpt><trkpt lat="43.421934" lon="11.1836615"><ele>174.33333333333334</ele><time>2026-05-03T09:13:09.397Z</time></trkpt><trkpt lat="43.421907" lon="11.1835497"><ele>175.0</ele><time>2026-05-03T09:13:12.393Z</time></trkpt><trkpt lat="43.421874" lon="11.1834404"><ele>175.0</ele><time>2026-05-03T09:13:15.42Z</time></trkpt><trkpt lat="43.4218372" lon="11.1833323"><ele>175.0</ele><time>2026-05-03T09:13:18.402Z</time></trkpt><trkpt lat="43.4218069" lon="11.1832447"><ele>175.0</ele><time>2026-05-03T09:13:21.393Z</time></trkpt><trkpt lat="43.4218156" lon="11.1831388"><ele>175.0</ele><time>2026-05-03T09:13:24.399Z</time></trkpt><trkpt lat="43.4218604" lon="11.1830739"><ele>175.0</ele><time>2026-05-03T09:13:26.419Z</time></trkpt><trkpt lat="43.421922" lon="11.1830066"><ele>175.0</ele><time>2026-05-03T09:13:28.394Z</time></trkpt><trkpt lat="43.4219942" lon="11.1829454"><ele>175.0</ele><time>2026-05-03T09:13:30.415Z</time></trkpt><trkpt lat="43.4220768" lon="11.182878"><ele>175.0</ele><time>2026-05-03T09:13:32.401Z</time></trkpt><trkpt lat="43.4221578" lon="11.1827942"><ele>175.0</ele><time>2026-05-03T09:13:34.412Z</time></trkpt><trkpt lat="43.4222411" lon="11.1827191"><ele>175.0</ele><time>2026-05-03T09:13:36.393Z</time></trkpt><trkpt lat="43.4222824" lon="11.1826153"><ele>175.0</ele><time>2026-05-03T09:13:38.411Z</time></trkpt><trkpt lat="43.4222515" lon="11.1824696"><ele>175.0</ele><time>2026-05-03T09:13:40.413Z</time></trkpt><trkpt lat="43.4222105" lon="11.1823598"><ele>175.0</ele><time>2026-05-03T09:13:42.403Z</time></trkpt><trkpt lat="43.422162" lon="11.1822576"><ele>175.0</ele><time>2026-05-03T09:13:44.398Z</time></trkpt><trkpt lat="43.4221142" lon="11.1821572"><ele>175.0</ele><time>2026-05-03T09:13:46.386Z</time></trkpt><trkpt lat="43.4220611" lon="11.1820537"><ele>175.0</ele><time>2026-05-03T09:13:48.392Z</time></trkpt><trkpt lat="43.4220087" lon="11.1819493"><ele>175.0</ele><time>2026-05-03T09:13:50.396Z</time></trkpt><trkpt lat="43.4219653" lon="11.1818485"><ele>175.0</ele><time>2026-05-03T09:13:52.385Z</time></trkpt><trkpt lat="43.4219294" lon="11.1817434"><ele>175.0</ele><time>2026-05-03T09:13:54.401Z</time></trkpt><trkpt lat="43.4218986" lon="11.1816415"><ele>175.0</ele><time>2026-05-03T09:13:56.413Z</time></trkpt><trkpt lat="43.4218642" lon="11.1815381"><ele>175.0</ele><time>2026-05-03T09:13:58.395Z</time></trkpt><trkpt lat="43.4218254" lon="11.181442"><ele>175.0</ele><time>2026-05-03T09:14:00.404Z</time></trkpt><trkpt lat="43.4217896" lon="11.1813498"><ele>174.83333333333334</ele><time>2026-05-03T09:14:02.406Z</time></trkpt><trkpt lat="43.4217598" lon="11.1812657"><ele>174.66666666666669</ele><time>2026-05-03T09:14:04.401Z</time></trkpt><trkpt lat="43.4217354" lon="11.1811837"><ele>174.5</ele><time>2026-05-03T09:14:06.397Z</time></trkpt><trkpt lat="43.4216977" lon="11.1810691"><ele>174.33333333333334</ele><time>2026-05-03T09:14:09.393Z</time></trkpt><trkpt lat="43.421661" lon="11.1809587"><ele>174.16666666666666</ele><time>2026-05-03T09:14:12.412Z</time></trkpt><trkpt lat="43.4216347" lon="11.1808457"><ele>174.0</ele><time>2026-05-03T09:14:15.418Z</time></trkpt><trkpt lat="43.4216256" lon="11.1807567"><ele>173.83333333333334</ele><time>2026-05-03T09:14:18.398Z</time></trkpt><trkpt lat="43.4216829" lon="11.1806754"><ele>173.66666666666666</ele><time>2026-05-03T09:14:21.393Z</time></trkpt><trkpt lat="43.42176" lon="11.1806206"><ele>173.5</ele><time>2026-05-03T09:14:24.4Z</time></trkpt><trkpt lat="43.4218333" lon="11.1805651"><ele>173.33333333333331</ele><time>2026-05-03T09:14:27.393Z</time></trkpt><trkpt lat="43.4218976" lon="11.1805162"><ele>173.16666666666666</ele><time>2026-05-03T09:14:30.397Z</time></trkpt><trkpt lat="43.4219646" lon="11.1804529"><ele>173.0</ele><time>2026-05-03T09:14:33.416Z</time></trkpt><trkpt lat="43.4220339" lon="11.1803853"><ele>173.0</ele><time>2026-05-03T09:14:36.402Z</time></trkpt><trkpt lat="43.4220931" lon="11.1803518"><ele>173.0</ele><time>2026-05-03T09:14:39.413Z</time></trkpt><trkpt lat="43.4221035" lon="11.1804618"><ele>173.0</ele><time>2026-05-03T09:14:43.415Z</time></trkpt><trkpt lat="43.4221155" lon="11.1805559"><ele>173.0</ele><time>2026-05-03T09:14:46.401Z</time></trkpt><trkpt lat="43.4221388" lon="11.180676"><ele>173.0</ele><time>2026-05-03T09:14:49.4Z</time></trkpt><trkpt lat="43.4221669" lon="11.1807764"><ele>173.0</ele><time>2026-05-03T09:14:51.4Z</time></trkpt><trkpt lat="43.4222015" lon="11.1808925"><ele>170.0</ele><time>2026-05-03T09:14:53.405Z</time></trkpt><trkpt lat="43.4222108" lon="11.1810001"><ele>170.0</ele><time>2026-05-03T09:14:55.396Z</time></trkpt><trkpt lat="43.4222107" lon="11.1810871"><ele>170.0</ele><time>2026-05-03T09:14:57.399Z</time></trkpt><trkpt lat="43.4221837" lon="11.1811796"><ele>170.0</ele><time>2026-05-03T09:15:00.394Z</time></trkpt><trkpt lat="43.4221207" lon="11.1812206"><ele>174.0</ele><time>2026-05-03T09:15:03.408Z</time></trkpt><trkpt lat="43.4220574" lon="11.1812133"><ele>174.0</ele><time>2026-05-03T09:15:43.412Z</time></trkpt><trkpt lat="43.4219953" lon="11.1812304"><ele>174.0</ele><time>2026-05-03T09:16:28.393Z</time></trkpt></trkseg></trk></gpx>